<?xml version="1.0" encoding="UTF-8" standalone="no" ?><gpx xmlns="http://www.topografix.com/GPX/1/1" xmlns:gpxx="http://www.garmin.com/xmlschemas/GpxExtensions/v3" xmlns:wptx1="http://www.garmin.com/xmlschemas/WaypointExtension/v1" xmlns:gpxtpx="http://www.garmin.com/xmlschemas/TrackPointExtension/v1" creator="GuideVTT.com" version="1.1" xmlns:xsi="http://www.w3.org/2001/XMLSchema-instance" xsi:schemaLocation="http://www.topografix.com/GPX/1/1 http://www.topografix.com/GPX/1/1/gpx.xsd http://www.garmin.com/xmlschemas/GpxExtensions/v3 http://www8.garmin.com/xmlschemas/GpxExtensionsv3.xsd http://www.garmin.com/xmlschemas/WaypointExtension/v1 http://www8.garmin.com/xmlschemas/WaypointExtensionv1.xsd http://www.garmin.com/xmlschemas/TrackPointExtension/v1 http://www.garmin.com/xmlschemas/TrackPointExtensionv1.xsd">
<metadata><link href="http://www.garmin.com"><text>Garmin International</text></link><time>2013-06-22T15:13:50Z</time></metadata>
<trk><name>2018-12-02_0929__20181202_0929.gpx</name><extensions><gpxx:TrackExtension><gpxx:DisplayColor>Cyan</gpxx:DisplayColor></gpxx:TrackExtension></extensions><trkseg>
<trkpt lat="49.1253382" lon="2.6931513"><ele>76.73</ele><time>2026-4-28T17:38:31Z</time></trkpt>
<trkpt lat="49.1252783" lon="2.6931883"><ele>74.51</ele><time>2026-4-28T17:38:34Z</time></trkpt>
<trkpt lat="49.1253317" lon="2.6931446"><ele>75.51</ele><time>2026-4-28T17:38:37Z</time></trkpt>
<trkpt lat="49.1253662" lon="2.6931952"><ele>77.70</ele><time>2026-4-28T17:38:40Z</time></trkpt>
<trkpt lat="49.1254174" lon="2.6932000"><ele>78.52</ele><time>2026-4-28T17:38:43Z</time></trkpt>
<trkpt lat="49.1254685" lon="2.6932114"><ele>78.60</ele><time>2026-4-28T17:38:46Z</time></trkpt>
<trkpt lat="49.1255230" lon="2.6932137"><ele>78.61</ele><time>2026-4-28T17:38:49Z</time></trkpt>
<trkpt lat="49.1255718" lon="2.6932152"><ele>79.52</ele><time>2026-4-28T17:38:52Z</time></trkpt>
<trkpt lat="49.1256214" lon="2.6931826"><ele>79.55</ele><time>2026-4-28T17:38:55Z</time></trkpt>
<trkpt lat="49.1256187" lon="2.6931065"><ele>77.64</ele><time>2026-4-28T17:38:58Z</time></trkpt>
<trkpt lat="49.1256164" lon="2.6930323"><ele>77.61</ele><time>2026-4-28T17:39:1Z</time></trkpt>
<trkpt lat="49.1256188" lon="2.6929399"><ele>77.61</ele><time>2026-4-28T17:39:4Z</time></trkpt>
<trkpt lat="49.1256134" lon="2.6928621"><ele>77.61</ele><time>2026-4-28T17:39:7Z</time></trkpt>
<trkpt lat="49.1255995" lon="2.6927850"><ele>78.31</ele><time>2026-4-28T17:39:10Z</time></trkpt>
<trkpt lat="49.1255873" lon="2.6926979"><ele>78.58</ele><time>2026-4-28T17:39:13Z</time></trkpt>
<trkpt lat="49.1255904" lon="2.6925996"><ele>77.70</ele><time>2026-4-28T17:39:16Z</time></trkpt>
<trkpt lat="49.1256008" lon="2.6924991"><ele>77.62</ele><time>2026-4-28T17:39:19Z</time></trkpt>
<trkpt lat="49.1256198" lon="2.6923903"><ele>77.82</ele><time>2026-4-28T17:39:22Z</time></trkpt>
<trkpt lat="49.1256628" lon="2.6922825"><ele>77.63</ele><time>2026-4-28T17:39:25Z</time></trkpt>
<trkpt lat="49.1256978" lon="2.6922334"><ele>76.92</ele><time>2026-4-28T17:39:28Z</time></trkpt>
<trkpt lat="49.1257372" lon="2.6921882"><ele>76.00</ele><time>2026-4-28T17:39:31Z</time></trkpt>
<trkpt lat="49.1257745" lon="2.6921334"><ele>75.73</ele><time>2026-4-28T17:39:34Z</time></trkpt>
<trkpt lat="49.1258125" lon="2.6920748"><ele>75.65</ele><time>2026-4-28T17:39:37Z</time></trkpt>
<trkpt lat="49.1258528" lon="2.6920230"><ele>75.62</ele><time>2026-4-28T17:39:40Z</time></trkpt>
<trkpt lat="49.1258944" lon="2.6919664"><ele>76.31</ele><time>2026-4-28T17:39:43Z</time></trkpt>
<trkpt lat="49.1259319" lon="2.6919127"><ele>76.52</ele><time>2026-4-28T17:39:46Z</time></trkpt>
<trkpt lat="49.1259693" lon="2.6918597"><ele>76.58</ele><time>2026-4-28T17:39:49Z</time></trkpt>
<trkpt lat="49.1260062" lon="2.6918049"><ele>76.60</ele><time>2026-4-28T17:39:52Z</time></trkpt>
<trkpt lat="49.1260412" lon="2.6917561"><ele>76.61</ele><time>2026-4-28T17:39:55Z</time></trkpt>
<trkpt lat="49.1260803" lon="2.6917097"><ele>76.61</ele><time>2026-4-28T17:39:58Z</time></trkpt>
<trkpt lat="49.1261595" lon="2.6916473"><ele>75.91</ele><time>2026-4-28T17:40:1Z</time></trkpt>
<trkpt lat="49.1262228" lon="2.6915779"><ele>75.64</ele><time>2026-4-28T17:40:4Z</time></trkpt>
<trkpt lat="49.1262782" lon="2.6915201"><ele>75.61</ele><time>2026-4-28T17:40:7Z</time></trkpt>
<trkpt lat="49.1263335" lon="2.6914708"><ele>75.61</ele><time>2026-4-28T17:40:10Z</time></trkpt>
<trkpt lat="49.1263874" lon="2.6914258"><ele>75.61</ele><time>2026-4-28T17:40:13Z</time></trkpt>
<trkpt lat="49.1264341" lon="2.6913640"><ele>74.91</ele><time>2026-4-28T17:40:16Z</time></trkpt>
<trkpt lat="49.1264826" lon="2.6913062"><ele>75.55</ele><time>2026-4-28T17:40:19Z</time></trkpt>
<trkpt lat="49.1265209" lon="2.6912284"><ele>74.91</ele><time>2026-4-28T17:40:22Z</time></trkpt>
<trkpt lat="49.1265585" lon="2.6911176"><ele>75.34</ele><time>2026-4-28T17:40:25Z</time></trkpt>
<trkpt lat="49.1266041" lon="2.6910076"><ele>73.98</ele><time>2026-4-28T17:40:28Z</time></trkpt>
<trkpt lat="49.1266565" lon="2.6908991"><ele>73.64</ele><time>2026-4-28T17:40:31Z</time></trkpt>
<trkpt lat="49.1267172" lon="2.6908078"><ele>72.91</ele><time>2026-4-28T17:40:34Z</time></trkpt>
<trkpt lat="49.1267752" lon="2.6907334"><ele>73.34</ele><time>2026-4-28T17:40:37Z</time></trkpt>
<trkpt lat="49.1268326" lon="2.6906859"><ele>72.68</ele><time>2026-4-28T17:40:40Z</time></trkpt>
<trkpt lat="49.1268847" lon="2.6906496"><ele>72.62</ele><time>2026-4-28T17:40:43Z</time></trkpt>
<trkpt lat="49.1269388" lon="2.6906110"><ele>72.61</ele><time>2026-4-28T17:40:46Z</time></trkpt>
<trkpt lat="49.1269927" lon="2.6905773"><ele>72.61</ele><time>2026-4-28T17:40:49Z</time></trkpt>
<trkpt lat="49.1270461" lon="2.6905404"><ele>72.61</ele><time>2026-4-28T17:40:52Z</time></trkpt>
<trkpt lat="49.1270946" lon="2.6905180"><ele>71.70</ele><time>2026-4-28T17:40:55Z</time></trkpt>
<trkpt lat="49.1271561" lon="2.6904888"><ele>71.61</ele><time>2026-4-28T17:40:58Z</time></trkpt>
<trkpt lat="49.1272001" lon="2.6904613"><ele>71.61</ele><time>2026-4-28T17:41:1Z</time></trkpt>
<trkpt lat="49.1272498" lon="2.6904306"><ele>70.91</ele><time>2026-4-28T17:41:4Z</time></trkpt>
<trkpt lat="49.1272988" lon="2.6903983"><ele>71.34</ele><time>2026-4-28T17:41:7Z</time></trkpt>
<trkpt lat="49.1273531" lon="2.6903563"><ele>71.59</ele><time>2026-4-28T17:41:10Z</time></trkpt>
<trkpt lat="49.1274117" lon="2.6903103"><ele>71.61</ele><time>2026-4-28T17:41:13Z</time></trkpt>
<trkpt lat="49.1274572" lon="2.6902422"><ele>71.61</ele><time>2026-4-28T17:41:16Z</time></trkpt>
<trkpt lat="49.1274621" lon="2.6901425"><ele>70.70</ele><time>2026-4-28T17:41:19Z</time></trkpt>
<trkpt lat="49.1274518" lon="2.6900396"><ele>70.62</ele><time>2026-4-28T17:41:22Z</time></trkpt>
<trkpt lat="49.1274445" lon="2.6899476"><ele>70.61</ele><time>2026-4-28T17:41:25Z</time></trkpt>
<trkpt lat="49.1274357" lon="2.6898651"><ele>70.61</ele><time>2026-4-28T17:41:28Z</time></trkpt>
<trkpt lat="49.1274305" lon="2.6897717"><ele>70.61</ele><time>2026-4-28T17:41:31Z</time></trkpt>
<trkpt lat="49.1274318" lon="2.6896854"><ele>71.52</ele><time>2026-4-28T17:41:34Z</time></trkpt>
<trkpt lat="49.1274554" lon="2.6896126"><ele>71.60</ele><time>2026-4-28T17:41:37Z</time></trkpt>
<trkpt lat="49.1274891" lon="2.6895445"><ele>71.61</ele><time>2026-4-28T17:41:40Z</time></trkpt>
<trkpt lat="49.1275242" lon="2.6894756"><ele>72.52</ele><time>2026-4-28T17:41:43Z</time></trkpt>
<trkpt lat="49.1275544" lon="2.6894030"><ele>72.60</ele><time>2026-4-28T17:41:46Z</time></trkpt>
<trkpt lat="49.1275713" lon="2.6893183"><ele>73.31</ele><time>2026-4-28T17:41:49Z</time></trkpt>
<trkpt lat="49.1275904" lon="2.6892377"><ele>73.58</ele><time>2026-4-28T17:41:52Z</time></trkpt>
<trkpt lat="49.1276032" lon="2.6891714"><ele>74.52</ele><time>2026-4-28T17:41:55Z</time></trkpt>
<trkpt lat="49.1276038" lon="2.6890989"><ele>75.30</ele><time>2026-4-28T17:41:58Z</time></trkpt>
<trkpt lat="49.1276180" lon="2.6889976"><ele>75.60</ele><time>2026-4-28T17:42:1Z</time></trkpt>
<trkpt lat="49.1276367" lon="2.6889333"><ele>75.61</ele><time>2026-4-28T17:42:4Z</time></trkpt>
<trkpt lat="49.1276655" lon="2.6888380"><ele>75.61</ele><time>2026-4-28T17:42:7Z</time></trkpt>
<trkpt lat="49.1276998" lon="2.6887617"><ele>76.52</ele><time>2026-4-28T17:42:10Z</time></trkpt>
<trkpt lat="49.1277214" lon="2.6886976"><ele>77.30</ele><time>2026-4-28T17:42:13Z</time></trkpt>
<trkpt lat="49.1277385" lon="2.6886314"><ele>77.37</ele><time>2026-4-28T17:42:16Z</time></trkpt>
<trkpt lat="49.1277592" lon="2.6885574"><ele>77.59</ele><time>2026-4-28T17:42:19Z</time></trkpt>
<trkpt lat="49.1277927" lon="2.6884666"><ele>77.61</ele><time>2026-4-28T17:42:22Z</time></trkpt>
<trkpt lat="49.1278133" lon="2.6883991"><ele>77.61</ele><time>2026-4-28T17:42:25Z</time></trkpt>
<trkpt lat="49.1278322" lon="2.6883260"><ele>77.61</ele><time>2026-4-28T17:42:28Z</time></trkpt>
<trkpt lat="49.1278470" lon="2.6882484"><ele>77.61</ele><time>2026-4-28T17:42:31Z</time></trkpt>
<trkpt lat="49.1278591" lon="2.6881767"><ele>78.52</ele><time>2026-4-28T17:42:34Z</time></trkpt>
<trkpt lat="49.1278725" lon="2.6881104"><ele>78.60</ele><time>2026-4-28T17:42:37Z</time></trkpt>
<trkpt lat="49.1279038" lon="2.6880306"><ele>79.58</ele><time>2026-4-28T17:42:40Z</time></trkpt>
<trkpt lat="49.1279209" lon="2.6879541"><ele>81.28</ele><time>2026-4-28T17:42:43Z</time></trkpt>
<trkpt lat="49.1278816" lon="2.6880074"><ele>81.54</ele><time>2026-4-28T17:42:46Z</time></trkpt>
<trkpt lat="49.1278811" lon="2.6881001"><ele>82.51</ele><time>2026-4-28T17:42:49Z</time></trkpt>
<trkpt lat="49.1278720" lon="2.6882012"><ele>82.60</ele><time>2026-4-28T17:42:52Z</time></trkpt>
<trkpt lat="49.1278549" lon="2.6883177"><ele>83.52</ele><time>2026-4-28T17:42:55Z</time></trkpt>
<trkpt lat="49.1278351" lon="2.6884303"><ele>82.90</ele><time>2026-4-28T17:42:58Z</time></trkpt>
<trkpt lat="49.1278165" lon="2.6885081"><ele>82.64</ele><time>2026-4-28T17:43:1Z</time></trkpt>
<trkpt lat="49.1277846" lon="2.6885683"><ele>83.52</ele><time>2026-4-28T17:43:4Z</time></trkpt>
<trkpt lat="49.1277451" lon="2.6885340"><ele>82.63</ele><time>2026-4-28T17:43:7Z</time></trkpt>
<trkpt lat="49.1277581" lon="2.6884680"><ele>83.52</ele><time>2026-4-28T17:43:10Z</time></trkpt>
<trkpt lat="49.1277750" lon="2.6883860"><ele>84.58</ele><time>2026-4-28T17:43:13Z</time></trkpt>
<trkpt lat="49.1277999" lon="2.6883024"><ele>85.52</ele><time>2026-4-28T17:43:16Z</time></trkpt>
<trkpt lat="49.1278191" lon="2.6882219"><ele>86.31</ele><time>2026-4-28T17:43:19Z</time></trkpt>
<trkpt lat="49.1278440" lon="2.6881392"><ele>87.51</ele><time>2026-4-28T17:43:22Z</time></trkpt>
<trkpt lat="49.1278558" lon="2.6880702"><ele>88.51</ele><time>2026-4-28T17:43:25Z</time></trkpt>
<trkpt lat="49.1278793" lon="2.6879930"><ele>89.31</ele><time>2026-4-28T17:43:28Z</time></trkpt>
<trkpt lat="49.1279021" lon="2.6879173"><ele>90.30</ele><time>2026-4-28T17:43:31Z</time></trkpt>
<trkpt lat="49.1279226" lon="2.6878376"><ele>90.60</ele><time>2026-4-28T17:43:34Z</time></trkpt>
<trkpt lat="49.1279366" lon="2.6877650"><ele>91.58</ele><time>2026-4-28T17:43:37Z</time></trkpt>
<trkpt lat="49.1279401" lon="2.6876939"><ele>92.59</ele><time>2026-4-28T17:43:40Z</time></trkpt>
<trkpt lat="49.1279500" lon="2.6875997"><ele>93.60</ele><time>2026-4-28T17:43:43Z</time></trkpt>
<trkpt lat="49.1279696" lon="2.6875102"><ele>94.31</ele><time>2026-4-28T17:43:46Z</time></trkpt>
<trkpt lat="49.1279815" lon="2.6874361"><ele>94.58</ele><time>2026-4-28T17:43:49Z</time></trkpt>
<trkpt lat="49.1279963" lon="2.6873650"><ele>95.52</ele><time>2026-4-28T17:43:52Z</time></trkpt>
<trkpt lat="49.1280096" lon="2.6872900"><ele>96.51</ele><time>2026-4-28T17:43:55Z</time></trkpt>
<trkpt lat="49.1280278" lon="2.6872252"><ele>96.60</ele><time>2026-4-28T17:43:58Z</time></trkpt>
<trkpt lat="49.1280434" lon="2.6871390"><ele>96.61</ele><time>2026-4-28T17:44:1Z</time></trkpt>
<trkpt lat="49.1280535" lon="2.6870642"><ele>96.61</ele><time>2026-4-28T17:44:4Z</time></trkpt>
<trkpt lat="49.1280687" lon="2.6869907"><ele>96.61</ele><time>2026-4-28T17:44:7Z</time></trkpt>
<trkpt lat="49.1280814" lon="2.6869122"><ele>96.61</ele><time>2026-4-28T17:44:10Z</time></trkpt>
<trkpt lat="49.1280905" lon="2.6868405"><ele>97.52</ele><time>2026-4-28T17:44:13Z</time></trkpt>
<trkpt lat="49.1280998" lon="2.6867404"><ele>98.31</ele><time>2026-4-28T17:44:16Z</time></trkpt>
<trkpt lat="49.1281133" lon="2.6866652"><ele>98.58</ele><time>2026-4-28T17:44:19Z</time></trkpt>
<trkpt lat="49.1281317" lon="2.6865963"><ele>98.61</ele><time>2026-4-28T17:44:22Z</time></trkpt>
<trkpt lat="49.1281440" lon="2.6865237"><ele>98.61</ele><time>2026-4-28T17:44:25Z</time></trkpt>
<trkpt lat="49.1281607" lon="2.6864502"><ele>98.61</ele><time>2026-4-28T17:44:28Z</time></trkpt>
<trkpt lat="49.1281740" lon="2.6863789"><ele>98.61</ele><time>2026-4-28T17:44:31Z</time></trkpt>
<trkpt lat="49.1281884" lon="2.6863050"><ele>97.91</ele><time>2026-4-28T17:44:34Z</time></trkpt>
<trkpt lat="49.1282013" lon="2.6862334"><ele>98.55</ele><time>2026-4-28T17:44:37Z</time></trkpt>
<trkpt lat="49.1282081" lon="2.6861571"><ele>98.61</ele><time>2026-4-28T17:44:40Z</time></trkpt>
<trkpt lat="49.1282145" lon="2.6860876"><ele>98.61</ele><time>2026-4-28T17:44:43Z</time></trkpt>
<trkpt lat="49.1282044" lon="2.6860084"><ele>98.61</ele><time>2026-4-28T17:44:46Z</time></trkpt>
<trkpt lat="49.1282053" lon="2.6859392"><ele>97.64</ele><time>2026-4-28T17:44:49Z</time></trkpt>
<trkpt lat="49.1282121" lon="2.6858519"><ele>97.61</ele><time>2026-4-28T17:44:52Z</time></trkpt>
<trkpt lat="49.1282228" lon="2.6857621"><ele>96.70</ele><time>2026-4-28T17:44:55Z</time></trkpt>
<trkpt lat="49.1281954" lon="2.6856686"><ele>98.30</ele><time>2026-4-28T17:44:58Z</time></trkpt>
<trkpt lat="49.1281495" lon="2.6855890"><ele>98.58</ele><time>2026-4-28T17:45:1Z</time></trkpt>
<trkpt lat="49.1281274" lon="2.6854937"><ele>98.61</ele><time>2026-4-28T17:45:4Z</time></trkpt>
<trkpt lat="49.1281134" lon="2.6853982"><ele>99.31</ele><time>2026-4-28T17:45:7Z</time></trkpt>
<trkpt lat="49.1280987" lon="2.6852962"><ele>99.58</ele><time>2026-4-28T17:45:10Z</time></trkpt>
<trkpt lat="49.1280813" lon="2.6851964"><ele>99.61</ele><time>2026-4-28T17:45:13Z</time></trkpt>
<trkpt lat="49.1280760" lon="2.6850952"><ele>99.82</ele><time>2026-4-28T17:45:16Z</time></trkpt>
<trkpt lat="49.1280691" lon="2.6850025"><ele>100.54</ele><time>2026-4-28T17:45:19Z</time></trkpt>
<trkpt lat="49.1280621" lon="2.6849064"><ele>101.51</ele><time>2026-4-28T17:45:22Z</time></trkpt>
<trkpt lat="49.1280568" lon="2.6848065"><ele>101.60</ele><time>2026-4-28T17:45:25Z</time></trkpt>
<trkpt lat="49.1280580" lon="2.6847093"><ele>101.61</ele><time>2026-4-28T17:45:28Z</time></trkpt>
<trkpt lat="49.1280638" lon="2.6846099"><ele>101.61</ele><time>2026-4-28T17:45:31Z</time></trkpt>
<trkpt lat="49.1280549" lon="2.6845113"><ele>102.31</ele><time>2026-4-28T17:45:34Z</time></trkpt>
<trkpt lat="49.1280569" lon="2.6844021"><ele>102.58</ele><time>2026-4-28T17:45:37Z</time></trkpt>
<trkpt lat="49.1280588" lon="2.6843125"><ele>102.61</ele><time>2026-4-28T17:45:40Z</time></trkpt>
<trkpt lat="49.1280290" lon="2.6842445"><ele>102.61</ele><time>2026-4-28T17:45:43Z</time></trkpt>
<trkpt lat="49.1279815" lon="2.6842322"><ele>102.61</ele><time>2026-4-28T17:45:46Z</time></trkpt>
<trkpt lat="49.1279167" lon="2.6842512"><ele>101.70</ele><time>2026-4-28T17:45:49Z</time></trkpt>
<trkpt lat="49.1278628" lon="2.6842936"><ele>100.71</ele><time>2026-4-28T17:45:52Z</time></trkpt>
<trkpt lat="49.1278177" lon="2.6843285"><ele>99.92</ele><time>2026-4-28T17:45:55Z</time></trkpt>
<trkpt lat="49.1277586" lon="2.6843443"><ele>99.64</ele><time>2026-4-28T17:45:58Z</time></trkpt>
<trkpt lat="49.1276979" lon="2.6843631"><ele>98.70</ele><time>2026-4-28T17:46:1Z</time></trkpt>
<trkpt lat="49.1276458" lon="2.6843910"><ele>98.62</ele><time>2026-4-28T17:46:4Z</time></trkpt>
<trkpt lat="49.1275858" lon="2.6844251"><ele>97.91</ele><time>2026-4-28T17:46:7Z</time></trkpt>
<trkpt lat="49.1275389" lon="2.6844422"><ele>97.64</ele><time>2026-4-28T17:46:10Z</time></trkpt>
<trkpt lat="49.1274858" lon="2.6844642"><ele>97.61</ele><time>2026-4-28T17:46:13Z</time></trkpt>
<trkpt lat="49.1274322" lon="2.6844889"><ele>96.91</ele><time>2026-4-28T17:46:16Z</time></trkpt>
<trkpt lat="49.1273782" lon="2.6845152"><ele>96.64</ele><time>2026-4-28T17:46:19Z</time></trkpt>
<trkpt lat="49.1273281" lon="2.6845377"><ele>96.61</ele><time>2026-4-28T17:46:22Z</time></trkpt>
<trkpt lat="49.1272766" lon="2.6845555"><ele>96.61</ele><time>2026-4-28T17:46:25Z</time></trkpt>
<trkpt lat="49.1272287" lon="2.6845715"><ele>97.31</ele><time>2026-4-28T17:46:28Z</time></trkpt>
<trkpt lat="49.1271638" lon="2.6846021"><ele>96.69</ele><time>2026-4-28T17:46:31Z</time></trkpt>
<trkpt lat="49.1271195" lon="2.6846237"><ele>96.62</ele><time>2026-4-28T17:46:34Z</time></trkpt>
<trkpt lat="49.1270716" lon="2.6846510"><ele>95.70</ele><time>2026-4-28T17:46:37Z</time></trkpt>
<trkpt lat="49.1270189" lon="2.6846668"><ele>95.62</ele><time>2026-4-28T17:46:40Z</time></trkpt>
<trkpt lat="49.1269753" lon="2.6846869"><ele>95.61</ele><time>2026-4-28T17:46:43Z</time></trkpt>
<trkpt lat="49.1269301" lon="2.6847062"><ele>95.61</ele><time>2026-4-28T17:46:46Z</time></trkpt>
<trkpt lat="49.1268694" lon="2.6847414"><ele>95.61</ele><time>2026-4-28T17:46:49Z</time></trkpt>
<trkpt lat="49.1268026" lon="2.6847714"><ele>96.58</ele><time>2026-4-28T17:46:52Z</time></trkpt>
<trkpt lat="49.1267553" lon="2.6847945"><ele>95.70</ele><time>2026-4-28T17:46:55Z</time></trkpt>
<trkpt lat="49.1267053" lon="2.6848148"><ele>95.62</ele><time>2026-4-28T17:46:58Z</time></trkpt>
<trkpt lat="49.1266496" lon="2.6848419"><ele>95.61</ele><time>2026-4-28T17:47:1Z</time></trkpt>
<trkpt lat="49.1265860" lon="2.6848632"><ele>95.61</ele><time>2026-4-28T17:47:4Z</time></trkpt>
<trkpt lat="49.1265210" lon="2.6848901"><ele>94.70</ele><time>2026-4-28T17:47:7Z</time></trkpt>
<trkpt lat="49.1264597" lon="2.6849161"><ele>94.62</ele><time>2026-4-28T17:47:10Z</time></trkpt>
<trkpt lat="49.1264022" lon="2.6849470"><ele>94.61</ele><time>2026-4-28T17:47:13Z</time></trkpt>
<trkpt lat="49.1263470" lon="2.6849731"><ele>93.91</ele><time>2026-4-28T17:47:16Z</time></trkpt>
<trkpt lat="49.1262917" lon="2.6850066"><ele>93.64</ele><time>2026-4-28T17:47:19Z</time></trkpt>
<trkpt lat="49.1262341" lon="2.6850373"><ele>93.61</ele><time>2026-4-28T17:47:22Z</time></trkpt>
<trkpt lat="49.1261806" lon="2.6850626"><ele>93.61</ele><time>2026-4-28T17:47:25Z</time></trkpt>
<trkpt lat="49.1261270" lon="2.6850879"><ele>93.61</ele><time>2026-4-28T17:47:28Z</time></trkpt>
<trkpt lat="49.1260778" lon="2.6851090"><ele>93.61</ele><time>2026-4-28T17:47:31Z</time></trkpt>
<trkpt lat="49.1260296" lon="2.6851319"><ele>94.52</ele><time>2026-4-28T17:47:34Z</time></trkpt>
<trkpt lat="49.1259849" lon="2.6851499"><ele>94.60</ele><time>2026-4-28T17:47:37Z</time></trkpt>
<trkpt lat="49.1259176" lon="2.6851856"><ele>95.31</ele><time>2026-4-28T17:47:40Z</time></trkpt>
<trkpt lat="49.1258604" lon="2.6852040"><ele>95.58</ele><time>2026-4-28T17:47:43Z</time></trkpt>
<trkpt lat="49.1258130" lon="2.6852079"><ele>96.52</ele><time>2026-4-28T17:47:46Z</time></trkpt>
<trkpt lat="49.1257678" lon="2.6851665"><ele>96.61</ele><time>2026-4-28T17:47:49Z</time></trkpt>
<trkpt lat="49.1257493" lon="2.6850978"><ele>97.52</ele><time>2026-4-28T17:47:52Z</time></trkpt>
<trkpt lat="49.1257200" lon="2.6850400"><ele>97.61</ele><time>2026-4-28T17:47:55Z</time></trkpt>
<trkpt lat="49.1256922" lon="2.6849745"><ele>97.88</ele><time>2026-4-28T17:47:58Z</time></trkpt>
<trkpt lat="49.1256418" lon="2.6849403"><ele>98.59</ele><time>2026-4-28T17:48:1Z</time></trkpt>
<trkpt lat="49.1255917" lon="2.6849112"><ele>99.31</ele><time>2026-4-28T17:48:4Z</time></trkpt>
<trkpt lat="49.1255387" lon="2.6848937"><ele>99.60</ele><time>2026-4-28T17:48:7Z</time></trkpt>
<trkpt lat="49.1254836" lon="2.6848634"><ele>100.52</ele><time>2026-4-28T17:48:10Z</time></trkpt>
<trkpt lat="49.1254430" lon="2.6848242"><ele>100.60</ele><time>2026-4-28T17:48:13Z</time></trkpt>
<trkpt lat="49.1254082" lon="2.6847782"><ele>101.52</ele><time>2026-4-28T17:48:16Z</time></trkpt>
<trkpt lat="49.1253773" lon="2.6847133"><ele>101.60</ele><time>2026-4-28T17:48:19Z</time></trkpt>
<trkpt lat="49.1253565" lon="2.6846387"><ele>102.58</ele><time>2026-4-28T17:48:22Z</time></trkpt>
<trkpt lat="49.1253354" lon="2.6845478"><ele>103.58</ele><time>2026-4-28T17:48:25Z</time></trkpt>
<trkpt lat="49.1253210" lon="2.6844709"><ele>104.52</ele><time>2026-4-28T17:48:28Z</time></trkpt>
<trkpt lat="49.1253070" lon="2.6843892"><ele>104.60</ele><time>2026-4-28T17:48:31Z</time></trkpt>
<trkpt lat="49.1252976" lon="2.6843011"><ele>105.52</ele><time>2026-4-28T17:48:34Z</time></trkpt>
<trkpt lat="49.1252823" lon="2.6842088"><ele>105.60</ele><time>2026-4-28T17:48:37Z</time></trkpt>
<trkpt lat="49.1252632" lon="2.6841173"><ele>105.61</ele><time>2026-4-28T17:48:40Z</time></trkpt>
<trkpt lat="49.1252480" lon="2.6840341"><ele>105.61</ele><time>2026-4-28T17:48:43Z</time></trkpt>
<trkpt lat="49.1252333" lon="2.6839509"><ele>106.31</ele><time>2026-4-28T17:48:46Z</time></trkpt>
<trkpt lat="49.1252140" lon="2.6838606"><ele>106.58</ele><time>2026-4-28T17:48:49Z</time></trkpt>
<trkpt lat="49.1251921" lon="2.6837602"><ele>105.91</ele><time>2026-4-28T17:48:52Z</time></trkpt>
<trkpt lat="49.1251864" lon="2.6836556"><ele>105.64</ele><time>2026-4-28T17:48:55Z</time></trkpt>
<trkpt lat="49.1251871" lon="2.6835633"><ele>106.52</ele><time>2026-4-28T17:48:58Z</time></trkpt>
<trkpt lat="49.1251829" lon="2.6834642"><ele>107.51</ele><time>2026-4-28T17:49:1Z</time></trkpt>
<trkpt lat="49.1251790" lon="2.6833644"><ele>107.60</ele><time>2026-4-28T17:49:4Z</time></trkpt>
<trkpt lat="49.1251778" lon="2.6832492"><ele>107.61</ele><time>2026-4-28T17:49:7Z</time></trkpt>
<trkpt lat="49.1251666" lon="2.6831409"><ele>108.52</ele><time>2026-4-28T17:49:10Z</time></trkpt>
<trkpt lat="49.1251596" lon="2.6830237"><ele>109.51</ele><time>2026-4-28T17:49:13Z</time></trkpt>
<trkpt lat="49.1251515" lon="2.6829098"><ele>109.60</ele><time>2026-4-28T17:49:16Z</time></trkpt>
<trkpt lat="49.1251547" lon="2.6828089"><ele>108.70</ele><time>2026-4-28T17:49:19Z</time></trkpt>
<trkpt lat="49.1251508" lon="2.6827201"><ele>109.32</ele><time>2026-4-28T17:49:22Z</time></trkpt>
<trkpt lat="49.1251429" lon="2.6826253"><ele>109.37</ele><time>2026-4-28T17:49:25Z</time></trkpt>
<trkpt lat="49.1251354" lon="2.6825058"><ele>108.89</ele><time>2026-4-28T17:49:28Z</time></trkpt>
<trkpt lat="49.1251213" lon="2.6823966"><ele>107.94</ele><time>2026-4-28T17:49:31Z</time></trkpt>
<trkpt lat="49.1251200" lon="2.6822830"><ele>108.34</ele><time>2026-4-28T17:49:34Z</time></trkpt>
<trkpt lat="49.1251145" lon="2.6821736"><ele>108.59</ele><time>2026-4-28T17:49:37Z</time></trkpt>
<trkpt lat="49.1251057" lon="2.6820490"><ele>108.40</ele><time>2026-4-28T17:49:40Z</time></trkpt>
<trkpt lat="49.1250932" lon="2.6819289"><ele>108.59</ele><time>2026-4-28T17:49:43Z</time></trkpt>
<trkpt lat="49.1250880" lon="2.6818207"><ele>108.61</ele><time>2026-4-28T17:49:46Z</time></trkpt>
<trkpt lat="49.1250808" lon="2.6817064"><ele>109.31</ele><time>2026-4-28T17:49:49Z</time></trkpt>
<trkpt lat="49.1250727" lon="2.6815674"><ele>108.88</ele><time>2026-4-28T17:49:52Z</time></trkpt>
<trkpt lat="49.1250785" lon="2.6814907"><ele>108.69</ele><time>2026-4-28T17:49:55Z</time></trkpt>
<trkpt lat="49.1250845" lon="2.6813556"><ele>108.62</ele><time>2026-4-28T17:49:58Z</time></trkpt>
<trkpt lat="49.1250814" lon="2.6812862"><ele>109.31</ele><time>2026-4-28T17:50:1Z</time></trkpt>
<trkpt lat="49.1250719" lon="2.6811674"><ele>109.58</ele><time>2026-4-28T17:50:4Z</time></trkpt>
<trkpt lat="49.1250692" lon="2.6810542"><ele>109.61</ele><time>2026-4-28T17:50:7Z</time></trkpt>
<trkpt lat="49.1250570" lon="2.6809558"><ele>109.61</ele><time>2026-4-28T17:50:10Z</time></trkpt>
<trkpt lat="49.1250511" lon="2.6808585"><ele>109.61</ele><time>2026-4-28T17:50:13Z</time></trkpt>
<trkpt lat="49.1250417" lon="2.6807660"><ele>109.61</ele><time>2026-4-28T17:50:16Z</time></trkpt>
<trkpt lat="49.1250370" lon="2.6806553"><ele>109.61</ele><time>2026-4-28T17:50:19Z</time></trkpt>
<trkpt lat="49.1250203" lon="2.6805263"><ele>109.61</ele><time>2026-4-28T17:50:22Z</time></trkpt>
<trkpt lat="49.1250206" lon="2.6804188"><ele>109.61</ele><time>2026-4-28T17:50:25Z</time></trkpt>
<trkpt lat="49.1250050" lon="2.6803031"><ele>110.31</ele><time>2026-4-28T17:50:28Z</time></trkpt>
<trkpt lat="49.1249877" lon="2.6801832"><ele>110.58</ele><time>2026-4-28T17:50:31Z</time></trkpt>
<trkpt lat="49.1249717" lon="2.6800708"><ele>109.70</ele><time>2026-4-28T17:50:34Z</time></trkpt>
<trkpt lat="49.1249578" lon="2.6799635"><ele>108.92</ele><time>2026-4-28T17:50:37Z</time></trkpt>
<trkpt lat="49.1249524" lon="2.6798497"><ele>107.94</ele><time>2026-4-28T17:50:40Z</time></trkpt>
<trkpt lat="49.1249475" lon="2.6797298"><ele>108.55</ele><time>2026-4-28T17:50:43Z</time></trkpt>
<trkpt lat="49.1249420" lon="2.6796056"><ele>107.70</ele><time>2026-4-28T17:50:46Z</time></trkpt>
<trkpt lat="49.1249341" lon="2.6794837"><ele>107.62</ele><time>2026-4-28T17:50:49Z</time></trkpt>
<trkpt lat="49.1249187" lon="2.6793571"><ele>107.61</ele><time>2026-4-28T17:50:52Z</time></trkpt>
<trkpt lat="49.1249137" lon="2.6792440"><ele>107.61</ele><time>2026-4-28T17:50:55Z</time></trkpt>
<trkpt lat="49.1249073" lon="2.6791422"><ele>107.61</ele><time>2026-4-28T17:50:58Z</time></trkpt>
<trkpt lat="49.1249072" lon="2.6790244"><ele>107.61</ele><time>2026-4-28T17:51:1Z</time></trkpt>
<trkpt lat="49.1249037" lon="2.6789215"><ele>106.91</ele><time>2026-4-28T17:51:4Z</time></trkpt>
<trkpt lat="49.1249008" lon="2.6788133"><ele>106.64</ele><time>2026-4-28T17:51:7Z</time></trkpt>
<trkpt lat="49.1248949" lon="2.6787153"><ele>106.61</ele><time>2026-4-28T17:51:10Z</time></trkpt>
<trkpt lat="49.1248879" lon="2.6786058"><ele>106.61</ele><time>2026-4-28T17:51:13Z</time></trkpt>
<trkpt lat="49.1248827" lon="2.6784906"><ele>106.61</ele><time>2026-4-28T17:51:16Z</time></trkpt>
<trkpt lat="49.1248694" lon="2.6783823"><ele>106.61</ele><time>2026-4-28T17:51:19Z</time></trkpt>
<trkpt lat="49.1248583" lon="2.6782758"><ele>106.61</ele><time>2026-4-28T17:51:22Z</time></trkpt>
<trkpt lat="49.1248552" lon="2.6781678"><ele>106.61</ele><time>2026-4-28T17:51:25Z</time></trkpt>
<trkpt lat="49.1248503" lon="2.6780701"><ele>106.61</ele><time>2026-4-28T17:51:28Z</time></trkpt>
<trkpt lat="49.1248426" lon="2.6779613"><ele>106.61</ele><time>2026-4-28T17:51:31Z</time></trkpt>
<trkpt lat="49.1248353" lon="2.6778403"><ele>105.91</ele><time>2026-4-28T17:51:34Z</time></trkpt>
<trkpt lat="49.1248338" lon="2.6777206"><ele>105.64</ele><time>2026-4-28T17:51:37Z</time></trkpt>
<trkpt lat="49.1248249" lon="2.6775943"><ele>104.70</ele><time>2026-4-28T17:51:40Z</time></trkpt>
<trkpt lat="49.1248127" lon="2.6774642"><ele>105.53</ele><time>2026-4-28T17:51:43Z</time></trkpt>
<trkpt lat="49.1248143" lon="2.6773442"><ele>104.90</ele><time>2026-4-28T17:51:46Z</time></trkpt>
<trkpt lat="49.1248071" lon="2.6772279"><ele>104.64</ele><time>2026-4-28T17:51:49Z</time></trkpt>
<trkpt lat="49.1247977" lon="2.6771074"><ele>104.61</ele><time>2026-4-28T17:51:52Z</time></trkpt>
<trkpt lat="49.1247847" lon="2.6769886"><ele>104.61</ele><time>2026-4-28T17:51:55Z</time></trkpt>
<trkpt lat="49.1247645" lon="2.6768815"><ele>104.61</ele><time>2026-4-28T17:51:58Z</time></trkpt>
<trkpt lat="49.1247469" lon="2.6767635"><ele>105.52</ele><time>2026-4-28T17:52:1Z</time></trkpt>
<trkpt lat="49.1247286" lon="2.6766367"><ele>105.60</ele><time>2026-4-28T17:52:4Z</time></trkpt>
<trkpt lat="49.1247040" lon="2.6765189"><ele>106.31</ele><time>2026-4-28T17:52:7Z</time></trkpt>
<trkpt lat="49.1246779" lon="2.6764053"><ele>106.58</ele><time>2026-4-28T17:52:10Z</time></trkpt>
<trkpt lat="49.1246527" lon="2.6763010"><ele>106.61</ele><time>2026-4-28T17:52:13Z</time></trkpt>
<trkpt lat="49.1246286" lon="2.6762120"><ele>106.61</ele><time>2026-4-28T17:52:16Z</time></trkpt>
<trkpt lat="49.1246135" lon="2.6761185"><ele>106.61</ele><time>2026-4-28T17:52:19Z</time></trkpt>
<trkpt lat="49.1245947" lon="2.6760300"><ele>106.61</ele><time>2026-4-28T17:52:22Z</time></trkpt>
<trkpt lat="49.1245810" lon="2.6759299"><ele>106.61</ele><time>2026-4-28T17:52:25Z</time></trkpt>
<trkpt lat="49.1245741" lon="2.6758271"><ele>106.61</ele><time>2026-4-28T17:52:28Z</time></trkpt>
<trkpt lat="49.1245553" lon="2.6757302"><ele>106.61</ele><time>2026-4-28T17:52:31Z</time></trkpt>
<trkpt lat="49.1245265" lon="2.6756262"><ele>106.61</ele><time>2026-4-28T17:52:34Z</time></trkpt>
<trkpt lat="49.1245086" lon="2.6755132"><ele>107.52</ele><time>2026-4-28T17:52:37Z</time></trkpt>
<trkpt lat="49.1244830" lon="2.6753997"><ele>108.30</ele><time>2026-4-28T17:52:40Z</time></trkpt>
<trkpt lat="49.1244579" lon="2.6752820"><ele>108.58</ele><time>2026-4-28T17:52:43Z</time></trkpt>
<trkpt lat="49.1244464" lon="2.6751910"><ele>108.61</ele><time>2026-4-28T17:52:46Z</time></trkpt>
<trkpt lat="49.1244365" lon="2.6750881"><ele>108.61</ele><time>2026-4-28T17:52:49Z</time></trkpt>
<trkpt lat="49.1244070" lon="2.6749572"><ele>109.31</ele><time>2026-4-28T17:52:52Z</time></trkpt>
<trkpt lat="49.1243965" lon="2.6748866"><ele>108.82</ele><time>2026-4-28T17:52:55Z</time></trkpt>
<trkpt lat="49.1243740" lon="2.6747497"><ele>109.54</ele><time>2026-4-28T17:52:58Z</time></trkpt>
<trkpt lat="49.1243637" lon="2.6746735"><ele>108.89</ele><time>2026-4-28T17:53:1Z</time></trkpt>
<trkpt lat="49.1243507" lon="2.6745978"><ele>108.69</ele><time>2026-4-28T17:53:4Z</time></trkpt>
<trkpt lat="49.1243339" lon="2.6745270"><ele>108.64</ele><time>2026-4-28T17:53:7Z</time></trkpt>
<trkpt lat="49.1243191" lon="2.6744481"><ele>108.62</ele><time>2026-4-28T17:53:10Z</time></trkpt>
<trkpt lat="49.1243042" lon="2.6743736"><ele>108.61</ele><time>2026-4-28T17:53:13Z</time></trkpt>
<trkpt lat="49.1242898" lon="2.6743004"><ele>108.61</ele><time>2026-4-28T17:53:16Z</time></trkpt>
<trkpt lat="49.1242753" lon="2.6742242"><ele>108.61</ele><time>2026-4-28T17:53:19Z</time></trkpt>
<trkpt lat="49.1242602" lon="2.6741479"><ele>108.61</ele><time>2026-4-28T17:53:22Z</time></trkpt>
<trkpt lat="49.1242450" lon="2.6740581"><ele>107.91</ele><time>2026-4-28T17:53:25Z</time></trkpt>
<trkpt lat="49.1242353" lon="2.6739802"><ele>107.70</ele><time>2026-4-28T17:53:28Z</time></trkpt>
<trkpt lat="49.1242329" lon="2.6738934"><ele>107.64</ele><time>2026-4-28T17:53:31Z</time></trkpt>
<trkpt lat="49.1242276" lon="2.6738077"><ele>107.62</ele><time>2026-4-28T17:53:34Z</time></trkpt>
<trkpt lat="49.1242197" lon="2.6737221"><ele>107.61</ele><time>2026-4-28T17:53:37Z</time></trkpt>
<trkpt lat="49.1242095" lon="2.6736372"><ele>107.61</ele><time>2026-4-28T17:53:40Z</time></trkpt>
<trkpt lat="49.1242034" lon="2.6735517"><ele>107.61</ele><time>2026-4-28T17:53:43Z</time></trkpt>
<trkpt lat="49.1241986" lon="2.6734690"><ele>107.61</ele><time>2026-4-28T17:53:46Z</time></trkpt>
<trkpt lat="49.1241932" lon="2.6733830"><ele>107.61</ele><time>2026-4-28T17:53:49Z</time></trkpt>
<trkpt lat="49.1241926" lon="2.6733008"><ele>107.61</ele><time>2026-4-28T17:53:52Z</time></trkpt>
<trkpt lat="49.1241881" lon="2.6732183"><ele>107.61</ele><time>2026-4-28T17:53:55Z</time></trkpt>
<trkpt lat="49.1241885" lon="2.6731415"><ele>106.91</ele><time>2026-4-28T17:53:58Z</time></trkpt>
<trkpt lat="49.1241872" lon="2.6730615"><ele>106.70</ele><time>2026-4-28T17:54:1Z</time></trkpt>
<trkpt lat="49.1241846" lon="2.6729841"><ele>106.64</ele><time>2026-4-28T17:54:4Z</time></trkpt>
<trkpt lat="49.1241736" lon="2.6728432"><ele>105.91</ele><time>2026-4-28T17:54:7Z</time></trkpt>
<trkpt lat="49.1241699" lon="2.6727717"><ele>106.40</ele><time>2026-4-28T17:54:10Z</time></trkpt>
<trkpt lat="49.1241615" lon="2.6726397"><ele>106.59</ele><time>2026-4-28T17:54:13Z</time></trkpt>
<trkpt lat="49.1241584" lon="2.6725699"><ele>107.31</ele><time>2026-4-28T17:54:16Z</time></trkpt>
<trkpt lat="49.1241548" lon="2.6724379"><ele>107.58</ele><time>2026-4-28T17:54:19Z</time></trkpt>
<trkpt lat="49.1241415" lon="2.6723112"><ele>107.61</ele><time>2026-4-28T17:54:22Z</time></trkpt>
<trkpt lat="49.1241254" lon="2.6721863"><ele>107.61</ele><time>2026-4-28T17:54:25Z</time></trkpt>
<trkpt lat="49.1241202" lon="2.6720615"><ele>107.61</ele><time>2026-4-28T17:54:28Z</time></trkpt>
<trkpt lat="49.1241132" lon="2.6719217"><ele>108.31</ele><time>2026-4-28T17:54:31Z</time></trkpt>
<trkpt lat="49.1241047" lon="2.6718538"><ele>107.82</ele><time>2026-4-28T17:54:34Z</time></trkpt>
<trkpt lat="49.1240894" lon="2.6717305"><ele>107.63</ele><time>2026-4-28T17:54:37Z</time></trkpt>
<trkpt lat="49.1240710" lon="2.6716388"><ele>107.61</ele><time>2026-4-28T17:54:40Z</time></trkpt>
<trkpt lat="49.1240186" lon="2.6716283"><ele>108.52</ele><time>2026-4-28T17:54:43Z</time></trkpt>
<trkpt lat="49.1239622" lon="2.6716646"><ele>108.60</ele><time>2026-4-28T17:54:46Z</time></trkpt>
<trkpt lat="49.1239064" lon="2.6717124"><ele>108.61</ele><time>2026-4-28T17:54:49Z</time></trkpt>
<trkpt lat="49.1238454" lon="2.6717512"><ele>108.61</ele><time>2026-4-28T17:54:52Z</time></trkpt>
<trkpt lat="49.1237935" lon="2.6717835"><ele>108.61</ele><time>2026-4-28T17:54:55Z</time></trkpt>
<trkpt lat="49.1237350" lon="2.6718177"><ele>107.70</ele><time>2026-4-28T17:54:58Z</time></trkpt>
<trkpt lat="49.1236750" lon="2.6718614"><ele>107.62</ele><time>2026-4-28T17:55:1Z</time></trkpt>
<trkpt lat="49.1236052" lon="2.6718961"><ele>106.70</ele><time>2026-4-28T17:55:4Z</time></trkpt>
<trkpt lat="49.1235384" lon="2.6719299"><ele>106.62</ele><time>2026-4-28T17:55:7Z</time></trkpt>
<trkpt lat="49.1234708" lon="2.6719713"><ele>106.61</ele><time>2026-4-28T17:55:10Z</time></trkpt>
<trkpt lat="49.1233941" lon="2.6720087"><ele>105.70</ele><time>2026-4-28T17:55:13Z</time></trkpt>
<trkpt lat="49.1233213" lon="2.6720466"><ele>105.62</ele><time>2026-4-28T17:55:16Z</time></trkpt>
<trkpt lat="49.1232504" lon="2.6720848"><ele>105.40</ele><time>2026-4-28T17:55:19Z</time></trkpt>
<trkpt lat="49.1231784" lon="2.6721341"><ele>105.59</ele><time>2026-4-28T17:55:22Z</time></trkpt>
<trkpt lat="49.1230935" lon="2.6721902"><ele>105.61</ele><time>2026-4-28T17:55:25Z</time></trkpt>
<trkpt lat="49.1230500" lon="2.6722105"><ele>106.31</ele><time>2026-4-28T17:55:28Z</time></trkpt>
<trkpt lat="49.1230064" lon="2.6722337"><ele>106.52</ele><time>2026-4-28T17:55:31Z</time></trkpt>
<trkpt lat="49.1229599" lon="2.6722538"><ele>106.58</ele><time>2026-4-28T17:55:34Z</time></trkpt>
<trkpt lat="49.1229182" lon="2.6722807"><ele>105.90</ele><time>2026-4-28T17:55:37Z</time></trkpt>
<trkpt lat="49.1228473" lon="2.6723190"><ele>105.64</ele><time>2026-4-28T17:55:40Z</time></trkpt>
<trkpt lat="49.1227659" lon="2.6723676"><ele>105.61</ele><time>2026-4-28T17:55:43Z</time></trkpt>
<trkpt lat="49.1226838" lon="2.6723909"><ele>105.82</ele><time>2026-4-28T17:55:46Z</time></trkpt>
<trkpt lat="49.1226060" lon="2.6724291"><ele>106.54</ele><time>2026-4-28T17:55:49Z</time></trkpt>
<trkpt lat="49.1225210" lon="2.6724613"><ele>106.60</ele><time>2026-4-28T17:55:52Z</time></trkpt>
<trkpt lat="49.1224335" lon="2.6724955"><ele>106.61</ele><time>2026-4-28T17:55:55Z</time></trkpt>
<trkpt lat="49.1223537" lon="2.6725215"><ele>106.61</ele><time>2026-4-28T17:55:58Z</time></trkpt>
<trkpt lat="49.1222753" lon="2.6725559"><ele>107.31</ele><time>2026-4-28T17:56:1Z</time></trkpt>
<trkpt lat="49.1222309" lon="2.6725898"><ele>107.52</ele><time>2026-4-28T17:56:4Z</time></trkpt>
<trkpt lat="49.1221523" lon="2.6726389"><ele>107.60</ele><time>2026-4-28T17:56:7Z</time></trkpt>
<trkpt lat="49.1221066" lon="2.6726669"><ele>107.61</ele><time>2026-4-28T17:56:10Z</time></trkpt>
<trkpt lat="49.1220250" lon="2.6727084"><ele>107.61</ele><time>2026-4-28T17:56:13Z</time></trkpt>
<trkpt lat="49.1219405" lon="2.6727529"><ele>106.91</ele><time>2026-4-28T17:56:16Z</time></trkpt>
<trkpt lat="49.1218699" lon="2.6728109"><ele>106.64</ele><time>2026-4-28T17:56:19Z</time></trkpt>
<trkpt lat="49.1217957" lon="2.6728627"><ele>106.61</ele><time>2026-4-28T17:56:22Z</time></trkpt>
<trkpt lat="49.1217327" lon="2.6729473"><ele>106.61</ele><time>2026-4-28T17:56:25Z</time></trkpt>
<trkpt lat="49.1216720" lon="2.6730388"><ele>107.52</ele><time>2026-4-28T17:56:28Z</time></trkpt>
<trkpt lat="49.1216416" lon="2.6730909"><ele>106.88</ele><time>2026-4-28T17:56:31Z</time></trkpt>
<trkpt lat="49.1215944" lon="2.6731712"><ele>106.64</ele><time>2026-4-28T17:56:34Z</time></trkpt>
<trkpt lat="49.1215534" lon="2.6732597"><ele>106.61</ele><time>2026-4-28T17:56:37Z</time></trkpt>
<trkpt lat="49.1215097" lon="2.6733537"><ele>107.52</ele><time>2026-4-28T17:56:40Z</time></trkpt>
<trkpt lat="49.1214589" lon="2.6734538"><ele>107.60</ele><time>2026-4-28T17:56:43Z</time></trkpt>
<trkpt lat="49.1214055" lon="2.6735472"><ele>108.52</ele><time>2026-4-28T17:56:46Z</time></trkpt>
<trkpt lat="49.1213701" lon="2.6735914"><ele>109.28</ele><time>2026-4-28T17:56:49Z</time></trkpt>
<trkpt lat="49.1212888" lon="2.6736768"><ele>109.58</ele><time>2026-4-28T17:56:52Z</time></trkpt>
<trkpt lat="49.1212489" lon="2.6737170"><ele>109.60</ele><time>2026-4-28T17:56:55Z</time></trkpt>
<trkpt lat="49.1211662" lon="2.6737580"><ele>109.61</ele><time>2026-4-28T17:56:58Z</time></trkpt>
<trkpt lat="49.1210919" lon="2.6738138"><ele>109.61</ele><time>2026-4-28T17:57:1Z</time></trkpt>
<trkpt lat="49.1210159" lon="2.6738428"><ele>109.40</ele><time>2026-4-28T17:57:4Z</time></trkpt>
<trkpt lat="49.1209399" lon="2.6738680"><ele>108.68</ele><time>2026-4-28T17:57:7Z</time></trkpt>
<trkpt lat="49.1208692" lon="2.6738884"><ele>108.62</ele><time>2026-4-28T17:57:10Z</time></trkpt>
<trkpt lat="49.1207941" lon="2.6738995"><ele>108.61</ele><time>2026-4-28T17:57:13Z</time></trkpt>
<trkpt lat="49.1207224" lon="2.6739198"><ele>108.61</ele><time>2026-4-28T17:57:16Z</time></trkpt>
<trkpt lat="49.1206526" lon="2.6739714"><ele>107.70</ele><time>2026-4-28T17:57:19Z</time></trkpt>
<trkpt lat="49.1205805" lon="2.6740150"><ele>107.62</ele><time>2026-4-28T17:57:22Z</time></trkpt>
<trkpt lat="49.1204979" lon="2.6740713"><ele>107.61</ele><time>2026-4-28T17:57:25Z</time></trkpt>
<trkpt lat="49.1204337" lon="2.6741486"><ele>108.31</ele><time>2026-4-28T17:57:28Z</time></trkpt>
<trkpt lat="49.1203691" lon="2.6742360"><ele>108.58</ele><time>2026-4-28T17:57:31Z</time></trkpt>
<trkpt lat="49.1203074" lon="2.6743286"><ele>108.61</ele><time>2026-4-28T17:57:34Z</time></trkpt>
<trkpt lat="49.1202505" lon="2.6744226"><ele>110.22</ele><time>2026-4-28T17:57:37Z</time></trkpt>
<trkpt lat="49.1202161" lon="2.6744724"><ele>110.49</ele><time>2026-4-28T17:57:40Z</time></trkpt>
<trkpt lat="49.1201797" lon="2.6745226"><ele>110.58</ele><time>2026-4-28T17:57:43Z</time></trkpt>
<trkpt lat="49.1201411" lon="2.6745688"><ele>110.60</ele><time>2026-4-28T17:57:46Z</time></trkpt>
<trkpt lat="49.1200756" lon="2.6746403"><ele>110.61</ele><time>2026-4-28T17:57:49Z</time></trkpt>
<trkpt lat="49.1200034" lon="2.6746991"><ele>109.70</ele><time>2026-4-28T17:57:52Z</time></trkpt>
<trkpt lat="49.1199598" lon="2.6747249"><ele>108.94</ele><time>2026-4-28T17:57:55Z</time></trkpt>
<trkpt lat="49.1198650" lon="2.6747762"><ele>108.64</ele><time>2026-4-28T17:57:58Z</time></trkpt>
<trkpt lat="49.1198011" lon="2.6747920"><ele>108.61</ele><time>2026-4-28T17:58:1Z</time></trkpt>
<trkpt lat="49.1197344" lon="2.6748099"><ele>107.91</ele><time>2026-4-28T17:58:4Z</time></trkpt>
<trkpt lat="49.1196705" lon="2.6748210"><ele>107.64</ele><time>2026-4-28T17:58:7Z</time></trkpt>
<trkpt lat="49.1196240" lon="2.6748324"><ele>106.92</ele><time>2026-4-28T17:58:10Z</time></trkpt>
<trkpt lat="49.1195315" lon="2.6748368"><ele>105.94</ele><time>2026-4-28T17:58:13Z</time></trkpt>
<trkpt lat="49.1194806" lon="2.6748469"><ele>105.71</ele><time>2026-4-28T17:58:16Z</time></trkpt>
<trkpt lat="49.1194330" lon="2.6748426"><ele>104.94</ele><time>2026-4-28T17:58:19Z</time></trkpt>
<trkpt lat="49.1193502" lon="2.6748232"><ele>103.73</ele><time>2026-4-28T17:58:22Z</time></trkpt>
<trkpt lat="49.1193026" lon="2.6748173"><ele>103.65</ele><time>2026-4-28T17:58:25Z</time></trkpt>
<trkpt lat="49.1192572" lon="2.6748102"><ele>103.62</ele><time>2026-4-28T17:58:28Z</time></trkpt>
<trkpt lat="49.1192086" lon="2.6748107"><ele>103.61</ele><time>2026-4-28T17:58:31Z</time></trkpt>
<trkpt lat="49.1191619" lon="2.6748137"><ele>102.91</ele><time>2026-4-28T17:58:34Z</time></trkpt>
<trkpt lat="49.1191157" lon="2.6748174"><ele>102.70</ele><time>2026-4-28T17:58:37Z</time></trkpt>
<trkpt lat="49.1190673" lon="2.6748225"><ele>102.64</ele><time>2026-4-28T17:58:40Z</time></trkpt>
<trkpt lat="49.1190181" lon="2.6748307"><ele>101.92</ele><time>2026-4-28T17:58:43Z</time></trkpt>
<trkpt lat="49.1189712" lon="2.6748358"><ele>101.70</ele><time>2026-4-28T17:58:46Z</time></trkpt>
<trkpt lat="49.1189242" lon="2.6748400"><ele>101.64</ele><time>2026-4-28T17:58:49Z</time></trkpt>
<trkpt lat="49.1188771" lon="2.6748457"><ele>100.92</ele><time>2026-4-28T17:58:52Z</time></trkpt>
<trkpt lat="49.1188308" lon="2.6748526"><ele>100.70</ele><time>2026-4-28T17:58:55Z</time></trkpt>
<trkpt lat="49.1187471" lon="2.6748743"><ele>99.92</ele><time>2026-4-28T17:58:58Z</time></trkpt>
<trkpt lat="49.1186714" lon="2.6748878"><ele>99.64</ele><time>2026-4-28T17:59:1Z</time></trkpt>
<trkpt lat="49.1185959" lon="2.6749102"><ele>98.70</ele><time>2026-4-28T17:59:4Z</time></trkpt>
<trkpt lat="49.1185331" lon="2.6749421"><ele>98.62</ele><time>2026-4-28T17:59:7Z</time></trkpt>
<trkpt lat="49.1184699" lon="2.6749780"><ele>98.61</ele><time>2026-4-28T17:59:10Z</time></trkpt>
<trkpt lat="49.1184199" lon="2.6750139"><ele>97.70</ele><time>2026-4-28T17:59:13Z</time></trkpt>
<trkpt lat="49.1183768" lon="2.6750471"><ele>97.62</ele><time>2026-4-28T17:59:16Z</time></trkpt>
<trkpt lat="49.1183178" lon="2.6750782"><ele>97.61</ele><time>2026-4-28T17:59:19Z</time></trkpt>
<trkpt lat="49.1182327" lon="2.6751169"><ele>97.61</ele><time>2026-4-28T17:59:22Z</time></trkpt>
<trkpt lat="49.1181561" lon="2.6751542"><ele>97.61</ele><time>2026-4-28T17:59:25Z</time></trkpt>
<trkpt lat="49.1180672" lon="2.6751925"><ele>97.61</ele><time>2026-4-28T17:59:28Z</time></trkpt>
<trkpt lat="49.1180212" lon="2.6752146"><ele>97.61</ele><time>2026-4-28T17:59:31Z</time></trkpt>
<trkpt lat="49.1179750" lon="2.6752284"><ele>97.61</ele><time>2026-4-28T17:59:34Z</time></trkpt>
<trkpt lat="49.1179308" lon="2.6752477"><ele>96.91</ele><time>2026-4-28T17:59:37Z</time></trkpt>
<trkpt lat="49.1178579" lon="2.6752952"><ele>97.55</ele><time>2026-4-28T17:59:40Z</time></trkpt>
<trkpt lat="49.1177936" lon="2.6753563"><ele>97.61</ele><time>2026-4-28T17:59:43Z</time></trkpt>
<trkpt lat="49.1177383" lon="2.6754395"><ele>97.61</ele><time>2026-4-28T17:59:46Z</time></trkpt>
<trkpt lat="49.1176906" lon="2.6755244"><ele>97.61</ele><time>2026-4-28T17:59:49Z</time></trkpt>
<trkpt lat="49.1176333" lon="2.6756072"><ele>97.61</ele><time>2026-4-28T17:59:52Z</time></trkpt>
<trkpt lat="49.1175792" lon="2.6756822"><ele>97.61</ele><time>2026-4-28T17:59:55Z</time></trkpt>
<trkpt lat="49.1175264" lon="2.6757591"><ele>98.31</ele><time>2026-4-28T17:59:58Z</time></trkpt>
<trkpt lat="49.1174714" lon="2.6758342"><ele>98.58</ele><time>2026-4-28T18:0:1Z</time></trkpt>
<trkpt lat="49.1174171" lon="2.6759161"><ele>99.31</ele><time>2026-4-28T18:0:4Z</time></trkpt>
<trkpt lat="49.1173562" lon="2.6760036"><ele>99.58</ele><time>2026-4-28T18:0:7Z</time></trkpt>
<trkpt lat="49.1172828" lon="2.6760743"><ele>99.61</ele><time>2026-4-28T18:0:10Z</time></trkpt>
<trkpt lat="49.1172495" lon="2.6761207"><ele>99.61</ele><time>2026-4-28T18:0:13Z</time></trkpt>
<trkpt lat="49.1171917" lon="2.6762039"><ele>99.61</ele><time>2026-4-28T18:0:16Z</time></trkpt>
<trkpt lat="49.1171351" lon="2.6762805"><ele>98.91</ele><time>2026-4-28T18:0:19Z</time></trkpt>
<trkpt lat="49.1170751" lon="2.6763565"><ele>98.64</ele><time>2026-4-28T18:0:22Z</time></trkpt>
<trkpt lat="49.1170122" lon="2.6764228"><ele>98.61</ele><time>2026-4-28T18:0:25Z</time></trkpt>
<trkpt lat="49.1169438" lon="2.6764646"><ele>98.61</ele><time>2026-4-28T18:0:28Z</time></trkpt>
<trkpt lat="49.1168717" lon="2.6765109"><ele>97.91</ele><time>2026-4-28T18:0:31Z</time></trkpt>
<trkpt lat="49.1167919" lon="2.6765625"><ele>96.73</ele><time>2026-4-28T18:0:34Z</time></trkpt>
<trkpt lat="49.1167090" lon="2.6766144"><ele>95.71</ele><time>2026-4-28T18:0:37Z</time></trkpt>
<trkpt lat="49.1166623" lon="2.6766422"><ele>95.64</ele><time>2026-4-28T18:0:40Z</time></trkpt>
<trkpt lat="49.1166173" lon="2.6766653"><ele>95.62</ele><time>2026-4-28T18:0:43Z</time></trkpt>
<trkpt lat="49.1165728" lon="2.6766910"><ele>94.91</ele><time>2026-4-28T18:0:46Z</time></trkpt>
<trkpt lat="49.1165269" lon="2.6767148"><ele>94.70</ele><time>2026-4-28T18:0:49Z</time></trkpt>
<trkpt lat="49.1164817" lon="2.6767412"><ele>94.64</ele><time>2026-4-28T18:0:52Z</time></trkpt>
<trkpt lat="49.1164363" lon="2.6767660"><ele>94.62</ele><time>2026-4-28T18:0:55Z</time></trkpt>
<trkpt lat="49.1163903" lon="2.6767898"><ele>94.61</ele><time>2026-4-28T18:0:58Z</time></trkpt>
<trkpt lat="49.1163449" lon="2.6768177"><ele>93.91</ele><time>2026-4-28T18:1:1Z</time></trkpt>
<trkpt lat="49.1163006" lon="2.6768493"><ele>93.70</ele><time>2026-4-28T18:1:4Z</time></trkpt>
<trkpt lat="49.1162563" lon="2.6768812"><ele>93.64</ele><time>2026-4-28T18:1:7Z</time></trkpt>
<trkpt lat="49.1162154" lon="2.6769135"><ele>93.62</ele><time>2026-4-28T18:1:10Z</time></trkpt>
<trkpt lat="49.1161711" lon="2.6769493"><ele>93.61</ele><time>2026-4-28T18:1:13Z</time></trkpt>
<trkpt lat="49.1161290" lon="2.6769847"><ele>93.61</ele><time>2026-4-28T18:1:16Z</time></trkpt>
<trkpt lat="49.1160854" lon="2.6770204"><ele>92.91</ele><time>2026-4-28T18:1:19Z</time></trkpt>
<trkpt lat="49.1160394" lon="2.6770587"><ele>92.70</ele><time>2026-4-28T18:1:22Z</time></trkpt>
<trkpt lat="49.1159981" lon="2.6770979"><ele>91.94</ele><time>2026-4-28T18:1:25Z</time></trkpt>
<trkpt lat="49.1159576" lon="2.6771343"><ele>91.71</ele><time>2026-4-28T18:1:28Z</time></trkpt>
<trkpt lat="49.1159160" lon="2.6771722"><ele>91.64</ele><time>2026-4-28T18:1:31Z</time></trkpt>
<trkpt lat="49.1158730" lon="2.6772038"><ele>91.62</ele><time>2026-4-28T18:1:34Z</time></trkpt>
<trkpt lat="49.1158300" lon="2.6772354"><ele>91.61</ele><time>2026-4-28T18:1:37Z</time></trkpt>
<trkpt lat="49.1157850" lon="2.6772658"><ele>91.61</ele><time>2026-4-28T18:1:40Z</time></trkpt>
<trkpt lat="49.1157397" lon="2.6772923"><ele>91.61</ele><time>2026-4-28T18:1:43Z</time></trkpt>
<trkpt lat="49.1156979" lon="2.6773241"><ele>91.61</ele><time>2026-4-28T18:1:46Z</time></trkpt>
<trkpt lat="49.1156157" lon="2.6773771"><ele>91.61</ele><time>2026-4-28T18:1:49Z</time></trkpt>
<trkpt lat="49.1155392" lon="2.6774198"><ele>91.61</ele><time>2026-4-28T18:1:52Z</time></trkpt>
<trkpt lat="49.1154687" lon="2.6774665"><ele>92.52</ele><time>2026-4-28T18:1:55Z</time></trkpt>
<trkpt lat="49.1154039" lon="2.6775191"><ele>93.30</ele><time>2026-4-28T18:1:58Z</time></trkpt>
<trkpt lat="49.1153248" lon="2.6775627"><ele>93.58</ele><time>2026-4-28T18:2:1Z</time></trkpt>
<trkpt lat="49.1152412" lon="2.6775979"><ele>94.31</ele><time>2026-4-28T18:2:4Z</time></trkpt>
<trkpt lat="49.1151672" lon="2.6776282"><ele>95.28</ele><time>2026-4-28T18:2:7Z</time></trkpt>
<trkpt lat="49.1150851" lon="2.6776591"><ele>96.49</ele><time>2026-4-28T18:2:10Z</time></trkpt>
<trkpt lat="49.1149926" lon="2.6776814"><ele>97.51</ele><time>2026-4-28T18:2:13Z</time></trkpt>
<trkpt lat="49.1149337" lon="2.6776809"><ele>98.28</ele><time>2026-4-28T18:2:16Z</time></trkpt>
<trkpt lat="49.1148802" lon="2.6776950"><ele>98.51</ele><time>2026-4-28T18:2:19Z</time></trkpt>
<trkpt lat="49.1148260" lon="2.6777037"><ele>99.28</ele><time>2026-4-28T18:2:22Z</time></trkpt>
<trkpt lat="49.1147822" lon="2.6777241"><ele>99.51</ele><time>2026-4-28T18:2:25Z</time></trkpt>
<trkpt lat="49.1147011" lon="2.6777637"><ele>100.51</ele><time>2026-4-28T18:2:28Z</time></trkpt>
<trkpt lat="49.1146229" lon="2.6777851"><ele>101.30</ele><time>2026-4-28T18:2:31Z</time></trkpt>
<trkpt lat="49.1145531" lon="2.6778069"><ele>100.88</ele><time>2026-4-28T18:2:34Z</time></trkpt>
<trkpt lat="49.1144767" lon="2.6778333"><ele>100.64</ele><time>2026-4-28T18:2:37Z</time></trkpt>
<trkpt lat="49.1144036" lon="2.6778569"><ele>100.61</ele><time>2026-4-28T18:2:40Z</time></trkpt>
<trkpt lat="49.1143240" lon="2.6778790"><ele>100.61</ele><time>2026-4-28T18:2:43Z</time></trkpt>
<trkpt lat="49.1142508" lon="2.6779101"><ele>101.52</ele><time>2026-4-28T18:2:46Z</time></trkpt>
<trkpt lat="49.1141677" lon="2.6779485"><ele>101.60</ele><time>2026-4-28T18:2:49Z</time></trkpt>
<trkpt lat="49.1140884" lon="2.6779832"><ele>100.91</ele><time>2026-4-28T18:2:52Z</time></trkpt>
<trkpt lat="49.1140115" lon="2.6780341"><ele>100.64</ele><time>2026-4-28T18:2:55Z</time></trkpt>
<trkpt lat="49.1139405" lon="2.6780716"><ele>100.61</ele><time>2026-4-28T18:2:58Z</time></trkpt>
<trkpt lat="49.1138666" lon="2.6781046"><ele>101.31</ele><time>2026-4-28T18:3:1Z</time></trkpt>
<trkpt lat="49.1138020" lon="2.6781564"><ele>101.58</ele><time>2026-4-28T18:3:4Z</time></trkpt>
<trkpt lat="49.1137358" lon="2.6781999"><ele>102.31</ele><time>2026-4-28T18:3:7Z</time></trkpt>
<trkpt lat="49.1136572" lon="2.6782708"><ele>102.58</ele><time>2026-4-28T18:3:10Z</time></trkpt>
<trkpt lat="49.1136149" lon="2.6783051"><ele>102.60</ele><time>2026-4-28T18:3:13Z</time></trkpt>
<trkpt lat="49.1135683" lon="2.6783345"><ele>102.61</ele><time>2026-4-28T18:3:16Z</time></trkpt>
<trkpt lat="49.1135199" lon="2.6783720"><ele>102.61</ele><time>2026-4-28T18:3:19Z</time></trkpt>
<trkpt lat="49.1134743" lon="2.6784130"><ele>101.91</ele><time>2026-4-28T18:3:22Z</time></trkpt>
<trkpt lat="49.1134312" lon="2.6784451"><ele>101.70</ele><time>2026-4-28T18:3:25Z</time></trkpt>
<trkpt lat="49.1133866" lon="2.6784743"><ele>100.94</ele><time>2026-4-28T18:3:28Z</time></trkpt>
<trkpt lat="49.1133418" lon="2.6785044"><ele>100.71</ele><time>2026-4-28T18:3:31Z</time></trkpt>
<trkpt lat="49.1132600" lon="2.6785662"><ele>100.62</ele><time>2026-4-28T18:3:34Z</time></trkpt>
<trkpt lat="49.1132182" lon="2.6785993"><ele>99.91</ele><time>2026-4-28T18:3:37Z</time></trkpt>
<trkpt lat="49.1131408" lon="2.6786498"><ele>99.64</ele><time>2026-4-28T18:3:40Z</time></trkpt>
<trkpt lat="49.1130656" lon="2.6787051"><ele>98.91</ele><time>2026-4-28T18:3:43Z</time></trkpt>
<trkpt lat="49.1129949" lon="2.6787577"><ele>98.64</ele><time>2026-4-28T18:3:46Z</time></trkpt>
<trkpt lat="49.1129253" lon="2.6788074"><ele>97.70</ele><time>2026-4-28T18:3:49Z</time></trkpt>
<trkpt lat="49.1128558" lon="2.6788518"><ele>96.92</ele><time>2026-4-28T18:3:52Z</time></trkpt>
<trkpt lat="49.1127869" lon="2.6788998"><ele>96.64</ele><time>2026-4-28T18:3:55Z</time></trkpt>
<trkpt lat="49.1127147" lon="2.6789464"><ele>97.52</ele><time>2026-4-28T18:3:58Z</time></trkpt>
<trkpt lat="49.1126437" lon="2.6789938"><ele>97.60</ele><time>2026-4-28T18:4:1Z</time></trkpt>
<trkpt lat="49.1125730" lon="2.6790516"><ele>97.61</ele><time>2026-4-28T18:4:4Z</time></trkpt>
<trkpt lat="49.1125006" lon="2.6791000"><ele>97.61</ele><time>2026-4-28T18:4:7Z</time></trkpt>
<trkpt lat="49.1124295" lon="2.6791526"><ele>98.52</ele><time>2026-4-28T18:4:10Z</time></trkpt>
<trkpt lat="49.1123581" lon="2.6792081"><ele>98.60</ele><time>2026-4-28T18:4:13Z</time></trkpt>
<trkpt lat="49.1122820" lon="2.6792480"><ele>98.61</ele><time>2026-4-28T18:4:16Z</time></trkpt>
<trkpt lat="49.1122150" lon="2.6792880"><ele>98.61</ele><time>2026-4-28T18:4:19Z</time></trkpt>
<trkpt lat="49.1121454" lon="2.6793359"><ele>98.61</ele><time>2026-4-28T18:4:22Z</time></trkpt>
<trkpt lat="49.1120657" lon="2.6793828"><ele>98.61</ele><time>2026-4-28T18:4:25Z</time></trkpt>
<trkpt lat="49.1119889" lon="2.6794266"><ele>98.61</ele><time>2026-4-28T18:4:28Z</time></trkpt>
<trkpt lat="49.1119103" lon="2.6794680"><ele>99.31</ele><time>2026-4-28T18:4:31Z</time></trkpt>
<trkpt lat="49.1118674" lon="2.6794924"><ele>99.52</ele><time>2026-4-28T18:4:34Z</time></trkpt>
<trkpt lat="49.1117907" lon="2.6795373"><ele>98.69</ele><time>2026-4-28T18:4:37Z</time></trkpt>
<trkpt lat="49.1117138" lon="2.6795893"><ele>98.62</ele><time>2026-4-28T18:4:40Z</time></trkpt>
<trkpt lat="49.1116336" lon="2.6796493"><ele>98.61</ele><time>2026-4-28T18:4:43Z</time></trkpt>
<trkpt lat="49.1115904" lon="2.6796760"><ele>98.61</ele><time>2026-4-28T18:4:46Z</time></trkpt>
<trkpt lat="49.1115505" lon="2.6797100"><ele>98.61</ele><time>2026-4-28T18:4:49Z</time></trkpt>
<trkpt lat="49.1115095" lon="2.6797423"><ele>98.61</ele><time>2026-4-28T18:4:52Z</time></trkpt>
<trkpt lat="49.1114650" lon="2.6797730"><ele>98.61</ele><time>2026-4-28T18:4:55Z</time></trkpt>
<trkpt lat="49.1114223" lon="2.6798040"><ele>98.61</ele><time>2026-4-28T18:4:58Z</time></trkpt>
<trkpt lat="49.1113779" lon="2.6798384"><ele>98.61</ele><time>2026-4-28T18:5:1Z</time></trkpt>
<trkpt lat="49.1113333" lon="2.6798675"><ele>99.31</ele><time>2026-4-28T18:5:4Z</time></trkpt>
<trkpt lat="49.1112486" lon="2.6799131"><ele>99.58</ele><time>2026-4-28T18:5:7Z</time></trkpt>
<trkpt lat="49.1111723" lon="2.6799678"><ele>99.61</ele><time>2026-4-28T18:5:10Z</time></trkpt>
<trkpt lat="49.1111329" lon="2.6800011"><ele>98.91</ele><time>2026-4-28T18:5:13Z</time></trkpt>
<trkpt lat="49.1110590" lon="2.6800572"><ele>99.34</ele><time>2026-4-28T18:5:16Z</time></trkpt>
<trkpt lat="49.1109830" lon="2.6801135"><ele>98.68</ele><time>2026-4-28T18:5:19Z</time></trkpt>
<trkpt lat="49.1109062" lon="2.6801732"><ele>98.62</ele><time>2026-4-28T18:5:22Z</time></trkpt>
<trkpt lat="49.1108363" lon="2.6802250"><ele>98.61</ele><time>2026-4-28T18:5:25Z</time></trkpt>
<trkpt lat="49.1107636" lon="2.6802732"><ele>98.61</ele><time>2026-4-28T18:5:28Z</time></trkpt>
<trkpt lat="49.1106934" lon="2.6803292"><ele>99.52</ele><time>2026-4-28T18:5:31Z</time></trkpt>
<trkpt lat="49.1106216" lon="2.6803833"><ele>99.60</ele><time>2026-4-28T18:5:34Z</time></trkpt>
<trkpt lat="49.1105522" lon="2.6804309"><ele>99.61</ele><time>2026-4-28T18:5:37Z</time></trkpt>
<trkpt lat="49.1104842" lon="2.6804811"><ele>99.61</ele><time>2026-4-28T18:5:40Z</time></trkpt>
<trkpt lat="49.1104180" lon="2.6805243"><ele>99.61</ele><time>2026-4-28T18:5:43Z</time></trkpt>
<trkpt lat="49.1103512" lon="2.6805818"><ele>99.61</ele><time>2026-4-28T18:5:46Z</time></trkpt>
<trkpt lat="49.1102836" lon="2.6806281"><ele>98.91</ele><time>2026-4-28T18:5:49Z</time></trkpt>
<trkpt lat="49.1102051" lon="2.6806433"><ele>99.34</ele><time>2026-4-28T18:5:52Z</time></trkpt>
<trkpt lat="49.1101285" lon="2.6806229"><ele>99.59</ele><time>2026-4-28T18:5:55Z</time></trkpt>
<trkpt lat="49.1100571" lon="2.6805914"><ele>99.61</ele><time>2026-4-28T18:5:58Z</time></trkpt>
<trkpt lat="49.1099939" lon="2.6805614"><ele>99.61</ele><time>2026-4-28T18:6:1Z</time></trkpt>
<trkpt lat="49.1099186" lon="2.6805383"><ele>99.61</ele><time>2026-4-28T18:6:4Z</time></trkpt>
<trkpt lat="49.1098651" lon="2.6805244"><ele>100.31</ele><time>2026-4-28T18:6:7Z</time></trkpt>
<trkpt lat="49.1098031" lon="2.6805095"><ele>100.60</ele><time>2026-4-28T18:6:10Z</time></trkpt>
<trkpt lat="49.1097496" lon="2.6805041"><ele>100.61</ele><time>2026-4-28T18:6:13Z</time></trkpt>
<trkpt lat="49.1096949" lon="2.6804777"><ele>100.61</ele><time>2026-4-28T18:6:16Z</time></trkpt>
<trkpt lat="49.1096346" lon="2.6804410"><ele>100.61</ele><time>2026-4-28T18:6:19Z</time></trkpt>
<trkpt lat="49.1095690" lon="2.6804149"><ele>100.61</ele><time>2026-4-28T18:6:22Z</time></trkpt>
<trkpt lat="49.1095250" lon="2.6803906"><ele>100.61</ele><time>2026-4-28T18:6:25Z</time></trkpt>
<trkpt lat="49.1094474" lon="2.6803563"><ele>100.61</ele><time>2026-4-28T18:6:28Z</time></trkpt>
<trkpt lat="49.1093794" lon="2.6803399"><ele>100.61</ele><time>2026-4-28T18:6:31Z</time></trkpt>
<trkpt lat="49.1093111" lon="2.6803189"><ele>100.61</ele><time>2026-4-28T18:6:34Z</time></trkpt>
<trkpt lat="49.1092459" lon="2.6803067"><ele>100.61</ele><time>2026-4-28T18:6:37Z</time></trkpt>
<trkpt lat="49.1091802" lon="2.6803047"><ele>99.91</ele><time>2026-4-28T18:6:40Z</time></trkpt>
<trkpt lat="49.1091154" lon="2.6803071"><ele>99.64</ele><time>2026-4-28T18:6:43Z</time></trkpt>
<trkpt lat="49.1090462" lon="2.6802995"><ele>99.61</ele><time>2026-4-28T18:6:46Z</time></trkpt>
<trkpt lat="49.1089677" lon="2.6802756"><ele>99.61</ele><time>2026-4-28T18:6:49Z</time></trkpt>
<trkpt lat="49.1089225" lon="2.6802627"><ele>99.61</ele><time>2026-4-28T18:6:52Z</time></trkpt>
<trkpt lat="49.1088410" lon="2.6802508"><ele>98.91</ele><time>2026-4-28T18:6:55Z</time></trkpt>
<trkpt lat="49.1087598" lon="2.6802353"><ele>97.94</ele><time>2026-4-28T18:6:58Z</time></trkpt>
<trkpt lat="49.1086817" lon="2.6802233"><ele>97.64</ele><time>2026-4-28T18:7:1Z</time></trkpt>
<trkpt lat="49.1086075" lon="2.6802171"><ele>97.61</ele><time>2026-4-28T18:7:4Z</time></trkpt>
<trkpt lat="49.1085262" lon="2.6801986"><ele>96.91</ele><time>2026-4-28T18:7:7Z</time></trkpt>
<trkpt lat="49.1084447" lon="2.6801905"><ele>96.64</ele><time>2026-4-28T18:7:10Z</time></trkpt>
<trkpt lat="49.1083747" lon="2.6801924"><ele>96.61</ele><time>2026-4-28T18:7:13Z</time></trkpt>
<trkpt lat="49.1083074" lon="2.6802001"><ele>96.61</ele><time>2026-4-28T18:7:16Z</time></trkpt>
<trkpt lat="49.1082374" lon="2.6802023"><ele>96.61</ele><time>2026-4-28T18:7:19Z</time></trkpt>
<trkpt lat="49.1081590" lon="2.6802100"><ele>96.61</ele><time>2026-4-28T18:7:22Z</time></trkpt>
<trkpt lat="49.1080847" lon="2.6802072"><ele>96.40</ele><time>2026-4-28T18:7:25Z</time></trkpt>
<trkpt lat="49.1080151" lon="2.6801960"><ele>96.59</ele><time>2026-4-28T18:7:28Z</time></trkpt>
<trkpt lat="49.1079420" lon="2.6801955"><ele>95.70</ele><time>2026-4-28T18:7:31Z</time></trkpt>
<trkpt lat="49.1078567" lon="2.6801965"><ele>95.62</ele><time>2026-4-28T18:7:34Z</time></trkpt>
<trkpt lat="49.1077766" lon="2.6802115"><ele>95.61</ele><time>2026-4-28T18:7:37Z</time></trkpt>
<trkpt lat="49.1077045" lon="2.6802296"><ele>94.91</ele><time>2026-4-28T18:7:40Z</time></trkpt>
<trkpt lat="49.1076358" lon="2.6802368"><ele>93.94</ele><time>2026-4-28T18:7:43Z</time></trkpt>
<trkpt lat="49.1075610" lon="2.6802404"><ele>93.64</ele><time>2026-4-28T18:7:46Z</time></trkpt>
<trkpt lat="49.1074783" lon="2.6802360"><ele>93.61</ele><time>2026-4-28T18:7:49Z</time></trkpt>
<trkpt lat="49.1073936" lon="2.6802366"><ele>94.52</ele><time>2026-4-28T18:7:52Z</time></trkpt>
<trkpt lat="49.1073145" lon="2.6802430"><ele>94.60</ele><time>2026-4-28T18:7:55Z</time></trkpt>
<trkpt lat="49.1072380" lon="2.6802515"><ele>94.40</ele><time>2026-4-28T18:7:58Z</time></trkpt>
<trkpt lat="49.1071642" lon="2.6802681"><ele>94.59</ele><time>2026-4-28T18:8:1Z</time></trkpt>
<trkpt lat="49.1070897" lon="2.6802678"><ele>94.61</ele><time>2026-4-28T18:8:4Z</time></trkpt>
<trkpt lat="49.1070261" lon="2.6802685"><ele>95.52</ele><time>2026-4-28T18:8:7Z</time></trkpt>
<trkpt lat="49.1069725" lon="2.6802669"><ele>95.60</ele><time>2026-4-28T18:8:10Z</time></trkpt>
<trkpt lat="49.1069106" lon="2.6802548"><ele>95.61</ele><time>2026-4-28T18:8:13Z</time></trkpt>
<trkpt lat="49.1068333" lon="2.6802137"><ele>95.61</ele><time>2026-4-28T18:8:16Z</time></trkpt>
<trkpt lat="49.1067757" lon="2.6801811"><ele>95.61</ele><time>2026-4-28T18:8:19Z</time></trkpt>
<trkpt lat="49.1067148" lon="2.6801472"><ele>96.52</ele><time>2026-4-28T18:8:22Z</time></trkpt>
<trkpt lat="49.1066542" lon="2.6801167"><ele>96.60</ele><time>2026-4-28T18:8:25Z</time></trkpt>
<trkpt lat="49.1065998" lon="2.6800808"><ele>96.61</ele><time>2026-4-28T18:8:28Z</time></trkpt>
<trkpt lat="49.1065418" lon="2.6800441"><ele>96.61</ele><time>2026-4-28T18:8:31Z</time></trkpt>
<trkpt lat="49.1064897" lon="2.6800131"><ele>96.61</ele><time>2026-4-28T18:8:34Z</time></trkpt>
<trkpt lat="49.1064368" lon="2.6799808"><ele>96.61</ele><time>2026-4-28T18:8:37Z</time></trkpt>
<trkpt lat="49.1063288" lon="2.6799143"><ele>97.31</ele><time>2026-4-28T18:8:40Z</time></trkpt>
<trkpt lat="49.1062742" lon="2.6798792"><ele>97.58</ele><time>2026-4-28T18:8:43Z</time></trkpt>
<trkpt lat="49.1062161" lon="2.6798418"><ele>97.61</ele><time>2026-4-28T18:8:46Z</time></trkpt>
<trkpt lat="49.1061582" lon="2.6798012"><ele>96.91</ele><time>2026-4-28T18:8:49Z</time></trkpt>
<trkpt lat="49.1061015" lon="2.6797712"><ele>96.64</ele><time>2026-4-28T18:8:52Z</time></trkpt>
<trkpt lat="49.1060273" lon="2.6796924"><ele>96.61</ele><time>2026-4-28T18:8:55Z</time></trkpt>
<trkpt lat="49.1059914" lon="2.6796486"><ele>96.61</ele><time>2026-4-28T18:8:58Z</time></trkpt>
<trkpt lat="49.1059465" lon="2.6795636"><ele>96.61</ele><time>2026-4-28T18:9:1Z</time></trkpt>
<trkpt lat="49.1059627" lon="2.6794645"><ele>96.61</ele><time>2026-4-28T18:9:4Z</time></trkpt>
<trkpt lat="49.1059945" lon="2.6793635"><ele>96.61</ele><time>2026-4-28T18:9:7Z</time></trkpt>
<trkpt lat="49.1060212" lon="2.6792721"><ele>96.61</ele><time>2026-4-28T18:9:10Z</time></trkpt>
<trkpt lat="49.1060466" lon="2.6791852"><ele>95.70</ele><time>2026-4-28T18:9:13Z</time></trkpt>
<trkpt lat="49.1060710" lon="2.6791042"><ele>95.62</ele><time>2026-4-28T18:9:16Z</time></trkpt>
<trkpt lat="49.1060932" lon="2.6790256"><ele>95.61</ele><time>2026-4-28T18:9:19Z</time></trkpt>
<trkpt lat="49.1061152" lon="2.6789441"><ele>95.61</ele><time>2026-4-28T18:9:22Z</time></trkpt>
<trkpt lat="49.1061331" lon="2.6788629"><ele>95.61</ele><time>2026-4-28T18:9:25Z</time></trkpt>
<trkpt lat="49.1061551" lon="2.6787775"><ele>95.61</ele><time>2026-4-28T18:9:28Z</time></trkpt>
<trkpt lat="49.1061788" lon="2.6786869"><ele>95.61</ele><time>2026-4-28T18:9:31Z</time></trkpt>
<trkpt lat="49.1061952" lon="2.6785937"><ele>95.61</ele><time>2026-4-28T18:9:34Z</time></trkpt>
<trkpt lat="49.1062118" lon="2.6785049"><ele>95.61</ele><time>2026-4-28T18:9:37Z</time></trkpt>
<trkpt lat="49.1062336" lon="2.6784237"><ele>95.61</ele><time>2026-4-28T18:9:40Z</time></trkpt>
<trkpt lat="49.1062512" lon="2.6783409"><ele>95.61</ele><time>2026-4-28T18:9:43Z</time></trkpt>
<trkpt lat="49.1062697" lon="2.6782537"><ele>95.61</ele><time>2026-4-28T18:9:46Z</time></trkpt>
<trkpt lat="49.1062887" lon="2.6781725"><ele>94.70</ele><time>2026-4-28T18:9:49Z</time></trkpt>
<trkpt lat="49.1063047" lon="2.6780797"><ele>94.62</ele><time>2026-4-28T18:9:52Z</time></trkpt>
<trkpt lat="49.1063233" lon="2.6779876"><ele>94.61</ele><time>2026-4-28T18:9:55Z</time></trkpt>
<trkpt lat="49.1063424" lon="2.6778839"><ele>94.61</ele><time>2026-4-28T18:9:58Z</time></trkpt>
<trkpt lat="49.1063404" lon="2.6777955"><ele>95.31</ele><time>2026-4-28T18:10:1Z</time></trkpt>
<trkpt lat="49.1063377" lon="2.6777250"><ele>96.22</ele><time>2026-4-28T18:10:4Z</time></trkpt>
<trkpt lat="49.1063595" lon="2.6776488"><ele>96.58</ele><time>2026-4-28T18:10:7Z</time></trkpt>
<trkpt lat="49.1063793" lon="2.6775659"><ele>96.61</ele><time>2026-4-28T18:10:10Z</time></trkpt>
<trkpt lat="49.1063976" lon="2.6774694"><ele>96.61</ele><time>2026-4-28T18:10:13Z</time></trkpt>
<trkpt lat="49.1064161" lon="2.6774001"><ele>96.61</ele><time>2026-4-28T18:10:16Z</time></trkpt>
<trkpt lat="49.1064281" lon="2.6773295"><ele>96.61</ele><time>2026-4-28T18:10:19Z</time></trkpt>
<trkpt lat="49.1064417" lon="2.6772567"><ele>97.52</ele><time>2026-4-28T18:10:22Z</time></trkpt>
<trkpt lat="49.1064603" lon="2.6771787"><ele>96.69</ele><time>2026-4-28T18:10:25Z</time></trkpt>
<trkpt lat="49.1064836" lon="2.6771023"><ele>97.32</ele><time>2026-4-28T18:10:28Z</time></trkpt>
<trkpt lat="49.1064974" lon="2.6770158"><ele>96.67</ele><time>2026-4-28T18:10:31Z</time></trkpt>
<trkpt lat="49.1065139" lon="2.6769396"><ele>96.62</ele><time>2026-4-28T18:10:34Z</time></trkpt>
<trkpt lat="49.1065304" lon="2.6768664"><ele>96.61</ele><time>2026-4-28T18:10:37Z</time></trkpt>
<trkpt lat="49.1065462" lon="2.6767927"><ele>96.61</ele><time>2026-4-28T18:10:40Z</time></trkpt>
<trkpt lat="49.1065617" lon="2.6767153"><ele>96.61</ele><time>2026-4-28T18:10:43Z</time></trkpt>
<trkpt lat="49.1065767" lon="2.6766413"><ele>96.61</ele><time>2026-4-28T18:10:46Z</time></trkpt>
<trkpt lat="49.1065898" lon="2.6765654"><ele>97.31</ele><time>2026-4-28T18:10:49Z</time></trkpt>
<trkpt lat="49.1066012" lon="2.6764911"><ele>96.88</ele><time>2026-4-28T18:10:52Z</time></trkpt>
<trkpt lat="49.1066258" lon="2.6764029"><ele>96.62</ele><time>2026-4-28T18:10:55Z</time></trkpt>
<trkpt lat="49.1066432" lon="2.6763243"><ele>96.82</ele><time>2026-4-28T18:10:58Z</time></trkpt>
<trkpt lat="49.1066607" lon="2.6762465"><ele>96.63</ele><time>2026-4-28T18:11:1Z</time></trkpt>
<trkpt lat="49.1066817" lon="2.6761793"><ele>97.32</ele><time>2026-4-28T18:11:4Z</time></trkpt>
<trkpt lat="49.1066964" lon="2.6760994"><ele>96.88</ele><time>2026-4-28T18:11:7Z</time></trkpt>
<trkpt lat="49.1067118" lon="2.6760242"><ele>97.55</ele><time>2026-4-28T18:11:10Z</time></trkpt>
<trkpt lat="49.1067298" lon="2.6759497"><ele>97.61</ele><time>2026-4-28T18:11:13Z</time></trkpt>
<trkpt lat="49.1067519" lon="2.6758686"><ele>97.61</ele><time>2026-4-28T18:11:16Z</time></trkpt>
<trkpt lat="49.1067739" lon="2.6757811"><ele>97.61</ele><time>2026-4-28T18:11:19Z</time></trkpt>
<trkpt lat="49.1067929" lon="2.6756924"><ele>97.61</ele><time>2026-4-28T18:11:22Z</time></trkpt>
<trkpt lat="49.1068184" lon="2.6756071"><ele>97.61</ele><time>2026-4-28T18:11:25Z</time></trkpt>
<trkpt lat="49.1068411" lon="2.6755157"><ele>97.61</ele><time>2026-4-28T18:11:28Z</time></trkpt>
<trkpt lat="49.1068673" lon="2.6754199"><ele>97.61</ele><time>2026-4-28T18:11:31Z</time></trkpt>
<trkpt lat="49.1068909" lon="2.6753214"><ele>98.31</ele><time>2026-4-28T18:11:34Z</time></trkpt>
<trkpt lat="49.1069123" lon="2.6752235"><ele>97.67</ele><time>2026-4-28T18:11:37Z</time></trkpt>
<trkpt lat="49.1069344" lon="2.6751349"><ele>97.62</ele><time>2026-4-28T18:11:40Z</time></trkpt>
<trkpt lat="49.1069603" lon="2.6750383"><ele>97.61</ele><time>2026-4-28T18:11:43Z</time></trkpt>
<trkpt lat="49.1069835" lon="2.6749368"><ele>97.61</ele><time>2026-4-28T18:11:46Z</time></trkpt>
<trkpt lat="49.1070033" lon="2.6748427"><ele>97.61</ele><time>2026-4-28T18:11:49Z</time></trkpt>
<trkpt lat="49.1070195" lon="2.6747509"><ele>97.61</ele><time>2026-4-28T18:11:52Z</time></trkpt>
<trkpt lat="49.1070278" lon="2.6746545"><ele>97.61</ele><time>2026-4-28T18:11:55Z</time></trkpt>
<trkpt lat="49.1070421" lon="2.6745666"><ele>97.61</ele><time>2026-4-28T18:11:58Z</time></trkpt>
<trkpt lat="49.1070507" lon="2.6744816"><ele>97.61</ele><time>2026-4-28T18:12:1Z</time></trkpt>
<trkpt lat="49.1070621" lon="2.6743863"><ele>97.61</ele><time>2026-4-28T18:12:4Z</time></trkpt>
<trkpt lat="49.1070707" lon="2.6742967"><ele>97.61</ele><time>2026-4-28T18:12:7Z</time></trkpt>
<trkpt lat="49.1070792" lon="2.6742042"><ele>97.61</ele><time>2026-4-28T18:12:10Z</time></trkpt>
<trkpt lat="49.1070910" lon="2.6741056"><ele>97.61</ele><time>2026-4-28T18:12:13Z</time></trkpt>
<trkpt lat="49.1070984" lon="2.6740124"><ele>97.61</ele><time>2026-4-28T18:12:16Z</time></trkpt>
<trkpt lat="49.1071108" lon="2.6739146"><ele>97.61</ele><time>2026-4-28T18:12:19Z</time></trkpt>
<trkpt lat="49.1071264" lon="2.6738132"><ele>97.61</ele><time>2026-4-28T18:12:22Z</time></trkpt>
<trkpt lat="49.1071461" lon="2.6737176"><ele>97.61</ele><time>2026-4-28T18:12:25Z</time></trkpt>
<trkpt lat="49.1071561" lon="2.6736202"><ele>97.61</ele><time>2026-4-28T18:12:28Z</time></trkpt>
<trkpt lat="49.1071670" lon="2.6735171"><ele>97.61</ele><time>2026-4-28T18:12:31Z</time></trkpt>
<trkpt lat="49.1071712" lon="2.6734151"><ele>97.61</ele><time>2026-4-28T18:12:34Z</time></trkpt>
<trkpt lat="49.1071832" lon="2.6733188"><ele>97.82</ele><time>2026-4-28T18:12:37Z</time></trkpt>
<trkpt lat="49.1071952" lon="2.6732287"><ele>97.63</ele><time>2026-4-28T18:12:40Z</time></trkpt>
<trkpt lat="49.1072108" lon="2.6731512"><ele>97.61</ele><time>2026-4-28T18:12:43Z</time></trkpt>
<trkpt lat="49.1072197" lon="2.6730616"><ele>97.61</ele><time>2026-4-28T18:12:46Z</time></trkpt>
<trkpt lat="49.1072294" lon="2.6729770"><ele>97.61</ele><time>2026-4-28T18:12:49Z</time></trkpt>
<trkpt lat="49.1072316" lon="2.6728904"><ele>97.61</ele><time>2026-4-28T18:12:52Z</time></trkpt>
<trkpt lat="49.1072287" lon="2.6727933"><ele>97.61</ele><time>2026-4-28T18:12:55Z</time></trkpt>
<trkpt lat="49.1072253" lon="2.6727012"><ele>97.61</ele><time>2026-4-28T18:12:58Z</time></trkpt>
<trkpt lat="49.1072188" lon="2.6726087"><ele>97.61</ele><time>2026-4-28T18:13:1Z</time></trkpt>
<trkpt lat="49.1072026" lon="2.6725026"><ele>97.61</ele><time>2026-4-28T18:13:4Z</time></trkpt>
<trkpt lat="49.1071787" lon="2.6723999"><ele>98.52</ele><time>2026-4-28T18:13:7Z</time></trkpt>
<trkpt lat="49.1071552" lon="2.6722938"><ele>98.60</ele><time>2026-4-28T18:13:10Z</time></trkpt>
<trkpt lat="49.1071279" lon="2.6721878"><ele>98.61</ele><time>2026-4-28T18:13:13Z</time></trkpt>
<trkpt lat="49.1071027" lon="2.6720911"><ele>99.52</ele><time>2026-4-28T18:13:16Z</time></trkpt>
<trkpt lat="49.1070767" lon="2.6719911"><ele>99.60</ele><time>2026-4-28T18:13:19Z</time></trkpt>
<trkpt lat="49.1070492" lon="2.6718937"><ele>99.61</ele><time>2026-4-28T18:13:22Z</time></trkpt>
<trkpt lat="49.1070225" lon="2.6717966"><ele>100.52</ele><time>2026-4-28T18:13:25Z</time></trkpt>
<trkpt lat="49.1069989" lon="2.6716999"><ele>100.60</ele><time>2026-4-28T18:13:28Z</time></trkpt>
<trkpt lat="49.1069720" lon="2.6716009"><ele>101.52</ele><time>2026-4-28T18:13:31Z</time></trkpt>
<trkpt lat="49.1069481" lon="2.6715043"><ele>101.60</ele><time>2026-4-28T18:13:34Z</time></trkpt>
<trkpt lat="49.1069279" lon="2.6713983"><ele>101.61</ele><time>2026-4-28T18:13:37Z</time></trkpt>
<trkpt lat="49.1069093" lon="2.6713061"><ele>101.61</ele><time>2026-4-28T18:13:40Z</time></trkpt>
<trkpt lat="49.1068896" lon="2.6712144"><ele>101.61</ele><time>2026-4-28T18:13:43Z</time></trkpt>
<trkpt lat="49.1068698" lon="2.6711219"><ele>101.61</ele><time>2026-4-28T18:13:46Z</time></trkpt>
<trkpt lat="49.1068545" lon="2.6710225"><ele>101.61</ele><time>2026-4-28T18:13:49Z</time></trkpt>
<trkpt lat="49.1068446" lon="2.6709236"><ele>101.61</ele><time>2026-4-28T18:13:52Z</time></trkpt>
<trkpt lat="49.1068386" lon="2.6708281"><ele>101.61</ele><time>2026-4-28T18:13:55Z</time></trkpt>
<trkpt lat="49.1068361" lon="2.6707353"><ele>101.61</ele><time>2026-4-28T18:13:58Z</time></trkpt>
<trkpt lat="49.1068355" lon="2.6706433"><ele>102.52</ele><time>2026-4-28T18:14:1Z</time></trkpt>
<trkpt lat="49.1068350" lon="2.6705521"><ele>102.60</ele><time>2026-4-28T18:14:4Z</time></trkpt>
<trkpt lat="49.1068343" lon="2.6704774"><ele>102.61</ele><time>2026-4-28T18:14:7Z</time></trkpt>
<trkpt lat="49.1068247" lon="2.6703998"><ele>102.61</ele><time>2026-4-28T18:14:10Z</time></trkpt>
<trkpt lat="49.1068246" lon="2.6703247"><ele>102.61</ele><time>2026-4-28T18:14:13Z</time></trkpt>
<trkpt lat="49.1068320" lon="2.6702458"><ele>102.61</ele><time>2026-4-28T18:14:16Z</time></trkpt>
<trkpt lat="49.1068406" lon="2.6701613"><ele>102.61</ele><time>2026-4-28T18:14:19Z</time></trkpt>
<trkpt lat="49.1068511" lon="2.6700755"><ele>102.61</ele><time>2026-4-28T18:14:22Z</time></trkpt>
<trkpt lat="49.1068659" lon="2.6699925"><ele>102.61</ele><time>2026-4-28T18:14:25Z</time></trkpt>
<trkpt lat="49.1068796" lon="2.6699076"><ele>102.61</ele><time>2026-4-28T18:14:28Z</time></trkpt>
<trkpt lat="49.1068889" lon="2.6698242"><ele>102.61</ele><time>2026-4-28T18:14:31Z</time></trkpt>
<trkpt lat="49.1069063" lon="2.6697414"><ele>101.91</ele><time>2026-4-28T18:14:34Z</time></trkpt>
<trkpt lat="49.1069211" lon="2.6696615"><ele>101.64</ele><time>2026-4-28T18:14:37Z</time></trkpt>
<trkpt lat="49.1069332" lon="2.6695815"><ele>101.61</ele><time>2026-4-28T18:14:40Z</time></trkpt>
<trkpt lat="49.1069466" lon="2.6695000"><ele>101.61</ele><time>2026-4-28T18:14:43Z</time></trkpt>
<trkpt lat="49.1069599" lon="2.6694183"><ele>101.61</ele><time>2026-4-28T18:14:46Z</time></trkpt>
<trkpt lat="49.1069716" lon="2.6693392"><ele>101.61</ele><time>2026-4-28T18:14:49Z</time></trkpt>
<trkpt lat="49.1069852" lon="2.6692581"><ele>101.61</ele><time>2026-4-28T18:14:52Z</time></trkpt>
<trkpt lat="49.1070013" lon="2.6691723"><ele>101.61</ele><time>2026-4-28T18:14:55Z</time></trkpt>
<trkpt lat="49.1070133" lon="2.6690804"><ele>101.61</ele><time>2026-4-28T18:14:58Z</time></trkpt>
<trkpt lat="49.1070276" lon="2.6689959"><ele>101.61</ele><time>2026-4-28T18:15:1Z</time></trkpt>
<trkpt lat="49.1070398" lon="2.6689094"><ele>100.91</ele><time>2026-4-28T18:15:4Z</time></trkpt>
<trkpt lat="49.1070525" lon="2.6688193"><ele>100.85</ele><time>2026-4-28T18:15:7Z</time></trkpt>
<trkpt lat="49.1070670" lon="2.6687356"><ele>100.63</ele><time>2026-4-28T18:15:10Z</time></trkpt>
<trkpt lat="49.1070875" lon="2.6686628"><ele>100.61</ele><time>2026-4-28T18:15:13Z</time></trkpt>
<trkpt lat="49.1071036" lon="2.6685942"><ele>101.31</ele><time>2026-4-28T18:15:16Z</time></trkpt>
<trkpt lat="49.1071129" lon="2.6685131"><ele>101.37</ele><time>2026-4-28T18:15:19Z</time></trkpt>
<trkpt lat="49.1071230" lon="2.6684277"><ele>101.38</ele><time>2026-4-28T18:15:22Z</time></trkpt>
<trkpt lat="49.1071369" lon="2.6683350"><ele>100.89</ele><time>2026-4-28T18:15:25Z</time></trkpt>
<trkpt lat="49.1071492" lon="2.6682433"><ele>100.64</ele><time>2026-4-28T18:15:28Z</time></trkpt>
<trkpt lat="49.1071631" lon="2.6681507"><ele>100.61</ele><time>2026-4-28T18:15:31Z</time></trkpt>
<trkpt lat="49.1071779" lon="2.6680598"><ele>101.31</ele><time>2026-4-28T18:15:34Z</time></trkpt>
<trkpt lat="49.1071922" lon="2.6679718"><ele>101.37</ele><time>2026-4-28T18:15:37Z</time></trkpt>
<trkpt lat="49.1072079" lon="2.6678869"><ele>101.59</ele><time>2026-4-28T18:15:40Z</time></trkpt>
<trkpt lat="49.1072240" lon="2.6678057"><ele>101.61</ele><time>2026-4-28T18:15:43Z</time></trkpt>
<trkpt lat="49.1072391" lon="2.6677297"><ele>101.61</ele><time>2026-4-28T18:15:46Z</time></trkpt>
<trkpt lat="49.1072518" lon="2.6676488"><ele>101.61</ele><time>2026-4-28T18:15:49Z</time></trkpt>
<trkpt lat="49.1072731" lon="2.6675741"><ele>101.61</ele><time>2026-4-28T18:15:52Z</time></trkpt>
<trkpt lat="49.1072840" lon="2.6674964"><ele>102.31</ele><time>2026-4-28T18:15:55Z</time></trkpt>
<trkpt lat="49.1072583" lon="2.6674367"><ele>102.58</ele><time>2026-4-28T18:15:58Z</time></trkpt>
<trkpt lat="49.1072092" lon="2.6674300"><ele>102.61</ele><time>2026-4-28T18:16:1Z</time></trkpt>
<trkpt lat="49.1071538" lon="2.6674480"><ele>101.70</ele><time>2026-4-28T18:16:4Z</time></trkpt>
<trkpt lat="49.1070898" lon="2.6674461"><ele>102.53</ele><time>2026-4-28T18:16:7Z</time></trkpt>
<trkpt lat="49.1070214" lon="2.6674490"><ele>102.60</ele><time>2026-4-28T18:16:10Z</time></trkpt>
<trkpt lat="49.1069526" lon="2.6674828"><ele>101.91</ele><time>2026-4-28T18:16:13Z</time></trkpt>
<trkpt lat="49.1068779" lon="2.6674874"><ele>101.64</ele><time>2026-4-28T18:16:16Z</time></trkpt>
<trkpt lat="49.1068137" lon="2.6674891"><ele>101.61</ele><time>2026-4-28T18:16:19Z</time></trkpt>
<trkpt lat="49.1067647" lon="2.6674947"><ele>100.70</ele><time>2026-4-28T18:16:22Z</time></trkpt>
<trkpt lat="49.1066998" lon="2.6674872"><ele>101.52</ele><time>2026-4-28T18:16:25Z</time></trkpt>
<trkpt lat="49.1066536" lon="2.6674857"><ele>101.61</ele><time>2026-4-28T18:16:28Z</time></trkpt>
<trkpt lat="49.1065959" lon="2.6674726"><ele>101.61</ele><time>2026-4-28T18:16:31Z</time></trkpt>
<trkpt lat="49.1066375" lon="2.6674401"><ele>101.31</ele><time>2026-4-28T18:16:34Z</time></trkpt>
<trkpt lat="49.1065826" lon="2.6674447"><ele>102.31</ele><time>2026-4-28T18:16:37Z</time></trkpt>
<trkpt lat="49.1065243" lon="2.6674312"><ele>101.63</ele><time>2026-4-28T18:16:40Z</time></trkpt>
<trkpt lat="49.1064719" lon="2.6674330"><ele>101.61</ele><time>2026-4-28T18:16:43Z</time></trkpt>
<trkpt lat="49.1064134" lon="2.6674310"><ele>101.88</ele><time>2026-4-28T18:16:46Z</time></trkpt>
<trkpt lat="49.1063670" lon="2.6674207"><ele>101.64</ele><time>2026-4-28T18:16:49Z</time></trkpt>
<trkpt lat="49.1063085" lon="2.6674123"><ele>101.61</ele><time>2026-4-28T18:16:52Z</time></trkpt>
<trkpt lat="49.1062598" lon="2.6674029"><ele>101.61</ele><time>2026-4-28T18:16:55Z</time></trkpt>
<trkpt lat="49.1062063" lon="2.6674026"><ele>101.61</ele><time>2026-4-28T18:16:58Z</time></trkpt>
<trkpt lat="49.1061520" lon="2.6674011"><ele>101.61</ele><time>2026-4-28T18:17:1Z</time></trkpt>
<trkpt lat="49.1060944" lon="2.6673980"><ele>101.61</ele><time>2026-4-28T18:17:4Z</time></trkpt>
<trkpt lat="49.1060331" lon="2.6673933"><ele>101.61</ele><time>2026-4-28T18:17:7Z</time></trkpt>
<trkpt lat="49.1059673" lon="2.6673902"><ele>101.61</ele><time>2026-4-28T18:17:10Z</time></trkpt>
<trkpt lat="49.1059000" lon="2.6673901"><ele>101.61</ele><time>2026-4-28T18:17:13Z</time></trkpt>
<trkpt lat="49.1058299" lon="2.6673870"><ele>101.61</ele><time>2026-4-28T18:17:16Z</time></trkpt>
<trkpt lat="49.1057587" lon="2.6673841"><ele>101.61</ele><time>2026-4-28T18:17:19Z</time></trkpt>
<trkpt lat="49.1056871" lon="2.6673886"><ele>101.61</ele><time>2026-4-28T18:17:22Z</time></trkpt>
<trkpt lat="49.1056185" lon="2.6674151"><ele>100.21</ele><time>2026-4-28T18:17:25Z</time></trkpt>
<trkpt lat="49.1055423" lon="2.6674429"><ele>99.67</ele><time>2026-4-28T18:17:28Z</time></trkpt>
<trkpt lat="49.1054796" lon="2.6674381"><ele>99.62</ele><time>2026-4-28T18:17:31Z</time></trkpt>
<trkpt lat="49.1054383" lon="2.6673923"><ele>99.61</ele><time>2026-4-28T18:17:34Z</time></trkpt>
<trkpt lat="49.1054337" lon="2.6673204"><ele>99.61</ele><time>2026-4-28T18:17:37Z</time></trkpt>
<trkpt lat="49.1054424" lon="2.6672466"><ele>99.61</ele><time>2026-4-28T18:17:40Z</time></trkpt>
<trkpt lat="49.1054643" lon="2.6671506"><ele>99.61</ele><time>2026-4-28T18:17:43Z</time></trkpt>
<trkpt lat="49.1054809" lon="2.6670560"><ele>98.64</ele><time>2026-4-28T18:17:46Z</time></trkpt>
<trkpt lat="49.1055016" lon="2.6669714"><ele>97.70</ele><time>2026-4-28T18:17:49Z</time></trkpt>
<trkpt lat="49.1055161" lon="2.6668885"><ele>97.61</ele><time>2026-4-28T18:17:52Z</time></trkpt>
<trkpt lat="49.1055351" lon="2.6667971"><ele>96.64</ele><time>2026-4-28T18:17:55Z</time></trkpt>
<trkpt lat="49.1055526" lon="2.6666984"><ele>95.64</ele><time>2026-4-28T18:17:58Z</time></trkpt>
<trkpt lat="49.1055625" lon="2.6666279"><ele>94.70</ele><time>2026-4-28T18:18:1Z</time></trkpt>
<trkpt lat="49.1055695" lon="2.6665516"><ele>94.41</ele><time>2026-4-28T18:18:4Z</time></trkpt>
<trkpt lat="49.1055763" lon="2.6664681"><ele>93.68</ele><time>2026-4-28T18:18:7Z</time></trkpt>
<trkpt lat="49.1055837" lon="2.6663846"><ele>93.62</ele><time>2026-4-28T18:18:10Z</time></trkpt>
<trkpt lat="49.1055899" lon="2.6662880"><ele>93.61</ele><time>2026-4-28T18:18:13Z</time></trkpt>
<trkpt lat="49.1056003" lon="2.6661954"><ele>93.61</ele><time>2026-4-28T18:18:16Z</time></trkpt>
<trkpt lat="49.1056142" lon="2.6661083"><ele>92.70</ele><time>2026-4-28T18:18:19Z</time></trkpt>
<trkpt lat="49.1056240" lon="2.6660198"><ele>92.62</ele><time>2026-4-28T18:18:22Z</time></trkpt>
<trkpt lat="49.1056328" lon="2.6659361"><ele>92.61</ele><time>2026-4-28T18:18:25Z</time></trkpt>
<trkpt lat="49.1056339" lon="2.6658573"><ele>92.61</ele><time>2026-4-28T18:18:28Z</time></trkpt>
<trkpt lat="49.1056249" lon="2.6657831"><ele>92.61</ele><time>2026-4-28T18:18:31Z</time></trkpt>
<trkpt lat="49.1056092" lon="2.6657098"><ele>92.61</ele><time>2026-4-28T18:18:34Z</time></trkpt>
<trkpt lat="49.1056239" lon="2.6656280"><ele>92.61</ele><time>2026-4-28T18:18:37Z</time></trkpt>
<trkpt lat="49.1056710" lon="2.6655932"><ele>92.61</ele><time>2026-4-28T18:18:40Z</time></trkpt>
<trkpt lat="49.1057364" lon="2.6655833"><ele>91.62</ele><time>2026-4-28T18:18:43Z</time></trkpt>
<trkpt lat="49.1057982" lon="2.6655600"><ele>91.61</ele><time>2026-4-28T18:18:46Z</time></trkpt>
<trkpt lat="49.1058597" lon="2.6655217"><ele>92.31</ele><time>2026-4-28T18:18:49Z</time></trkpt>
<trkpt lat="49.1059043" lon="2.6654992"><ele>93.28</ele><time>2026-4-28T18:18:52Z</time></trkpt>
<trkpt lat="49.1059530" lon="2.6654688"><ele>93.58</ele><time>2026-4-28T18:18:55Z</time></trkpt>
<trkpt lat="49.1059947" lon="2.6654310"><ele>94.52</ele><time>2026-4-28T18:18:58Z</time></trkpt>
<trkpt lat="49.1060384" lon="2.6653937"><ele>95.51</ele><time>2026-4-28T18:19:1Z</time></trkpt>
<trkpt lat="49.1060851" lon="2.6653420"><ele>95.60</ele><time>2026-4-28T18:19:4Z</time></trkpt>
<trkpt lat="49.1061319" lon="2.6652951"><ele>95.61</ele><time>2026-4-28T18:19:7Z</time></trkpt>
<trkpt lat="49.1061758" lon="2.6652649"><ele>95.61</ele><time>2026-4-28T18:19:10Z</time></trkpt>
<trkpt lat="49.1062201" lon="2.6652219"><ele>96.31</ele><time>2026-4-28T18:19:13Z</time></trkpt>
<trkpt lat="49.1062598" lon="2.6651740"><ele>97.28</ele><time>2026-4-28T18:19:16Z</time></trkpt>
<trkpt lat="49.1062938" lon="2.6651098"><ele>97.58</ele><time>2026-4-28T18:19:19Z</time></trkpt>
<trkpt lat="49.1063285" lon="2.6650309"><ele>96.70</ele><time>2026-4-28T18:19:22Z</time></trkpt>
<trkpt lat="49.1063607" lon="2.6649657"><ele>96.62</ele><time>2026-4-28T18:19:25Z</time></trkpt>
<trkpt lat="49.1063900" lon="2.6649078"><ele>97.52</ele><time>2026-4-28T18:19:28Z</time></trkpt>
<trkpt lat="49.1064396" lon="2.6648341"><ele>96.43</ele><time>2026-4-28T18:19:31Z</time></trkpt>
<trkpt lat="49.1064678" lon="2.6647412"><ele>96.61</ele><time>2026-4-28T18:19:34Z</time></trkpt>
<trkpt lat="49.1064830" lon="2.6646686"><ele>95.70</ele><time>2026-4-28T18:19:37Z</time></trkpt>
<trkpt lat="49.1065017" lon="2.6645869"><ele>95.62</ele><time>2026-4-28T18:19:40Z</time></trkpt>
<trkpt lat="49.1065332" lon="2.6645126"><ele>94.70</ele><time>2026-4-28T18:19:43Z</time></trkpt>
<trkpt lat="49.1065574" lon="2.6644263"><ele>94.61</ele><time>2026-4-28T18:19:46Z</time></trkpt>
<trkpt lat="49.1065716" lon="2.6643559"><ele>95.31</ele><time>2026-4-28T18:19:49Z</time></trkpt>
<trkpt lat="49.1065820" lon="2.6642833"><ele>95.58</ele><time>2026-4-28T18:19:52Z</time></trkpt>
<trkpt lat="49.1065903" lon="2.6642085"><ele>94.91</ele><time>2026-4-28T18:19:55Z</time></trkpt>
<trkpt lat="49.1066014" lon="2.6641355"><ele>94.64</ele><time>2026-4-28T18:19:58Z</time></trkpt>
<trkpt lat="49.1066121" lon="2.6640583"><ele>94.61</ele><time>2026-4-28T18:20:1Z</time></trkpt>
<trkpt lat="49.1066311" lon="2.6639861"><ele>93.70</ele><time>2026-4-28T18:20:4Z</time></trkpt>
<trkpt lat="49.1066592" lon="2.6639231"><ele>94.53</ele><time>2026-4-28T18:20:7Z</time></trkpt>
<trkpt lat="49.1067070" lon="2.6638542"><ele>93.64</ele><time>2026-4-28T18:20:10Z</time></trkpt>
<trkpt lat="49.1067509" lon="2.6638376"><ele>93.61</ele><time>2026-4-28T18:20:13Z</time></trkpt>
<trkpt lat="49.1067952" lon="2.6638166"><ele>94.52</ele><time>2026-4-28T18:20:16Z</time></trkpt>
<trkpt lat="49.1068401" lon="2.6638046"><ele>94.60</ele><time>2026-4-28T18:20:19Z</time></trkpt>
<trkpt lat="49.1068890" lon="2.6638044"><ele>95.31</ele><time>2026-4-28T18:20:22Z</time></trkpt>
<trkpt lat="49.1069457" lon="2.6638093"><ele>95.58</ele><time>2026-4-28T18:20:25Z</time></trkpt>
<trkpt lat="49.1070037" lon="2.6638079"><ele>96.31</ele><time>2026-4-28T18:20:28Z</time></trkpt>
<trkpt lat="49.1070606" lon="2.6638131"><ele>96.58</ele><time>2026-4-28T18:20:31Z</time></trkpt>
<trkpt lat="49.1071102" lon="2.6638208"><ele>97.31</ele><time>2026-4-28T18:20:34Z</time></trkpt>
<trkpt lat="49.1071646" lon="2.6638224"><ele>97.58</ele><time>2026-4-28T18:20:37Z</time></trkpt>
<trkpt lat="49.1072208" lon="2.6638280"><ele>98.52</ele><time>2026-4-28T18:20:40Z</time></trkpt>
<trkpt lat="49.1072740" lon="2.6638278"><ele>99.51</ele><time>2026-4-28T18:20:43Z</time></trkpt>
<trkpt lat="49.1073237" lon="2.6638189"><ele>99.60</ele><time>2026-4-28T18:20:46Z</time></trkpt>
<trkpt lat="49.1073807" lon="2.6637990"><ele>99.55</ele><time>2026-4-28T18:20:49Z</time></trkpt>
<trkpt lat="49.1074261" lon="2.6637887"><ele>99.61</ele><time>2026-4-28T18:20:52Z</time></trkpt>
<trkpt lat="49.1074797" lon="2.6637915"><ele>99.61</ele><time>2026-4-28T18:20:55Z</time></trkpt>
<trkpt lat="49.1075356" lon="2.6637852"><ele>100.52</ele><time>2026-4-28T18:20:58Z</time></trkpt>
<trkpt lat="49.1075937" lon="2.6637797"><ele>101.30</ele><time>2026-4-28T18:21:1Z</time></trkpt>
<trkpt lat="49.1076428" lon="2.6637882"><ele>101.58</ele><time>2026-4-28T18:21:4Z</time></trkpt>
<trkpt lat="49.1076972" lon="2.6637791"><ele>102.31</ele><time>2026-4-28T18:21:7Z</time></trkpt>
<trkpt lat="49.1077459" lon="2.6637673"><ele>103.28</ele><time>2026-4-28T18:21:10Z</time></trkpt>
<trkpt lat="49.1078028" lon="2.6637651"><ele>104.49</ele><time>2026-4-28T18:21:13Z</time></trkpt>
<trkpt lat="49.1078517" lon="2.6637623"><ele>106.21</ele><time>2026-4-28T18:21:16Z</time></trkpt>
<trkpt lat="49.1079112" lon="2.6637417"><ele>107.51</ele><time>2026-4-28T18:21:19Z</time></trkpt>
<trkpt lat="49.1079710" lon="2.6637381"><ele>106.97</ele><time>2026-4-28T18:21:22Z</time></trkpt>
<trkpt lat="49.1080321" lon="2.6637350"><ele>106.62</ele><time>2026-4-28T18:21:25Z</time></trkpt>
<trkpt lat="49.1080883" lon="2.6637162"><ele>106.67</ele><time>2026-4-28T18:21:28Z</time></trkpt>
<trkpt lat="49.1081431" lon="2.6637072"><ele>107.59</ele><time>2026-4-28T18:21:31Z</time></trkpt>
<trkpt lat="49.1081941" lon="2.6637302"><ele>107.61</ele><time>2026-4-28T18:21:34Z</time></trkpt>
<trkpt lat="49.1082462" lon="2.6637390"><ele>107.61</ele><time>2026-4-28T18:21:37Z</time></trkpt>
<trkpt lat="49.1083010" lon="2.6637306"><ele>108.52</ele><time>2026-4-28T18:21:40Z</time></trkpt>
<trkpt lat="49.1083514" lon="2.6637385"><ele>110.28</ele><time>2026-4-28T18:21:43Z</time></trkpt>
<trkpt lat="49.1084121" lon="2.6637519"><ele>110.81</ele><time>2026-4-28T18:21:46Z</time></trkpt>
<trkpt lat="49.1084670" lon="2.6637487"><ele>110.63</ele><time>2026-4-28T18:21:49Z</time></trkpt>
<trkpt lat="49.1085130" lon="2.6637401"><ele>111.52</ele><time>2026-4-28T18:21:52Z</time></trkpt>
<trkpt lat="49.1085592" lon="2.6637376"><ele>111.60</ele><time>2026-4-28T18:21:55Z</time></trkpt>
<trkpt lat="49.1086115" lon="2.6637395"><ele>112.31</ele><time>2026-4-28T18:21:58Z</time></trkpt>
<trkpt lat="49.1086623" lon="2.6637353"><ele>112.58</ele><time>2026-4-28T18:22:1Z</time></trkpt>
<trkpt lat="49.1087086" lon="2.6637365"><ele>113.31</ele><time>2026-4-28T18:22:4Z</time></trkpt>
<trkpt lat="49.1087547" lon="2.6637509"><ele>113.58</ele><time>2026-4-28T18:22:7Z</time></trkpt>
<trkpt lat="49.1088065" lon="2.6637663"><ele>112.91</ele><time>2026-4-28T18:22:10Z</time></trkpt>
<trkpt lat="49.1088568" lon="2.6637372"><ele>112.62</ele><time>2026-4-28T18:22:13Z</time></trkpt>
<trkpt lat="49.1089177" lon="2.6637217"><ele>112.61</ele><time>2026-4-28T18:22:16Z</time></trkpt>
<trkpt lat="49.1089671" lon="2.6637275"><ele>112.61</ele><time>2026-4-28T18:22:19Z</time></trkpt>
<trkpt lat="49.1090181" lon="2.6637456"><ele>112.61</ele><time>2026-4-28T18:22:22Z</time></trkpt>
<trkpt lat="49.1090612" lon="2.6637760"><ele>112.82</ele><time>2026-4-28T18:22:25Z</time></trkpt>
<trkpt lat="49.1091147" lon="2.6637750"><ele>112.62</ele><time>2026-4-28T18:22:28Z</time></trkpt>
<trkpt lat="49.1091759" lon="2.6637796"><ele>113.31</ele><time>2026-4-28T18:22:31Z</time></trkpt>
<trkpt lat="49.1092360" lon="2.6638029"><ele>113.60</ele><time>2026-4-28T18:22:34Z</time></trkpt>
<trkpt lat="49.1092858" lon="2.6638081"><ele>113.88</ele><time>2026-4-28T18:22:37Z</time></trkpt>
<trkpt lat="49.1093497" lon="2.6638041"><ele>114.59</ele><time>2026-4-28T18:22:40Z</time></trkpt>
<trkpt lat="49.1093946" lon="2.6637910"><ele>113.70</ele><time>2026-4-28T18:22:43Z</time></trkpt>
<trkpt lat="49.1094399" lon="2.6637900"><ele>114.53</ele><time>2026-4-28T18:22:46Z</time></trkpt>
<trkpt lat="49.1094947" lon="2.6637940"><ele>115.31</ele><time>2026-4-28T18:22:49Z</time></trkpt>
<trkpt lat="49.1095416" lon="2.6638135"><ele>114.88</ele><time>2026-4-28T18:22:52Z</time></trkpt>
<trkpt lat="49.1095954" lon="2.6637969"><ele>114.64</ele><time>2026-4-28T18:22:55Z</time></trkpt>
<trkpt lat="49.1096445" lon="2.6637842"><ele>114.61</ele><time>2026-4-28T18:22:58Z</time></trkpt>
<trkpt lat="49.1096886" lon="2.6637669"><ele>114.61</ele><time>2026-4-28T18:23:1Z</time></trkpt>
<trkpt lat="49.1097387" lon="2.6637651"><ele>114.61</ele><time>2026-4-28T18:23:4Z</time></trkpt>
<trkpt lat="49.1097853" lon="2.6637816"><ele>114.61</ele><time>2026-4-28T18:23:7Z</time></trkpt>
<trkpt lat="49.1098396" lon="2.6638174"><ele>114.61</ele><time>2026-4-28T18:23:10Z</time></trkpt>
<trkpt lat="49.1098913" lon="2.6638428"><ele>114.61</ele><time>2026-4-28T18:23:13Z</time></trkpt>
<trkpt lat="49.1099461" lon="2.6638438"><ele>114.34</ele><time>2026-4-28T18:23:16Z</time></trkpt>
<trkpt lat="49.1100003" lon="2.6638479"><ele>114.59</ele><time>2026-4-28T18:23:19Z</time></trkpt>
<trkpt lat="49.1100573" lon="2.6638526"><ele>113.91</ele><time>2026-4-28T18:23:22Z</time></trkpt>
<trkpt lat="49.1101189" lon="2.6638575"><ele>113.64</ele><time>2026-4-28T18:23:25Z</time></trkpt>
<trkpt lat="49.1101698" lon="2.6638461"><ele>112.91</ele><time>2026-4-28T18:23:28Z</time></trkpt>
<trkpt lat="49.1102059" lon="2.6637998"><ele>112.62</ele><time>2026-4-28T18:23:31Z</time></trkpt>
<trkpt lat="49.1102645" lon="2.6638056"><ele>110.60</ele><time>2026-4-28T18:23:34Z</time></trkpt>
<trkpt lat="49.1103142" lon="2.6638106"><ele>111.61</ele><time>2026-4-28T18:23:37Z</time></trkpt>
<trkpt lat="49.1103744" lon="2.6637952"><ele>112.52</ele><time>2026-4-28T18:23:40Z</time></trkpt>
<trkpt lat="49.1104362" lon="2.6638117"><ele>112.61</ele><time>2026-4-28T18:23:43Z</time></trkpt>
<trkpt lat="49.1104808" lon="2.6638252"><ele>112.61</ele><time>2026-4-28T18:23:46Z</time></trkpt>
<trkpt lat="49.1105351" lon="2.6638348"><ele>113.31</ele><time>2026-4-28T18:23:49Z</time></trkpt>
<trkpt lat="49.1105885" lon="2.6638511"><ele>112.88</ele><time>2026-4-28T18:23:52Z</time></trkpt>
<trkpt lat="49.1106420" lon="2.6638628"><ele>112.64</ele><time>2026-4-28T18:23:55Z</time></trkpt>
<trkpt lat="49.1106995" lon="2.6638702"><ele>113.52</ele><time>2026-4-28T18:23:58Z</time></trkpt>
<trkpt lat="49.1107659" lon="2.6638819"><ele>114.51</ele><time>2026-4-28T18:24:1Z</time></trkpt>
<trkpt lat="49.1108232" lon="2.6638866"><ele>114.60</ele><time>2026-4-28T18:24:4Z</time></trkpt>
<trkpt lat="49.1108788" lon="2.6638936"><ele>115.52</ele><time>2026-4-28T18:24:7Z</time></trkpt>
<trkpt lat="49.1109349" lon="2.6639053"><ele>117.21</ele><time>2026-4-28T18:24:10Z</time></trkpt>
<trkpt lat="49.1109974" lon="2.6639158"><ele>117.58</ele><time>2026-4-28T18:24:13Z</time></trkpt>
<trkpt lat="49.1110607" lon="2.6639182"><ele>117.61</ele><time>2026-4-28T18:24:16Z</time></trkpt>
<trkpt lat="49.1111265" lon="2.6639197"><ele>117.61</ele><time>2026-4-28T18:24:19Z</time></trkpt>
<trkpt lat="49.1111938" lon="2.6639229"><ele>118.31</ele><time>2026-4-28T18:24:22Z</time></trkpt>
<trkpt lat="49.1112548" lon="2.6639096"><ele>117.67</ele><time>2026-4-28T18:24:25Z</time></trkpt>
<trkpt lat="49.1113202" lon="2.6639085"><ele>117.62</ele><time>2026-4-28T18:24:28Z</time></trkpt>
<trkpt lat="49.1113885" lon="2.6639033"><ele>117.61</ele><time>2026-4-28T18:24:31Z</time></trkpt>
<trkpt lat="49.1114472" lon="2.6639158"><ele>117.61</ele><time>2026-4-28T18:24:34Z</time></trkpt>
<trkpt lat="49.1115201" lon="2.6639217"><ele>117.61</ele><time>2026-4-28T18:24:37Z</time></trkpt>
<trkpt lat="49.1115955" lon="2.6639140"><ele>117.61</ele><time>2026-4-28T18:24:40Z</time></trkpt>
<trkpt lat="49.1116687" lon="2.6639034"><ele>117.61</ele><time>2026-4-28T18:24:43Z</time></trkpt>
<trkpt lat="49.1117361" lon="2.6639043"><ele>116.91</ele><time>2026-4-28T18:24:46Z</time></trkpt>
<trkpt lat="49.1117980" lon="2.6639068"><ele>116.85</ele><time>2026-4-28T18:24:49Z</time></trkpt>
<trkpt lat="49.1118706" lon="2.6639131"><ele>115.72</ele><time>2026-4-28T18:24:52Z</time></trkpt>
<trkpt lat="49.1119370" lon="2.6639059"><ele>114.71</ele><time>2026-4-28T18:24:55Z</time></trkpt>
<trkpt lat="49.1120089" lon="2.6639119"><ele>115.32</ele><time>2026-4-28T18:24:58Z</time></trkpt>
<trkpt lat="49.1120834" lon="2.6639210"><ele>115.58</ele><time>2026-4-28T18:25:1Z</time></trkpt>
<trkpt lat="49.1121604" lon="2.6639150"><ele>114.91</ele><time>2026-4-28T18:25:4Z</time></trkpt>
<trkpt lat="49.1122341" lon="2.6639158"><ele>114.64</ele><time>2026-4-28T18:25:7Z</time></trkpt>
<trkpt lat="49.1123033" lon="2.6639181"><ele>115.52</ele><time>2026-4-28T18:25:10Z</time></trkpt>
<trkpt lat="49.1123762" lon="2.6639231"><ele>114.90</ele><time>2026-4-28T18:25:13Z</time></trkpt>
<trkpt lat="49.1124544" lon="2.6639257"><ele>114.70</ele><time>2026-4-28T18:25:16Z</time></trkpt>
<trkpt lat="49.1125325" lon="2.6639360"><ele>114.62</ele><time>2026-4-28T18:25:19Z</time></trkpt>
<trkpt lat="49.1126021" lon="2.6639448"><ele>114.61</ele><time>2026-4-28T18:25:22Z</time></trkpt>
<trkpt lat="49.1126745" lon="2.6639402"><ele>113.70</ele><time>2026-4-28T18:25:25Z</time></trkpt>
<trkpt lat="49.1127365" lon="2.6639440"><ele>112.71</ele><time>2026-4-28T18:25:28Z</time></trkpt>
<trkpt lat="49.1128133" lon="2.6639459"><ele>111.92</ele><time>2026-4-28T18:25:31Z</time></trkpt>
<trkpt lat="49.1128860" lon="2.6639564"><ele>112.34</ele><time>2026-4-28T18:25:34Z</time></trkpt>
<trkpt lat="49.1129438" lon="2.6639909"><ele>112.38</ele><time>2026-4-28T18:25:37Z</time></trkpt>
<trkpt lat="49.1129895" lon="2.6640031"><ele>110.02</ele><time>2026-4-28T18:25:40Z</time></trkpt>
<trkpt lat="49.1130343" lon="2.6639720"><ele>106.75</ele><time>2026-4-28T18:25:43Z</time></trkpt>
<trkpt lat="49.1130790" lon="2.6639596"><ele>106.61</ele><time>2026-4-28T18:25:46Z</time></trkpt>
<trkpt lat="49.1131539" lon="2.6639643"><ele>105.91</ele><time>2026-4-28T18:25:49Z</time></trkpt>
<trkpt lat="49.1132157" lon="2.6639462"><ele>105.62</ele><time>2026-4-28T18:25:52Z</time></trkpt>
<trkpt lat="49.1132730" lon="2.6639257"><ele>104.64</ele><time>2026-4-28T18:25:55Z</time></trkpt>
<trkpt lat="49.1133257" lon="2.6639479"><ele>104.82</ele><time>2026-4-28T18:25:58Z</time></trkpt>
<trkpt lat="49.1133768" lon="2.6639578"><ele>105.59</ele><time>2026-4-28T18:26:1Z</time></trkpt>
<trkpt lat="49.1133610" lon="2.6640248"><ele>104.91</ele><time>2026-4-28T18:26:4Z</time></trkpt>
<trkpt lat="49.1133673" lon="2.6639341"><ele>99.94</ele><time>2026-4-28T18:26:7Z</time></trkpt>
<trkpt lat="49.1133743" lon="2.6638445"><ele>99.62</ele><time>2026-4-28T18:26:10Z</time></trkpt>
<trkpt lat="49.1133837" lon="2.6637421"><ele>99.61</ele><time>2026-4-28T18:26:13Z</time></trkpt>
<trkpt lat="49.1133908" lon="2.6636549"><ele>99.61</ele><time>2026-4-28T18:26:16Z</time></trkpt>
<trkpt lat="49.1134002" lon="2.6635537"><ele>99.61</ele><time>2026-4-28T18:26:19Z</time></trkpt>
<trkpt lat="49.1134151" lon="2.6634547"><ele>98.91</ele><time>2026-4-28T18:26:22Z</time></trkpt>
<trkpt lat="49.1134345" lon="2.6633386"><ele>97.94</ele><time>2026-4-28T18:26:25Z</time></trkpt>
<trkpt lat="49.1134465" lon="2.6632721"><ele>97.71</ele><time>2026-4-28T18:26:28Z</time></trkpt>
<trkpt lat="49.1134712" lon="2.6631491"><ele>97.62</ele><time>2026-4-28T18:26:31Z</time></trkpt>
<trkpt lat="49.1134847" lon="2.6630190"><ele>96.70</ele><time>2026-4-28T18:26:34Z</time></trkpt>
<trkpt lat="49.1135042" lon="2.6628983"><ele>97.53</ele><time>2026-4-28T18:26:37Z</time></trkpt>
<trkpt lat="49.1135053" lon="2.6628274"><ele>98.29</ele><time>2026-4-28T18:26:40Z</time></trkpt>
<trkpt lat="49.1135082" lon="2.6626897"><ele>99.28</ele><time>2026-4-28T18:26:43Z</time></trkpt>
<trkpt lat="49.1135094" lon="2.6626207"><ele>99.51</ele><time>2026-4-28T18:26:46Z</time></trkpt>
<trkpt lat="49.1135200" lon="2.6624838"><ele>100.30</ele><time>2026-4-28T18:26:49Z</time></trkpt>
<trkpt lat="49.1135341" lon="2.6623551"><ele>101.28</ele><time>2026-4-28T18:26:52Z</time></trkpt>
<trkpt lat="49.1135430" lon="2.6622796"><ele>101.51</ele><time>2026-4-28T18:26:55Z</time></trkpt>
<trkpt lat="49.1135535" lon="2.6622095"><ele>102.28</ele><time>2026-4-28T18:26:58Z</time></trkpt>
<trkpt lat="49.1135589" lon="2.6621401"><ele>102.51</ele><time>2026-4-28T18:27:1Z</time></trkpt>
<trkpt lat="49.1135738" lon="2.6620071"><ele>102.60</ele><time>2026-4-28T18:27:4Z</time></trkpt>
<trkpt lat="49.1135813" lon="2.6619384"><ele>103.31</ele><time>2026-4-28T18:27:7Z</time></trkpt>
<trkpt lat="49.1135835" lon="2.6618681"><ele>103.52</ele><time>2026-4-28T18:27:10Z</time></trkpt>
<trkpt lat="49.1135806" lon="2.6617370"><ele>103.60</ele><time>2026-4-28T18:27:13Z</time></trkpt>
<trkpt lat="49.1135980" lon="2.6615998"><ele>102.70</ele><time>2026-4-28T18:27:16Z</time></trkpt>
<trkpt lat="49.1136072" lon="2.6615309"><ele>102.64</ele><time>2026-4-28T18:27:19Z</time></trkpt>
<trkpt lat="49.1136113" lon="2.6614565"><ele>103.32</ele><time>2026-4-28T18:27:22Z</time></trkpt>
<trkpt lat="49.1136139" lon="2.6613860"><ele>103.52</ele><time>2026-4-28T18:27:25Z</time></trkpt>
<trkpt lat="49.1136263" lon="2.6612542"><ele>103.60</ele><time>2026-4-28T18:27:28Z</time></trkpt>
<trkpt lat="49.1136361" lon="2.6611188"><ele>103.61</ele><time>2026-4-28T18:27:31Z</time></trkpt>
<trkpt lat="49.1136507" lon="2.6610513"><ele>102.91</ele><time>2026-4-28T18:27:34Z</time></trkpt>
<trkpt lat="49.1136541" lon="2.6609811"><ele>102.70</ele><time>2026-4-28T18:27:37Z</time></trkpt>
<trkpt lat="49.1136623" lon="2.6609115"><ele>102.64</ele><time>2026-4-28T18:27:40Z</time></trkpt>
<trkpt lat="49.1136700" lon="2.6608401"><ele>102.62</ele><time>2026-4-28T18:27:43Z</time></trkpt>
<trkpt lat="49.1136901" lon="2.6607088"><ele>101.70</ele><time>2026-4-28T18:27:46Z</time></trkpt>
<trkpt lat="49.1137025" lon="2.6606358"><ele>101.64</ele><time>2026-4-28T18:27:49Z</time></trkpt>
<trkpt lat="49.1137121" lon="2.6605605"><ele>101.62</ele><time>2026-4-28T18:27:52Z</time></trkpt>
<trkpt lat="49.1137196" lon="2.6604860"><ele>100.91</ele><time>2026-4-28T18:27:55Z</time></trkpt>
<trkpt lat="49.1137276" lon="2.6604076"><ele>100.70</ele><time>2026-4-28T18:27:58Z</time></trkpt>
<trkpt lat="49.1137365" lon="2.6603311"><ele>100.64</ele><time>2026-4-28T18:28:1Z</time></trkpt>
<trkpt lat="49.1137462" lon="2.6602627"><ele>100.62</ele><time>2026-4-28T18:28:4Z</time></trkpt>
<trkpt lat="49.1137556" lon="2.6601204"><ele>100.61</ele><time>2026-4-28T18:28:7Z</time></trkpt>
<trkpt lat="49.1137634" lon="2.6600487"><ele>100.61</ele><time>2026-4-28T18:28:10Z</time></trkpt>
<trkpt lat="49.1137706" lon="2.6599749"><ele>100.61</ele><time>2026-4-28T18:28:13Z</time></trkpt>
<trkpt lat="49.1137736" lon="2.6599060"><ele>100.61</ele><time>2026-4-28T18:28:16Z</time></trkpt>
<trkpt lat="49.1137776" lon="2.6598329"><ele>100.61</ele><time>2026-4-28T18:28:19Z</time></trkpt>
<trkpt lat="49.1137891" lon="2.6597547"><ele>99.91</ele><time>2026-4-28T18:28:22Z</time></trkpt>
<trkpt lat="49.1138015" lon="2.6596819"><ele>99.70</ele><time>2026-4-28T18:28:25Z</time></trkpt>
<trkpt lat="49.1138300" lon="2.6595485"><ele>99.62</ele><time>2026-4-28T18:28:28Z</time></trkpt>
<trkpt lat="49.1138429" lon="2.6594195"><ele>98.91</ele><time>2026-4-28T18:28:31Z</time></trkpt>
<trkpt lat="49.1138517" lon="2.6593496"><ele>98.70</ele><time>2026-4-28T18:28:34Z</time></trkpt>
<trkpt lat="49.1138553" lon="2.6592752"><ele>98.64</ele><time>2026-4-28T18:28:37Z</time></trkpt>
<trkpt lat="49.1138669" lon="2.6591332"><ele>97.70</ele><time>2026-4-28T18:28:40Z</time></trkpt>
<trkpt lat="49.1138783" lon="2.6589968"><ele>97.62</ele><time>2026-4-28T18:28:43Z</time></trkpt>
<trkpt lat="49.1138921" lon="2.6588682"><ele>97.61</ele><time>2026-4-28T18:28:46Z</time></trkpt>
<trkpt lat="49.1139035" lon="2.6587449"><ele>97.61</ele><time>2026-4-28T18:28:49Z</time></trkpt>
<trkpt lat="49.1139144" lon="2.6586169"><ele>97.61</ele><time>2026-4-28T18:28:52Z</time></trkpt>
<trkpt lat="49.1139252" lon="2.6584891"><ele>98.31</ele><time>2026-4-28T18:28:55Z</time></trkpt>
<trkpt lat="49.1139382" lon="2.6583591"><ele>98.58</ele><time>2026-4-28T18:28:58Z</time></trkpt>
<trkpt lat="49.1139451" lon="2.6582389"><ele>98.61</ele><time>2026-4-28T18:29:1Z</time></trkpt>
<trkpt lat="49.1139598" lon="2.6581080"><ele>97.70</ele><time>2026-4-28T18:29:4Z</time></trkpt>
<trkpt lat="49.1139699" lon="2.6579774"><ele>97.62</ele><time>2026-4-28T18:29:7Z</time></trkpt>
<trkpt lat="49.1139856" lon="2.6578416"><ele>97.61</ele><time>2026-4-28T18:29:10Z</time></trkpt>
<trkpt lat="49.1139948" lon="2.6577741"><ele>96.91</ele><time>2026-4-28T18:29:13Z</time></trkpt>
<trkpt lat="49.1140075" lon="2.6576386"><ele>96.64</ele><time>2026-4-28T18:29:16Z</time></trkpt>
<trkpt lat="49.1140164" lon="2.6575710"><ele>96.62</ele><time>2026-4-28T18:29:19Z</time></trkpt>
<trkpt lat="49.1140224" lon="2.6575014"><ele>96.61</ele><time>2026-4-28T18:29:22Z</time></trkpt>
<trkpt lat="49.1140327" lon="2.6573687"><ele>95.70</ele><time>2026-4-28T18:29:25Z</time></trkpt>
<trkpt lat="49.1140439" lon="2.6572374"><ele>94.92</ele><time>2026-4-28T18:29:28Z</time></trkpt>
<trkpt lat="49.1140586" lon="2.6571072"><ele>94.64</ele><time>2026-4-28T18:29:31Z</time></trkpt>
<trkpt lat="49.1140689" lon="2.6569747"><ele>95.52</ele><time>2026-4-28T18:29:34Z</time></trkpt>
<trkpt lat="49.1140826" lon="2.6568499"><ele>95.60</ele><time>2026-4-28T18:29:37Z</time></trkpt>
<trkpt lat="49.1140828" lon="2.6567329"><ele>95.61</ele><time>2026-4-28T18:29:40Z</time></trkpt>
<trkpt lat="49.1140849" lon="2.6566187"><ele>95.61</ele><time>2026-4-28T18:29:43Z</time></trkpt>
<trkpt lat="49.1140933" lon="2.6564985"><ele>94.91</ele><time>2026-4-28T18:29:46Z</time></trkpt>
<trkpt lat="49.1141101" lon="2.6563899"><ele>93.94</ele><time>2026-4-28T18:29:49Z</time></trkpt>
<trkpt lat="49.1141203" lon="2.6562900"><ele>94.55</ele><time>2026-4-28T18:29:52Z</time></trkpt>
<trkpt lat="49.1141328" lon="2.6562066"><ele>94.40</ele><time>2026-4-28T18:29:55Z</time></trkpt>
<trkpt lat="49.1141453" lon="2.6561214"><ele>94.59</ele><time>2026-4-28T18:29:58Z</time></trkpt>
<trkpt lat="49.1141571" lon="2.6560226"><ele>93.91</ele><time>2026-4-28T18:30:1Z</time></trkpt>
<trkpt lat="49.1141641" lon="2.6559177"><ele>93.64</ele><time>2026-4-28T18:30:4Z</time></trkpt>
<trkpt lat="49.1141773" lon="2.6558329"><ele>93.61</ele><time>2026-4-28T18:30:7Z</time></trkpt>
<trkpt lat="49.1141937" lon="2.6557567"><ele>94.52</ele><time>2026-4-28T18:30:10Z</time></trkpt>
<trkpt lat="49.1142046" lon="2.6556643"><ele>94.61</ele><time>2026-4-28T18:30:13Z</time></trkpt>
<trkpt lat="49.1142070" lon="2.6555909"><ele>93.91</ele><time>2026-4-28T18:30:16Z</time></trkpt>
<trkpt lat="49.1142314" lon="2.6554954"><ele>93.64</ele><time>2026-4-28T18:30:19Z</time></trkpt>
<trkpt lat="49.1142531" lon="2.6553893"><ele>92.70</ele><time>2026-4-28T18:30:22Z</time></trkpt>
<trkpt lat="49.1142749" lon="2.6552855"><ele>91.71</ele><time>2026-4-28T18:30:25Z</time></trkpt>
<trkpt lat="49.1142860" lon="2.6551650"><ele>90.92</ele><time>2026-4-28T18:30:28Z</time></trkpt>
<trkpt lat="49.1142843" lon="2.6550955"><ele>90.70</ele><time>2026-4-28T18:30:31Z</time></trkpt>
<trkpt lat="49.1142894" lon="2.6550234"><ele>90.64</ele><time>2026-4-28T18:30:34Z</time></trkpt>
<trkpt lat="49.1142989" lon="2.6549159"><ele>89.91</ele><time>2026-4-28T18:30:37Z</time></trkpt>
<trkpt lat="49.1143163" lon="2.6548113"><ele>89.64</ele><time>2026-4-28T18:30:40Z</time></trkpt>
<trkpt lat="49.1143185" lon="2.6547356"><ele>89.62</ele><time>2026-4-28T18:30:43Z</time></trkpt>
<trkpt lat="49.1143298" lon="2.6546104"><ele>90.52</ele><time>2026-4-28T18:30:46Z</time></trkpt>
<trkpt lat="49.1143360" lon="2.6544700"><ele>89.90</ele><time>2026-4-28T18:30:49Z</time></trkpt>
<trkpt lat="49.1143394" lon="2.6543406"><ele>90.55</ele><time>2026-4-28T18:30:52Z</time></trkpt>
<trkpt lat="49.1143440" lon="2.6542102"><ele>90.61</ele><time>2026-4-28T18:30:55Z</time></trkpt>
<trkpt lat="49.1143478" lon="2.6541411"><ele>90.61</ele><time>2026-4-28T18:30:58Z</time></trkpt>
<trkpt lat="49.1143589" lon="2.6540726"><ele>90.61</ele><time>2026-4-28T18:31:1Z</time></trkpt>
<trkpt lat="49.1143650" lon="2.6539552"><ele>89.91</ele><time>2026-4-28T18:31:4Z</time></trkpt>
<trkpt lat="49.1143696" lon="2.6538853"><ele>90.40</ele><time>2026-4-28T18:31:7Z</time></trkpt>
<trkpt lat="49.1143726" lon="2.6537572"><ele>90.59</ele><time>2026-4-28T18:31:10Z</time></trkpt>
<trkpt lat="49.1143718" lon="2.6536867"><ele>91.31</ele><time>2026-4-28T18:31:13Z</time></trkpt>
<trkpt lat="49.1143647" lon="2.6535706"><ele>91.58</ele><time>2026-4-28T18:31:16Z</time></trkpt>
<trkpt lat="49.1143578" lon="2.6534567"><ele>91.61</ele><time>2026-4-28T18:31:19Z</time></trkpt>
<trkpt lat="49.1143392" lon="2.6533873"><ele>92.31</ele><time>2026-4-28T18:31:22Z</time></trkpt>
<trkpt lat="49.1143236" lon="2.6532656"><ele>93.49</ele><time>2026-4-28T18:31:25Z</time></trkpt>
<trkpt lat="49.1143083" lon="2.6531335"><ele>94.51</ele><time>2026-4-28T18:31:28Z</time></trkpt>
<trkpt lat="49.1142954" lon="2.6530661"><ele>94.58</ele><time>2026-4-28T18:31:31Z</time></trkpt>
<trkpt lat="49.1142758" lon="2.6529972"><ele>95.30</ele><time>2026-4-28T18:31:34Z</time></trkpt>
<trkpt lat="49.1142457" lon="2.6528814"><ele>96.49</ele><time>2026-4-28T18:31:37Z</time></trkpt>
<trkpt lat="49.1142095" lon="2.6527634"><ele>96.60</ele><time>2026-4-28T18:31:40Z</time></trkpt>
<trkpt lat="49.1141786" lon="2.6526364"><ele>97.31</ele><time>2026-4-28T18:31:43Z</time></trkpt>
<trkpt lat="49.1141611" lon="2.6525690"><ele>97.52</ele><time>2026-4-28T18:31:46Z</time></trkpt>
<trkpt lat="49.1141353" lon="2.6524476"><ele>97.60</ele><time>2026-4-28T18:31:49Z</time></trkpt>
<trkpt lat="49.1141140" lon="2.6523321"><ele>98.31</ele><time>2026-4-28T18:31:52Z</time></trkpt>
<trkpt lat="49.1140866" lon="2.6522164"><ele>98.58</ele><time>2026-4-28T18:31:55Z</time></trkpt>
<trkpt lat="49.1140725" lon="2.6521500"><ele>99.30</ele><time>2026-4-28T18:31:58Z</time></trkpt>
<trkpt lat="49.1140535" lon="2.6520819"><ele>99.52</ele><time>2026-4-28T18:32:1Z</time></trkpt>
<trkpt lat="49.1140282" lon="2.6519675"><ele>99.60</ele><time>2026-4-28T18:32:4Z</time></trkpt>
<trkpt lat="49.1140003" lon="2.6518440"><ele>100.31</ele><time>2026-4-28T18:32:7Z</time></trkpt>
<trkpt lat="49.1139790" lon="2.6517205"><ele>100.58</ele><time>2026-4-28T18:32:10Z</time></trkpt>
<trkpt lat="49.1139464" lon="2.6515967"><ele>99.91</ele><time>2026-4-28T18:32:13Z</time></trkpt>
<trkpt lat="49.1139137" lon="2.6514655"><ele>99.85</ele><time>2026-4-28T18:32:16Z</time></trkpt>
<trkpt lat="49.1138859" lon="2.6513422"><ele>100.54</ele><time>2026-4-28T18:32:19Z</time></trkpt>
<trkpt lat="49.1138634" lon="2.6512168"><ele>100.60</ele><time>2026-4-28T18:32:22Z</time></trkpt>
<trkpt lat="49.1138454" lon="2.6510940"><ele>99.91</ele><time>2026-4-28T18:32:25Z</time></trkpt>
<trkpt lat="49.1138141" lon="2.6509720"><ele>99.64</ele><time>2026-4-28T18:32:28Z</time></trkpt>
<trkpt lat="49.1137841" lon="2.6508401"><ele>99.61</ele><time>2026-4-28T18:32:31Z</time></trkpt>
<trkpt lat="49.1137688" lon="2.6507694"><ele>99.61</ele><time>2026-4-28T18:32:34Z</time></trkpt>
<trkpt lat="49.1137551" lon="2.6507010"><ele>99.61</ele><time>2026-4-28T18:32:37Z</time></trkpt>
<trkpt lat="49.1137406" lon="2.6506338"><ele>99.61</ele><time>2026-4-28T18:32:40Z</time></trkpt>
<trkpt lat="49.1137149" lon="2.6505104"><ele>99.61</ele><time>2026-4-28T18:32:43Z</time></trkpt>
<trkpt lat="49.1136912" lon="2.6503870"><ele>99.61</ele><time>2026-4-28T18:32:46Z</time></trkpt>
<trkpt lat="49.1136662" lon="2.6502706"><ele>99.61</ele><time>2026-4-28T18:32:49Z</time></trkpt>
<trkpt lat="49.1136504" lon="2.6502048"><ele>98.91</ele><time>2026-4-28T18:32:52Z</time></trkpt>
<trkpt lat="49.1136384" lon="2.6501375"><ele>98.70</ele><time>2026-4-28T18:32:55Z</time></trkpt>
<trkpt lat="49.1136244" lon="2.6500678"><ele>98.64</ele><time>2026-4-28T18:32:58Z</time></trkpt>
<trkpt lat="49.1135974" lon="2.6499512"><ele>98.61</ele><time>2026-4-28T18:33:1Z</time></trkpt>
<trkpt lat="49.1135713" lon="2.6498446"><ele>98.61</ele><time>2026-4-28T18:33:4Z</time></trkpt>
<trkpt lat="49.1135486" lon="2.6497300"><ele>98.61</ele><time>2026-4-28T18:33:7Z</time></trkpt>
<trkpt lat="49.1135339" lon="2.6496636"><ele>98.61</ele><time>2026-4-28T18:33:10Z</time></trkpt>
<trkpt lat="49.1135246" lon="2.6495908"><ele>97.91</ele><time>2026-4-28T18:33:13Z</time></trkpt>
<trkpt lat="49.1135010" lon="2.6494656"><ele>97.64</ele><time>2026-4-28T18:33:16Z</time></trkpt>
<trkpt lat="49.1134824" lon="2.6494016"><ele>97.62</ele><time>2026-4-28T18:33:19Z</time></trkpt>
<trkpt lat="49.1134616" lon="2.6492712"><ele>97.61</ele><time>2026-4-28T18:33:22Z</time></trkpt>
<trkpt lat="49.1134486" lon="2.6492016"><ele>97.61</ele><time>2026-4-28T18:33:25Z</time></trkpt>
<trkpt lat="49.1134321" lon="2.6491275"><ele>97.61</ele><time>2026-4-28T18:33:28Z</time></trkpt>
<trkpt lat="49.1134150" lon="2.6490482"><ele>97.61</ele><time>2026-4-28T18:33:31Z</time></trkpt>
<trkpt lat="49.1134021" lon="2.6489689"><ele>97.61</ele><time>2026-4-28T18:33:34Z</time></trkpt>
<trkpt lat="49.1133927" lon="2.6488931"><ele>96.91</ele><time>2026-4-28T18:33:37Z</time></trkpt>
<trkpt lat="49.1133783" lon="2.6488117"><ele>96.70</ele><time>2026-4-28T18:33:40Z</time></trkpt>
<trkpt lat="49.1133614" lon="2.6487363"><ele>96.64</ele><time>2026-4-28T18:33:43Z</time></trkpt>
<trkpt lat="49.1133464" lon="2.6486569"><ele>96.62</ele><time>2026-4-28T18:33:46Z</time></trkpt>
<trkpt lat="49.1133341" lon="2.6485800"><ele>96.61</ele><time>2026-4-28T18:33:49Z</time></trkpt>
<trkpt lat="49.1133191" lon="2.6484988"><ele>96.61</ele><time>2026-4-28T18:33:52Z</time></trkpt>
<trkpt lat="49.1133070" lon="2.6484157"><ele>96.61</ele><time>2026-4-28T18:33:55Z</time></trkpt>
<trkpt lat="49.1132909" lon="2.6483355"><ele>95.91</ele><time>2026-4-28T18:33:58Z</time></trkpt>
<trkpt lat="49.1132767" lon="2.6482538"><ele>95.70</ele><time>2026-4-28T18:34:1Z</time></trkpt>
<trkpt lat="49.1132624" lon="2.6481671"><ele>95.64</ele><time>2026-4-28T18:34:4Z</time></trkpt>
<trkpt lat="49.1132443" lon="2.6480818"><ele>94.92</ele><time>2026-4-28T18:34:7Z</time></trkpt>
<trkpt lat="49.1132263" lon="2.6479957"><ele>94.70</ele><time>2026-4-28T18:34:10Z</time></trkpt>
<trkpt lat="49.1132044" lon="2.6479060"><ele>94.64</ele><time>2026-4-28T18:34:13Z</time></trkpt>
<trkpt lat="49.1131892" lon="2.6478149"><ele>93.92</ele><time>2026-4-28T18:34:16Z</time></trkpt>
<trkpt lat="49.1131731" lon="2.6477281"><ele>93.70</ele><time>2026-4-28T18:34:19Z</time></trkpt>
<trkpt lat="49.1131538" lon="2.6476477"><ele>92.94</ele><time>2026-4-28T18:34:22Z</time></trkpt>
<trkpt lat="49.1131372" lon="2.6475664"><ele>92.71</ele><time>2026-4-28T18:34:25Z</time></trkpt>
<trkpt lat="49.1131168" lon="2.6474829"><ele>92.64</ele><time>2026-4-28T18:34:28Z</time></trkpt>
<trkpt lat="49.1130986" lon="2.6474045"><ele>91.92</ele><time>2026-4-28T18:34:31Z</time></trkpt>
<trkpt lat="49.1130776" lon="2.6473213"><ele>91.00</ele><time>2026-4-28T18:34:34Z</time></trkpt>
<trkpt lat="49.1130625" lon="2.6472422"><ele>90.73</ele><time>2026-4-28T18:34:37Z</time></trkpt>
<trkpt lat="49.1130457" lon="2.6471635"><ele>90.65</ele><time>2026-4-28T18:34:40Z</time></trkpt>
<trkpt lat="49.1130278" lon="2.6470831"><ele>89.92</ele><time>2026-4-28T18:34:43Z</time></trkpt>
<trkpt lat="49.1130186" lon="2.6470034"><ele>89.70</ele><time>2026-4-28T18:34:46Z</time></trkpt>
<trkpt lat="49.1130060" lon="2.6469270"><ele>89.64</ele><time>2026-4-28T18:34:49Z</time></trkpt>
<trkpt lat="49.1129861" lon="2.6468469"><ele>89.62</ele><time>2026-4-28T18:34:52Z</time></trkpt>
<trkpt lat="49.1129711" lon="2.6467679"><ele>89.61</ele><time>2026-4-28T18:34:55Z</time></trkpt>
<trkpt lat="49.1129582" lon="2.6466906"><ele>88.91</ele><time>2026-4-28T18:34:58Z</time></trkpt>
<trkpt lat="49.1129399" lon="2.6466178"><ele>88.70</ele><time>2026-4-28T18:35:1Z</time></trkpt>
<trkpt lat="49.1129174" lon="2.6465402"><ele>88.64</ele><time>2026-4-28T18:35:4Z</time></trkpt>
<trkpt lat="49.1128957" lon="2.6464713"><ele>88.62</ele><time>2026-4-28T18:35:7Z</time></trkpt>
<trkpt lat="49.1128770" lon="2.6464066"><ele>87.91</ele><time>2026-4-28T18:35:10Z</time></trkpt>
<trkpt lat="49.1128484" lon="2.6462728"><ele>88.55</ele><time>2026-4-28T18:35:13Z</time></trkpt>
<trkpt lat="49.1128449" lon="2.6461941"><ele>88.59</ele><time>2026-4-28T18:35:16Z</time></trkpt>
<trkpt lat="49.1128468" lon="2.6461138"><ele>88.61</ele><time>2026-4-28T18:35:19Z</time></trkpt>
<trkpt lat="49.1128505" lon="2.6460387"><ele>88.61</ele><time>2026-4-28T18:35:22Z</time></trkpt>
<trkpt lat="49.1128589" lon="2.6459176"><ele>88.61</ele><time>2026-4-28T18:35:25Z</time></trkpt>
<trkpt lat="49.1128660" lon="2.6458363"><ele>88.61</ele><time>2026-4-28T18:35:28Z</time></trkpt>
<trkpt lat="49.1128799" lon="2.6457625"><ele>88.61</ele><time>2026-4-28T18:35:31Z</time></trkpt>
<trkpt lat="49.1128688" lon="2.6456874"><ele>85.92</ele><time>2026-4-28T18:35:34Z</time></trkpt>
<trkpt lat="49.1128711" lon="2.6455916"><ele>83.92</ele><time>2026-4-28T18:35:37Z</time></trkpt>
<trkpt lat="49.1128813" lon="2.6455037"><ele>83.62</ele><time>2026-4-28T18:35:40Z</time></trkpt>
<trkpt lat="49.1128873" lon="2.6454279"><ele>83.61</ele><time>2026-4-28T18:35:43Z</time></trkpt>
<trkpt lat="49.1128970" lon="2.6453255"><ele>82.91</ele><time>2026-4-28T18:35:46Z</time></trkpt>
<trkpt lat="49.1129030" lon="2.6452134"><ele>82.64</ele><time>2026-4-28T18:35:49Z</time></trkpt>
<trkpt lat="49.1129073" lon="2.6450898"><ele>81.91</ele><time>2026-4-28T18:35:52Z</time></trkpt>
<trkpt lat="49.1129141" lon="2.6449712"><ele>81.64</ele><time>2026-4-28T18:35:55Z</time></trkpt>
<trkpt lat="49.1129248" lon="2.6448562"><ele>81.61</ele><time>2026-4-28T18:35:58Z</time></trkpt>
<trkpt lat="49.1129383" lon="2.6447423"><ele>80.70</ele><time>2026-4-28T18:36:1Z</time></trkpt>
<trkpt lat="49.1129459" lon="2.6446262"><ele>79.01</ele><time>2026-4-28T18:36:4Z</time></trkpt>
<trkpt lat="49.1129470" lon="2.6445109"><ele>77.74</ele><time>2026-4-28T18:36:7Z</time></trkpt>
<trkpt lat="49.1129389" lon="2.6443894"><ele>77.62</ele><time>2026-4-28T18:36:10Z</time></trkpt>
<trkpt lat="49.1129307" lon="2.6442715"><ele>77.61</ele><time>2026-4-28T18:36:13Z</time></trkpt>
<trkpt lat="49.1129206" lon="2.6441528"><ele>78.31</ele><time>2026-4-28T18:36:16Z</time></trkpt>
<trkpt lat="49.1129123" lon="2.6440308"><ele>78.58</ele><time>2026-4-28T18:36:19Z</time></trkpt>
<trkpt lat="49.1129103" lon="2.6439280"><ele>78.61</ele><time>2026-4-28T18:36:22Z</time></trkpt>
<trkpt lat="49.1129161" lon="2.6438313"><ele>78.61</ele><time>2026-4-28T18:36:25Z</time></trkpt>
<trkpt lat="49.1129298" lon="2.6437410"><ele>78.61</ele><time>2026-4-28T18:36:28Z</time></trkpt>
<trkpt lat="49.1129406" lon="2.6436429"><ele>77.70</ele><time>2026-4-28T18:36:31Z</time></trkpt>
<trkpt lat="49.1129558" lon="2.6435387"><ele>77.62</ele><time>2026-4-28T18:36:34Z</time></trkpt>
<trkpt lat="49.1129812" lon="2.6434403"><ele>77.61</ele><time>2026-4-28T18:36:37Z</time></trkpt>
<trkpt lat="49.1130198" lon="2.6433613"><ele>77.61</ele><time>2026-4-28T18:36:40Z</time></trkpt>
<trkpt lat="49.1130569" lon="2.6432861"><ele>77.61</ele><time>2026-4-28T18:36:43Z</time></trkpt>
<trkpt lat="49.1131053" lon="2.6432256"><ele>76.91</ele><time>2026-4-28T18:36:46Z</time></trkpt>
<trkpt lat="49.1131493" lon="2.6431675"><ele>76.64</ele><time>2026-4-28T18:36:49Z</time></trkpt>
<trkpt lat="49.1131920" lon="2.6431204"><ele>76.61</ele><time>2026-4-28T18:36:52Z</time></trkpt>
<trkpt lat="49.1132297" lon="2.6430777"><ele>75.70</ele><time>2026-4-28T18:36:55Z</time></trkpt>
<trkpt lat="49.1132671" lon="2.6430382"><ele>75.62</ele><time>2026-4-28T18:36:58Z</time></trkpt>
<trkpt lat="49.1133055" lon="2.6429897"><ele>74.70</ele><time>2026-4-28T18:37:1Z</time></trkpt>
<trkpt lat="49.1133504" lon="2.6429339"><ele>74.62</ele><time>2026-4-28T18:37:4Z</time></trkpt>
<trkpt lat="49.1133956" lon="2.6428716"><ele>73.91</ele><time>2026-4-28T18:37:7Z</time></trkpt>
<trkpt lat="49.1134406" lon="2.6428057"><ele>74.34</ele><time>2026-4-28T18:37:10Z</time></trkpt>
<trkpt lat="49.1134800" lon="2.6427370"><ele>74.59</ele><time>2026-4-28T18:37:13Z</time></trkpt>
<trkpt lat="49.1135165" lon="2.6426743"><ele>74.61</ele><time>2026-4-28T18:37:16Z</time></trkpt>
<trkpt lat="49.1135487" lon="2.6426014"><ele>75.52</ele><time>2026-4-28T18:37:19Z</time></trkpt>
<trkpt lat="49.1135810" lon="2.6425391"><ele>76.51</ele><time>2026-4-28T18:37:22Z</time></trkpt>
<trkpt lat="49.1136080" lon="2.6424728"><ele>77.51</ele><time>2026-4-28T18:37:25Z</time></trkpt>
<trkpt lat="49.1136257" lon="2.6423873"><ele>77.60</ele><time>2026-4-28T18:37:28Z</time></trkpt>
<trkpt lat="49.1136370" lon="2.6423062"><ele>77.61</ele><time>2026-4-28T18:37:31Z</time></trkpt>
<trkpt lat="49.1136550" lon="2.6422150"><ele>78.52</ele><time>2026-4-28T18:37:34Z</time></trkpt>
<trkpt lat="49.1136717" lon="2.6421157"><ele>78.60</ele><time>2026-4-28T18:37:37Z</time></trkpt>
<trkpt lat="49.1136891" lon="2.6420149"><ele>78.61</ele><time>2026-4-28T18:37:40Z</time></trkpt>
<trkpt lat="49.1136953" lon="2.6419040"><ele>79.52</ele><time>2026-4-28T18:37:43Z</time></trkpt>
<trkpt lat="49.1137135" lon="2.6418079"><ele>79.60</ele><time>2026-4-28T18:37:46Z</time></trkpt>
<trkpt lat="49.1137305" lon="2.6417093"><ele>79.61</ele><time>2026-4-28T18:37:49Z</time></trkpt>
<trkpt lat="49.1137463" lon="2.6416085"><ele>79.61</ele><time>2026-4-28T18:37:52Z</time></trkpt>
<trkpt lat="49.1137552" lon="2.6415097"><ele>79.61</ele><time>2026-4-28T18:37:55Z</time></trkpt>
<trkpt lat="49.1137670" lon="2.6414058"><ele>79.61</ele><time>2026-4-28T18:37:58Z</time></trkpt>
<trkpt lat="49.1137765" lon="2.6412950"><ele>79.61</ele><time>2026-4-28T18:38:1Z</time></trkpt>
<trkpt lat="49.1137890" lon="2.6411990"><ele>79.61</ele><time>2026-4-28T18:38:4Z</time></trkpt>
<trkpt lat="49.1137920" lon="2.6411189"><ele>78.70</ele><time>2026-4-28T18:38:7Z</time></trkpt>
<trkpt lat="49.1137965" lon="2.6410399"><ele>78.62</ele><time>2026-4-28T18:38:10Z</time></trkpt>
<trkpt lat="49.1138188" lon="2.6409619"><ele>78.61</ele><time>2026-4-28T18:38:13Z</time></trkpt>
<trkpt lat="49.1138643" lon="2.6409187"><ele>78.61</ele><time>2026-4-28T18:38:16Z</time></trkpt>
<trkpt lat="49.1139221" lon="2.6409193"><ele>78.61</ele><time>2026-4-28T18:38:19Z</time></trkpt>
<trkpt lat="49.1139784" lon="2.6409186"><ele>77.91</ele><time>2026-4-28T18:38:22Z</time></trkpt>
<trkpt lat="49.1140259" lon="2.6409149"><ele>77.64</ele><time>2026-4-28T18:38:25Z</time></trkpt>
<trkpt lat="49.1140797" lon="2.6409051"><ele>76.91</ele><time>2026-4-28T18:38:28Z</time></trkpt>
<trkpt lat="49.1141468" lon="2.6409006"><ele>76.85</ele><time>2026-4-28T18:38:31Z</time></trkpt>
<trkpt lat="49.1142133" lon="2.6408916"><ele>76.63</ele><time>2026-4-28T18:38:34Z</time></trkpt>
<trkpt lat="49.1142733" lon="2.6408794"><ele>75.70</ele><time>2026-4-28T18:38:37Z</time></trkpt>
<trkpt lat="49.1143399" lon="2.6408747"><ele>75.62</ele><time>2026-4-28T18:38:40Z</time></trkpt>
<trkpt lat="49.1144116" lon="2.6408696"><ele>75.61</ele><time>2026-4-28T18:38:43Z</time></trkpt>
<trkpt lat="49.1144750" lon="2.6408630"><ele>74.70</ele><time>2026-4-28T18:38:46Z</time></trkpt>
<trkpt lat="49.1145422" lon="2.6408594"><ele>74.62</ele><time>2026-4-28T18:38:49Z</time></trkpt>
<trkpt lat="49.1145958" lon="2.6408494"><ele>74.61</ele><time>2026-4-28T18:38:52Z</time></trkpt>
<trkpt lat="49.1146561" lon="2.6408476"><ele>74.61</ele><time>2026-4-28T18:38:55Z</time></trkpt>
<trkpt lat="49.1147134" lon="2.6408406"><ele>74.61</ele><time>2026-4-28T18:38:58Z</time></trkpt>
<trkpt lat="49.1147687" lon="2.6408309"><ele>73.70</ele><time>2026-4-28T18:39:1Z</time></trkpt>
<trkpt lat="49.1148185" lon="2.6408342"><ele>73.62</ele><time>2026-4-28T18:39:4Z</time></trkpt>
<trkpt lat="49.1148734" lon="2.6408271"><ele>72.70</ele><time>2026-4-28T18:39:7Z</time></trkpt>
<trkpt lat="49.1149266" lon="2.6408234"><ele>72.62</ele><time>2026-4-28T18:39:10Z</time></trkpt>
<trkpt lat="49.1149838" lon="2.6408165"><ele>71.91</ele><time>2026-4-28T18:39:13Z</time></trkpt>
<trkpt lat="49.1150456" lon="2.6408037"><ele>71.64</ele><time>2026-4-28T18:39:16Z</time></trkpt>
<trkpt lat="49.1151068" lon="2.6407923"><ele>71.61</ele><time>2026-4-28T18:39:19Z</time></trkpt>
<trkpt lat="49.1151649" lon="2.6407700"><ele>70.70</ele><time>2026-4-28T18:39:22Z</time></trkpt>
<trkpt lat="49.1152317" lon="2.6407559"><ele>69.92</ele><time>2026-4-28T18:39:25Z</time></trkpt>
<trkpt lat="49.1152861" lon="2.6407310"><ele>69.64</ele><time>2026-4-28T18:39:28Z</time></trkpt>
<trkpt lat="49.1153495" lon="2.6407012"><ele>69.61</ele><time>2026-4-28T18:39:31Z</time></trkpt>
<trkpt lat="49.1154142" lon="2.6406586"><ele>70.31</ele><time>2026-4-28T18:39:34Z</time></trkpt>
<trkpt lat="49.1154714" lon="2.6406224"><ele>71.28</ele><time>2026-4-28T18:39:37Z</time></trkpt>
<trkpt lat="49.1155192" lon="2.6405869"><ele>72.49</ele><time>2026-4-28T18:39:40Z</time></trkpt>
<trkpt lat="49.1155601" lon="2.6405536"><ele>72.60</ele><time>2026-4-28T18:39:43Z</time></trkpt>
<trkpt lat="49.1156006" lon="2.6405147"><ele>73.52</ele><time>2026-4-28T18:39:46Z</time></trkpt>
<trkpt lat="49.1156440" lon="2.6404743"><ele>74.51</ele><time>2026-4-28T18:39:49Z</time></trkpt>
<trkpt lat="49.1156997" lon="2.6404231"><ele>75.51</ele><time>2026-4-28T18:39:52Z</time></trkpt>
<trkpt lat="49.1157568" lon="2.6403657"><ele>76.30</ele><time>2026-4-28T18:39:55Z</time></trkpt>
<trkpt lat="49.1158204" lon="2.6402867"><ele>75.67</ele><time>2026-4-28T18:39:58Z</time></trkpt>
<trkpt lat="49.1158840" lon="2.6402136"><ele>76.53</ele><time>2026-4-28T18:40:1Z</time></trkpt>
<trkpt lat="49.1159548" lon="2.6401507"><ele>76.60</ele><time>2026-4-28T18:40:4Z</time></trkpt>
<trkpt lat="49.1160341" lon="2.6400781"><ele>76.61</ele><time>2026-4-28T18:40:7Z</time></trkpt>
<trkpt lat="49.1160794" lon="2.6400394"><ele>77.31</ele><time>2026-4-28T18:40:10Z</time></trkpt>
<trkpt lat="49.1161389" lon="2.6399598"><ele>78.49</ele><time>2026-4-28T18:40:13Z</time></trkpt>
<trkpt lat="49.1162100" lon="2.6399100"><ele>77.69</ele><time>2026-4-28T18:40:16Z</time></trkpt>
<trkpt lat="49.1162823" lon="2.6398776"><ele>78.32</ele><time>2026-4-28T18:40:19Z</time></trkpt>
<trkpt lat="49.1163580" lon="2.6398583"><ele>79.49</ele><time>2026-4-28T18:40:22Z</time></trkpt>
<trkpt lat="49.1164400" lon="2.6398770"><ele>78.90</ele><time>2026-4-28T18:40:25Z</time></trkpt>
<trkpt lat="49.1165124" lon="2.6398909"><ele>78.64</ele><time>2026-4-28T18:40:28Z</time></trkpt>
<trkpt lat="49.1165881" lon="2.6398927"><ele>77.91</ele><time>2026-4-28T18:40:31Z</time></trkpt>
<trkpt lat="49.1166689" lon="2.6399067"><ele>76.94</ele><time>2026-4-28T18:40:34Z</time></trkpt>
<trkpt lat="49.1167518" lon="2.6399147"><ele>76.64</ele><time>2026-4-28T18:40:37Z</time></trkpt>
<trkpt lat="49.1168283" lon="2.6399236"><ele>75.70</ele><time>2026-4-28T18:40:40Z</time></trkpt>
<trkpt lat="49.1168984" lon="2.6399387"><ele>74.92</ele><time>2026-4-28T18:40:43Z</time></trkpt>
<trkpt lat="49.1169647" lon="2.6399519"><ele>74.64</ele><time>2026-4-28T18:40:46Z</time></trkpt>
<trkpt lat="49.1170298" lon="2.6399659"><ele>74.61</ele><time>2026-4-28T18:40:49Z</time></trkpt>
<trkpt lat="49.1170843" lon="2.6399858"><ele>74.61</ele><time>2026-4-28T18:40:52Z</time></trkpt>
<trkpt lat="49.1171356" lon="2.6399904"><ele>73.70</ele><time>2026-4-28T18:40:55Z</time></trkpt>
<trkpt lat="49.1171946" lon="2.6399856"><ele>73.62</ele><time>2026-4-28T18:40:58Z</time></trkpt>
<trkpt lat="49.1172571" lon="2.6399739"><ele>73.61</ele><time>2026-4-28T18:41:1Z</time></trkpt>
<trkpt lat="49.1173200" lon="2.6399660"><ele>73.61</ele><time>2026-4-28T18:41:4Z</time></trkpt>
<trkpt lat="49.1173806" lon="2.6399599"><ele>73.61</ele><time>2026-4-28T18:41:7Z</time></trkpt>
<trkpt lat="49.1174411" lon="2.6399536"><ele>73.61</ele><time>2026-4-28T18:41:10Z</time></trkpt>
<trkpt lat="49.1175034" lon="2.6399470"><ele>73.61</ele><time>2026-4-28T18:41:13Z</time></trkpt>
<trkpt lat="49.1175680" lon="2.6399409"><ele>74.31</ele><time>2026-4-28T18:41:16Z</time></trkpt>
<trkpt lat="49.1176328" lon="2.6399171"><ele>74.58</ele><time>2026-4-28T18:41:19Z</time></trkpt>
<trkpt lat="49.1176975" lon="2.6399034"><ele>75.31</ele><time>2026-4-28T18:41:22Z</time></trkpt>
<trkpt lat="49.1177570" lon="2.6398859"><ele>76.28</ele><time>2026-4-28T18:41:25Z</time></trkpt>
<trkpt lat="49.1178086" lon="2.6398733"><ele>76.58</ele><time>2026-4-28T18:41:28Z</time></trkpt>
<trkpt lat="49.1178719" lon="2.6398672"><ele>76.61</ele><time>2026-4-28T18:41:31Z</time></trkpt>
<trkpt lat="49.1179217" lon="2.6398641"><ele>77.52</ele><time>2026-4-28T18:41:34Z</time></trkpt>
<trkpt lat="49.1179782" lon="2.6398549"><ele>77.60</ele><time>2026-4-28T18:41:37Z</time></trkpt>
<trkpt lat="49.1180410" lon="2.6398361"><ele>77.61</ele><time>2026-4-28T18:41:40Z</time></trkpt>
<trkpt lat="49.1180995" lon="2.6398274"><ele>78.31</ele><time>2026-4-28T18:41:43Z</time></trkpt>
<trkpt lat="49.1181490" lon="2.6398256"><ele>78.58</ele><time>2026-4-28T18:41:46Z</time></trkpt>
<trkpt lat="49.1182048" lon="2.6398466"><ele>78.61</ele><time>2026-4-28T18:41:49Z</time></trkpt>
<trkpt lat="49.1182609" lon="2.6398712"><ele>79.31</ele><time>2026-4-28T18:41:52Z</time></trkpt>
<trkpt lat="49.1183237" lon="2.6398905"><ele>79.60</ele><time>2026-4-28T18:41:55Z</time></trkpt>
<trkpt lat="49.1183682" lon="2.6399145"><ele>79.61</ele><time>2026-4-28T18:41:58Z</time></trkpt>
<trkpt lat="49.1184119" lon="2.6399365"><ele>80.52</ele><time>2026-4-28T18:42:1Z</time></trkpt>
<trkpt lat="49.1184520" lon="2.6399760"><ele>81.30</ele><time>2026-4-28T18:42:4Z</time></trkpt>
<trkpt lat="49.1184934" lon="2.6400175"><ele>81.58</ele><time>2026-4-28T18:42:7Z</time></trkpt>
<trkpt lat="49.1185443" lon="2.6400713"><ele>81.61</ele><time>2026-4-28T18:42:10Z</time></trkpt>
<trkpt lat="49.1185858" lon="2.6401341"><ele>82.52</ele><time>2026-4-28T18:42:13Z</time></trkpt>
<trkpt lat="49.1186244" lon="2.6401856"><ele>82.60</ele><time>2026-4-28T18:42:16Z</time></trkpt>
<trkpt lat="49.1186612" lon="2.6402417"><ele>83.31</ele><time>2026-4-28T18:42:19Z</time></trkpt>
<trkpt lat="49.1186946" lon="2.6402986"><ele>83.58</ele><time>2026-4-28T18:42:22Z</time></trkpt>
<trkpt lat="49.1187478" lon="2.6403547"><ele>83.61</ele><time>2026-4-28T18:42:25Z</time></trkpt>
<trkpt lat="49.1188121" lon="2.6403818"><ele>83.61</ele><time>2026-4-28T18:42:28Z</time></trkpt>
<trkpt lat="49.1188588" lon="2.6404131"><ele>85.28</ele><time>2026-4-28T18:42:31Z</time></trkpt>
<trkpt lat="49.1189124" lon="2.6404360"><ele>86.51</ele><time>2026-4-28T18:42:34Z</time></trkpt>
<trkpt lat="49.1189590" lon="2.6404535"><ele>88.28</ele><time>2026-4-28T18:42:37Z</time></trkpt>
<trkpt lat="49.1190135" lon="2.6404486"><ele>88.60</ele><time>2026-4-28T18:42:40Z</time></trkpt>
<trkpt lat="49.1190689" lon="2.6404455"><ele>90.30</ele><time>2026-4-28T18:42:43Z</time></trkpt>
<trkpt lat="49.1191210" lon="2.6404455"><ele>90.60</ele><time>2026-4-28T18:42:46Z</time></trkpt>
<trkpt lat="49.1191718" lon="2.6404754"><ele>91.31</ele><time>2026-4-28T18:42:49Z</time></trkpt>
<trkpt lat="49.1192211" lon="2.6404978"><ele>92.51</ele><time>2026-4-28T18:42:52Z</time></trkpt>
<trkpt lat="49.1192623" lon="2.6405334"><ele>93.52</ele><time>2026-4-28T18:42:55Z</time></trkpt>
<trkpt lat="49.1193089" lon="2.6405694"><ele>95.28</ele><time>2026-4-28T18:42:58Z</time></trkpt>
<trkpt lat="49.1193590" lon="2.6405919"><ele>94.69</ele><time>2026-4-28T18:43:1Z</time></trkpt>
<trkpt lat="49.1194130" lon="2.6406284"><ele>94.41</ele><time>2026-4-28T18:43:4Z</time></trkpt>
<trkpt lat="49.1194775" lon="2.6406650"><ele>93.68</ele><time>2026-4-28T18:43:7Z</time></trkpt>
<trkpt lat="49.1195330" lon="2.6407203"><ele>94.32</ele><time>2026-4-28T18:43:10Z</time></trkpt>
<trkpt lat="49.1195951" lon="2.6407745"><ele>94.58</ele><time>2026-4-28T18:43:13Z</time></trkpt>
<trkpt lat="49.1196537" lon="2.6408286"><ele>95.31</ele><time>2026-4-28T18:43:16Z</time></trkpt>
<trkpt lat="49.1197073" lon="2.6408770"><ele>96.28</ele><time>2026-4-28T18:43:19Z</time></trkpt>
<trkpt lat="49.1197579" lon="2.6409141"><ele>96.58</ele><time>2026-4-28T18:43:22Z</time></trkpt>
<trkpt lat="49.1198121" lon="2.6409524"><ele>96.61</ele><time>2026-4-28T18:43:25Z</time></trkpt>
<trkpt lat="49.1198650" lon="2.6409969"><ele>96.40</ele><time>2026-4-28T18:43:28Z</time></trkpt>
<trkpt lat="49.1199183" lon="2.6410460"><ele>95.89</ele><time>2026-4-28T18:43:31Z</time></trkpt>
<trkpt lat="49.1199751" lon="2.6411037"><ele>96.55</ele><time>2026-4-28T18:43:34Z</time></trkpt>
<trkpt lat="49.1200225" lon="2.6411725"><ele>96.61</ele><time>2026-4-28T18:43:37Z</time></trkpt>
<trkpt lat="49.1200741" lon="2.6412346"><ele>96.61</ele><time>2026-4-28T18:43:40Z</time></trkpt>
<trkpt lat="49.1201338" lon="2.6412986"><ele>96.61</ele><time>2026-4-28T18:43:43Z</time></trkpt>
<trkpt lat="49.1201870" lon="2.6413671"><ele>96.61</ele><time>2026-4-28T18:43:46Z</time></trkpt>
<trkpt lat="49.1202361" lon="2.6414425"><ele>96.61</ele><time>2026-4-28T18:43:49Z</time></trkpt>
<trkpt lat="49.1202958" lon="2.6415055"><ele>97.52</ele><time>2026-4-28T18:43:52Z</time></trkpt>
<trkpt lat="49.1203536" lon="2.6415644"><ele>98.51</ele><time>2026-4-28T18:43:55Z</time></trkpt>
<trkpt lat="49.1204077" lon="2.6416199"><ele>99.30</ele><time>2026-4-28T18:43:58Z</time></trkpt>
<trkpt lat="49.1204558" lon="2.6416700"><ele>100.28</ele><time>2026-4-28T18:44:1Z</time></trkpt>
<trkpt lat="49.1205080" lon="2.6417201"><ele>101.49</ele><time>2026-4-28T18:44:4Z</time></trkpt>
<trkpt lat="49.1205588" lon="2.6417704"><ele>101.60</ele><time>2026-4-28T18:44:7Z</time></trkpt>
<trkpt lat="49.1206042" lon="2.6418351"><ele>101.61</ele><time>2026-4-28T18:44:10Z</time></trkpt>
<trkpt lat="49.1206525" lon="2.6418935"><ele>102.52</ele><time>2026-4-28T18:44:13Z</time></trkpt>
<trkpt lat="49.1207090" lon="2.6419370"><ele>102.60</ele><time>2026-4-28T18:44:16Z</time></trkpt>
<trkpt lat="49.1207706" lon="2.6420044"><ele>102.61</ele><time>2026-4-28T18:44:19Z</time></trkpt>
<trkpt lat="49.1208428" lon="2.6420756"><ele>103.31</ele><time>2026-4-28T18:44:22Z</time></trkpt>
<trkpt lat="49.1208886" lon="2.6421209"><ele>104.22</ele><time>2026-4-28T18:44:25Z</time></trkpt>
<trkpt lat="49.1209549" lon="2.6422123"><ele>104.58</ele><time>2026-4-28T18:44:28Z</time></trkpt>
<trkpt lat="49.1210157" lon="2.6422899"><ele>106.22</ele><time>2026-4-28T18:44:31Z</time></trkpt>
<trkpt lat="49.1210665" lon="2.6423847"><ele>106.58</ele><time>2026-4-28T18:44:34Z</time></trkpt>
<trkpt lat="49.1211254" lon="2.6424811"><ele>106.40</ele><time>2026-4-28T18:44:37Z</time></trkpt>
<trkpt lat="49.1211871" lon="2.6425557"><ele>107.08</ele><time>2026-4-28T18:44:40Z</time></trkpt>
<trkpt lat="49.1212345" lon="2.6426222"><ele>109.17</ele><time>2026-4-28T18:44:43Z</time></trkpt>
<trkpt lat="49.1212882" lon="2.6426901"><ele>109.57</ele><time>2026-4-28T18:44:46Z</time></trkpt>
<trkpt lat="49.1213400" lon="2.6427631"><ele>108.00</ele><time>2026-4-28T18:44:49Z</time></trkpt>
<trkpt lat="49.1213903" lon="2.6428381"><ele>108.35</ele><time>2026-4-28T18:44:52Z</time></trkpt>
<trkpt lat="49.1214409" lon="2.6429079"><ele>108.59</ele><time>2026-4-28T18:44:55Z</time></trkpt>
<trkpt lat="49.1214991" lon="2.6429833"><ele>108.61</ele><time>2026-4-28T18:44:58Z</time></trkpt>
<trkpt lat="49.1215579" lon="2.6430442"><ele>108.61</ele><time>2026-4-28T18:45:1Z</time></trkpt>
<trkpt lat="49.1216230" lon="2.6431127"><ele>108.40</ele><time>2026-4-28T18:45:4Z</time></trkpt>
<trkpt lat="49.1216852" lon="2.6431583"><ele>107.89</ele><time>2026-4-28T18:45:7Z</time></trkpt>
<trkpt lat="49.1217565" lon="2.6431812"><ele>107.64</ele><time>2026-4-28T18:45:10Z</time></trkpt>
<trkpt lat="49.1218119" lon="2.6432205"><ele>108.31</ele><time>2026-4-28T18:45:13Z</time></trkpt>
<trkpt lat="49.1218701" lon="2.6432613"><ele>108.58</ele><time>2026-4-28T18:45:16Z</time></trkpt>
<trkpt lat="49.1219199" lon="2.6433037"><ele>107.91</ele><time>2026-4-28T18:45:19Z</time></trkpt>
<trkpt lat="49.1219666" lon="2.6433203"><ele>107.61</ele><time>2026-4-28T18:45:22Z</time></trkpt>
<trkpt lat="49.1220097" lon="2.6433612"><ele>106.70</ele><time>2026-4-28T18:45:25Z</time></trkpt>
<trkpt lat="49.1220655" lon="2.6434140"><ele>106.61</ele><time>2026-4-28T18:45:28Z</time></trkpt>
<trkpt lat="49.1221146" lon="2.6434624"><ele>107.52</ele><time>2026-4-28T18:45:31Z</time></trkpt>
<trkpt lat="49.1221604" lon="2.6435109"><ele>107.60</ele><time>2026-4-28T18:45:34Z</time></trkpt>
<trkpt lat="49.1222060" lon="2.6435576"><ele>107.61</ele><time>2026-4-28T18:45:37Z</time></trkpt>
<trkpt lat="49.1222624" lon="2.6436066"><ele>107.61</ele><time>2026-4-28T18:45:40Z</time></trkpt>
<trkpt lat="49.1223312" lon="2.6436358"><ele>106.70</ele><time>2026-4-28T18:45:43Z</time></trkpt>
<trkpt lat="49.1224051" lon="2.6436663"><ele>105.92</ele><time>2026-4-28T18:45:46Z</time></trkpt>
<trkpt lat="49.1224825" lon="2.6437269"><ele>104.94</ele><time>2026-4-28T18:45:49Z</time></trkpt>
<trkpt lat="49.1225393" lon="2.6438012"><ele>104.64</ele><time>2026-4-28T18:45:52Z</time></trkpt>
<trkpt lat="49.1225944" lon="2.6438741"><ele>104.61</ele><time>2026-4-28T18:45:55Z</time></trkpt>
<trkpt lat="49.1226481" lon="2.6439398"><ele>104.61</ele><time>2026-4-28T18:45:58Z</time></trkpt>
<trkpt lat="49.1227021" lon="2.6440183"><ele>104.61</ele><time>2026-4-28T18:46:1Z</time></trkpt>
<trkpt lat="49.1227542" lon="2.6441090"><ele>103.91</ele><time>2026-4-28T18:46:4Z</time></trkpt>
<trkpt lat="49.1228122" lon="2.6441862"><ele>103.64</ele><time>2026-4-28T18:46:7Z</time></trkpt>
<trkpt lat="49.1228617" lon="2.6442547"><ele>103.61</ele><time>2026-4-28T18:46:10Z</time></trkpt>
<trkpt lat="49.1229224" lon="2.6443180"><ele>102.70</ele><time>2026-4-28T18:46:13Z</time></trkpt>
<trkpt lat="49.1229858" lon="2.6443812"><ele>103.53</ele><time>2026-4-28T18:46:16Z</time></trkpt>
<trkpt lat="49.1230523" lon="2.6444275"><ele>103.60</ele><time>2026-4-28T18:46:19Z</time></trkpt>
<trkpt lat="49.1231222" lon="2.6444725"><ele>102.70</ele><time>2026-4-28T18:46:22Z</time></trkpt>
<trkpt lat="49.1231937" lon="2.6445293"><ele>102.62</ele><time>2026-4-28T18:46:25Z</time></trkpt>
<trkpt lat="49.1232676" lon="2.6445646"><ele>102.61</ele><time>2026-4-28T18:46:28Z</time></trkpt>
<trkpt lat="49.1233331" lon="2.6446057"><ele>102.61</ele><time>2026-4-28T18:46:31Z</time></trkpt>
<trkpt lat="49.1234073" lon="2.6446573"><ele>102.61</ele><time>2026-4-28T18:46:34Z</time></trkpt>
<trkpt lat="49.1234747" lon="2.6447229"><ele>101.70</ele><time>2026-4-28T18:46:37Z</time></trkpt>
<trkpt lat="49.1235254" lon="2.6447453"><ele>101.61</ele><time>2026-4-28T18:46:40Z</time></trkpt>
<trkpt lat="49.1235681" lon="2.6447805"><ele>101.61</ele><time>2026-4-28T18:46:43Z</time></trkpt>
<trkpt lat="49.1236159" lon="2.6448085"><ele>100.70</ele><time>2026-4-28T18:46:46Z</time></trkpt>
<trkpt lat="49.1236599" lon="2.6448377"><ele>100.62</ele><time>2026-4-28T18:46:49Z</time></trkpt>
<trkpt lat="49.1237148" lon="2.6448622"><ele>99.70</ele><time>2026-4-28T18:46:52Z</time></trkpt>
<trkpt lat="49.1237819" lon="2.6448872"><ele>99.62</ele><time>2026-4-28T18:46:55Z</time></trkpt>
<trkpt lat="49.1238367" lon="2.6449115"><ele>99.61</ele><time>2026-4-28T18:46:58Z</time></trkpt>
<trkpt lat="49.1238920" lon="2.6449432"><ele>99.61</ele><time>2026-4-28T18:47:1Z</time></trkpt>
<trkpt lat="49.1239355" lon="2.6449660"><ele>99.61</ele><time>2026-4-28T18:47:4Z</time></trkpt>
<trkpt lat="49.1239873" lon="2.6449937"><ele>98.64</ele><time>2026-4-28T18:47:7Z</time></trkpt>
<trkpt lat="49.1240379" lon="2.6450274"><ele>98.61</ele><time>2026-4-28T18:47:10Z</time></trkpt>
<trkpt lat="49.1240927" lon="2.6450770"><ele>98.61</ele><time>2026-4-28T18:47:13Z</time></trkpt>
<trkpt lat="49.1241548" lon="2.6451156"><ele>97.91</ele><time>2026-4-28T18:47:16Z</time></trkpt>
<trkpt lat="49.1242084" lon="2.6451496"><ele>97.64</ele><time>2026-4-28T18:47:19Z</time></trkpt>
<trkpt lat="49.1242650" lon="2.6451773"><ele>96.91</ele><time>2026-4-28T18:47:22Z</time></trkpt>
<trkpt lat="49.1243138" lon="2.6452065"><ele>96.64</ele><time>2026-4-28T18:47:25Z</time></trkpt>
<trkpt lat="49.1243602" lon="2.6452425"><ele>95.91</ele><time>2026-4-28T18:47:28Z</time></trkpt>
<trkpt lat="49.1244077" lon="2.6452811"><ele>95.64</ele><time>2026-4-28T18:47:31Z</time></trkpt>
<trkpt lat="49.1244650" lon="2.6453018"><ele>95.61</ele><time>2026-4-28T18:47:34Z</time></trkpt>
<trkpt lat="49.1245210" lon="2.6453235"><ele>95.61</ele><time>2026-4-28T18:47:37Z</time></trkpt>
<trkpt lat="49.1245745" lon="2.6453698"><ele>95.61</ele><time>2026-4-28T18:47:40Z</time></trkpt>
<trkpt lat="49.1246270" lon="2.6454198"><ele>94.70</ele><time>2026-4-28T18:47:43Z</time></trkpt>
<trkpt lat="49.1246831" lon="2.6454726"><ele>94.62</ele><time>2026-4-28T18:47:46Z</time></trkpt>
<trkpt lat="49.1247434" lon="2.6455290"><ele>93.70</ele><time>2026-4-28T18:47:49Z</time></trkpt>
<trkpt lat="49.1248040" lon="2.6455803"><ele>94.53</ele><time>2026-4-28T18:47:52Z</time></trkpt>
<trkpt lat="49.1248715" lon="2.6456213"><ele>95.51</ele><time>2026-4-28T18:47:55Z</time></trkpt>
<trkpt lat="49.1249381" lon="2.6456677"><ele>95.60</ele><time>2026-4-28T18:47:58Z</time></trkpt>
<trkpt lat="49.1250071" lon="2.6457035"><ele>95.61</ele><time>2026-4-28T18:48:1Z</time></trkpt>
<trkpt lat="49.1250724" lon="2.6457252"><ele>95.61</ele><time>2026-4-28T18:48:4Z</time></trkpt>
<trkpt lat="49.1251407" lon="2.6457518"><ele>95.61</ele><time>2026-4-28T18:48:7Z</time></trkpt>
<trkpt lat="49.1251961" lon="2.6457701"><ele>98.34</ele><time>2026-4-28T18:48:10Z</time></trkpt>
<trkpt lat="49.1252735" lon="2.6457925"><ele>98.59</ele><time>2026-4-28T18:48:13Z</time></trkpt>
<trkpt lat="49.1253425" lon="2.6458466"><ele>98.61</ele><time>2026-4-28T18:48:16Z</time></trkpt>
<trkpt lat="49.1254095" lon="2.6459070"><ele>98.61</ele><time>2026-4-28T18:48:19Z</time></trkpt>
<trkpt lat="49.1254629" lon="2.6459803"><ele>97.70</ele><time>2026-4-28T18:48:22Z</time></trkpt>
<trkpt lat="49.1255179" lon="2.6460599"><ele>97.62</ele><time>2026-4-28T18:48:25Z</time></trkpt>
<trkpt lat="49.1255710" lon="2.6461375"><ele>97.61</ele><time>2026-4-28T18:48:28Z</time></trkpt>
<trkpt lat="49.1256011" lon="2.6461888"><ele>96.91</ele><time>2026-4-28T18:48:31Z</time></trkpt>
<trkpt lat="49.1256566" lon="2.6462765"><ele>96.64</ele><time>2026-4-28T18:48:34Z</time></trkpt>
<trkpt lat="49.1257244" lon="2.6463403"><ele>96.61</ele><time>2026-4-28T18:48:37Z</time></trkpt>
<trkpt lat="49.1257983" lon="2.6464097"><ele>96.61</ele><time>2026-4-28T18:48:40Z</time></trkpt>
<trkpt lat="49.1258611" lon="2.6464832"><ele>96.61</ele><time>2026-4-28T18:48:43Z</time></trkpt>
<trkpt lat="49.1259163" lon="2.6465612"><ele>96.61</ele><time>2026-4-28T18:48:46Z</time></trkpt>
<trkpt lat="49.1259672" lon="2.6466465"><ele>95.70</ele><time>2026-4-28T18:48:49Z</time></trkpt>
<trkpt lat="49.1260154" lon="2.6467065"><ele>95.62</ele><time>2026-4-28T18:48:52Z</time></trkpt>
<trkpt lat="49.1260653" lon="2.6467855"><ele>95.61</ele><time>2026-4-28T18:48:55Z</time></trkpt>
<trkpt lat="49.1261167" lon="2.6468743"><ele>95.61</ele><time>2026-4-28T18:48:58Z</time></trkpt>
<trkpt lat="49.1261792" lon="2.6469246"><ele>95.61</ele><time>2026-4-28T18:49:1Z</time></trkpt>
<trkpt lat="49.1262543" lon="2.6469096"><ele>94.91</ele><time>2026-4-28T18:49:4Z</time></trkpt>
<trkpt lat="49.1263263" lon="2.6469353"><ele>94.64</ele><time>2026-4-28T18:49:7Z</time></trkpt>
<trkpt lat="49.1263970" lon="2.6469939"><ele>96.22</ele><time>2026-4-28T18:49:10Z</time></trkpt>
<trkpt lat="49.1264706" lon="2.6470553"><ele>96.58</ele><time>2026-4-28T18:49:13Z</time></trkpt>
<trkpt lat="49.1265107" lon="2.6470898"><ele>96.60</ele><time>2026-4-28T18:49:16Z</time></trkpt>
<trkpt lat="49.1265890" lon="2.6471518"><ele>97.31</ele><time>2026-4-28T18:49:19Z</time></trkpt>
<trkpt lat="49.1266304" lon="2.6471846"><ele>97.52</ele><time>2026-4-28T18:49:22Z</time></trkpt>
<trkpt lat="49.1267146" lon="2.6472455"><ele>96.69</ele><time>2026-4-28T18:49:25Z</time></trkpt>
<trkpt lat="49.1267932" lon="2.6472894"><ele>95.71</ele><time>2026-4-28T18:49:28Z</time></trkpt>
<trkpt lat="49.1268779" lon="2.6473246"><ele>95.62</ele><time>2026-4-28T18:49:31Z</time></trkpt>
<trkpt lat="49.1269208" lon="2.6473469"><ele>96.31</ele><time>2026-4-28T18:49:34Z</time></trkpt>
<trkpt lat="49.1269656" lon="2.6473684"><ele>96.52</ele><time>2026-4-28T18:49:37Z</time></trkpt>
<trkpt lat="49.1270466" lon="2.6474017"><ele>96.60</ele><time>2026-4-28T18:49:40Z</time></trkpt>
<trkpt lat="49.1271198" lon="2.6474379"><ele>96.61</ele><time>2026-4-28T18:49:43Z</time></trkpt>
<trkpt lat="49.1271978" lon="2.6474699"><ele>95.91</ele><time>2026-4-28T18:49:46Z</time></trkpt>
<trkpt lat="49.1272424" lon="2.6474800"><ele>95.70</ele><time>2026-4-28T18:49:49Z</time></trkpt>
<trkpt lat="49.1272918" lon="2.6474931"><ele>94.94</ele><time>2026-4-28T18:49:52Z</time></trkpt>
<trkpt lat="49.1273409" lon="2.6475019"><ele>95.41</ele><time>2026-4-28T18:49:55Z</time></trkpt>
<trkpt lat="49.1274294" lon="2.6475240"><ele>95.59</ele><time>2026-4-28T18:49:58Z</time></trkpt>
<trkpt lat="49.1275140" lon="2.6475545"><ele>95.61</ele><time>2026-4-28T18:50:1Z</time></trkpt>
<trkpt lat="49.1275926" lon="2.6475861"><ele>95.61</ele><time>2026-4-28T18:50:4Z</time></trkpt>
<trkpt lat="49.1276760" lon="2.6476580"><ele>94.70</ele><time>2026-4-28T18:50:7Z</time></trkpt>
<trkpt lat="49.1277139" lon="2.6477000"><ele>93.94</ele><time>2026-4-28T18:50:10Z</time></trkpt>
<trkpt lat="49.1277507" lon="2.6477455"><ele>93.01</ele><time>2026-4-28T18:50:13Z</time></trkpt>
<trkpt lat="49.1277943" lon="2.6477964"><ele>92.73</ele><time>2026-4-28T18:50:16Z</time></trkpt>
<trkpt lat="49.1278294" lon="2.6478441"><ele>92.65</ele><time>2026-4-28T18:50:19Z</time></trkpt>
<trkpt lat="49.1278707" lon="2.6478846"><ele>92.62</ele><time>2026-4-28T18:50:22Z</time></trkpt>
<trkpt lat="49.1279109" lon="2.6479226"><ele>91.91</ele><time>2026-4-28T18:50:25Z</time></trkpt>
<trkpt lat="49.1279873" lon="2.6480025"><ele>91.64</ele><time>2026-4-28T18:50:28Z</time></trkpt>
<trkpt lat="49.1280250" lon="2.6480423"><ele>91.62</ele><time>2026-4-28T18:50:31Z</time></trkpt>
<trkpt lat="49.1280977" lon="2.6481056"><ele>90.91</ele><time>2026-4-28T18:50:34Z</time></trkpt>
<trkpt lat="49.1281398" lon="2.6481367"><ele>90.70</ele><time>2026-4-28T18:50:37Z</time></trkpt>
<trkpt lat="49.1281792" lon="2.6481766"><ele>90.64</ele><time>2026-4-28T18:50:40Z</time></trkpt>
<trkpt lat="49.1282526" lon="2.6482541"><ele>90.61</ele><time>2026-4-28T18:50:43Z</time></trkpt>
<trkpt lat="49.1283228" lon="2.6483248"><ele>90.61</ele><time>2026-4-28T18:50:46Z</time></trkpt>
<trkpt lat="49.1283961" lon="2.6483854"><ele>90.61</ele><time>2026-4-28T18:50:49Z</time></trkpt>
<trkpt lat="49.1284668" lon="2.6484479"><ele>89.91</ele><time>2026-4-28T18:50:52Z</time></trkpt>
<trkpt lat="49.1285425" lon="2.6485057"><ele>89.64</ele><time>2026-4-28T18:50:55Z</time></trkpt>
<trkpt lat="49.1286166" lon="2.6485646"><ele>90.52</ele><time>2026-4-28T18:50:58Z</time></trkpt>
<trkpt lat="49.1286784" lon="2.6486286"><ele>90.60</ele><time>2026-4-28T18:51:1Z</time></trkpt>
<trkpt lat="49.1287414" lon="2.6486837"><ele>90.61</ele><time>2026-4-28T18:51:4Z</time></trkpt>
<trkpt lat="49.1288026" lon="2.6487491"><ele>90.61</ele><time>2026-4-28T18:51:7Z</time></trkpt>
<trkpt lat="49.1288704" lon="2.6488074"><ele>90.61</ele><time>2026-4-28T18:51:10Z</time></trkpt>
<trkpt lat="49.1289346" lon="2.6488835"><ele>90.61</ele><time>2026-4-28T18:51:13Z</time></trkpt>
<trkpt lat="49.1290039" lon="2.6489403"><ele>90.61</ele><time>2026-4-28T18:51:16Z</time></trkpt>
<trkpt lat="49.1290672" lon="2.6490106"><ele>90.61</ele><time>2026-4-28T18:51:19Z</time></trkpt>
<trkpt lat="49.1291169" lon="2.6490760"><ele>90.61</ele><time>2026-4-28T18:51:22Z</time></trkpt>
<trkpt lat="49.1291644" lon="2.6491636"><ele>90.61</ele><time>2026-4-28T18:51:25Z</time></trkpt>
<trkpt lat="49.1292173" lon="2.6492530"><ele>90.61</ele><time>2026-4-28T18:51:28Z</time></trkpt>
<trkpt lat="49.1292699" lon="2.6493306"><ele>90.61</ele><time>2026-4-28T18:51:31Z</time></trkpt>
<trkpt lat="49.1293245" lon="2.6494003"><ele>90.61</ele><time>2026-4-28T18:51:34Z</time></trkpt>
<trkpt lat="49.1293779" lon="2.6494660"><ele>90.61</ele><time>2026-4-28T18:51:37Z</time></trkpt>
<trkpt lat="49.1294317" lon="2.6495358"><ele>90.61</ele><time>2026-4-28T18:51:40Z</time></trkpt>
<trkpt lat="49.1294817" lon="2.6495934"><ele>90.61</ele><time>2026-4-28T18:51:43Z</time></trkpt>
<trkpt lat="49.1295324" lon="2.6496617"><ele>90.61</ele><time>2026-4-28T18:51:46Z</time></trkpt>
<trkpt lat="49.1295839" lon="2.6497121"><ele>90.82</ele><time>2026-4-28T18:51:49Z</time></trkpt>
<trkpt lat="49.1296425" lon="2.6497585"><ele>90.63</ele><time>2026-4-28T18:51:52Z</time></trkpt>
<trkpt lat="49.1297027" lon="2.6498147"><ele>91.52</ele><time>2026-4-28T18:51:55Z</time></trkpt>
<trkpt lat="49.1297584" lon="2.6498714"><ele>91.60</ele><time>2026-4-28T18:51:58Z</time></trkpt>
<trkpt lat="49.1298202" lon="2.6499260"><ele>92.31</ele><time>2026-4-28T18:52:1Z</time></trkpt>
<trkpt lat="49.1298725" lon="2.6499792"><ele>92.58</ele><time>2026-4-28T18:52:4Z</time></trkpt>
<trkpt lat="49.1299244" lon="2.6500306"><ele>93.52</ele><time>2026-4-28T18:52:7Z</time></trkpt>
<trkpt lat="49.1299779" lon="2.6500687"><ele>93.60</ele><time>2026-4-28T18:52:10Z</time></trkpt>
<trkpt lat="49.1300433" lon="2.6501125"><ele>94.52</ele><time>2026-4-28T18:52:13Z</time></trkpt>
<trkpt lat="49.1301066" lon="2.6501362"><ele>94.60</ele><time>2026-4-28T18:52:16Z</time></trkpt>
<trkpt lat="49.1301649" lon="2.6501497"><ele>94.61</ele><time>2026-4-28T18:52:19Z</time></trkpt>
<trkpt lat="49.1302250" lon="2.6501671"><ele>94.61</ele><time>2026-4-28T18:52:22Z</time></trkpt>
<trkpt lat="49.1302952" lon="2.6501900"><ele>95.52</ele><time>2026-4-28T18:52:25Z</time></trkpt>
<trkpt lat="49.1303679" lon="2.6502007"><ele>95.60</ele><time>2026-4-28T18:52:28Z</time></trkpt>
<trkpt lat="49.1304398" lon="2.6502149"><ele>96.31</ele><time>2026-4-28T18:52:31Z</time></trkpt>
<trkpt lat="49.1305019" lon="2.6502449"><ele>96.58</ele><time>2026-4-28T18:52:34Z</time></trkpt>
<trkpt lat="49.1305666" lon="2.6502657"><ele>96.61</ele><time>2026-4-28T18:52:37Z</time></trkpt>
<trkpt lat="49.1306242" lon="2.6502972"><ele>96.61</ele><time>2026-4-28T18:52:40Z</time></trkpt>
<trkpt lat="49.1306758" lon="2.6503155"><ele>97.52</ele><time>2026-4-28T18:52:43Z</time></trkpt>
<trkpt lat="49.1307310" lon="2.6503214"><ele>98.30</ele><time>2026-4-28T18:52:46Z</time></trkpt>
<trkpt lat="49.1307921" lon="2.6503320"><ele>98.58</ele><time>2026-4-28T18:52:49Z</time></trkpt>
<trkpt lat="49.1308578" lon="2.6503292"><ele>98.61</ele><time>2026-4-28T18:52:52Z</time></trkpt>
<trkpt lat="49.1309233" lon="2.6503273"><ele>98.61</ele><time>2026-4-28T18:52:55Z</time></trkpt>
<trkpt lat="49.1309804" lon="2.6503124"><ele>98.61</ele><time>2026-4-28T18:52:58Z</time></trkpt>
<trkpt lat="49.1310411" lon="2.6503017"><ele>99.52</ele><time>2026-4-28T18:53:1Z</time></trkpt>
<trkpt lat="49.1311090" lon="2.6502812"><ele>99.60</ele><time>2026-4-28T18:53:4Z</time></trkpt>
<trkpt lat="49.1311689" lon="2.6502635"><ele>98.70</ele><time>2026-4-28T18:53:7Z</time></trkpt>
<trkpt lat="49.1312226" lon="2.6502503"><ele>99.32</ele><time>2026-4-28T18:53:10Z</time></trkpt>
<trkpt lat="49.1312854" lon="2.6502381"><ele>99.58</ele><time>2026-4-28T18:53:13Z</time></trkpt>
<trkpt lat="49.1313452" lon="2.6502359"><ele>99.61</ele><time>2026-4-28T18:53:16Z</time></trkpt>
<trkpt lat="49.1313995" lon="2.6502301"><ele>100.52</ele><time>2026-4-28T18:53:19Z</time></trkpt>
<trkpt lat="49.1314552" lon="2.6502324"><ele>101.51</ele><time>2026-4-28T18:53:22Z</time></trkpt>
<trkpt lat="49.1315005" lon="2.6502357"><ele>103.21</ele><time>2026-4-28T18:53:25Z</time></trkpt>
<trkpt lat="49.1315546" lon="2.6502362"><ele>104.28</ele><time>2026-4-28T18:53:28Z</time></trkpt>
<trkpt lat="49.1316106" lon="2.6502286"><ele>104.58</ele><time>2026-4-28T18:53:31Z</time></trkpt>
<trkpt lat="49.1316668" lon="2.6502228"><ele>104.61</ele><time>2026-4-28T18:53:34Z</time></trkpt>
<trkpt lat="49.1317203" lon="2.6502217"><ele>104.61</ele><time>2026-4-28T18:53:37Z</time></trkpt>
<trkpt lat="49.1317703" lon="2.6502218"><ele>105.52</ele><time>2026-4-28T18:53:40Z</time></trkpt>
<trkpt lat="49.1318204" lon="2.6502189"><ele>106.51</ele><time>2026-4-28T18:53:43Z</time></trkpt>
<trkpt lat="49.1318744" lon="2.6502082"><ele>107.30</ele><time>2026-4-28T18:53:46Z</time></trkpt>
<trkpt lat="49.1319337" lon="2.6501678"><ele>107.58</ele><time>2026-4-28T18:53:49Z</time></trkpt>
<trkpt lat="49.1319959" lon="2.6501277"><ele>108.31</ele><time>2026-4-28T18:53:52Z</time></trkpt>
<trkpt lat="49.1320481" lon="2.6500883"><ele>109.28</ele><time>2026-4-28T18:53:55Z</time></trkpt>
<trkpt lat="49.1321066" lon="2.6500488"><ele>109.58</ele><time>2026-4-28T18:53:58Z</time></trkpt>
<trkpt lat="49.1321801" lon="2.6500157"><ele>110.52</ele><time>2026-4-28T18:54:1Z</time></trkpt>
<trkpt lat="49.1322482" lon="2.6499767"><ele>111.51</ele><time>2026-4-28T18:54:4Z</time></trkpt>
<trkpt lat="49.1323036" lon="2.6499661"><ele>112.51</ele><time>2026-4-28T18:54:7Z</time></trkpt>
<trkpt lat="49.1323661" lon="2.6499360"><ele>112.60</ele><time>2026-4-28T18:54:10Z</time></trkpt>
<trkpt lat="49.1324459" lon="2.6499138"><ele>113.52</ele><time>2026-4-28T18:54:13Z</time></trkpt>
<trkpt lat="49.1325165" lon="2.6499085"><ele>114.30</ele><time>2026-4-28T18:54:16Z</time></trkpt>
<trkpt lat="49.1325713" lon="2.6499091"><ele>114.58</ele><time>2026-4-28T18:54:19Z</time></trkpt>
<trkpt lat="49.1326239" lon="2.6498857"><ele>113.91</ele><time>2026-4-28T18:54:22Z</time></trkpt>
<trkpt lat="49.1326837" lon="2.6499048"><ele>113.64</ele><time>2026-4-28T18:54:25Z</time></trkpt>
<trkpt lat="49.1327337" lon="2.6499416"><ele>113.61</ele><time>2026-4-28T18:54:28Z</time></trkpt>
<trkpt lat="49.1327804" lon="2.6499648"><ele>114.52</ele><time>2026-4-28T18:54:31Z</time></trkpt>
<trkpt lat="49.1328329" lon="2.6499994"><ele>115.30</ele><time>2026-4-28T18:54:34Z</time></trkpt>
<trkpt lat="49.1328942" lon="2.6500452"><ele>116.28</ele><time>2026-4-28T18:54:37Z</time></trkpt>
<trkpt lat="49.1329542" lon="2.6500575"><ele>115.88</ele><time>2026-4-28T18:54:40Z</time></trkpt>
<trkpt lat="49.1330020" lon="2.6499968"><ele>115.64</ele><time>2026-4-28T18:54:43Z</time></trkpt>
<trkpt lat="49.1330284" lon="2.6498968"><ele>114.91</ele><time>2026-4-28T18:54:46Z</time></trkpt>
<trkpt lat="49.1330687" lon="2.6498139"><ele>113.94</ele><time>2026-4-28T18:54:49Z</time></trkpt>
<trkpt lat="49.1331045" lon="2.6497323"><ele>113.64</ele><time>2026-4-28T18:54:52Z</time></trkpt>
<trkpt lat="49.1331442" lon="2.6496593"><ele>112.70</ele><time>2026-4-28T18:54:55Z</time></trkpt>
<trkpt lat="49.1331835" lon="2.6495960"><ele>111.71</ele><time>2026-4-28T18:54:58Z</time></trkpt>
<trkpt lat="49.1332197" lon="2.6495346"><ele>111.62</ele><time>2026-4-28T18:55:1Z</time></trkpt>
<trkpt lat="49.1332605" lon="2.6494613"><ele>110.91</ele><time>2026-4-28T18:55:4Z</time></trkpt>
<trkpt lat="49.1332952" lon="2.6493772"><ele>110.64</ele><time>2026-4-28T18:55:7Z</time></trkpt>
<trkpt lat="49.1333315" lon="2.6492991"><ele>109.70</ele><time>2026-4-28T18:55:10Z</time></trkpt>
<trkpt lat="49.1333693" lon="2.6492239"><ele>108.92</ele><time>2026-4-28T18:55:13Z</time></trkpt>
<trkpt lat="49.1334108" lon="2.6491417"><ele>108.64</ele><time>2026-4-28T18:55:16Z</time></trkpt>
<trkpt lat="49.1334482" lon="2.6490638"><ele>108.61</ele><time>2026-4-28T18:55:19Z</time></trkpt>
<trkpt lat="49.1334778" lon="2.6489856"><ele>108.61</ele><time>2026-4-28T18:55:22Z</time></trkpt>
<trkpt lat="49.1335149" lon="2.6489044"><ele>108.61</ele><time>2026-4-28T18:55:25Z</time></trkpt>
<trkpt lat="49.1335527" lon="2.6488319"><ele>108.61</ele><time>2026-4-28T18:55:28Z</time></trkpt>
<trkpt lat="49.1335907" lon="2.6487547"><ele>108.61</ele><time>2026-4-28T18:55:31Z</time></trkpt>
<trkpt lat="49.1336232" lon="2.6486711"><ele>107.70</ele><time>2026-4-28T18:55:34Z</time></trkpt>
<trkpt lat="49.1336631" lon="2.6485908"><ele>107.62</ele><time>2026-4-28T18:55:37Z</time></trkpt>
<trkpt lat="49.1336970" lon="2.6485114"><ele>107.61</ele><time>2026-4-28T18:55:40Z</time></trkpt>
<trkpt lat="49.1337410" lon="2.6484323"><ele>106.70</ele><time>2026-4-28T18:55:43Z</time></trkpt>
<trkpt lat="49.1337824" lon="2.6483412"><ele>106.62</ele><time>2026-4-28T18:55:46Z</time></trkpt>
<trkpt lat="49.1338228" lon="2.6482581"><ele>105.91</ele><time>2026-4-28T18:55:49Z</time></trkpt>
<trkpt lat="49.1338673" lon="2.6481722"><ele>105.64</ele><time>2026-4-28T18:55:52Z</time></trkpt>
<trkpt lat="49.1339022" lon="2.6480780"><ele>105.61</ele><time>2026-4-28T18:55:55Z</time></trkpt>
<trkpt lat="49.1339372" lon="2.6479872"><ele>104.91</ele><time>2026-4-28T18:55:58Z</time></trkpt>
<trkpt lat="49.1339691" lon="2.6479140"><ele>104.64</ele><time>2026-4-28T18:56:1Z</time></trkpt>
<trkpt lat="49.1340054" lon="2.6478488"><ele>103.70</ele><time>2026-4-28T18:56:4Z</time></trkpt>
<trkpt lat="49.1340352" lon="2.6477737"><ele>102.71</ele><time>2026-4-28T18:56:7Z</time></trkpt>
<trkpt lat="49.1340725" lon="2.6476931"><ele>102.62</ele><time>2026-4-28T18:56:10Z</time></trkpt>
<trkpt lat="49.1341235" lon="2.6476071"><ele>101.70</ele><time>2026-4-28T18:56:13Z</time></trkpt>
<trkpt lat="49.1341659" lon="2.6475174"><ele>101.62</ele><time>2026-4-28T18:56:16Z</time></trkpt>
<trkpt lat="49.1342054" lon="2.6474265"><ele>101.61</ele><time>2026-4-28T18:56:19Z</time></trkpt>
<trkpt lat="49.1342460" lon="2.6473438"><ele>101.61</ele><time>2026-4-28T18:56:22Z</time></trkpt>
<trkpt lat="49.1342811" lon="2.6472700"><ele>101.61</ele><time>2026-4-28T18:56:25Z</time></trkpt>
<trkpt lat="49.1343076" lon="2.6471914"><ele>101.61</ele><time>2026-4-28T18:56:28Z</time></trkpt>
<trkpt lat="49.1343087" lon="2.6471090"><ele>100.91</ele><time>2026-4-28T18:56:31Z</time></trkpt>
<trkpt lat="49.1342742" lon="2.6470334"><ele>100.64</ele><time>2026-4-28T18:56:34Z</time></trkpt>
<trkpt lat="49.1342268" lon="2.6469769"><ele>100.61</ele><time>2026-4-28T18:56:37Z</time></trkpt>
<trkpt lat="49.1341654" lon="2.6469370"><ele>100.61</ele><time>2026-4-28T18:56:40Z</time></trkpt>
<trkpt lat="49.1341036" lon="2.6468950"><ele>100.61</ele><time>2026-4-28T18:56:43Z</time></trkpt>
<trkpt lat="49.1340396" lon="2.6468686"><ele>100.61</ele><time>2026-4-28T18:56:46Z</time></trkpt>
<trkpt lat="49.1339749" lon="2.6468452"><ele>101.31</ele><time>2026-4-28T18:56:49Z</time></trkpt>
<trkpt lat="49.1339061" lon="2.6468156"><ele>101.58</ele><time>2026-4-28T18:56:52Z</time></trkpt>
<trkpt lat="49.1338326" lon="2.6467895"><ele>101.61</ele><time>2026-4-28T18:56:55Z</time></trkpt>
<trkpt lat="49.1337553" lon="2.6467225"><ele>102.31</ele><time>2026-4-28T18:56:58Z</time></trkpt>
<trkpt lat="49.1336741" lon="2.6466656"><ele>102.58</ele><time>2026-4-28T18:57:1Z</time></trkpt>
<trkpt lat="49.1335941" lon="2.6466044"><ele>103.31</ele><time>2026-4-28T18:57:4Z</time></trkpt>
<trkpt lat="49.1335211" lon="2.6465503"><ele>103.58</ele><time>2026-4-28T18:57:7Z</time></trkpt>
<trkpt lat="49.1334467" lon="2.6465065"><ele>104.31</ele><time>2026-4-28T18:57:10Z</time></trkpt>
<trkpt lat="49.1333793" lon="2.6464574"><ele>103.67</ele><time>2026-4-28T18:57:13Z</time></trkpt>
<trkpt lat="49.1333110" lon="2.6464046"><ele>103.83</ele><time>2026-4-28T18:57:16Z</time></trkpt>
<trkpt lat="49.1332346" lon="2.6463568"><ele>103.63</ele><time>2026-4-28T18:57:19Z</time></trkpt>
<trkpt lat="49.1331738" lon="2.6462922"><ele>103.61</ele><time>2026-4-28T18:57:22Z</time></trkpt>
<trkpt lat="49.1331108" lon="2.6462302"><ele>103.61</ele><time>2026-4-28T18:57:25Z</time></trkpt>
<trkpt lat="49.1330434" lon="2.6461603"><ele>102.70</ele><time>2026-4-28T18:57:28Z</time></trkpt>
<trkpt lat="49.1329812" lon="2.6460808"><ele>102.62</ele><time>2026-4-28T18:57:31Z</time></trkpt>
<trkpt lat="49.1329304" lon="2.6459931"><ele>102.61</ele><time>2026-4-28T18:57:34Z</time></trkpt>
<trkpt lat="49.1328772" lon="2.6459073"><ele>102.61</ele><time>2026-4-28T18:57:37Z</time></trkpt>
<trkpt lat="49.1328241" lon="2.6458252"><ele>102.61</ele><time>2026-4-28T18:57:40Z</time></trkpt>
<trkpt lat="49.1327787" lon="2.6457521"><ele>101.91</ele><time>2026-4-28T18:57:43Z</time></trkpt>
<trkpt lat="49.1327416" lon="2.6456778"><ele>102.34</ele><time>2026-4-28T18:57:46Z</time></trkpt>
<trkpt lat="49.1327071" lon="2.6456049"><ele>102.59</ele><time>2026-4-28T18:57:49Z</time></trkpt>
<trkpt lat="49.1327097" lon="2.6455265"><ele>102.40</ele><time>2026-4-28T18:57:52Z</time></trkpt>
<trkpt lat="49.1327499" lon="2.6454889"><ele>102.59</ele><time>2026-4-28T18:57:55Z</time></trkpt>
<trkpt lat="49.1327934" lon="2.6454457"><ele>102.61</ele><time>2026-4-28T18:57:58Z</time></trkpt>
<trkpt lat="49.1328053" lon="2.6453680"><ele>101.70</ele><time>2026-4-28T18:58:1Z</time></trkpt>
<trkpt lat="49.1328246" lon="2.6452991"><ele>101.62</ele><time>2026-4-28T18:58:4Z</time></trkpt>
<trkpt lat="49.1328581" lon="2.6452160"><ele>101.61</ele><time>2026-4-28T18:58:7Z</time></trkpt>
<trkpt lat="49.1328284" lon="2.6451243"><ele>100.91</ele><time>2026-4-28T18:58:10Z</time></trkpt>
<trkpt lat="49.1327764" lon="2.6450544"><ele>100.64</ele><time>2026-4-28T18:58:13Z</time></trkpt>
<trkpt lat="49.1327246" lon="2.6449820"><ele>100.61</ele><time>2026-4-28T18:58:16Z</time></trkpt>
<trkpt lat="49.1326736" lon="2.6448919"><ele>100.61</ele><time>2026-4-28T18:58:19Z</time></trkpt>
<trkpt lat="49.1326295" lon="2.6448151"><ele>100.61</ele><time>2026-4-28T18:58:22Z</time></trkpt>
<trkpt lat="49.1325842" lon="2.6447540"><ele>100.82</ele><time>2026-4-28T18:58:25Z</time></trkpt>
<trkpt lat="49.1325310" lon="2.6446859"><ele>101.54</ele><time>2026-4-28T18:58:28Z</time></trkpt>
<trkpt lat="49.1325068" lon="2.6445935"><ele>101.60</ele><time>2026-4-28T18:58:31Z</time></trkpt>
<trkpt lat="49.1324832" lon="2.6444961"><ele>100.91</ele><time>2026-4-28T18:58:34Z</time></trkpt>
<trkpt lat="49.1324697" lon="2.6444060"><ele>100.64</ele><time>2026-4-28T18:58:37Z</time></trkpt>
<trkpt lat="49.1324635" lon="2.6443168"><ele>100.61</ele><time>2026-4-28T18:58:40Z</time></trkpt>
<trkpt lat="49.1324488" lon="2.6442177"><ele>100.61</ele><time>2026-4-28T18:58:43Z</time></trkpt>
<trkpt lat="49.1324309" lon="2.6441055"><ele>100.61</ele><time>2026-4-28T18:58:46Z</time></trkpt>
<trkpt lat="49.1324104" lon="2.6440154"><ele>100.61</ele><time>2026-4-28T18:58:49Z</time></trkpt>
<trkpt lat="49.1323790" lon="2.6439240"><ele>100.61</ele><time>2026-4-28T18:58:52Z</time></trkpt>
<trkpt lat="49.1323433" lon="2.6438315"><ele>100.61</ele><time>2026-4-28T18:58:55Z</time></trkpt>
<trkpt lat="49.1323056" lon="2.6437436"><ele>100.61</ele><time>2026-4-28T18:58:58Z</time></trkpt>
<trkpt lat="49.1322866" lon="2.6436742"><ele>99.91</ele><time>2026-4-28T18:59:1Z</time></trkpt>
<trkpt lat="49.1322726" lon="2.6435988"><ele>99.64</ele><time>2026-4-28T18:59:4Z</time></trkpt>
<trkpt lat="49.1322615" lon="2.6435098"><ele>99.61</ele><time>2026-4-28T18:59:7Z</time></trkpt>
<trkpt lat="49.1322711" lon="2.6434171"><ele>99.61</ele><time>2026-4-28T18:59:10Z</time></trkpt>
<trkpt lat="49.1323077" lon="2.6433117"><ele>98.91</ele><time>2026-4-28T18:59:13Z</time></trkpt>
<trkpt lat="49.1323349" lon="2.6432508"><ele>97.30</ele><time>2026-4-28T18:59:16Z</time></trkpt>
<trkpt lat="49.1323975" lon="2.6431513"><ele>95.06</ele><time>2026-4-28T18:59:19Z</time></trkpt>
<trkpt lat="49.1324446" lon="2.6430444"><ele>94.44</ele><time>2026-4-28T18:59:22Z</time></trkpt>
<trkpt lat="49.1324828" lon="2.6429439"><ele>93.69</ele><time>2026-4-28T18:59:25Z</time></trkpt>
<trkpt lat="49.1325063" lon="2.6428350"><ele>93.62</ele><time>2026-4-28T18:59:28Z</time></trkpt>
<trkpt lat="49.1325322" lon="2.6427345"><ele>92.91</ele><time>2026-4-28T18:59:31Z</time></trkpt>
<trkpt lat="49.1325600" lon="2.6426349"><ele>91.94</ele><time>2026-4-28T18:59:34Z</time></trkpt>
<trkpt lat="49.1326036" lon="2.6425462"><ele>91.64</ele><time>2026-4-28T18:59:37Z</time></trkpt>
<trkpt lat="49.1326483" lon="2.6424422"><ele>91.61</ele><time>2026-4-28T18:59:40Z</time></trkpt>
<trkpt lat="49.1326772" lon="2.6423856"><ele>90.91</ele><time>2026-4-28T18:59:43Z</time></trkpt>
<trkpt lat="49.1326981" lon="2.6423020"><ele>90.64</ele><time>2026-4-28T18:59:46Z</time></trkpt>
<trkpt lat="49.1327173" lon="2.6422001"><ele>90.61</ele><time>2026-4-28T18:59:49Z</time></trkpt>
<trkpt lat="49.1327550" lon="2.6421074"><ele>89.70</ele><time>2026-4-28T18:59:52Z</time></trkpt>
<trkpt lat="49.1327921" lon="2.6420118"><ele>89.62</ele><time>2026-4-28T18:59:55Z</time></trkpt>
<trkpt lat="49.1328308" lon="2.6419082"><ele>89.61</ele><time>2026-4-28T18:59:58Z</time></trkpt>
<trkpt lat="49.1328649" lon="2.6417994"><ele>89.61</ele><time>2026-4-28T19:0:1Z</time></trkpt>
<trkpt lat="49.1328852" lon="2.6417375"><ele>88.91</ele><time>2026-4-28T19:0:4Z</time></trkpt>
<trkpt lat="49.1329146" lon="2.6416484"><ele>88.64</ele><time>2026-4-28T19:0:7Z</time></trkpt>
<trkpt lat="49.1329410" lon="2.6415772"><ele>88.61</ele><time>2026-4-28T19:0:10Z</time></trkpt>
<trkpt lat="49.1329225" lon="2.6414908"><ele>87.70</ele><time>2026-4-28T19:0:13Z</time></trkpt>
<trkpt lat="49.1329055" lon="2.6414155"><ele>87.61</ele><time>2026-4-28T19:0:16Z</time></trkpt>
<trkpt lat="49.1329207" lon="2.6413384"><ele>87.61</ele><time>2026-4-28T19:0:19Z</time></trkpt>
<trkpt lat="49.1329362" lon="2.6412591"><ele>87.61</ele><time>2026-4-28T19:0:22Z</time></trkpt>
<trkpt lat="49.1329533" lon="2.6411790"><ele>87.90</ele><time>2026-4-28T19:0:25Z</time></trkpt>
<trkpt lat="49.1329563" lon="2.6410823"><ele>87.64</ele><time>2026-4-28T19:0:28Z</time></trkpt>
<trkpt lat="49.1329555" lon="2.6409742"><ele>87.61</ele><time>2026-4-28T19:0:31Z</time></trkpt>
<trkpt lat="49.1329510" lon="2.6408548"><ele>86.91</ele><time>2026-4-28T19:0:34Z</time></trkpt>
<trkpt lat="49.1329521" lon="2.6407480"><ele>86.85</ele><time>2026-4-28T19:0:37Z</time></trkpt>
<trkpt lat="49.1329586" lon="2.6406338"><ele>86.63</ele><time>2026-4-28T19:0:40Z</time></trkpt>
<trkpt lat="49.1329295" lon="2.6405535"><ele>85.91</ele><time>2026-4-28T19:0:43Z</time></trkpt>
<trkpt lat="49.1328846" lon="2.6404918"><ele>85.64</ele><time>2026-4-28T19:0:46Z</time></trkpt>
<trkpt lat="49.1328402" lon="2.6404360"><ele>85.61</ele><time>2026-4-28T19:0:49Z</time></trkpt>
<trkpt lat="49.1327993" lon="2.6403826"><ele>85.61</ele><time>2026-4-28T19:0:52Z</time></trkpt>
<trkpt lat="49.1327796" lon="2.6402645"><ele>84.70</ele><time>2026-4-28T19:0:55Z</time></trkpt>
<trkpt lat="49.1327751" lon="2.6401895"><ele>84.64</ele><time>2026-4-28T19:0:58Z</time></trkpt>
<trkpt lat="49.1327751" lon="2.6401096"><ele>84.62</ele><time>2026-4-28T19:1:1Z</time></trkpt>
<trkpt lat="49.1327717" lon="2.6400262"><ele>84.61</ele><time>2026-4-28T19:1:4Z</time></trkpt>
<trkpt lat="49.1327589" lon="2.6399496"><ele>84.61</ele><time>2026-4-28T19:1:7Z</time></trkpt>
<trkpt lat="49.1327624" lon="2.6398209"><ele>83.91</ele><time>2026-4-28T19:1:10Z</time></trkpt>
<trkpt lat="49.1327728" lon="2.6397207"><ele>82.94</ele><time>2026-4-28T19:1:13Z</time></trkpt>
<trkpt lat="49.1327893" lon="2.6396367"><ele>81.73</ele><time>2026-4-28T19:1:16Z</time></trkpt>
<trkpt lat="49.1328025" lon="2.6395253"><ele>80.71</ele><time>2026-4-28T19:1:19Z</time></trkpt>
<trkpt lat="49.1328111" lon="2.6394466"><ele>79.94</ele><time>2026-4-28T19:1:22Z</time></trkpt>
<trkpt lat="49.1328238" lon="2.6393702"><ele>80.41</ele><time>2026-4-28T19:1:25Z</time></trkpt>
<trkpt lat="49.1328414" lon="2.6393014"><ele>80.55</ele><time>2026-4-28T19:1:28Z</time></trkpt>
<trkpt lat="49.1328617" lon="2.6392366"><ele>80.59</ele><time>2026-4-28T19:1:31Z</time></trkpt>
<trkpt lat="49.1328859" lon="2.6391686"><ele>80.61</ele><time>2026-4-28T19:1:34Z</time></trkpt>
<trkpt lat="49.1329111" lon="2.6391009"><ele>79.91</ele><time>2026-4-28T19:1:37Z</time></trkpt>
<trkpt lat="49.1329439" lon="2.6389751"><ele>80.34</ele><time>2026-4-28T19:1:40Z</time></trkpt>
<trkpt lat="49.1329777" lon="2.6388483"><ele>80.59</ele><time>2026-4-28T19:1:43Z</time></trkpt>
<trkpt lat="49.1329906" lon="2.6387803"><ele>79.90</ele><time>2026-4-28T19:1:46Z</time></trkpt>
<trkpt lat="49.1330147" lon="2.6387082"><ele>79.70</ele><time>2026-4-28T19:1:49Z</time></trkpt>
<trkpt lat="49.1330433" lon="2.6386412"><ele>78.94</ele><time>2026-4-28T19:1:52Z</time></trkpt>
<trkpt lat="49.1330685" lon="2.6385805"><ele>78.71</ele><time>2026-4-28T19:1:55Z</time></trkpt>
<trkpt lat="49.1331012" lon="2.6385226"><ele>78.64</ele><time>2026-4-28T19:1:58Z</time></trkpt>
<trkpt lat="49.1331465" lon="2.6384170"><ele>79.52</ele><time>2026-4-28T19:2:1Z</time></trkpt>
<trkpt lat="49.1331744" lon="2.6383582"><ele>78.88</ele><time>2026-4-28T19:2:4Z</time></trkpt>
<trkpt lat="49.1332294" lon="2.6382572"><ele>78.43</ele><time>2026-4-28T19:2:7Z</time></trkpt>
<trkpt lat="49.1332824" lon="2.6381621"><ele>77.89</ele><time>2026-4-28T19:2:10Z</time></trkpt>
<trkpt lat="49.1333336" lon="2.6380761"><ele>77.64</ele><time>2026-4-28T19:2:13Z</time></trkpt>
<trkpt lat="49.1333797" lon="2.6379927"><ele>77.61</ele><time>2026-4-28T19:2:16Z</time></trkpt>
<trkpt lat="49.1334332" lon="2.6379153"><ele>77.61</ele><time>2026-4-28T19:2:19Z</time></trkpt>
<trkpt lat="49.1334954" lon="2.6378215"><ele>77.61</ele><time>2026-4-28T19:2:22Z</time></trkpt>
<trkpt lat="49.1335305" lon="2.6377615"><ele>77.61</ele><time>2026-4-28T19:2:25Z</time></trkpt>
<trkpt lat="49.1335639" lon="2.6377117"><ele>77.61</ele><time>2026-4-28T19:2:28Z</time></trkpt>
<trkpt lat="49.1336225" lon="2.6376117"><ele>77.61</ele><time>2026-4-28T19:2:31Z</time></trkpt>
<trkpt lat="49.1336463" lon="2.6375527"><ele>76.91</ele><time>2026-4-28T19:2:34Z</time></trkpt>
<trkpt lat="49.1336742" lon="2.6374910"><ele>76.70</ele><time>2026-4-28T19:2:37Z</time></trkpt>
<trkpt lat="49.1337392" lon="2.6374051"><ele>76.62</ele><time>2026-4-28T19:2:40Z</time></trkpt>
<trkpt lat="49.1337742" lon="2.6373559"><ele>76.61</ele><time>2026-4-28T19:2:43Z</time></trkpt>
<trkpt lat="49.1338082" lon="2.6373062"><ele>76.61</ele><time>2026-4-28T19:2:46Z</time></trkpt>
<trkpt lat="49.1338565" lon="2.6372666"><ele>76.61</ele><time>2026-4-28T19:2:49Z</time></trkpt>
<trkpt lat="49.1338943" lon="2.6372274"><ele>76.61</ele><time>2026-4-28T19:2:52Z</time></trkpt>
<trkpt lat="49.1339572" lon="2.6371339"><ele>76.40</ele><time>2026-4-28T19:2:55Z</time></trkpt>
<trkpt lat="49.1340262" lon="2.6370694"><ele>76.59</ele><time>2026-4-28T19:2:58Z</time></trkpt>
<trkpt lat="49.1340700" lon="2.6370363"><ele>77.31</ele><time>2026-4-28T19:3:1Z</time></trkpt>
<trkpt lat="49.1341102" lon="2.6370017"><ele>76.82</ele><time>2026-4-28T19:3:4Z</time></trkpt>
<trkpt lat="49.1341478" lon="2.6369522"><ele>76.67</ele><time>2026-4-28T19:3:7Z</time></trkpt>
<trkpt lat="49.1341831" lon="2.6369050"><ele>76.63</ele><time>2026-4-28T19:3:10Z</time></trkpt>
<trkpt lat="49.1342128" lon="2.6368517"><ele>76.62</ele><time>2026-4-28T19:3:13Z</time></trkpt>
<trkpt lat="49.1342778" lon="2.6367738"><ele>75.70</ele><time>2026-4-28T19:3:16Z</time></trkpt>
<trkpt lat="49.1343352" lon="2.6366941"><ele>75.62</ele><time>2026-4-28T19:3:19Z</time></trkpt>
<trkpt lat="49.1343676" lon="2.6366443"><ele>75.61</ele><time>2026-4-28T19:3:22Z</time></trkpt>
<trkpt lat="49.1344191" lon="2.6365618"><ele>75.61</ele><time>2026-4-28T19:3:25Z</time></trkpt>
<trkpt lat="49.1344668" lon="2.6364826"><ele>75.61</ele><time>2026-4-28T19:3:28Z</time></trkpt>
<trkpt lat="49.1345209" lon="2.6364082"><ele>75.61</ele><time>2026-4-28T19:3:31Z</time></trkpt>
<trkpt lat="49.1345540" lon="2.6363586"><ele>74.91</ele><time>2026-4-28T19:3:34Z</time></trkpt>
<trkpt lat="49.1345894" lon="2.6363036"><ele>74.70</ele><time>2026-4-28T19:3:37Z</time></trkpt>
<trkpt lat="49.1346251" lon="2.6362468"><ele>74.64</ele><time>2026-4-28T19:3:40Z</time></trkpt>
<trkpt lat="49.1346893" lon="2.6361511"><ele>73.70</ele><time>2026-4-28T19:3:43Z</time></trkpt>
<trkpt lat="49.1347192" lon="2.6360988"><ele>72.94</ele><time>2026-4-28T19:3:46Z</time></trkpt>
<trkpt lat="49.1347731" lon="2.6360021"><ele>72.64</ele><time>2026-4-28T19:3:49Z</time></trkpt>
<trkpt lat="49.1348189" lon="2.6359236"><ele>72.61</ele><time>2026-4-28T19:3:52Z</time></trkpt>
<trkpt lat="49.1348655" lon="2.6358475"><ele>72.61</ele><time>2026-4-28T19:3:55Z</time></trkpt>
<trkpt lat="49.1349144" lon="2.6357647"><ele>72.61</ele><time>2026-4-28T19:3:58Z</time></trkpt>
<trkpt lat="49.1349603" lon="2.6356540"><ele>71.70</ele><time>2026-4-28T19:4:1Z</time></trkpt>
<trkpt lat="49.1349909" lon="2.6356018"><ele>71.64</ele><time>2026-4-28T19:4:4Z</time></trkpt>
<trkpt lat="49.1350483" lon="2.6355133"><ele>71.61</ele><time>2026-4-28T19:4:7Z</time></trkpt>
<trkpt lat="49.1350901" lon="2.6354353"><ele>71.61</ele><time>2026-4-28T19:4:10Z</time></trkpt>
<trkpt lat="49.1351217" lon="2.6353575"><ele>71.61</ele><time>2026-4-28T19:4:13Z</time></trkpt>
<trkpt lat="49.1351541" lon="2.6352739"><ele>71.61</ele><time>2026-4-28T19:4:16Z</time></trkpt>
<trkpt lat="49.1351942" lon="2.6351790"><ele>70.70</ele><time>2026-4-28T19:4:19Z</time></trkpt>
<trkpt lat="49.1352573" lon="2.6350681"><ele>70.62</ele><time>2026-4-28T19:4:22Z</time></trkpt>
<trkpt lat="49.1353051" lon="2.6349839"><ele>70.61</ele><time>2026-4-28T19:4:25Z</time></trkpt>
<trkpt lat="49.1353317" lon="2.6349115"><ele>70.61</ele><time>2026-4-28T19:4:28Z</time></trkpt>
<trkpt lat="49.1353763" lon="2.6348392"><ele>70.61</ele><time>2026-4-28T19:4:31Z</time></trkpt>
<trkpt lat="49.1354208" lon="2.6347747"><ele>70.61</ele><time>2026-4-28T19:4:34Z</time></trkpt>
<trkpt lat="49.1354376" lon="2.6347048"><ele>70.61</ele><time>2026-4-28T19:4:37Z</time></trkpt>
<trkpt lat="49.1354550" lon="2.6346121"><ele>71.58</ele><time>2026-4-28T19:4:40Z</time></trkpt>
<trkpt lat="49.1354597" lon="2.6345074"><ele>70.91</ele><time>2026-4-28T19:4:43Z</time></trkpt>
<trkpt lat="49.1354623" lon="2.6344140"><ele>70.64</ele><time>2026-4-28T19:4:46Z</time></trkpt>
<trkpt lat="49.1354656" lon="2.6343312"><ele>70.61</ele><time>2026-4-28T19:4:49Z</time></trkpt>
<trkpt lat="49.1354721" lon="2.6342441"><ele>69.91</ele><time>2026-4-28T19:4:52Z</time></trkpt>
<trkpt lat="49.1354995" lon="2.6341506"><ele>69.64</ele><time>2026-4-28T19:4:55Z</time></trkpt>
<trkpt lat="49.1355446" lon="2.6340600"><ele>68.70</ele><time>2026-4-28T19:4:58Z</time></trkpt>
<trkpt lat="49.1355800" lon="2.6339795"><ele>68.62</ele><time>2026-4-28T19:5:1Z</time></trkpt>
<trkpt lat="49.1356197" lon="2.6339315"><ele>68.61</ele><time>2026-4-28T19:5:4Z</time></trkpt>
<trkpt lat="49.1356720" lon="2.6338959"><ele>68.61</ele><time>2026-4-28T19:5:7Z</time></trkpt>
<trkpt lat="49.1357373" lon="2.6338847"><ele>68.61</ele><time>2026-4-28T19:5:10Z</time></trkpt>
<trkpt lat="49.1357985" lon="2.6338810"><ele>68.61</ele><time>2026-4-28T19:5:13Z</time></trkpt>
<trkpt lat="49.1358524" lon="2.6339108"><ele>68.82</ele><time>2026-4-28T19:5:16Z</time></trkpt>
<trkpt lat="49.1359056" lon="2.6339371"><ele>68.63</ele><time>2026-4-28T19:5:19Z</time></trkpt>
<trkpt lat="49.1359792" lon="2.6339207"><ele>68.82</ele><time>2026-4-28T19:5:22Z</time></trkpt>
<trkpt lat="49.1360317" lon="2.6338365"><ele>68.63</ele><time>2026-4-28T19:5:25Z</time></trkpt>
<trkpt lat="49.1360546" lon="2.6337539"><ele>68.62</ele><time>2026-4-28T19:5:28Z</time></trkpt>
<trkpt lat="49.1360679" lon="2.6336714"><ele>69.31</ele><time>2026-4-28T19:5:31Z</time></trkpt>
<trkpt lat="49.1360925" lon="2.6335983"><ele>69.52</ele><time>2026-4-28T19:5:34Z</time></trkpt>
<trkpt lat="49.1361166" lon="2.6335267"><ele>68.88</ele><time>2026-4-28T19:5:37Z</time></trkpt>
<trkpt lat="49.1361390" lon="2.6334444"><ele>69.39</ele><time>2026-4-28T19:5:40Z</time></trkpt>
<trkpt lat="49.1361660" lon="2.6333687"><ele>69.55</ele><time>2026-4-28T19:5:43Z</time></trkpt>
<trkpt lat="49.1361914" lon="2.6332912"><ele>69.59</ele><time>2026-4-28T19:5:46Z</time></trkpt>
<trkpt lat="49.1362166" lon="2.6332157"><ele>68.91</ele><time>2026-4-28T19:5:49Z</time></trkpt>
<trkpt lat="49.1362398" lon="2.6331486"><ele>68.70</ele><time>2026-4-28T19:5:52Z</time></trkpt>
<trkpt lat="49.1362639" lon="2.6330847"><ele>68.64</ele><time>2026-4-28T19:5:55Z</time></trkpt>
<trkpt lat="49.1363133" lon="2.6329601"><ele>68.61</ele><time>2026-4-28T19:5:58Z</time></trkpt>
<trkpt lat="49.1363339" lon="2.6328836"><ele>68.61</ele><time>2026-4-28T19:6:1Z</time></trkpt>
<trkpt lat="49.1363639" lon="2.6328187"><ele>68.61</ele><time>2026-4-28T19:6:4Z</time></trkpt>
<trkpt lat="49.1363990" lon="2.6327704"><ele>68.61</ele><time>2026-4-28T19:6:7Z</time></trkpt>
<trkpt lat="49.1364103" lon="2.6326554"><ele>68.61</ele><time>2026-4-28T19:6:10Z</time></trkpt>
<trkpt lat="49.1364357" lon="2.6325433"><ele>67.91</ele><time>2026-4-28T19:6:13Z</time></trkpt>
<trkpt lat="49.1364630" lon="2.6324497"><ele>67.64</ele><time>2026-4-28T19:6:16Z</time></trkpt>
<trkpt lat="49.1364654" lon="2.6323605"><ele>68.52</ele><time>2026-4-28T19:6:19Z</time></trkpt>
<trkpt lat="49.1364524" lon="2.6322782"><ele>68.60</ele><time>2026-4-28T19:6:22Z</time></trkpt>
<trkpt lat="49.1364397" lon="2.6321783"><ele>67.70</ele><time>2026-4-28T19:6:25Z</time></trkpt>
<trkpt lat="49.1364285" lon="2.6320861"><ele>67.62</ele><time>2026-4-28T19:6:28Z</time></trkpt>
<trkpt lat="49.1364021" lon="2.6320041"><ele>66.70</ele><time>2026-4-28T19:6:31Z</time></trkpt>
<trkpt lat="49.1364029" lon="2.6319218"><ele>66.62</ele><time>2026-4-28T19:6:34Z</time></trkpt>
<trkpt lat="49.1364091" lon="2.6318334"><ele>66.61</ele><time>2026-4-28T19:6:37Z</time></trkpt>
<trkpt lat="49.1363957" lon="2.6317485"><ele>66.61</ele><time>2026-4-28T19:6:40Z</time></trkpt>
<trkpt lat="49.1364002" lon="2.6316525"><ele>65.91</ele><time>2026-4-28T19:6:43Z</time></trkpt>
<trkpt lat="49.1364055" lon="2.6315552"><ele>65.64</ele><time>2026-4-28T19:6:46Z</time></trkpt>
<trkpt lat="49.1364124" lon="2.6314692"><ele>66.31</ele><time>2026-4-28T19:6:49Z</time></trkpt>
<trkpt lat="49.1364016" lon="2.6313814"><ele>66.58</ele><time>2026-4-28T19:6:52Z</time></trkpt>
<trkpt lat="49.1364038" lon="2.6312959"><ele>66.61</ele><time>2026-4-28T19:6:55Z</time></trkpt>
<trkpt lat="49.1364205" lon="2.6312117"><ele>66.61</ele><time>2026-4-28T19:6:58Z</time></trkpt>
<trkpt lat="49.1364263" lon="2.6311194"><ele>66.61</ele><time>2026-4-28T19:7:1Z</time></trkpt>
<trkpt lat="49.1364429" lon="2.6310170"><ele>66.61</ele><time>2026-4-28T19:7:4Z</time></trkpt>
<trkpt lat="49.1364538" lon="2.6309264"><ele>66.61</ele><time>2026-4-28T19:7:7Z</time></trkpt>
<trkpt lat="49.1364666" lon="2.6308302"><ele>66.61</ele><time>2026-4-28T19:7:10Z</time></trkpt>
<trkpt lat="49.1364835" lon="2.6307231"><ele>65.91</ele><time>2026-4-28T19:7:13Z</time></trkpt>
<trkpt lat="49.1365003" lon="2.6306215"><ele>66.34</ele><time>2026-4-28T19:7:16Z</time></trkpt>
<trkpt lat="49.1365249" lon="2.6305298"><ele>66.59</ele><time>2026-4-28T19:7:19Z</time></trkpt>
<trkpt lat="49.1365441" lon="2.6304280"><ele>66.61</ele><time>2026-4-28T19:7:22Z</time></trkpt>
<trkpt lat="49.1365739" lon="2.6303394"><ele>67.52</ele><time>2026-4-28T19:7:25Z</time></trkpt>
<trkpt lat="49.1365992" lon="2.6302441"><ele>67.60</ele><time>2026-4-28T19:7:28Z</time></trkpt>
<trkpt lat="49.1366240" lon="2.6301374"><ele>67.61</ele><time>2026-4-28T19:7:31Z</time></trkpt>
<trkpt lat="49.1366509" lon="2.6300249"><ele>67.40</ele><time>2026-4-28T19:7:34Z</time></trkpt>
<trkpt lat="49.1366741" lon="2.6299165"><ele>67.59</ele><time>2026-4-28T19:7:37Z</time></trkpt>
<trkpt lat="49.1367086" lon="2.6298012"><ele>66.70</ele><time>2026-4-28T19:7:40Z</time></trkpt>
<trkpt lat="49.1367366" lon="2.6296920"><ele>66.62</ele><time>2026-4-28T19:7:43Z</time></trkpt>
<trkpt lat="49.1367516" lon="2.6295936"><ele>65.70</ele><time>2026-4-28T19:7:46Z</time></trkpt>
<trkpt lat="49.1367678" lon="2.6294947"><ele>65.62</ele><time>2026-4-28T19:7:49Z</time></trkpt>
<trkpt lat="49.1367998" lon="2.6294100"><ele>65.61</ele><time>2026-4-28T19:7:52Z</time></trkpt>
<trkpt lat="49.1368307" lon="2.6293059"><ele>65.61</ele><time>2026-4-28T19:7:55Z</time></trkpt>
<trkpt lat="49.1368476" lon="2.6292128"><ele>64.70</ele><time>2026-4-28T19:7:58Z</time></trkpt>
<trkpt lat="49.1368835" lon="2.6291290"><ele>65.53</ele><time>2026-4-28T19:8:1Z</time></trkpt>
<trkpt lat="49.1369242" lon="2.6290643"><ele>64.69</ele><time>2026-4-28T19:8:4Z</time></trkpt>
<trkpt lat="49.1369599" lon="2.6289821"><ele>65.32</ele><time>2026-4-28T19:8:7Z</time></trkpt>
<trkpt lat="49.1369931" lon="2.6288682"><ele>65.37</ele><time>2026-4-28T19:8:10Z</time></trkpt>
<trkpt lat="49.1370484" lon="2.6288029"><ele>65.59</ele><time>2026-4-28T19:8:13Z</time></trkpt>
<trkpt lat="49.1370960" lon="2.6287354"><ele>65.61</ele><time>2026-4-28T19:8:16Z</time></trkpt>
<trkpt lat="49.1371192" lon="2.6286482"><ele>65.61</ele><time>2026-4-28T19:8:19Z</time></trkpt>
<trkpt lat="49.1371395" lon="2.6285587"><ele>64.91</ele><time>2026-4-28T19:8:22Z</time></trkpt>
<trkpt lat="49.1371562" lon="2.6284709"><ele>65.55</ele><time>2026-4-28T19:8:25Z</time></trkpt>
<trkpt lat="49.1371943" lon="2.6284150"><ele>65.61</ele><time>2026-4-28T19:8:28Z</time></trkpt>
<trkpt lat="49.1372143" lon="2.6283508"><ele>65.61</ele><time>2026-4-28T19:8:31Z</time></trkpt>
<trkpt lat="49.1372126" lon="2.6282663"><ele>66.61</ele><time>2026-4-28T19:8:34Z</time></trkpt>
<trkpt lat="49.1371919" lon="2.6281598"><ele>66.61</ele><time>2026-4-28T19:8:37Z</time></trkpt>
<trkpt lat="49.1371896" lon="2.6280664"><ele>67.31</ele><time>2026-4-28T19:8:40Z</time></trkpt>
<trkpt lat="49.1371823" lon="2.6279423"><ele>66.67</ele><time>2026-4-28T19:8:43Z</time></trkpt>
<trkpt lat="49.1371807" lon="2.6278698"><ele>67.33</ele><time>2026-4-28T19:8:46Z</time></trkpt>
<trkpt lat="49.1371836" lon="2.6277906"><ele>67.53</ele><time>2026-4-28T19:8:49Z</time></trkpt>
<trkpt lat="49.1371835" lon="2.6277116"><ele>67.59</ele><time>2026-4-28T19:8:52Z</time></trkpt>
<trkpt lat="49.1371843" lon="2.6276266"><ele>68.30</ele><time>2026-4-28T19:8:55Z</time></trkpt>
<trkpt lat="49.1371813" lon="2.6275379"><ele>68.52</ele><time>2026-4-28T19:8:58Z</time></trkpt>
<trkpt lat="49.1371788" lon="2.6274477"><ele>67.88</ele><time>2026-4-28T19:9:1Z</time></trkpt>
<trkpt lat="49.1371827" lon="2.6273547"><ele>67.69</ele><time>2026-4-28T19:9:4Z</time></trkpt>
<trkpt lat="49.1371873" lon="2.6272645"><ele>67.64</ele><time>2026-4-28T19:9:7Z</time></trkpt>
<trkpt lat="49.1371919" lon="2.6271698"><ele>68.32</ele><time>2026-4-28T19:9:10Z</time></trkpt>
<trkpt lat="49.1371914" lon="2.6270753"><ele>68.52</ele><time>2026-4-28T19:9:13Z</time></trkpt>
<trkpt lat="49.1371886" lon="2.6269760"><ele>68.58</ele><time>2026-4-28T19:9:16Z</time></trkpt>
<trkpt lat="49.1371822" lon="2.6268766"><ele>67.90</ele><time>2026-4-28T19:9:19Z</time></trkpt>
<trkpt lat="49.1371763" lon="2.6267819"><ele>67.70</ele><time>2026-4-28T19:9:22Z</time></trkpt>
<trkpt lat="49.1371720" lon="2.6266881"><ele>67.64</ele><time>2026-4-28T19:9:25Z</time></trkpt>
<trkpt lat="49.1371730" lon="2.6265977"><ele>66.92</ele><time>2026-4-28T19:9:28Z</time></trkpt>
<trkpt lat="49.1371703" lon="2.6265060"><ele>66.70</ele><time>2026-4-28T19:9:31Z</time></trkpt>
<trkpt lat="49.1371691" lon="2.6264199"><ele>66.64</ele><time>2026-4-28T19:9:34Z</time></trkpt>
<trkpt lat="49.1371641" lon="2.6263314"><ele>66.62</ele><time>2026-4-28T19:9:37Z</time></trkpt>
<trkpt lat="49.1371578" lon="2.6262527"><ele>66.61</ele><time>2026-4-28T19:9:40Z</time></trkpt>
<trkpt lat="49.1371558" lon="2.6261605"><ele>66.61</ele><time>2026-4-28T19:9:43Z</time></trkpt>
<trkpt lat="49.1371924" lon="2.6260814"><ele>66.61</ele><time>2026-4-28T19:9:46Z</time></trkpt>
<trkpt lat="49.1372261" lon="2.6260266"><ele>65.91</ele><time>2026-4-28T19:9:49Z</time></trkpt>
<trkpt lat="49.1372660" lon="2.6259877"><ele>65.64</ele><time>2026-4-28T19:9:52Z</time></trkpt>
<trkpt lat="49.1373252" lon="2.6259310"><ele>66.31</ele><time>2026-4-28T19:9:55Z</time></trkpt>
<trkpt lat="49.1373737" lon="2.6258634"><ele>66.58</ele><time>2026-4-28T19:9:58Z</time></trkpt>
<trkpt lat="49.1374275" lon="2.6257983"><ele>66.61</ele><time>2026-4-28T19:10:1Z</time></trkpt>
<trkpt lat="49.1374738" lon="2.6257413"><ele>66.61</ele><time>2026-4-28T19:10:4Z</time></trkpt>
<trkpt lat="49.1375247" lon="2.6256683"><ele>66.61</ele><time>2026-4-28T19:10:7Z</time></trkpt>
<trkpt lat="49.1375759" lon="2.6255983"><ele>66.61</ele><time>2026-4-28T19:10:10Z</time></trkpt>
<trkpt lat="49.1376160" lon="2.6255355"><ele>66.61</ele><time>2026-4-28T19:10:13Z</time></trkpt>
<trkpt lat="49.1376574" lon="2.6254935"><ele>67.52</ele><time>2026-4-28T19:10:16Z</time></trkpt>
<trkpt lat="49.1376938" lon="2.6254497"><ele>67.60</ele><time>2026-4-28T19:10:19Z</time></trkpt>
<trkpt lat="49.1377501" lon="2.6253968"><ele>68.58</ele><time>2026-4-28T19:10:22Z</time></trkpt>
<trkpt lat="49.1377911" lon="2.6253657"><ele>69.52</ele><time>2026-4-28T19:10:25Z</time></trkpt>
<trkpt lat="49.1378262" lon="2.6253187"><ele>69.60</ele><time>2026-4-28T19:10:28Z</time></trkpt>
<trkpt lat="49.1378660" lon="2.6252786"><ele>70.52</ele><time>2026-4-28T19:10:31Z</time></trkpt>
<trkpt lat="49.1379086" lon="2.6252345"><ele>70.60</ele><time>2026-4-28T19:10:34Z</time></trkpt>
<trkpt lat="49.1379604" lon="2.6251552"><ele>70.61</ele><time>2026-4-28T19:10:37Z</time></trkpt>
<trkpt lat="49.1380119" lon="2.6250958"><ele>70.61</ele><time>2026-4-28T19:10:40Z</time></trkpt>
<trkpt lat="49.1380627" lon="2.6250259"><ele>70.61</ele><time>2026-4-28T19:10:43Z</time></trkpt>
<trkpt lat="49.1381189" lon="2.6249515"><ele>71.31</ele><time>2026-4-28T19:10:46Z</time></trkpt>
<trkpt lat="49.1381713" lon="2.6248879"><ele>71.58</ele><time>2026-4-28T19:10:49Z</time></trkpt>
<trkpt lat="49.1382184" lon="2.6248192"><ele>71.61</ele><time>2026-4-28T19:10:52Z</time></trkpt>
<trkpt lat="49.1382644" lon="2.6247503"><ele>72.31</ele><time>2026-4-28T19:10:55Z</time></trkpt>
<trkpt lat="49.1383093" lon="2.6246797"><ele>72.58</ele><time>2026-4-28T19:10:58Z</time></trkpt>
<trkpt lat="49.1383411" lon="2.6246253"><ele>72.60</ele><time>2026-4-28T19:11:1Z</time></trkpt>
<trkpt lat="49.1383927" lon="2.6245731"><ele>73.52</ele><time>2026-4-28T19:11:4Z</time></trkpt>
<trkpt lat="49.1384337" lon="2.6245268"><ele>73.60</ele><time>2026-4-28T19:11:7Z</time></trkpt>
<trkpt lat="49.1384633" lon="2.6244548"><ele>74.31</ele><time>2026-4-28T19:11:10Z</time></trkpt>
<trkpt lat="49.1385157" lon="2.6244416"><ele>77.58</ele><time>2026-4-28T19:11:13Z</time></trkpt>
<trkpt lat="49.1385867" lon="2.6244355"><ele>78.58</ele><time>2026-4-28T19:11:16Z</time></trkpt>
<trkpt lat="49.1386460" lon="2.6244360"><ele>79.31</ele><time>2026-4-28T19:11:19Z</time></trkpt>
<trkpt lat="49.1387050" lon="2.6244376"><ele>81.40</ele><time>2026-4-28T19:11:22Z</time></trkpt>
<trkpt lat="49.1387610" lon="2.6244354"><ele>81.80</ele><time>2026-4-28T19:11:25Z</time></trkpt>
<trkpt lat="49.1388149" lon="2.6244305"><ele>82.33</ele><time>2026-4-28T19:11:28Z</time></trkpt>
<trkpt lat="49.1388632" lon="2.6244190"><ele>83.50</ele><time>2026-4-28T19:11:31Z</time></trkpt>
<trkpt lat="49.1389280" lon="2.6243975"><ele>84.58</ele><time>2026-4-28T19:11:34Z</time></trkpt>
<trkpt lat="49.1389752" lon="2.6243487"><ele>85.79</ele><time>2026-4-28T19:11:37Z</time></trkpt>
<trkpt lat="49.1390286" lon="2.6242865"><ele>86.53</ele><time>2026-4-28T19:11:40Z</time></trkpt>
<trkpt lat="49.1390788" lon="2.6242492"><ele>88.49</ele><time>2026-4-28T19:11:43Z</time></trkpt>
<trkpt lat="49.1391455" lon="2.6242342"><ele>90.49</ele><time>2026-4-28T19:11:46Z</time></trkpt>
<trkpt lat="49.1391860" lon="2.6241978"><ele>91.09</ele><time>2026-4-28T19:11:49Z</time></trkpt>
<trkpt lat="49.1392427" lon="2.6241853"><ele>91.56</ele><time>2026-4-28T19:11:52Z</time></trkpt>
<trkpt lat="49.1392900" lon="2.6241637"><ele>92.52</ele><time>2026-4-28T19:11:55Z</time></trkpt>
<trkpt lat="49.1393495" lon="2.6241507"><ele>94.28</ele><time>2026-4-28T19:11:58Z</time></trkpt>
<trkpt lat="49.1394043" lon="2.6241205"><ele>93.63</ele><time>2026-4-28T19:12:1Z</time></trkpt>
<trkpt lat="49.1394594" lon="2.6241031"><ele>95.31</ele><time>2026-4-28T19:12:4Z</time></trkpt>
<trkpt lat="49.1395183" lon="2.6240862"><ele>97.64</ele><time>2026-4-28T19:12:7Z</time></trkpt>
<trkpt lat="49.1395887" lon="2.6240683"><ele>95.94</ele><time>2026-4-28T19:12:10Z</time></trkpt>
<trkpt lat="49.1396469" lon="2.6240384"><ele>96.55</ele><time>2026-4-28T19:12:13Z</time></trkpt>
<trkpt lat="49.1397086" lon="2.6240217"><ele>97.31</ele><time>2026-4-28T19:12:16Z</time></trkpt>
<trkpt lat="49.1397792" lon="2.6240068"><ele>98.49</ele><time>2026-4-28T19:12:19Z</time></trkpt>
<trkpt lat="49.1398531" lon="2.6239838"><ele>98.60</ele><time>2026-4-28T19:12:22Z</time></trkpt>
<trkpt lat="49.1399374" lon="2.6239414"><ele>98.61</ele><time>2026-4-28T19:12:25Z</time></trkpt>
<trkpt lat="49.1399867" lon="2.6239242"><ele>99.31</ele><time>2026-4-28T19:12:28Z</time></trkpt>
<trkpt lat="49.1400723" lon="2.6238836"><ele>99.52</ele><time>2026-4-28T19:12:31Z</time></trkpt>
<trkpt lat="49.1401287" lon="2.6238638"><ele>99.58</ele><time>2026-4-28T19:12:34Z</time></trkpt>
<trkpt lat="49.1401811" lon="2.6238467"><ele>99.60</ele><time>2026-4-28T19:12:37Z</time></trkpt>
<trkpt lat="49.1402342" lon="2.6238342"><ele>99.61</ele><time>2026-4-28T19:12:40Z</time></trkpt>
<trkpt lat="49.1402916" lon="2.6238271"><ele>99.61</ele><time>2026-4-28T19:12:43Z</time></trkpt>
<trkpt lat="49.1403453" lon="2.6238107"><ele>98.91</ele><time>2026-4-28T19:12:46Z</time></trkpt>
<trkpt lat="49.1403994" lon="2.6237924"><ele>98.70</ele><time>2026-4-28T19:12:49Z</time></trkpt>
<trkpt lat="49.1404559" lon="2.6237780"><ele>98.64</ele><time>2026-4-28T19:12:52Z</time></trkpt>
<trkpt lat="49.1405153" lon="2.6237708"><ele>98.62</ele><time>2026-4-28T19:12:55Z</time></trkpt>
<trkpt lat="49.1405702" lon="2.6237679"><ele>97.91</ele><time>2026-4-28T19:12:58Z</time></trkpt>
<trkpt lat="49.1406235" lon="2.6237716"><ele>97.70</ele><time>2026-4-28T19:13:1Z</time></trkpt>
<trkpt lat="49.1406742" lon="2.6237704"><ele>97.64</ele><time>2026-4-28T19:13:4Z</time></trkpt>
<trkpt lat="49.1407255" lon="2.6237628"><ele>97.62</ele><time>2026-4-28T19:13:7Z</time></trkpt>
<trkpt lat="49.1407736" lon="2.6237602"><ele>97.61</ele><time>2026-4-28T19:13:10Z</time></trkpt>
<trkpt lat="49.1408202" lon="2.6237560"><ele>98.31</ele><time>2026-4-28T19:13:13Z</time></trkpt>
<trkpt lat="49.1408752" lon="2.6237530"><ele>98.52</ele><time>2026-4-28T19:13:16Z</time></trkpt>
<trkpt lat="49.1409265" lon="2.6237514"><ele>98.58</ele><time>2026-4-28T19:13:19Z</time></trkpt>
<trkpt lat="49.1409784" lon="2.6237510"><ele>98.60</ele><time>2026-4-28T19:13:22Z</time></trkpt>
<trkpt lat="49.1410318" lon="2.6237439"><ele>98.61</ele><time>2026-4-28T19:13:25Z</time></trkpt>
<trkpt lat="49.1410915" lon="2.6237288"><ele>98.61</ele><time>2026-4-28T19:13:28Z</time></trkpt>
<trkpt lat="49.1411398" lon="2.6237273"><ele>99.31</ele><time>2026-4-28T19:13:31Z</time></trkpt>
<trkpt lat="49.1411898" lon="2.6237168"><ele>99.52</ele><time>2026-4-28T19:13:34Z</time></trkpt>
<trkpt lat="49.1412357" lon="2.6236952"><ele>99.58</ele><time>2026-4-28T19:13:37Z</time></trkpt>
<trkpt lat="49.1412988" lon="2.6236410"><ele>98.70</ele><time>2026-4-28T19:13:40Z</time></trkpt>
<trkpt lat="49.1413428" lon="2.6235927"><ele>98.62</ele><time>2026-4-28T19:13:43Z</time></trkpt>
<trkpt lat="49.1413821" lon="2.6236302"><ele>97.91</ele><time>2026-4-28T19:13:46Z</time></trkpt>
<trkpt lat="49.1413170" lon="2.6235764"><ele>98.58</ele><time>2026-4-28T19:13:49Z</time></trkpt>
<trkpt lat="49.1412588" lon="2.6235162"><ele>98.61</ele><time>2026-4-28T19:13:52Z</time></trkpt>
<trkpt lat="49.1412074" lon="2.6234415"><ele>98.61</ele><time>2026-4-28T19:13:55Z</time></trkpt>
<trkpt lat="49.1411711" lon="2.6233463"><ele>98.61</ele><time>2026-4-28T19:13:58Z</time></trkpt>
<trkpt lat="49.1411481" lon="2.6232406"><ele>98.61</ele><time>2026-4-28T19:14:1Z</time></trkpt>
<trkpt lat="49.1411224" lon="2.6231225"><ele>98.61</ele><time>2026-4-28T19:14:4Z</time></trkpt>
<trkpt lat="49.1411089" lon="2.6230131"><ele>98.61</ele><time>2026-4-28T19:14:7Z</time></trkpt>
<trkpt lat="49.1411036" lon="2.6229392"><ele>99.31</ele><time>2026-4-28T19:14:10Z</time></trkpt>
<trkpt lat="49.1410987" lon="2.6228615"><ele>99.52</ele><time>2026-4-28T19:14:13Z</time></trkpt>
<trkpt lat="49.1410780" lon="2.6227345"><ele>99.39</ele><time>2026-4-28T19:14:16Z</time></trkpt>
<trkpt lat="49.1410673" lon="2.6226631"><ele>99.55</ele><time>2026-4-28T19:14:19Z</time></trkpt>
<trkpt lat="49.1410582" lon="2.6225874"><ele>98.89</ele><time>2026-4-28T19:14:22Z</time></trkpt>
<trkpt lat="49.1410512" lon="2.6225137"><ele>98.70</ele><time>2026-4-28T19:14:25Z</time></trkpt>
<trkpt lat="49.1410420" lon="2.6224434"><ele>97.94</ele><time>2026-4-28T19:14:28Z</time></trkpt>
<trkpt lat="49.1410241" lon="2.6223687"><ele>97.71</ele><time>2026-4-28T19:14:31Z</time></trkpt>
<trkpt lat="49.1410016" lon="2.6222932"><ele>96.94</ele><time>2026-4-28T19:14:34Z</time></trkpt>
<trkpt lat="49.1409841" lon="2.6222259"><ele>96.01</ele><time>2026-4-28T19:14:37Z</time></trkpt>
<trkpt lat="49.1409597" lon="2.6221040"><ele>95.65</ele><time>2026-4-28T19:14:40Z</time></trkpt>
<trkpt lat="49.1409438" lon="2.6220066"><ele>94.70</ele><time>2026-4-28T19:14:43Z</time></trkpt>
<trkpt lat="49.1409742" lon="2.6219205"><ele>93.70</ele><time>2026-4-28T19:14:46Z</time></trkpt>
<trkpt lat="49.1410163" lon="2.6218810"><ele>93.62</ele><time>2026-4-28T19:14:49Z</time></trkpt>
<trkpt lat="49.1410547" lon="2.6218273"><ele>93.61</ele><time>2026-4-28T19:14:52Z</time></trkpt>
<trkpt lat="49.1411021" lon="2.6217695"><ele>93.61</ele><time>2026-4-28T19:14:55Z</time></trkpt>
<trkpt lat="49.1411596" lon="2.6217096"><ele>92.70</ele><time>2026-4-28T19:14:58Z</time></trkpt>
<trkpt lat="49.1412216" lon="2.6216418"><ele>92.62</ele><time>2026-4-28T19:15:1Z</time></trkpt>
<trkpt lat="49.1413021" lon="2.6215741"><ele>93.31</ele><time>2026-4-28T19:15:4Z</time></trkpt>
<trkpt lat="49.1413712" lon="2.6215682"><ele>92.67</ele><time>2026-4-28T19:15:7Z</time></trkpt>
<trkpt lat="49.1414207" lon="2.6216700"><ele>91.92</ele><time>2026-4-28T19:15:10Z</time></trkpt>
<trkpt lat="49.1414502" lon="2.6217638"><ele>92.34</ele><time>2026-4-28T19:15:13Z</time></trkpt>
<trkpt lat="49.1414708" lon="2.6218596"><ele>91.69</ele><time>2026-4-28T19:15:16Z</time></trkpt>
<trkpt lat="49.1414958" lon="2.6219251"><ele>91.62</ele><time>2026-4-28T19:15:19Z</time></trkpt>
<trkpt lat="49.1415436" lon="2.6219957"><ele>92.31</ele><time>2026-4-28T19:15:22Z</time></trkpt>
<trkpt lat="49.1415775" lon="2.6220414"><ele>91.88</ele><time>2026-4-28T19:15:25Z</time></trkpt>
<trkpt lat="49.1416224" lon="2.6220461"><ele>92.53</ele><time>2026-4-28T19:15:28Z</time></trkpt>
<trkpt lat="49.1416442" lon="2.6219814"><ele>92.61</ele><time>2026-4-28T19:15:31Z</time></trkpt>
<trkpt lat="49.1416857" lon="2.6219166"><ele>92.61</ele><time>2026-4-28T19:15:34Z</time></trkpt>
<trkpt lat="49.1417341" lon="2.6218328"><ele>92.61</ele><time>2026-4-28T19:15:37Z</time></trkpt>
<trkpt lat="49.1417799" lon="2.6217306"><ele>92.61</ele><time>2026-4-28T19:15:40Z</time></trkpt>
<trkpt lat="49.1418253" lon="2.6216658"><ele>93.31</ele><time>2026-4-28T19:15:43Z</time></trkpt>
<trkpt lat="49.1418680" lon="2.6216276"><ele>93.52</ele><time>2026-4-28T19:15:46Z</time></trkpt>
<trkpt lat="49.1419154" lon="2.6216145"><ele>93.58</ele><time>2026-4-28T19:15:49Z</time></trkpt>
<trkpt lat="49.1419937" lon="2.6216618"><ele>93.40</ele><time>2026-4-28T19:15:52Z</time></trkpt>
<trkpt lat="49.1420345" lon="2.6217736"><ele>93.59</ele><time>2026-4-28T19:15:55Z</time></trkpt>
<trkpt lat="49.1420563" lon="2.6218843"><ele>93.61</ele><time>2026-4-28T19:15:58Z</time></trkpt>
<trkpt lat="49.1420894" lon="2.6219880"><ele>93.61</ele><time>2026-4-28T19:16:1Z</time></trkpt>
<trkpt lat="49.1421275" lon="2.6220469"><ele>94.31</ele><time>2026-4-28T19:16:4Z</time></trkpt>
<trkpt lat="49.1421791" lon="2.6220668"><ele>94.60</ele><time>2026-4-28T19:16:7Z</time></trkpt>
<trkpt lat="49.1422511" lon="2.6220522"><ele>95.31</ele><time>2026-4-28T19:16:10Z</time></trkpt>
<trkpt lat="49.1423112" lon="2.6220066"><ele>95.58</ele><time>2026-4-28T19:16:13Z</time></trkpt>
<trkpt lat="49.1423653" lon="2.6219386"><ele>94.70</ele><time>2026-4-28T19:16:16Z</time></trkpt>
<trkpt lat="49.1424132" lon="2.6218617"><ele>93.92</ele><time>2026-4-28T19:16:19Z</time></trkpt>
<trkpt lat="49.1424570" lon="2.6217888"><ele>93.64</ele><time>2026-4-28T19:16:22Z</time></trkpt>
<trkpt lat="49.1424878" lon="2.6217051"><ele>92.91</ele><time>2026-4-28T19:16:25Z</time></trkpt>
<trkpt lat="49.1425232" lon="2.6216213"><ele>92.64</ele><time>2026-4-28T19:16:28Z</time></trkpt>
<trkpt lat="49.1425562" lon="2.6215383"><ele>92.61</ele><time>2026-4-28T19:16:31Z</time></trkpt>
<trkpt lat="49.1425827" lon="2.6214586"><ele>91.91</ele><time>2026-4-28T19:16:34Z</time></trkpt>
<trkpt lat="49.1426130" lon="2.6213790"><ele>91.64</ele><time>2026-4-28T19:16:37Z</time></trkpt>
<trkpt lat="49.1426490" lon="2.6213324"><ele>91.61</ele><time>2026-4-28T19:16:40Z</time></trkpt>
<trkpt lat="49.1426938" lon="2.6213095"><ele>91.61</ele><time>2026-4-28T19:16:43Z</time></trkpt>
<trkpt lat="49.1427481" lon="2.6212953"><ele>91.61</ele><time>2026-4-28T19:16:46Z</time></trkpt>
<trkpt lat="49.1428047" lon="2.6212914"><ele>91.61</ele><time>2026-4-28T19:16:49Z</time></trkpt>
<trkpt lat="49.1428714" lon="2.6212732"><ele>91.61</ele><time>2026-4-28T19:16:52Z</time></trkpt>
<trkpt lat="49.1429367" lon="2.6212171"><ele>90.70</ele><time>2026-4-28T19:16:55Z</time></trkpt>
<trkpt lat="49.1429688" lon="2.6211027"><ele>91.53</ele><time>2026-4-28T19:16:58Z</time></trkpt>
<trkpt lat="49.1429673" lon="2.6210320"><ele>91.59</ele><time>2026-4-28T19:17:1Z</time></trkpt>
<trkpt lat="49.1429398" lon="2.6209085"><ele>91.61</ele><time>2026-4-28T19:17:4Z</time></trkpt>
<trkpt lat="49.1429069" lon="2.6208103"><ele>91.61</ele><time>2026-4-28T19:17:7Z</time></trkpt>
<trkpt lat="49.1428710" lon="2.6207125"><ele>92.52</ele><time>2026-4-28T19:17:10Z</time></trkpt>
<trkpt lat="49.1428268" lon="2.6206095"><ele>92.60</ele><time>2026-4-28T19:17:13Z</time></trkpt>
<trkpt lat="49.1427737" lon="2.6205348"><ele>92.61</ele><time>2026-4-28T19:17:16Z</time></trkpt>
<trkpt lat="49.1427206" lon="2.6204961"><ele>92.61</ele><time>2026-4-28T19:17:19Z</time></trkpt>
<trkpt lat="49.1426660" lon="2.6204657"><ele>90.70</ele><time>2026-4-28T19:17:22Z</time></trkpt>
<trkpt lat="49.1426317" lon="2.6204151"><ele>90.62</ele><time>2026-4-28T19:17:25Z</time></trkpt>
<trkpt lat="49.1426095" lon="2.6203485"><ele>90.61</ele><time>2026-4-28T19:17:28Z</time></trkpt>
<trkpt lat="49.1426251" lon="2.6202432"><ele>89.70</ele><time>2026-4-28T19:17:31Z</time></trkpt>
<trkpt lat="49.1426490" lon="2.6201213"><ele>89.62</ele><time>2026-4-28T19:17:34Z</time></trkpt>
<trkpt lat="49.1426728" lon="2.6200293"><ele>89.61</ele><time>2026-4-28T19:17:37Z</time></trkpt>
<trkpt lat="49.1427103" lon="2.6199901"><ele>89.61</ele><time>2026-4-28T19:17:40Z</time></trkpt>
<trkpt lat="49.1427555" lon="2.6199855"><ele>90.52</ele><time>2026-4-28T19:17:43Z</time></trkpt>
<trkpt lat="49.1427934" lon="2.6199357"><ele>90.61</ele><time>2026-4-28T19:17:46Z</time></trkpt>
<trkpt lat="49.1428190" lon="2.6198731"><ele>97.52</ele><time>2026-4-28T19:17:49Z</time></trkpt>
<trkpt lat="49.1428639" lon="2.6198419"><ele>98.51</ele><time>2026-4-28T19:17:52Z</time></trkpt>
<trkpt lat="49.1429089" lon="2.6198168"><ele>100.21</ele><time>2026-4-28T19:17:55Z</time></trkpt>
<trkpt lat="49.1429559" lon="2.6197870"><ele>101.28</ele><time>2026-4-28T19:17:58Z</time></trkpt>
<trkpt lat="49.1430115" lon="2.6197597"><ele>102.28</ele><time>2026-4-28T19:18:1Z</time></trkpt>
<trkpt lat="49.1430737" lon="2.6197333"><ele>102.58</ele><time>2026-4-28T19:18:4Z</time></trkpt>
<trkpt lat="49.1431325" lon="2.6197073"><ele>101.70</ele><time>2026-4-28T19:18:7Z</time></trkpt>
<trkpt lat="49.1431931" lon="2.6196964"><ele>102.53</ele><time>2026-4-28T19:18:10Z</time></trkpt>
<trkpt lat="49.1432626" lon="2.6196769"><ele>102.60</ele><time>2026-4-28T19:18:13Z</time></trkpt>
<trkpt lat="49.1433296" lon="2.6196519"><ele>102.61</ele><time>2026-4-28T19:18:16Z</time></trkpt>
<trkpt lat="49.1433781" lon="2.6196307"><ele>102.61</ele><time>2026-4-28T19:18:19Z</time></trkpt>
<trkpt lat="49.1434285" lon="2.6196131"><ele>103.31</ele><time>2026-4-28T19:18:22Z</time></trkpt>
<trkpt lat="49.1434760" lon="2.6196066"><ele>103.58</ele><time>2026-4-28T19:18:25Z</time></trkpt>
<trkpt lat="49.1435345" lon="2.6195895"><ele>104.52</ele><time>2026-4-28T19:18:28Z</time></trkpt>
<trkpt lat="49.1435937" lon="2.6195731"><ele>104.55</ele><time>2026-4-28T19:18:31Z</time></trkpt>
<trkpt lat="49.1436524" lon="2.6195284"><ele>104.61</ele><time>2026-4-28T19:18:34Z</time></trkpt>
<trkpt lat="49.1436937" lon="2.6194930"><ele>104.61</ele><time>2026-4-28T19:18:37Z</time></trkpt>
<trkpt lat="49.1437371" lon="2.6194396"><ele>104.61</ele><time>2026-4-28T19:18:40Z</time></trkpt>
<trkpt lat="49.1437829" lon="2.6193711"><ele>105.52</ele><time>2026-4-28T19:18:43Z</time></trkpt>
<trkpt lat="49.1438185" lon="2.6192922"><ele>105.60</ele><time>2026-4-28T19:18:46Z</time></trkpt>
<trkpt lat="49.1438522" lon="2.6192115"><ele>105.61</ele><time>2026-4-28T19:18:49Z</time></trkpt>
<trkpt lat="49.1438823" lon="2.6191271"><ele>104.70</ele><time>2026-4-28T19:18:52Z</time></trkpt>
<trkpt lat="49.1439171" lon="2.6190369"><ele>104.62</ele><time>2026-4-28T19:18:55Z</time></trkpt>
<trkpt lat="49.1439532" lon="2.6189408"><ele>104.61</ele><time>2026-4-28T19:18:58Z</time></trkpt>
<trkpt lat="49.1440007" lon="2.6188703"><ele>104.61</ele><time>2026-4-28T19:19:1Z</time></trkpt>
<trkpt lat="49.1440530" lon="2.6188313"><ele>104.61</ele><time>2026-4-28T19:19:4Z</time></trkpt>
<trkpt lat="49.1441036" lon="2.6187934"><ele>104.61</ele><time>2026-4-28T19:19:7Z</time></trkpt>
<trkpt lat="49.1441614" lon="2.6187787"><ele>103.91</ele><time>2026-4-28T19:19:10Z</time></trkpt>
<trkpt lat="49.1442187" lon="2.6187790"><ele>103.64</ele><time>2026-4-28T19:19:13Z</time></trkpt>
<trkpt lat="49.1442889" lon="2.6187744"><ele>103.61</ele><time>2026-4-28T19:19:16Z</time></trkpt>
<trkpt lat="49.1443584" lon="2.6187428"><ele>102.00</ele><time>2026-4-28T19:19:19Z</time></trkpt>
<trkpt lat="49.1444166" lon="2.6187050"><ele>100.04</ele><time>2026-4-28T19:19:22Z</time></trkpt>
<trkpt lat="49.1444627" lon="2.6186625"><ele>98.95</ele><time>2026-4-28T19:19:25Z</time></trkpt>
<trkpt lat="49.1445182" lon="2.6186203"><ele>98.64</ele><time>2026-4-28T19:19:28Z</time></trkpt>
<trkpt lat="49.1445984" lon="2.6185787"><ele>97.70</ele><time>2026-4-28T19:19:31Z</time></trkpt>
<trkpt lat="49.1446488" lon="2.6185594"><ele>97.64</ele><time>2026-4-28T19:19:34Z</time></trkpt>
<trkpt lat="49.1447342" lon="2.6185600"><ele>97.61</ele><time>2026-4-28T19:19:37Z</time></trkpt>
<trkpt lat="49.1448218" lon="2.6185343"><ele>97.61</ele><time>2026-4-28T19:19:40Z</time></trkpt>
<trkpt lat="49.1448953" lon="2.6184584"><ele>97.40</ele><time>2026-4-28T19:19:43Z</time></trkpt>
<trkpt lat="49.1448807" lon="2.6183389"><ele>98.29</ele><time>2026-4-28T19:19:46Z</time></trkpt>
<trkpt lat="49.1448535" lon="2.6182801"><ele>98.52</ele><time>2026-4-28T19:19:49Z</time></trkpt>
<trkpt lat="49.1448235" lon="2.6182140"><ele>98.58</ele><time>2026-4-28T19:19:52Z</time></trkpt>
<trkpt lat="49.1447931" lon="2.6181510"><ele>98.60</ele><time>2026-4-28T19:19:55Z</time></trkpt>
<trkpt lat="49.1447594" lon="2.6180887"><ele>98.61</ele><time>2026-4-28T19:19:58Z</time></trkpt>
<trkpt lat="49.1447270" lon="2.6180189"><ele>98.61</ele><time>2026-4-28T19:20:1Z</time></trkpt>
<trkpt lat="49.1446996" lon="2.6179555"><ele>99.31</ele><time>2026-4-28T19:20:4Z</time></trkpt>
<trkpt lat="49.1446800" lon="2.6178871"><ele>99.52</ele><time>2026-4-28T19:20:7Z</time></trkpt>
<trkpt lat="49.1446637" lon="2.6177592"><ele>98.69</ele><time>2026-4-28T19:20:10Z</time></trkpt>
<trkpt lat="49.1446572" lon="2.6176322"><ele>99.32</ele><time>2026-4-28T19:20:13Z</time></trkpt>
<trkpt lat="49.1446607" lon="2.6175236"><ele>98.67</ele><time>2026-4-28T19:20:16Z</time></trkpt>
<trkpt lat="49.1446492" lon="2.6174139"><ele>98.62</ele><time>2026-4-28T19:20:19Z</time></trkpt>
<trkpt lat="49.1446377" lon="2.6172889"><ele>98.61</ele><time>2026-4-28T19:20:22Z</time></trkpt>
<trkpt lat="49.1446318" lon="2.6172110"><ele>98.61</ele><time>2026-4-28T19:20:25Z</time></trkpt>
<trkpt lat="49.1446240" lon="2.6171301"><ele>98.61</ele><time>2026-4-28T19:20:28Z</time></trkpt>
<trkpt lat="49.1446177" lon="2.6170442"><ele>97.91</ele><time>2026-4-28T19:20:31Z</time></trkpt>
<trkpt lat="49.1446093" lon="2.6169626"><ele>98.40</ele><time>2026-4-28T19:20:34Z</time></trkpt>
<trkpt lat="49.1445972" lon="2.6168240"><ele>98.59</ele><time>2026-4-28T19:20:37Z</time></trkpt>
<trkpt lat="49.1445901" lon="2.6167544"><ele>98.61</ele><time>2026-4-28T19:20:40Z</time></trkpt>
<trkpt lat="49.1445815" lon="2.6166838"><ele>97.91</ele><time>2026-4-28T19:20:43Z</time></trkpt>
<trkpt lat="49.1445731" lon="2.6166093"><ele>97.70</ele><time>2026-4-28T19:20:46Z</time></trkpt>
<trkpt lat="49.1445609" lon="2.6165417"><ele>97.64</ele><time>2026-4-28T19:20:49Z</time></trkpt>
<trkpt lat="49.1445537" lon="2.6164671"><ele>97.62</ele><time>2026-4-28T19:20:52Z</time></trkpt>
<trkpt lat="49.1445616" lon="2.6163904"><ele>96.91</ele><time>2026-4-28T19:20:55Z</time></trkpt>
<trkpt lat="49.1445788" lon="2.6163207"><ele>96.70</ele><time>2026-4-28T19:20:58Z</time></trkpt>
<trkpt lat="49.1446023" lon="2.6162571"><ele>95.94</ele><time>2026-4-28T19:21:1Z</time></trkpt>
<trkpt lat="49.1446249" lon="2.6161947"><ele>95.01</ele><time>2026-4-28T19:21:4Z</time></trkpt>
<trkpt lat="49.1446502" lon="2.6161357"><ele>94.73</ele><time>2026-4-28T19:21:7Z</time></trkpt>
<trkpt lat="49.1446707" lon="2.6160656"><ele>94.65</ele><time>2026-4-28T19:21:10Z</time></trkpt>
<trkpt lat="49.1446959" lon="2.6160008"><ele>94.62</ele><time>2026-4-28T19:21:13Z</time></trkpt>
<trkpt lat="49.1447181" lon="2.6159335"><ele>94.61</ele><time>2026-4-28T19:21:16Z</time></trkpt>
<trkpt lat="49.1447662" lon="2.6158326"><ele>94.61</ele><time>2026-4-28T19:21:19Z</time></trkpt>
<trkpt lat="49.1447919" lon="2.6157729"><ele>93.91</ele><time>2026-4-28T19:21:22Z</time></trkpt>
<trkpt lat="49.1448202" lon="2.6157000"><ele>93.70</ele><time>2026-4-28T19:21:25Z</time></trkpt>
<trkpt lat="49.1448477" lon="2.6156183"><ele>93.64</ele><time>2026-4-28T19:21:28Z</time></trkpt>
<trkpt lat="49.1448809" lon="2.6155347"><ele>92.92</ele><time>2026-4-28T19:21:31Z</time></trkpt>
<trkpt lat="49.1449092" lon="2.6154505"><ele>92.70</ele><time>2026-4-28T19:21:34Z</time></trkpt>
<trkpt lat="49.1449368" lon="2.6153632"><ele>92.64</ele><time>2026-4-28T19:21:37Z</time></trkpt>
<trkpt lat="49.1449610" lon="2.6152812"><ele>92.62</ele><time>2026-4-28T19:21:40Z</time></trkpt>
<trkpt lat="49.1449824" lon="2.6152145"><ele>92.61</ele><time>2026-4-28T19:21:43Z</time></trkpt>
<trkpt lat="49.1450061" lon="2.6151467"><ele>91.91</ele><time>2026-4-28T19:21:46Z</time></trkpt>
<trkpt lat="49.1450348" lon="2.6150801"><ele>91.70</ele><time>2026-4-28T19:21:49Z</time></trkpt>
<trkpt lat="49.1450789" lon="2.6149903"><ele>90.71</ele><time>2026-4-28T19:21:52Z</time></trkpt>
<trkpt lat="49.1451147" lon="2.6149212"><ele>90.61</ele><time>2026-4-28T19:21:55Z</time></trkpt>
<trkpt lat="49.1451646" lon="2.6148862"><ele>89.70</ele><time>2026-4-28T19:21:58Z</time></trkpt>
<trkpt lat="49.1452155" lon="2.6148592"><ele>88.92</ele><time>2026-4-28T19:22:1Z</time></trkpt>
<trkpt lat="49.1452632" lon="2.6148436"><ele>88.70</ele><time>2026-4-28T19:22:4Z</time></trkpt>
<trkpt lat="49.1453146" lon="2.6148284"><ele>88.64</ele><time>2026-4-28T19:22:7Z</time></trkpt>
<trkpt lat="49.1453634" lon="2.6148090"><ele>89.32</ele><time>2026-4-28T19:22:10Z</time></trkpt>
<trkpt lat="49.1454143" lon="2.6147793"><ele>89.52</ele><time>2026-4-28T19:22:13Z</time></trkpt>
<trkpt lat="49.1454626" lon="2.6147441"><ele>89.58</ele><time>2026-4-28T19:22:16Z</time></trkpt>
<trkpt lat="49.1455199" lon="2.6147064"><ele>88.20</ele><time>2026-4-28T19:22:19Z</time></trkpt>
<trkpt lat="49.1455806" lon="2.6146676"><ele>87.09</ele><time>2026-4-28T19:22:22Z</time></trkpt>
<trkpt lat="49.1456442" lon="2.6146339"><ele>86.75</ele><time>2026-4-28T19:22:25Z</time></trkpt>
<trkpt lat="49.1457103" lon="2.6145939"><ele>86.65</ele><time>2026-4-28T19:22:28Z</time></trkpt>
<trkpt lat="49.1457824" lon="2.6145484"><ele>85.92</ele><time>2026-4-28T19:22:31Z</time></trkpt>
<trkpt lat="49.1458546" lon="2.6145037"><ele>85.70</ele><time>2026-4-28T19:22:34Z</time></trkpt>
<trkpt lat="49.1459112" lon="2.6144711"><ele>85.64</ele><time>2026-4-28T19:22:37Z</time></trkpt>
<trkpt lat="49.1459693" lon="2.6144375"><ele>85.62</ele><time>2026-4-28T19:22:40Z</time></trkpt>
<trkpt lat="49.1460277" lon="2.6144031"><ele>85.61</ele><time>2026-4-28T19:22:43Z</time></trkpt>
<trkpt lat="49.1460933" lon="2.6143744"><ele>85.61</ele><time>2026-4-28T19:22:46Z</time></trkpt>
<trkpt lat="49.1461597" lon="2.6143358"><ele>85.61</ele><time>2026-4-28T19:22:49Z</time></trkpt>
<trkpt lat="49.1462237" lon="2.6143034"><ele>85.61</ele><time>2026-4-28T19:22:52Z</time></trkpt>
<trkpt lat="49.1462844" lon="2.6142702"><ele>85.61</ele><time>2026-4-28T19:22:55Z</time></trkpt>
<trkpt lat="49.1463395" lon="2.6142361"><ele>85.61</ele><time>2026-4-28T19:22:58Z</time></trkpt>
<trkpt lat="49.1463948" lon="2.6141992"><ele>85.61</ele><time>2026-4-28T19:23:1Z</time></trkpt>
<trkpt lat="49.1464488" lon="2.6141633"><ele>84.91</ele><time>2026-4-28T19:23:4Z</time></trkpt>
<trkpt lat="49.1465085" lon="2.6141325"><ele>84.70</ele><time>2026-4-28T19:23:7Z</time></trkpt>
<trkpt lat="49.1465702" lon="2.6140994"><ele>83.94</ele><time>2026-4-28T19:23:10Z</time></trkpt>
<trkpt lat="49.1466265" lon="2.6140641"><ele>83.71</ele><time>2026-4-28T19:23:13Z</time></trkpt>
<trkpt lat="49.1466893" lon="2.6140254"><ele>83.64</ele><time>2026-4-28T19:23:16Z</time></trkpt>
<trkpt lat="49.1467568" lon="2.6139852"><ele>83.62</ele><time>2026-4-28T19:23:19Z</time></trkpt>
<trkpt lat="49.1468270" lon="2.6139423"><ele>82.91</ele><time>2026-4-28T19:23:22Z</time></trkpt>
<trkpt lat="49.1469016" lon="2.6138999"><ele>82.70</ele><time>2026-4-28T19:23:25Z</time></trkpt>
<trkpt lat="49.1469794" lon="2.6138610"><ele>82.64</ele><time>2026-4-28T19:23:28Z</time></trkpt>
<trkpt lat="49.1470597" lon="2.6138194"><ele>81.92</ele><time>2026-4-28T19:23:31Z</time></trkpt>
<trkpt lat="49.1471326" lon="2.6137831"><ele>81.70</ele><time>2026-4-28T19:23:34Z</time></trkpt>
<trkpt lat="49.1471985" lon="2.6137458"><ele>82.34</ele><time>2026-4-28T19:23:37Z</time></trkpt>
<trkpt lat="49.1472617" lon="2.6137035"><ele>82.53</ele><time>2026-4-28T19:23:40Z</time></trkpt>
<trkpt lat="49.1473170" lon="2.6136714"><ele>82.59</ele><time>2026-4-28T19:23:43Z</time></trkpt>
<trkpt lat="49.1473737" lon="2.6136357"><ele>82.60</ele><time>2026-4-28T19:23:46Z</time></trkpt>
<trkpt lat="49.1474213" lon="2.6136018"><ele>82.61</ele><time>2026-4-28T19:23:49Z</time></trkpt>
<trkpt lat="49.1474721" lon="2.6135810"><ele>82.61</ele><time>2026-4-28T19:23:52Z</time></trkpt>
<trkpt lat="49.1475181" lon="2.6135673"><ele>83.31</ele><time>2026-4-28T19:23:55Z</time></trkpt>
<trkpt lat="49.1475639" lon="2.6135474"><ele>83.52</ele><time>2026-4-28T19:23:58Z</time></trkpt>
<trkpt lat="49.1476348" lon="2.6135083"><ele>82.69</ele><time>2026-4-28T19:24:1Z</time></trkpt>
<trkpt lat="49.1477001" lon="2.6134751"><ele>82.62</ele><time>2026-4-28T19:24:4Z</time></trkpt>
<trkpt lat="49.1477588" lon="2.6134678"><ele>81.70</ele><time>2026-4-28T19:24:7Z</time></trkpt>
<trkpt lat="49.1478137" lon="2.6134610"><ele>81.62</ele><time>2026-4-28T19:24:10Z</time></trkpt>
<trkpt lat="49.1478552" lon="2.6134200"><ele>81.61</ele><time>2026-4-28T19:24:13Z</time></trkpt>
<trkpt lat="49.1478998" lon="2.6133414"><ele>80.91</ele><time>2026-4-28T19:24:16Z</time></trkpt>
<trkpt lat="49.1479660" lon="2.6132670"><ele>79.94</ele><time>2026-4-28T19:24:19Z</time></trkpt>
<trkpt lat="49.1480319" lon="2.6132233"><ele>80.41</ele><time>2026-4-28T19:24:22Z</time></trkpt>
<trkpt lat="49.1480867" lon="2.6131698"><ele>80.55</ele><time>2026-4-28T19:24:25Z</time></trkpt>
<trkpt lat="49.1481426" lon="2.6131110"><ele>79.89</ele><time>2026-4-28T19:24:28Z</time></trkpt>
<trkpt lat="49.1482024" lon="2.6130464"><ele>79.70</ele><time>2026-4-28T19:24:31Z</time></trkpt>
<trkpt lat="49.1482611" lon="2.6129786"><ele>79.64</ele><time>2026-4-28T19:24:34Z</time></trkpt>
<trkpt lat="49.1483146" lon="2.6129226"><ele>79.62</ele><time>2026-4-28T19:24:37Z</time></trkpt>
<trkpt lat="49.1483658" lon="2.6128675"><ele>78.91</ele><time>2026-4-28T19:24:40Z</time></trkpt>
<trkpt lat="49.1484096" lon="2.6128070"><ele>78.70</ele><time>2026-4-28T19:24:43Z</time></trkpt>
<trkpt lat="49.1484542" lon="2.6127580"><ele>78.64</ele><time>2026-4-28T19:24:46Z</time></trkpt>
<trkpt lat="49.1484973" lon="2.6127006"><ele>78.62</ele><time>2026-4-28T19:24:49Z</time></trkpt>
<trkpt lat="49.1485413" lon="2.6126549"><ele>78.61</ele><time>2026-4-28T19:24:52Z</time></trkpt>
<trkpt lat="49.1486131" lon="2.6125707"><ele>77.70</ele><time>2026-4-28T19:24:55Z</time></trkpt>
<trkpt lat="49.1486751" lon="2.6125158"><ele>77.83</ele><time>2026-4-28T19:24:58Z</time></trkpt>
<trkpt lat="49.1487088" lon="2.6124530"><ele>77.63</ele><time>2026-4-28T19:25:1Z</time></trkpt>
<trkpt lat="49.1487426" lon="2.6123987"><ele>77.61</ele><time>2026-4-28T19:25:4Z</time></trkpt>
<trkpt lat="49.1487769" lon="2.6123404"><ele>77.61</ele><time>2026-4-28T19:25:7Z</time></trkpt>
<trkpt lat="49.1488363" lon="2.6122764"><ele>78.52</ele><time>2026-4-28T19:25:10Z</time></trkpt>
<trkpt lat="49.1488814" lon="2.6122148"><ele>78.60</ele><time>2026-4-28T19:25:13Z</time></trkpt>
<trkpt lat="49.1489354" lon="2.6121532"><ele>78.61</ele><time>2026-4-28T19:25:16Z</time></trkpt>
<trkpt lat="49.1489864" lon="2.6121069"><ele>77.91</ele><time>2026-4-28T19:25:19Z</time></trkpt>
<trkpt lat="49.1490329" lon="2.6120566"><ele>78.34</ele><time>2026-4-28T19:25:22Z</time></trkpt>
<trkpt lat="49.1490834" lon="2.6120078"><ele>78.59</ele><time>2026-4-28T19:25:25Z</time></trkpt>
<trkpt lat="49.1491331" lon="2.6119501"><ele>77.91</ele><time>2026-4-28T19:25:28Z</time></trkpt>
<trkpt lat="49.1491824" lon="2.6118992"><ele>78.34</ele><time>2026-4-28T19:25:31Z</time></trkpt>
<trkpt lat="49.1492231" lon="2.6118411"><ele>78.59</ele><time>2026-4-28T19:25:34Z</time></trkpt>
<trkpt lat="49.1492758" lon="2.6117852"><ele>78.61</ele><time>2026-4-28T19:25:37Z</time></trkpt>
<trkpt lat="49.1493327" lon="2.6117367"><ele>77.91</ele><time>2026-4-28T19:25:40Z</time></trkpt>
<trkpt lat="49.1493846" lon="2.6116675"><ele>77.64</ele><time>2026-4-28T19:25:43Z</time></trkpt>
<trkpt lat="49.1494374" lon="2.6116104"><ele>77.61</ele><time>2026-4-28T19:25:46Z</time></trkpt>
<trkpt lat="49.1494853" lon="2.6115580"><ele>78.31</ele><time>2026-4-28T19:25:49Z</time></trkpt>
<trkpt lat="49.1495313" lon="2.6115134"><ele>78.58</ele><time>2026-4-28T19:25:52Z</time></trkpt>
<trkpt lat="49.1495871" lon="2.6114564"><ele>79.52</ele><time>2026-4-28T19:25:55Z</time></trkpt>
<trkpt lat="49.1496619" lon="2.6113925"><ele>80.51</ele><time>2026-4-28T19:25:58Z</time></trkpt>
<trkpt lat="49.1497262" lon="2.6113296"><ele>81.30</ele><time>2026-4-28T19:26:1Z</time></trkpt>
<trkpt lat="49.1497925" lon="2.6112653"><ele>81.58</ele><time>2026-4-28T19:26:4Z</time></trkpt>
<trkpt lat="49.1498313" lon="2.6112271"><ele>82.30</ele><time>2026-4-28T19:26:7Z</time></trkpt>
<trkpt lat="49.1498879" lon="2.6111619"><ele>82.58</ele><time>2026-4-28T19:26:10Z</time></trkpt>
<trkpt lat="49.1499532" lon="2.6110798"><ele>82.40</ele><time>2026-4-28T19:26:13Z</time></trkpt>
<trkpt lat="49.1500259" lon="2.6109996"><ele>84.20</ele><time>2026-4-28T19:26:16Z</time></trkpt>
<trkpt lat="49.1500678" lon="2.6109571"><ele>84.49</ele><time>2026-4-28T19:26:19Z</time></trkpt>
<trkpt lat="49.1501093" lon="2.6109157"><ele>83.87</ele><time>2026-4-28T19:26:22Z</time></trkpt>
<trkpt lat="49.1501462" lon="2.6108715"><ele>82.99</ele><time>2026-4-28T19:26:25Z</time></trkpt>
<trkpt lat="49.1501916" lon="2.6108163"><ele>82.72</ele><time>2026-4-28T19:26:28Z</time></trkpt>
<trkpt lat="49.1502392" lon="2.6107596"><ele>83.35</ele><time>2026-4-28T19:26:31Z</time></trkpt>
<trkpt lat="49.1502932" lon="2.6106931"><ele>83.53</ele><time>2026-4-28T19:26:34Z</time></trkpt>
<trkpt lat="49.1503412" lon="2.6106297"><ele>83.59</ele><time>2026-4-28T19:26:37Z</time></trkpt>
<trkpt lat="49.1503892" lon="2.6105741"><ele>82.90</ele><time>2026-4-28T19:26:40Z</time></trkpt>
<trkpt lat="49.1504402" lon="2.6105253"><ele>82.00</ele><time>2026-4-28T19:26:43Z</time></trkpt>
<trkpt lat="49.1504903" lon="2.6104703"><ele>82.43</ele><time>2026-4-28T19:26:46Z</time></trkpt>
<trkpt lat="49.1505407" lon="2.6104249"><ele>82.56</ele><time>2026-4-28T19:26:49Z</time></trkpt>
<trkpt lat="49.1505881" lon="2.6103823"><ele>82.59</ele><time>2026-4-28T19:26:52Z</time></trkpt>
<trkpt lat="49.1506307" lon="2.6103364"><ele>82.61</ele><time>2026-4-28T19:26:55Z</time></trkpt>
<trkpt lat="49.1506702" lon="2.6102888"><ele>82.61</ele><time>2026-4-28T19:26:58Z</time></trkpt>
<trkpt lat="49.1507085" lon="2.6102459"><ele>82.61</ele><time>2026-4-28T19:27:1Z</time></trkpt>
<trkpt lat="49.1507465" lon="2.6101851"><ele>82.61</ele><time>2026-4-28T19:27:4Z</time></trkpt>
<trkpt lat="49.1507829" lon="2.6101333"><ele>81.91</ele><time>2026-4-28T19:27:7Z</time></trkpt>
<trkpt lat="49.1508227" lon="2.6100852"><ele>81.70</ele><time>2026-4-28T19:27:10Z</time></trkpt>
<trkpt lat="49.1508627" lon="2.6100441"><ele>81.64</ele><time>2026-4-28T19:27:13Z</time></trkpt>
<trkpt lat="49.1509071" lon="2.6100064"><ele>81.62</ele><time>2026-4-28T19:27:16Z</time></trkpt>
<trkpt lat="49.1509409" lon="2.6099608"><ele>81.61</ele><time>2026-4-28T19:27:19Z</time></trkpt>
<trkpt lat="49.1509793" lon="2.6099073"><ele>81.61</ele><time>2026-4-28T19:27:22Z</time></trkpt>
<trkpt lat="49.1510285" lon="2.6098637"><ele>81.61</ele><time>2026-4-28T19:27:25Z</time></trkpt>
<trkpt lat="49.1510748" lon="2.6098222"><ele>81.61</ele><time>2026-4-28T19:27:28Z</time></trkpt>
<trkpt lat="49.1511228" lon="2.6097795"><ele>81.61</ele><time>2026-4-28T19:27:31Z</time></trkpt>
<trkpt lat="49.1511599" lon="2.6097306"><ele>81.61</ele><time>2026-4-28T19:27:34Z</time></trkpt>
<trkpt lat="49.1511998" lon="2.6096866"><ele>80.91</ele><time>2026-4-28T19:27:37Z</time></trkpt>
<trkpt lat="49.1512366" lon="2.6096395"><ele>80.70</ele><time>2026-4-28T19:27:40Z</time></trkpt>
<trkpt lat="49.1512756" lon="2.6095952"><ele>80.64</ele><time>2026-4-28T19:27:43Z</time></trkpt>
<trkpt lat="49.1513129" lon="2.6095439"><ele>80.62</ele><time>2026-4-28T19:27:46Z</time></trkpt>
<trkpt lat="49.1513532" lon="2.6095015"><ele>80.61</ele><time>2026-4-28T19:27:49Z</time></trkpt>
<trkpt lat="49.1513900" lon="2.6094521"><ele>80.61</ele><time>2026-4-28T19:27:52Z</time></trkpt>
<trkpt lat="49.1514271" lon="2.6094015"><ele>80.61</ele><time>2026-4-28T19:27:55Z</time></trkpt>
<trkpt lat="49.1514656" lon="2.6093526"><ele>80.61</ele><time>2026-4-28T19:27:58Z</time></trkpt>
<trkpt lat="49.1515201" lon="2.6093132"><ele>79.91</ele><time>2026-4-28T19:28:1Z</time></trkpt>
<trkpt lat="49.1515778" lon="2.6092653"><ele>79.00</ele><time>2026-4-28T19:28:4Z</time></trkpt>
<trkpt lat="49.1516394" lon="2.6092186"><ele>78.73</ele><time>2026-4-28T19:28:7Z</time></trkpt>
<trkpt lat="49.1516939" lon="2.6091575"><ele>77.95</ele><time>2026-4-28T19:28:10Z</time></trkpt>
<trkpt lat="49.1517480" lon="2.6090973"><ele>77.71</ele><time>2026-4-28T19:28:13Z</time></trkpt>
<trkpt lat="49.1517993" lon="2.6090389"><ele>76.94</ele><time>2026-4-28T19:28:16Z</time></trkpt>
<trkpt lat="49.1518508" lon="2.6089710"><ele>76.71</ele><time>2026-4-28T19:28:19Z</time></trkpt>
<trkpt lat="49.1519039" lon="2.6089162"><ele>76.64</ele><time>2026-4-28T19:28:22Z</time></trkpt>
<trkpt lat="49.1519555" lon="2.6088628"><ele>76.62</ele><time>2026-4-28T19:28:25Z</time></trkpt>
<trkpt lat="49.1520066" lon="2.6088072"><ele>76.61</ele><time>2026-4-28T19:28:28Z</time></trkpt>
<trkpt lat="49.1520626" lon="2.6087521"><ele>76.61</ele><time>2026-4-28T19:28:31Z</time></trkpt>
<trkpt lat="49.1521142" lon="2.6086954"><ele>75.91</ele><time>2026-4-28T19:28:34Z</time></trkpt>
<trkpt lat="49.1521681" lon="2.6086441"><ele>75.00</ele><time>2026-4-28T19:28:37Z</time></trkpt>
<trkpt lat="49.1522220" lon="2.6085848"><ele>74.73</ele><time>2026-4-28T19:28:40Z</time></trkpt>
<trkpt lat="49.1522774" lon="2.6085207"><ele>73.95</ele><time>2026-4-28T19:28:43Z</time></trkpt>
<trkpt lat="49.1523266" lon="2.6084606"><ele>73.01</ele><time>2026-4-28T19:28:46Z</time></trkpt>
<trkpt lat="49.1523726" lon="2.6084032"><ele>72.03</ele><time>2026-4-28T19:28:49Z</time></trkpt>
<trkpt lat="49.1524155" lon="2.6083415"><ele>71.74</ele><time>2026-4-28T19:28:52Z</time></trkpt>
<trkpt lat="49.1524529" lon="2.6082798"><ele>70.95</ele><time>2026-4-28T19:28:55Z</time></trkpt>
<trkpt lat="49.1525010" lon="2.6081983"><ele>71.55</ele><time>2026-4-28T19:28:58Z</time></trkpt>
<trkpt lat="49.1525571" lon="2.6081454"><ele>70.61</ele><time>2026-4-28T19:29:1Z</time></trkpt>
<trkpt lat="49.1526139" lon="2.6080837"><ele>70.61</ele><time>2026-4-28T19:29:4Z</time></trkpt>
<trkpt lat="49.1526900" lon="2.6080161"><ele>69.91</ele><time>2026-4-28T19:29:7Z</time></trkpt>
<trkpt lat="49.1527491" lon="2.6079252"><ele>70.55</ele><time>2026-4-28T19:29:10Z</time></trkpt>
<trkpt lat="49.1527816" lon="2.6078069"><ele>69.70</ele><time>2026-4-28T19:29:13Z</time></trkpt>
<trkpt lat="49.1528032" lon="2.6076715"><ele>68.92</ele><time>2026-4-28T19:29:16Z</time></trkpt>
<trkpt lat="49.1528147" lon="2.6075966"><ele>68.70</ele><time>2026-4-28T19:29:19Z</time></trkpt>
<trkpt lat="49.1528251" lon="2.6075203"><ele>68.64</ele><time>2026-4-28T19:29:22Z</time></trkpt>
<trkpt lat="49.1528384" lon="2.6074482"><ele>68.62</ele><time>2026-4-28T19:29:25Z</time></trkpt>
<trkpt lat="49.1528546" lon="2.6073715"><ele>67.91</ele><time>2026-4-28T19:29:28Z</time></trkpt>
<trkpt lat="49.1528826" lon="2.6072471"><ele>67.64</ele><time>2026-4-28T19:29:31Z</time></trkpt>
<trkpt lat="49.1529087" lon="2.6071254"><ele>67.61</ele><time>2026-4-28T19:29:34Z</time></trkpt>
<trkpt lat="49.1529288" lon="2.6070073"><ele>67.61</ele><time>2026-4-28T19:29:37Z</time></trkpt>
<trkpt lat="49.1529463" lon="2.6068907"><ele>66.70</ele><time>2026-4-28T19:29:40Z</time></trkpt>
<trkpt lat="49.1529588" lon="2.6067638"><ele>65.01</ele><time>2026-4-28T19:29:43Z</time></trkpt>
<trkpt lat="49.1529685" lon="2.6066334"><ele>64.65</ele><time>2026-4-28T19:29:46Z</time></trkpt>
<trkpt lat="49.1529879" lon="2.6065163"><ele>64.61</ele><time>2026-4-28T19:29:49Z</time></trkpt>
<trkpt lat="49.1530164" lon="2.6064069"><ele>63.91</ele><time>2026-4-28T19:29:52Z</time></trkpt>
<trkpt lat="49.1530417" lon="2.6062893"><ele>63.64</ele><time>2026-4-28T19:29:55Z</time></trkpt>
<trkpt lat="49.1530668" lon="2.6061686"><ele>63.61</ele><time>2026-4-28T19:29:58Z</time></trkpt>
<trkpt lat="49.1530828" lon="2.6060597"><ele>63.61</ele><time>2026-4-28T19:30:1Z</time></trkpt>
<trkpt lat="49.1530964" lon="2.6059604"><ele>63.61</ele><time>2026-4-28T19:30:4Z</time></trkpt>
<trkpt lat="49.1531107" lon="2.6058645"><ele>62.91</ele><time>2026-4-28T19:30:7Z</time></trkpt>
<trkpt lat="49.1531259" lon="2.6057679"><ele>62.64</ele><time>2026-4-28T19:30:10Z</time></trkpt>
<trkpt lat="49.1531370" lon="2.6056616"><ele>62.61</ele><time>2026-4-28T19:30:13Z</time></trkpt>
<trkpt lat="49.1531720" lon="2.6055492"><ele>61.70</ele><time>2026-4-28T19:30:16Z</time></trkpt>
<trkpt lat="49.1532022" lon="2.6054299"><ele>61.62</ele><time>2026-4-28T19:30:19Z</time></trkpt>
<trkpt lat="49.1532151" lon="2.6053351"><ele>61.61</ele><time>2026-4-28T19:30:22Z</time></trkpt>
<trkpt lat="49.1532241" lon="2.6052437"><ele>61.61</ele><time>2026-4-28T19:30:25Z</time></trkpt>
<trkpt lat="49.1532362" lon="2.6051480"><ele>61.61</ele><time>2026-4-28T19:30:28Z</time></trkpt>
<trkpt lat="49.1532414" lon="2.6050664"><ele>61.61</ele><time>2026-4-28T19:30:31Z</time></trkpt>
<trkpt lat="49.1532454" lon="2.6049813"><ele>61.61</ele><time>2026-4-28T19:30:34Z</time></trkpt>
<trkpt lat="49.1532508" lon="2.6048769"><ele>61.61</ele><time>2026-4-28T19:30:37Z</time></trkpt>
<trkpt lat="49.1532615" lon="2.6047850"><ele>62.31</ele><time>2026-4-28T19:30:40Z</time></trkpt>
<trkpt lat="49.1532749" lon="2.6047023"><ele>63.28</ele><time>2026-4-28T19:30:43Z</time></trkpt>
<trkpt lat="49.1532975" lon="2.6046187"><ele>63.58</ele><time>2026-4-28T19:30:46Z</time></trkpt>
<trkpt lat="49.1533132" lon="2.6045367"><ele>63.61</ele><time>2026-4-28T19:30:49Z</time></trkpt>
<trkpt lat="49.1533318" lon="2.6044529"><ele>64.31</ele><time>2026-4-28T19:30:52Z</time></trkpt>
<trkpt lat="49.1533666" lon="2.6043556"><ele>64.58</ele><time>2026-4-28T19:30:55Z</time></trkpt>
<trkpt lat="49.1534017" lon="2.6042528"><ele>64.61</ele><time>2026-4-28T19:30:58Z</time></trkpt>
<trkpt lat="49.1534389" lon="2.6041400"><ele>64.61</ele><time>2026-4-28T19:31:1Z</time></trkpt>
<trkpt lat="49.1534615" lon="2.6040380"><ele>64.61</ele><time>2026-4-28T19:31:4Z</time></trkpt>
<trkpt lat="49.1534881" lon="2.6039422"><ele>64.61</ele><time>2026-4-28T19:31:7Z</time></trkpt>
<trkpt lat="49.1535178" lon="2.6038471"><ele>64.61</ele><time>2026-4-28T19:31:10Z</time></trkpt>
<trkpt lat="49.1535412" lon="2.6037568"><ele>64.61</ele><time>2026-4-28T19:31:13Z</time></trkpt>
<trkpt lat="49.1535689" lon="2.6036674"><ele>64.61</ele><time>2026-4-28T19:31:16Z</time></trkpt>
<trkpt lat="49.1535889" lon="2.6035832"><ele>64.61</ele><time>2026-4-28T19:31:19Z</time></trkpt>
<trkpt lat="49.1536162" lon="2.6034851"><ele>64.61</ele><time>2026-4-28T19:31:22Z</time></trkpt>
<trkpt lat="49.1536320" lon="2.6034018"><ele>64.61</ele><time>2026-4-28T19:31:25Z</time></trkpt>
<trkpt lat="49.1536447" lon="2.6033187"><ele>65.52</ele><time>2026-4-28T19:31:28Z</time></trkpt>
<trkpt lat="49.1536528" lon="2.6032234"><ele>65.60</ele><time>2026-4-28T19:31:31Z</time></trkpt>
<trkpt lat="49.1536483" lon="2.6031348"><ele>65.61</ele><time>2026-4-28T19:31:34Z</time></trkpt>
<trkpt lat="49.1536524" lon="2.6030445"><ele>66.31</ele><time>2026-4-28T19:31:37Z</time></trkpt>
<trkpt lat="49.1536594" lon="2.6029611"><ele>66.58</ele><time>2026-4-28T19:31:40Z</time></trkpt>
<trkpt lat="49.1536608" lon="2.6028364"><ele>65.70</ele><time>2026-4-28T19:31:43Z</time></trkpt>
<trkpt lat="49.1536796" lon="2.6027152"><ele>66.32</ele><time>2026-4-28T19:31:46Z</time></trkpt>
<trkpt lat="49.1536881" lon="2.6026430"><ele>66.52</ele><time>2026-4-28T19:31:49Z</time></trkpt>
<trkpt lat="49.1536945" lon="2.6025705"><ele>66.58</ele><time>2026-4-28T19:31:52Z</time></trkpt>
<trkpt lat="49.1536985" lon="2.6024954"><ele>66.60</ele><time>2026-4-28T19:31:55Z</time></trkpt>
<trkpt lat="49.1537108" lon="2.6023543"><ele>66.61</ele><time>2026-4-28T19:31:58Z</time></trkpt>
<trkpt lat="49.1537164" lon="2.6022830"><ele>65.91</ele><time>2026-4-28T19:32:1Z</time></trkpt>
<trkpt lat="49.1537319" lon="2.6021616"><ele>66.55</ele><time>2026-4-28T19:32:4Z</time></trkpt>
<trkpt lat="49.1537379" lon="2.6020924"><ele>66.59</ele><time>2026-4-28T19:32:7Z</time></trkpt>
<trkpt lat="49.1537465" lon="2.6019642"><ele>65.70</ele><time>2026-4-28T19:32:10Z</time></trkpt>
<trkpt lat="49.1537571" lon="2.6018468"><ele>66.32</ele><time>2026-4-28T19:32:13Z</time></trkpt>
<trkpt lat="49.1537754" lon="2.6017163"><ele>65.67</ele><time>2026-4-28T19:32:16Z</time></trkpt>
<trkpt lat="49.1537898" lon="2.6015951"><ele>64.71</ele><time>2026-4-28T19:32:19Z</time></trkpt>
<trkpt lat="49.1538053" lon="2.6014733"><ele>64.62</ele><time>2026-4-28T19:32:22Z</time></trkpt>
<trkpt lat="49.1538122" lon="2.6013682"><ele>63.91</ele><time>2026-4-28T19:32:25Z</time></trkpt>
<trkpt lat="49.1538231" lon="2.6012607"><ele>62.94</ele><time>2026-4-28T19:32:28Z</time></trkpt>
<trkpt lat="49.1538387" lon="2.6011387"><ele>62.64</ele><time>2026-4-28T19:32:31Z</time></trkpt>
<trkpt lat="49.1538464" lon="2.6010656"><ele>62.62</ele><time>2026-4-28T19:32:34Z</time></trkpt>
<trkpt lat="49.1538618" lon="2.6009294"><ele>63.52</ele><time>2026-4-28T19:32:37Z</time></trkpt>
<trkpt lat="49.1538756" lon="2.6008579"><ele>63.58</ele><time>2026-4-28T19:32:40Z</time></trkpt>
<trkpt lat="49.1538809" lon="2.6007831"><ele>63.60</ele><time>2026-4-28T19:32:43Z</time></trkpt>
<trkpt lat="49.1538942" lon="2.6006528"><ele>62.70</ele><time>2026-4-28T19:32:46Z</time></trkpt>
<trkpt lat="49.1539104" lon="2.6005339"><ele>63.53</ele><time>2026-4-28T19:32:49Z</time></trkpt>
<trkpt lat="49.1539248" lon="2.6003997"><ele>63.60</ele><time>2026-4-28T19:32:52Z</time></trkpt>
<trkpt lat="49.1539487" lon="2.6002772"><ele>63.61</ele><time>2026-4-28T19:32:55Z</time></trkpt>
<trkpt lat="49.1539609" lon="2.6002055"><ele>62.91</ele><time>2026-4-28T19:32:58Z</time></trkpt>
<trkpt lat="49.1539829" lon="2.6000788"><ele>63.34</ele><time>2026-4-28T19:33:1Z</time></trkpt>
<trkpt lat="49.1539899" lon="2.5999689"><ele>63.59</ele><time>2026-4-28T19:33:4Z</time></trkpt>
<trkpt lat="49.1539991" lon="2.5998841"><ele>62.70</ele><time>2026-4-28T19:33:7Z</time></trkpt>
<trkpt lat="49.1540240" lon="2.5998234"><ele>62.62</ele><time>2026-4-28T19:33:10Z</time></trkpt>
<trkpt lat="49.1540659" lon="2.5998756"><ele>61.91</ele><time>2026-4-28T19:33:13Z</time></trkpt>
<trkpt lat="49.1540890" lon="2.5999387"><ele>61.64</ele><time>2026-4-28T19:33:16Z</time></trkpt>
<trkpt lat="49.1541119" lon="2.6000070"><ele>61.61</ele><time>2026-4-28T19:33:19Z</time></trkpt>
<trkpt lat="49.1541375" lon="2.6000772"><ele>60.91</ele><time>2026-4-28T19:33:22Z</time></trkpt>
<trkpt lat="49.1541619" lon="2.6001540"><ele>59.94</ele><time>2026-4-28T19:33:25Z</time></trkpt>
<trkpt lat="49.1541852" lon="2.6002364"><ele>59.64</ele><time>2026-4-28T19:33:28Z</time></trkpt>
<trkpt lat="49.1542116" lon="2.6003418"><ele>58.70</ele><time>2026-4-28T19:33:31Z</time></trkpt>
<trkpt lat="49.1542565" lon="2.6004513"><ele>57.71</ele><time>2026-4-28T19:33:34Z</time></trkpt>
<trkpt lat="49.1542948" lon="2.6005591"><ele>57.62</ele><time>2026-4-28T19:33:37Z</time></trkpt>
<trkpt lat="49.1543248" lon="2.6006213"><ele>58.31</ele><time>2026-4-28T19:33:40Z</time></trkpt>
<trkpt lat="49.1543547" lon="2.6006855"><ele>58.52</ele><time>2026-4-28T19:33:43Z</time></trkpt>
<trkpt lat="49.1543993" lon="2.6007916"><ele>57.69</ele><time>2026-4-28T19:33:46Z</time></trkpt>
<trkpt lat="49.1544408" lon="2.6009011"><ele>57.62</ele><time>2026-4-28T19:33:49Z</time></trkpt>
<trkpt lat="49.1544912" lon="2.6010036"><ele>57.61</ele><time>2026-4-28T19:33:52Z</time></trkpt>
<trkpt lat="49.1545336" lon="2.6010999"><ele>57.61</ele><time>2026-4-28T19:33:55Z</time></trkpt>
<trkpt lat="49.1545570" lon="2.6011825"><ele>57.61</ele><time>2026-4-28T19:33:58Z</time></trkpt>
<trkpt lat="49.1545839" lon="2.6012451"><ele>57.61</ele><time>2026-4-28T19:34:1Z</time></trkpt>
<trkpt lat="49.1546112" lon="2.6013377"><ele>57.61</ele><time>2026-4-28T19:34:4Z</time></trkpt>
<trkpt lat="49.1546349" lon="2.6014397"><ele>57.61</ele><time>2026-4-28T19:34:7Z</time></trkpt>
<trkpt lat="49.1546607" lon="2.6015378"><ele>57.61</ele><time>2026-4-28T19:34:10Z</time></trkpt>
<trkpt lat="49.1546964" lon="2.6016232"><ele>57.61</ele><time>2026-4-28T19:34:13Z</time></trkpt>
<trkpt lat="49.1547339" lon="2.6017124"><ele>56.70</ele><time>2026-4-28T19:34:16Z</time></trkpt>
<trkpt lat="49.1547660" lon="2.6018074"><ele>56.62</ele><time>2026-4-28T19:34:19Z</time></trkpt>
<trkpt lat="49.1547992" lon="2.6019017"><ele>56.61</ele><time>2026-4-28T19:34:22Z</time></trkpt>
<trkpt lat="49.1548323" lon="2.6019979"><ele>56.61</ele><time>2026-4-28T19:34:25Z</time></trkpt>
<trkpt lat="49.1548770" lon="2.6020919"><ele>56.61</ele><time>2026-4-28T19:34:28Z</time></trkpt>
<trkpt lat="49.1549164" lon="2.6021937"><ele>56.61</ele><time>2026-4-28T19:34:31Z</time></trkpt>
<trkpt lat="49.1549485" lon="2.6023003"><ele>56.40</ele><time>2026-4-28T19:34:34Z</time></trkpt>
<trkpt lat="49.1549791" lon="2.6024087"><ele>56.59</ele><time>2026-4-28T19:34:37Z</time></trkpt>
<trkpt lat="49.1550027" lon="2.6024685"><ele>56.61</ele><time>2026-4-28T19:34:40Z</time></trkpt>
<trkpt lat="49.1550287" lon="2.6025256"><ele>56.61</ele><time>2026-4-28T19:34:43Z</time></trkpt>
<trkpt lat="49.1550715" lon="2.6026206"><ele>56.61</ele><time>2026-4-28T19:34:46Z</time></trkpt>
<trkpt lat="49.1551211" lon="2.6027142"><ele>56.61</ele><time>2026-4-28T19:34:49Z</time></trkpt>
<trkpt lat="49.1551614" lon="2.6028190"><ele>55.91</ele><time>2026-4-28T19:34:52Z</time></trkpt>
<trkpt lat="49.1551929" lon="2.6029195"><ele>56.55</ele><time>2026-4-28T19:34:55Z</time></trkpt>
<trkpt lat="49.1552351" lon="2.6030272"><ele>56.61</ele><time>2026-4-28T19:34:58Z</time></trkpt>
<trkpt lat="49.1552771" lon="2.6031419"><ele>56.61</ele><time>2026-4-28T19:35:1Z</time></trkpt>
<trkpt lat="49.1553161" lon="2.6032565"><ele>56.61</ele><time>2026-4-28T19:35:4Z</time></trkpt>
<trkpt lat="49.1553302" lon="2.6033218"><ele>56.61</ele><time>2026-4-28T19:35:7Z</time></trkpt>
<trkpt lat="49.1553650" lon="2.6034382"><ele>57.52</ele><time>2026-4-28T19:35:10Z</time></trkpt>
<trkpt lat="49.1553960" lon="2.6035055"><ele>57.58</ele><time>2026-4-28T19:35:13Z</time></trkpt>
<trkpt lat="49.1554264" lon="2.6035687"><ele>58.30</ele><time>2026-4-28T19:35:16Z</time></trkpt>
<trkpt lat="49.1554572" lon="2.6036742"><ele>59.28</ele><time>2026-4-28T19:35:19Z</time></trkpt>
<trkpt lat="49.1554959" lon="2.6037792"><ele>59.58</ele><time>2026-4-28T19:35:22Z</time></trkpt>
<trkpt lat="49.1555437" lon="2.6038753"><ele>58.70</ele><time>2026-4-28T19:35:25Z</time></trkpt>
<trkpt lat="49.1556075" lon="2.6039936"><ele>58.62</ele><time>2026-4-28T19:35:28Z</time></trkpt>
<trkpt lat="49.1556461" lon="2.6041085"><ele>58.61</ele><time>2026-4-28T19:35:31Z</time></trkpt>
<trkpt lat="49.1556814" lon="2.6041760"><ele>58.61</ele><time>2026-4-28T19:35:34Z</time></trkpt>
<trkpt lat="49.1557225" lon="2.6042318"><ele>58.61</ele><time>2026-4-28T19:35:37Z</time></trkpt>
<trkpt lat="49.1557658" lon="2.6043291"><ele>58.61</ele><time>2026-4-28T19:35:40Z</time></trkpt>
<trkpt lat="49.1558057" lon="2.6044441"><ele>57.70</ele><time>2026-4-28T19:35:43Z</time></trkpt>
<trkpt lat="49.1558348" lon="2.6045579"><ele>57.62</ele><time>2026-4-28T19:35:46Z</time></trkpt>
<trkpt lat="49.1558835" lon="2.6046693"><ele>57.61</ele><time>2026-4-28T19:35:49Z</time></trkpt>
<trkpt lat="49.1559283" lon="2.6047791"><ele>57.61</ele><time>2026-4-28T19:35:52Z</time></trkpt>
<trkpt lat="49.1559693" lon="2.6048799"><ele>58.52</ele><time>2026-4-28T19:35:55Z</time></trkpt>
<trkpt lat="49.1560097" lon="2.6049640"><ele>59.30</ele><time>2026-4-28T19:35:58Z</time></trkpt>
<trkpt lat="49.1560512" lon="2.6050644"><ele>59.58</ele><time>2026-4-28T19:36:1Z</time></trkpt>
<trkpt lat="49.1560748" lon="2.6051252"><ele>58.90</ele><time>2026-4-28T19:36:4Z</time></trkpt>
<trkpt lat="49.1561017" lon="2.6051988"><ele>59.40</ele><time>2026-4-28T19:36:7Z</time></trkpt>
<trkpt lat="49.1561200" lon="2.6052642"><ele>60.25</ele><time>2026-4-28T19:36:10Z</time></trkpt>
<trkpt lat="49.1561490" lon="2.6053636"><ele>60.58</ele><time>2026-4-28T19:36:13Z</time></trkpt>
<trkpt lat="49.1561824" lon="2.6054574"><ele>60.61</ele><time>2026-4-28T19:36:16Z</time></trkpt>
<trkpt lat="49.1562271" lon="2.6055488"><ele>59.91</ele><time>2026-4-28T19:36:19Z</time></trkpt>
<trkpt lat="49.1562622" lon="2.6056049"><ele>60.40</ele><time>2026-4-28T19:36:22Z</time></trkpt>
<trkpt lat="49.1563044" lon="2.6056934"><ele>59.89</ele><time>2026-4-28T19:36:25Z</time></trkpt>
<trkpt lat="49.1563391" lon="2.6057636"><ele>59.64</ele><time>2026-4-28T19:36:28Z</time></trkpt>
<trkpt lat="49.1563280" lon="2.6058331"><ele>59.61</ele><time>2026-4-28T19:36:31Z</time></trkpt>
<trkpt lat="49.1563393" lon="2.6059165"><ele>60.61</ele><time>2026-4-28T19:36:34Z</time></trkpt>
<trkpt lat="49.1563189" lon="2.6060045"><ele>60.61</ele><time>2026-4-28T19:36:37Z</time></trkpt>
<trkpt lat="49.1563028" lon="2.6060740"><ele>60.61</ele><time>2026-4-28T19:36:40Z</time></trkpt>
<trkpt lat="49.1562789" lon="2.6061685"><ele>60.61</ele><time>2026-4-28T19:36:43Z</time></trkpt>
<trkpt lat="49.1562513" lon="2.6062722"><ele>60.61</ele><time>2026-4-28T19:36:46Z</time></trkpt>
<trkpt lat="49.1562266" lon="2.6063768"><ele>60.61</ele><time>2026-4-28T19:36:49Z</time></trkpt>
<trkpt lat="49.1561964" lon="2.6064838"><ele>60.61</ele><time>2026-4-28T19:36:52Z</time></trkpt>
<trkpt lat="49.1561735" lon="2.6066038"><ele>59.91</ele><time>2026-4-28T19:36:55Z</time></trkpt>
<trkpt lat="49.1561652" lon="2.6067353"><ele>60.34</ele><time>2026-4-28T19:36:58Z</time></trkpt>
<trkpt lat="49.1561504" lon="2.6069202"><ele>60.59</ele><time>2026-4-28T19:37:1Z</time></trkpt>
<trkpt lat="49.1561567" lon="2.6069948"><ele>60.60</ele><time>2026-4-28T19:37:4Z</time></trkpt>
<trkpt lat="49.1561653" lon="2.6070637"><ele>61.31</ele><time>2026-4-28T19:37:7Z</time></trkpt>
<trkpt lat="49.1561749" lon="2.6071374"><ele>60.82</ele><time>2026-4-28T19:37:10Z</time></trkpt>
<trkpt lat="49.1561697" lon="2.6072208"><ele>60.67</ele><time>2026-4-28T19:37:13Z</time></trkpt>
<trkpt lat="49.1561670" lon="2.6072963"><ele>60.63</ele><time>2026-4-28T19:37:16Z</time></trkpt>
<trkpt lat="49.1561712" lon="2.6073708"><ele>60.62</ele><time>2026-4-28T19:37:19Z</time></trkpt>
<trkpt lat="49.1561681" lon="2.6075049"><ele>61.52</ele><time>2026-4-28T19:37:22Z</time></trkpt>
<trkpt lat="49.1561741" lon="2.6075745"><ele>62.28</ele><time>2026-4-28T19:37:25Z</time></trkpt>
<trkpt lat="49.1561762" lon="2.6076986"><ele>63.28</ele><time>2026-4-28T19:37:28Z</time></trkpt>
<trkpt lat="49.1561724" lon="2.6078164"><ele>63.58</ele><time>2026-4-28T19:37:31Z</time></trkpt>
<trkpt lat="49.1561679" lon="2.6079370"><ele>64.31</ele><time>2026-4-28T19:37:34Z</time></trkpt>
<trkpt lat="49.1561622" lon="2.6080416"><ele>64.58</ele><time>2026-4-28T19:37:37Z</time></trkpt>
<trkpt lat="49.1561658" lon="2.6081311"><ele>64.61</ele><time>2026-4-28T19:37:40Z</time></trkpt>
<trkpt lat="49.1561530" lon="2.6082193"><ele>64.61</ele><time>2026-4-28T19:37:43Z</time></trkpt>
<trkpt lat="49.1561431" lon="2.6082911"><ele>64.61</ele><time>2026-4-28T19:37:46Z</time></trkpt>
<trkpt lat="49.1561349" lon="2.6083795"><ele>64.61</ele><time>2026-4-28T19:37:49Z</time></trkpt>
<trkpt lat="49.1561270" lon="2.6084799"><ele>64.61</ele><time>2026-4-28T19:37:52Z</time></trkpt>
<trkpt lat="49.1561164" lon="2.6085988"><ele>63.70</ele><time>2026-4-28T19:37:55Z</time></trkpt>
<trkpt lat="49.1561014" lon="2.6087182"><ele>62.92</ele><time>2026-4-28T19:37:58Z</time></trkpt>
<trkpt lat="49.1560956" lon="2.6088422"><ele>62.85</ele><time>2026-4-28T19:38:1Z</time></trkpt>
<trkpt lat="49.1560911" lon="2.6089534"><ele>62.63</ele><time>2026-4-28T19:38:4Z</time></trkpt>
<trkpt lat="49.1560856" lon="2.6090609"><ele>62.61</ele><time>2026-4-28T19:38:7Z</time></trkpt>
<trkpt lat="49.1560770" lon="2.6091693"><ele>62.61</ele><time>2026-4-28T19:38:10Z</time></trkpt>
<trkpt lat="49.1560697" lon="2.6092772"><ele>62.61</ele><time>2026-4-28T19:38:13Z</time></trkpt>
<trkpt lat="49.1560627" lon="2.6093964"><ele>62.61</ele><time>2026-4-28T19:38:16Z</time></trkpt>
<trkpt lat="49.1560565" lon="2.6095228"><ele>62.61</ele><time>2026-4-28T19:38:19Z</time></trkpt>
<trkpt lat="49.1560720" lon="2.6096428"><ele>62.61</ele><time>2026-4-28T19:38:22Z</time></trkpt>
<trkpt lat="49.1560721" lon="2.6097490"><ele>63.52</ele><time>2026-4-28T19:38:25Z</time></trkpt>
<trkpt lat="49.1560665" lon="2.6098653"><ele>63.60</ele><time>2026-4-28T19:38:28Z</time></trkpt>
<trkpt lat="49.1560553" lon="2.6099593"><ele>63.61</ele><time>2026-4-28T19:38:31Z</time></trkpt>
<trkpt lat="49.1560484" lon="2.6100508"><ele>62.70</ele><time>2026-4-28T19:38:34Z</time></trkpt>
<trkpt lat="49.1560392" lon="2.6101457"><ele>62.62</ele><time>2026-4-28T19:38:37Z</time></trkpt>
<trkpt lat="49.1560384" lon="2.6102342"><ele>62.61</ele><time>2026-4-28T19:38:40Z</time></trkpt>
<trkpt lat="49.1560386" lon="2.6103249"><ele>62.61</ele><time>2026-4-28T19:38:43Z</time></trkpt>
<trkpt lat="49.1560304" lon="2.6104154"><ele>62.61</ele><time>2026-4-28T19:38:46Z</time></trkpt>
<trkpt lat="49.1560225" lon="2.6105082"><ele>62.61</ele><time>2026-4-28T19:38:49Z</time></trkpt>
<trkpt lat="49.1560139" lon="2.6105992"><ele>62.61</ele><time>2026-4-28T19:38:52Z</time></trkpt>
<trkpt lat="49.1560072" lon="2.6106761"><ele>63.31</ele><time>2026-4-28T19:38:55Z</time></trkpt>
<trkpt lat="49.1560062" lon="2.6107658"><ele>63.58</ele><time>2026-4-28T19:38:58Z</time></trkpt>
<trkpt lat="49.1560045" lon="2.6108614"><ele>62.91</ele><time>2026-4-28T19:39:1Z</time></trkpt>
<trkpt lat="49.1559963" lon="2.6109550"><ele>62.64</ele><time>2026-4-28T19:39:4Z</time></trkpt>
<trkpt lat="49.1559916" lon="2.6110589"><ele>62.61</ele><time>2026-4-28T19:39:7Z</time></trkpt>
<trkpt lat="49.1559902" lon="2.6111703"><ele>61.70</ele><time>2026-4-28T19:39:10Z</time></trkpt>
<trkpt lat="49.1559812" lon="2.6112862"><ele>61.62</ele><time>2026-4-28T19:39:13Z</time></trkpt>
<trkpt lat="49.1559804" lon="2.6113996"><ele>61.61</ele><time>2026-4-28T19:39:16Z</time></trkpt>
<trkpt lat="49.1559865" lon="2.6114969"><ele>61.61</ele><time>2026-4-28T19:39:19Z</time></trkpt>
<trkpt lat="49.1559938" lon="2.6115745"><ele>61.61</ele><time>2026-4-28T19:39:22Z</time></trkpt>
<trkpt lat="49.1559918" lon="2.6116644"><ele>61.61</ele><time>2026-4-28T19:39:25Z</time></trkpt>
<trkpt lat="49.1559789" lon="2.6117557"><ele>61.61</ele><time>2026-4-28T19:39:28Z</time></trkpt>
<trkpt lat="49.1559760" lon="2.6118423"><ele>62.52</ele><time>2026-4-28T19:39:31Z</time></trkpt>
<trkpt lat="49.1559840" lon="2.6119326"><ele>62.60</ele><time>2026-4-28T19:39:34Z</time></trkpt>
<trkpt lat="49.1559840" lon="2.6120371"><ele>62.61</ele><time>2026-4-28T19:39:37Z</time></trkpt>
<trkpt lat="49.1559907" lon="2.6121705"><ele>63.31</ele><time>2026-4-28T19:39:40Z</time></trkpt>
<trkpt lat="49.1560004" lon="2.6122449"><ele>63.52</ele><time>2026-4-28T19:39:43Z</time></trkpt>
<trkpt lat="49.1560143" lon="2.6123225"><ele>64.28</ele><time>2026-4-28T19:39:46Z</time></trkpt>
<trkpt lat="49.1560229" lon="2.6123996"><ele>65.21</ele><time>2026-4-28T19:39:49Z</time></trkpt>
<trkpt lat="49.1560314" lon="2.6124695"><ele>65.49</ele><time>2026-4-28T19:39:52Z</time></trkpt>
<trkpt lat="49.1560365" lon="2.6125391"><ele>66.28</ele><time>2026-4-28T19:39:55Z</time></trkpt>
<trkpt lat="49.1560492" lon="2.6126144"><ele>66.51</ele><time>2026-4-28T19:39:58Z</time></trkpt>
<trkpt lat="49.1560691" lon="2.6127421"><ele>65.69</ele><time>2026-4-28T19:40:1Z</time></trkpt>
<trkpt lat="49.1560806" lon="2.6128615"><ele>66.32</ele><time>2026-4-28T19:40:4Z</time></trkpt>
<trkpt lat="49.1560834" lon="2.6129802"><ele>67.28</ele><time>2026-4-28T19:40:7Z</time></trkpt>
<trkpt lat="49.1560841" lon="2.6131018"><ele>67.58</ele><time>2026-4-28T19:40:10Z</time></trkpt>
<trkpt lat="49.1560887" lon="2.6132187"><ele>67.61</ele><time>2026-4-28T19:40:13Z</time></trkpt>
<trkpt lat="49.1560951" lon="2.6133396"><ele>67.61</ele><time>2026-4-28T19:40:16Z</time></trkpt>
<trkpt lat="49.1560997" lon="2.6134652"><ele>67.61</ele><time>2026-4-28T19:40:19Z</time></trkpt>
<trkpt lat="49.1561014" lon="2.6135973"><ele>67.82</ele><time>2026-4-28T19:40:22Z</time></trkpt>
<trkpt lat="49.1561007" lon="2.6136666"><ele>67.67</ele><time>2026-4-28T19:40:25Z</time></trkpt>
<trkpt lat="49.1561004" lon="2.6137356"><ele>67.63</ele><time>2026-4-28T19:40:28Z</time></trkpt>
<trkpt lat="49.1561092" lon="2.6138614"><ele>67.61</ele><time>2026-4-28T19:40:31Z</time></trkpt>
<trkpt lat="49.1561196" lon="2.6139907"><ele>66.70</ele><time>2026-4-28T19:40:34Z</time></trkpt>
<trkpt lat="49.1561290" lon="2.6141205"><ele>66.62</ele><time>2026-4-28T19:40:37Z</time></trkpt>
<trkpt lat="49.1561410" lon="2.6142524"><ele>66.61</ele><time>2026-4-28T19:40:40Z</time></trkpt>
<trkpt lat="49.1561498" lon="2.6143785"><ele>65.70</ele><time>2026-4-28T19:40:43Z</time></trkpt>
<trkpt lat="49.1561594" lon="2.6145088"><ele>65.62</ele><time>2026-4-28T19:40:46Z</time></trkpt>
<trkpt lat="49.1561686" lon="2.6146383"><ele>65.61</ele><time>2026-4-28T19:40:49Z</time></trkpt>
<trkpt lat="49.1561756" lon="2.6147678"><ele>65.61</ele><time>2026-4-28T19:40:52Z</time></trkpt>
<trkpt lat="49.1561775" lon="2.6148947"><ele>64.70</ele><time>2026-4-28T19:40:55Z</time></trkpt>
<trkpt lat="49.1561823" lon="2.6150245"><ele>64.62</ele><time>2026-4-28T19:40:58Z</time></trkpt>
<trkpt lat="49.1561853" lon="2.6150960"><ele>64.61</ele><time>2026-4-28T19:41:1Z</time></trkpt>
<trkpt lat="49.1561723" lon="2.6152239"><ele>65.31</ele><time>2026-4-28T19:41:4Z</time></trkpt>
<trkpt lat="49.1561474" lon="2.6153466"><ele>65.58</ele><time>2026-4-28T19:41:7Z</time></trkpt>
<trkpt lat="49.1561289" lon="2.6154538"><ele>65.61</ele><time>2026-4-28T19:41:10Z</time></trkpt>
<trkpt lat="49.1561123" lon="2.6155519"><ele>65.61</ele><time>2026-4-28T19:41:13Z</time></trkpt>
<trkpt lat="49.1560900" lon="2.6156786"><ele>65.61</ele><time>2026-4-28T19:41:16Z</time></trkpt>
<trkpt lat="49.1560762" lon="2.6158055"><ele>66.52</ele><time>2026-4-28T19:41:19Z</time></trkpt>
<trkpt lat="49.1560537" lon="2.6159223"><ele>66.60</ele><time>2026-4-28T19:41:22Z</time></trkpt>
<trkpt lat="49.1560329" lon="2.6160398"><ele>67.52</ele><time>2026-4-28T19:41:25Z</time></trkpt>
<trkpt lat="49.1560100" lon="2.6161491"><ele>68.30</ele><time>2026-4-28T19:41:28Z</time></trkpt>
<trkpt lat="49.1559985" lon="2.6162157"><ele>68.58</ele><time>2026-4-28T19:41:31Z</time></trkpt>
<trkpt lat="49.1559843" lon="2.6161401"><ele>68.62</ele><time>2026-4-28T19:41:34Z</time></trkpt>
<trkpt lat="49.1559997" lon="2.6160752"><ele>68.61</ele><time>2026-4-28T19:41:37Z</time></trkpt>
<trkpt lat="49.1560195" lon="2.6159891"><ele>68.61</ele><time>2026-4-28T19:41:40Z</time></trkpt>
<trkpt lat="49.1560371" lon="2.6158700"><ele>69.52</ele><time>2026-4-28T19:41:43Z</time></trkpt>
<trkpt lat="49.1560506" lon="2.6157964"><ele>69.58</ele><time>2026-4-28T19:41:46Z</time></trkpt>
<trkpt lat="49.1560588" lon="2.6157264"><ele>70.30</ele><time>2026-4-28T19:41:49Z</time></trkpt>
<trkpt lat="49.1560700" lon="2.6156567"><ele>70.52</ele><time>2026-4-28T19:41:52Z</time></trkpt>
<trkpt lat="49.1560967" lon="2.6155270"><ele>70.60</ele><time>2026-4-28T19:41:55Z</time></trkpt>
<trkpt lat="49.1561327" lon="2.6154178"><ele>70.61</ele><time>2026-4-28T19:41:58Z</time></trkpt>
<trkpt lat="49.1561853" lon="2.6153656"><ele>70.61</ele><time>2026-4-28T19:42:1Z</time></trkpt>
<trkpt lat="49.1562306" lon="2.6154340"><ele>70.61</ele><time>2026-4-28T19:42:4Z</time></trkpt>
<trkpt lat="49.1562557" lon="2.6155124"><ele>70.61</ele><time>2026-4-28T19:42:7Z</time></trkpt>
<trkpt lat="49.1562606" lon="2.6155948"><ele>70.61</ele><time>2026-4-28T19:42:10Z</time></trkpt>
<trkpt lat="49.1562647" lon="2.6156752"><ele>70.61</ele><time>2026-4-28T19:42:13Z</time></trkpt>
<trkpt lat="49.1562637" lon="2.6157688"><ele>69.70</ele><time>2026-4-28T19:42:16Z</time></trkpt>
<trkpt lat="49.1562603" lon="2.6158619"><ele>69.62</ele><time>2026-4-28T19:42:19Z</time></trkpt>
<trkpt lat="49.1562620" lon="2.6159557"><ele>69.40</ele><time>2026-4-28T19:42:22Z</time></trkpt>
<trkpt lat="49.1562519" lon="2.6160500"><ele>68.68</ele><time>2026-4-28T19:42:25Z</time></trkpt>
<trkpt lat="49.1562476" lon="2.6161576"><ele>68.62</ele><time>2026-4-28T19:42:28Z</time></trkpt>
<trkpt lat="49.1562473" lon="2.6162715"><ele>68.61</ele><time>2026-4-28T19:42:31Z</time></trkpt>
<trkpt lat="49.1562593" lon="2.6163919"><ele>67.91</ele><time>2026-4-28T19:42:34Z</time></trkpt>
<trkpt lat="49.1562697" lon="2.6165117"><ele>67.64</ele><time>2026-4-28T19:42:37Z</time></trkpt>
<trkpt lat="49.1562928" lon="2.6166345"><ele>69.22</ele><time>2026-4-28T19:42:40Z</time></trkpt>
<trkpt lat="49.1562973" lon="2.6167516"><ele>68.88</ele><time>2026-4-28T19:42:43Z</time></trkpt>
<trkpt lat="49.1563083" lon="2.6168738"><ele>67.93</ele><time>2026-4-28T19:42:46Z</time></trkpt>
<trkpt lat="49.1563252" lon="2.6169896"><ele>67.64</ele><time>2026-4-28T19:42:49Z</time></trkpt>
<trkpt lat="49.1563310" lon="2.6171102"><ele>67.61</ele><time>2026-4-28T19:42:52Z</time></trkpt>
<trkpt lat="49.1563497" lon="2.6172290"><ele>67.61</ele><time>2026-4-28T19:42:55Z</time></trkpt>
<trkpt lat="49.1563640" lon="2.6173427"><ele>67.61</ele><time>2026-4-28T19:42:58Z</time></trkpt>
<trkpt lat="49.1563821" lon="2.6174452"><ele>67.61</ele><time>2026-4-28T19:43:1Z</time></trkpt>
<trkpt lat="49.1564166" lon="2.6175694"><ele>68.31</ele><time>2026-4-28T19:43:4Z</time></trkpt>
<trkpt lat="49.1564350" lon="2.6177090"><ele>68.58</ele><time>2026-4-28T19:43:7Z</time></trkpt>
<trkpt lat="49.1564526" lon="2.6177754"><ele>68.60</ele><time>2026-4-28T19:43:10Z</time></trkpt>
<trkpt lat="49.1564808" lon="2.6178935"><ele>69.52</ele><time>2026-4-28T19:43:13Z</time></trkpt>
<trkpt lat="49.1565175" lon="2.6180051"><ele>69.60</ele><time>2026-4-28T19:43:16Z</time></trkpt>
<trkpt lat="49.1565493" lon="2.6181180"><ele>69.61</ele><time>2026-4-28T19:43:19Z</time></trkpt>
<trkpt lat="49.1565879" lon="2.6182191"><ele>69.61</ele><time>2026-4-28T19:43:22Z</time></trkpt>
<trkpt lat="49.1566283" lon="2.6183144"><ele>69.61</ele><time>2026-4-28T19:43:25Z</time></trkpt>
<trkpt lat="49.1566862" lon="2.6184014"><ele>69.61</ele><time>2026-4-28T19:43:28Z</time></trkpt>
<trkpt lat="49.1567403" lon="2.6184946"><ele>69.61</ele><time>2026-4-28T19:43:31Z</time></trkpt>
<trkpt lat="49.1567334" lon="2.6186051"><ele>69.61</ele><time>2026-4-28T19:43:34Z</time></trkpt>
<trkpt lat="49.1567077" lon="2.6187194"><ele>69.82</ele><time>2026-4-28T19:43:37Z</time></trkpt>
<trkpt lat="49.1566997" lon="2.6187897"><ele>70.37</ele><time>2026-4-28T19:43:40Z</time></trkpt>
<trkpt lat="49.1566607" lon="2.6189020"><ele>70.59</ele><time>2026-4-28T19:43:43Z</time></trkpt>
<trkpt lat="49.1566435" lon="2.6189672"><ele>70.60</ele><time>2026-4-28T19:43:46Z</time></trkpt>
<trkpt lat="49.1566271" lon="2.6190756"><ele>70.61</ele><time>2026-4-28T19:43:49Z</time></trkpt>
<trkpt lat="49.1566113" lon="2.6191867"><ele>70.61</ele><time>2026-4-28T19:43:52Z</time></trkpt>
<trkpt lat="49.1565917" lon="2.6193116"><ele>70.61</ele><time>2026-4-28T19:43:55Z</time></trkpt>
<trkpt lat="49.1565575" lon="2.6194239"><ele>71.31</ele><time>2026-4-28T19:43:58Z</time></trkpt>
<trkpt lat="49.1565461" lon="2.6194932"><ele>71.52</ele><time>2026-4-28T19:44:1Z</time></trkpt>
<trkpt lat="49.1565206" lon="2.6196052"><ele>71.60</ele><time>2026-4-28T19:44:4Z</time></trkpt>
<trkpt lat="49.1565018" lon="2.6197222"><ele>70.70</ele><time>2026-4-28T19:44:7Z</time></trkpt>
<trkpt lat="49.1564888" lon="2.6198332"><ele>71.53</ele><time>2026-4-28T19:44:10Z</time></trkpt>
<trkpt lat="49.1564658" lon="2.6199409"><ele>71.60</ele><time>2026-4-28T19:44:13Z</time></trkpt>
<trkpt lat="49.1564407" lon="2.6200619"><ele>72.31</ele><time>2026-4-28T19:44:16Z</time></trkpt>
<trkpt lat="49.1564150" lon="2.6201595"><ele>72.58</ele><time>2026-4-28T19:44:19Z</time></trkpt>
<trkpt lat="49.1563860" lon="2.6202637"><ele>72.61</ele><time>2026-4-28T19:44:22Z</time></trkpt>
<trkpt lat="49.1563593" lon="2.6203694"><ele>72.61</ele><time>2026-4-28T19:44:25Z</time></trkpt>
<trkpt lat="49.1563321" lon="2.6204907"><ele>72.61</ele><time>2026-4-28T19:44:28Z</time></trkpt>
<trkpt lat="49.1563093" lon="2.6206073"><ele>71.70</ele><time>2026-4-28T19:44:31Z</time></trkpt>
<trkpt lat="49.1562944" lon="2.6207198"><ele>71.62</ele><time>2026-4-28T19:44:34Z</time></trkpt>
<trkpt lat="49.1562739" lon="2.6208267"><ele>71.61</ele><time>2026-4-28T19:44:37Z</time></trkpt>
<trkpt lat="49.1562573" lon="2.6208922"><ele>71.61</ele><time>2026-4-28T19:44:40Z</time></trkpt>
<trkpt lat="49.1562353" lon="2.6210018"><ele>71.61</ele><time>2026-4-28T19:44:43Z</time></trkpt>
<trkpt lat="49.1562098" lon="2.6211225"><ele>71.61</ele><time>2026-4-28T19:44:46Z</time></trkpt>
<trkpt lat="49.1562023" lon="2.6212529"><ele>72.52</ele><time>2026-4-28T19:44:49Z</time></trkpt>
<trkpt lat="49.1561918" lon="2.6213345"><ele>72.58</ele><time>2026-4-28T19:44:52Z</time></trkpt>
<trkpt lat="49.1561843" lon="2.6214136"><ele>71.90</ele><time>2026-4-28T19:44:55Z</time></trkpt>
<trkpt lat="49.1561785" lon="2.6214838"><ele>72.40</ele><time>2026-4-28T19:44:58Z</time></trkpt>
<trkpt lat="49.1561722" lon="2.6216115"><ele>72.59</ele><time>2026-4-28T19:45:1Z</time></trkpt>
<trkpt lat="49.1561540" lon="2.6217342"><ele>72.61</ele><time>2026-4-28T19:45:4Z</time></trkpt>
<trkpt lat="49.1561427" lon="2.6218434"><ele>73.52</ele><time>2026-4-28T19:45:7Z</time></trkpt>
<trkpt lat="49.1561207" lon="2.6219264"><ele>74.51</ele><time>2026-4-28T19:45:10Z</time></trkpt>
<trkpt lat="49.1560989" lon="2.6220219"><ele>74.60</ele><time>2026-4-28T19:45:13Z</time></trkpt>
<trkpt lat="49.1560698" lon="2.6221323"><ele>74.61</ele><time>2026-4-28T19:45:16Z</time></trkpt>
<trkpt lat="49.1560465" lon="2.6222502"><ele>73.70</ele><time>2026-4-28T19:45:19Z</time></trkpt>
<trkpt lat="49.1560118" lon="2.6223673"><ele>74.53</ele><time>2026-4-28T19:45:22Z</time></trkpt>
<trkpt lat="49.1559821" lon="2.6224954"><ele>74.60</ele><time>2026-4-28T19:45:25Z</time></trkpt>
<trkpt lat="49.1559637" lon="2.6225599"><ele>74.61</ele><time>2026-4-28T19:45:28Z</time></trkpt>
<trkpt lat="49.1559485" lon="2.6226259"><ele>74.61</ele><time>2026-4-28T19:45:31Z</time></trkpt>
<trkpt lat="49.1559208" lon="2.6227563"><ele>75.31</ele><time>2026-4-28T19:45:34Z</time></trkpt>
<trkpt lat="49.1559051" lon="2.6228213"><ele>75.52</ele><time>2026-4-28T19:45:37Z</time></trkpt>
<trkpt lat="49.1558778" lon="2.6229483"><ele>74.69</ele><time>2026-4-28T19:45:40Z</time></trkpt>
<trkpt lat="49.1558724" lon="2.6230268"><ele>75.34</ele><time>2026-4-28T19:45:43Z</time></trkpt>
<trkpt lat="49.1558662" lon="2.6231020"><ele>74.83</ele><time>2026-4-28T19:45:46Z</time></trkpt>
<trkpt lat="49.1558528" lon="2.6232228"><ele>74.63</ele><time>2026-4-28T19:45:49Z</time></trkpt>
<trkpt lat="49.1558335" lon="2.6233390"><ele>74.40</ele><time>2026-4-28T19:45:52Z</time></trkpt>
<trkpt lat="49.1558059" lon="2.6234429"><ele>74.59</ele><time>2026-4-28T19:45:55Z</time></trkpt>
<trkpt lat="49.1557850" lon="2.6235443"><ele>74.61</ele><time>2026-4-28T19:45:58Z</time></trkpt>
<trkpt lat="49.1557568" lon="2.6236492"><ele>74.61</ele><time>2026-4-28T19:46:1Z</time></trkpt>
<trkpt lat="49.1557362" lon="2.6237495"><ele>74.61</ele><time>2026-4-28T19:46:4Z</time></trkpt>
<trkpt lat="49.1557185" lon="2.6238371"><ele>74.61</ele><time>2026-4-28T19:46:7Z</time></trkpt>
<trkpt lat="49.1557171" lon="2.6239095"><ele>74.61</ele><time>2026-4-28T19:46:10Z</time></trkpt>
<trkpt lat="49.1556654" lon="2.6238866"><ele>75.61</ele><time>2026-4-28T19:46:13Z</time></trkpt>
<trkpt lat="49.1556214" lon="2.6238436"><ele>75.61</ele><time>2026-4-28T19:46:16Z</time></trkpt>
<trkpt lat="49.1555707" lon="2.6237980"><ele>75.61</ele><time>2026-4-28T19:46:19Z</time></trkpt>
<trkpt lat="49.1555203" lon="2.6237607"><ele>76.31</ele><time>2026-4-28T19:46:22Z</time></trkpt>
<trkpt lat="49.1554633" lon="2.6237234"><ele>76.58</ele><time>2026-4-28T19:46:25Z</time></trkpt>
<trkpt lat="49.1554070" lon="2.6236768"><ele>76.61</ele><time>2026-4-28T19:46:28Z</time></trkpt>
<trkpt lat="49.1553467" lon="2.6236221"><ele>75.91</ele><time>2026-4-28T19:46:31Z</time></trkpt>
<trkpt lat="49.1552883" lon="2.6235636"><ele>76.34</ele><time>2026-4-28T19:46:34Z</time></trkpt>
<trkpt lat="49.1552378" lon="2.6235110"><ele>76.59</ele><time>2026-4-28T19:46:37Z</time></trkpt>
<trkpt lat="49.1551860" lon="2.6234497"><ele>76.61</ele><time>2026-4-28T19:46:40Z</time></trkpt>
<trkpt lat="49.1551289" lon="2.6233937"><ele>76.61</ele><time>2026-4-28T19:46:43Z</time></trkpt>
<trkpt lat="49.1550680" lon="2.6233460"><ele>76.61</ele><time>2026-4-28T19:46:46Z</time></trkpt>
<trkpt lat="49.1549925" lon="2.6232897"><ele>76.61</ele><time>2026-4-28T19:46:49Z</time></trkpt>
<trkpt lat="49.1549408" lon="2.6232566"><ele>75.91</ele><time>2026-4-28T19:46:52Z</time></trkpt>
<trkpt lat="49.1548677" lon="2.6231967"><ele>73.33</ele><time>2026-4-28T19:46:55Z</time></trkpt>
<trkpt lat="49.1547887" lon="2.6231411"><ele>71.98</ele><time>2026-4-28T19:46:58Z</time></trkpt>
<trkpt lat="49.1547459" lon="2.6231059"><ele>71.72</ele><time>2026-4-28T19:47:1Z</time></trkpt>
<trkpt lat="49.1547048" lon="2.6230749"><ele>71.64</ele><time>2026-4-28T19:47:4Z</time></trkpt>
<trkpt lat="49.1546227" lon="2.6230172"><ele>72.52</ele><time>2026-4-28T19:47:7Z</time></trkpt>
<trkpt lat="49.1545818" lon="2.6229810"><ele>72.58</ele><time>2026-4-28T19:47:10Z</time></trkpt>
<trkpt lat="49.1545409" lon="2.6229497"><ele>72.60</ele><time>2026-4-28T19:47:13Z</time></trkpt>
<trkpt lat="49.1544772" lon="2.6229004"><ele>73.52</ele><time>2026-4-28T19:47:16Z</time></trkpt>
<trkpt lat="49.1544120" lon="2.6228548"><ele>73.60</ele><time>2026-4-28T19:47:19Z</time></trkpt>
<trkpt lat="49.1543452" lon="2.6228285"><ele>73.61</ele><time>2026-4-28T19:47:22Z</time></trkpt>
<trkpt lat="49.1542867" lon="2.6228222"><ele>73.61</ele><time>2026-4-28T19:47:25Z</time></trkpt>
<trkpt lat="49.1542192" lon="2.6228252"><ele>73.61</ele><time>2026-4-28T19:47:28Z</time></trkpt>
<trkpt lat="49.1541485" lon="2.6228193"><ele>73.61</ele><time>2026-4-28T19:47:31Z</time></trkpt>
<trkpt lat="49.1540914" lon="2.6228081"><ele>73.61</ele><time>2026-4-28T19:47:34Z</time></trkpt>
<trkpt lat="49.1540424" lon="2.6228062"><ele>73.61</ele><time>2026-4-28T19:47:37Z</time></trkpt>
<trkpt lat="49.1539966" lon="2.6227902"><ele>74.31</ele><time>2026-4-28T19:47:40Z</time></trkpt>
<trkpt lat="49.1539310" lon="2.6227812"><ele>74.60</ele><time>2026-4-28T19:47:43Z</time></trkpt>
<trkpt lat="49.1538721" lon="2.6228161"><ele>74.61</ele><time>2026-4-28T19:47:46Z</time></trkpt>
<trkpt lat="49.1538367" lon="2.6228614"><ele>74.61</ele><time>2026-4-28T19:47:49Z</time></trkpt>
<trkpt lat="49.1538022" lon="2.6229156"><ele>75.52</ele><time>2026-4-28T19:47:52Z</time></trkpt>
<trkpt lat="49.1537665" lon="2.6229737"><ele>75.60</ele><time>2026-4-28T19:47:55Z</time></trkpt>
<trkpt lat="49.1537305" lon="2.6230371"><ele>75.61</ele><time>2026-4-28T19:47:58Z</time></trkpt>
<trkpt lat="49.1537006" lon="2.6231116"><ele>75.61</ele><time>2026-4-28T19:48:1Z</time></trkpt>
<trkpt lat="49.1536654" lon="2.6231822"><ele>75.61</ele><time>2026-4-28T19:48:4Z</time></trkpt>
<trkpt lat="49.1536364" lon="2.6232445"><ele>76.31</ele><time>2026-4-28T19:48:7Z</time></trkpt>
<trkpt lat="49.1536069" lon="2.6233097"><ele>76.58</ele><time>2026-4-28T19:48:10Z</time></trkpt>
<trkpt lat="49.1535701" lon="2.6233724"><ele>77.31</ele><time>2026-4-28T19:48:13Z</time></trkpt>
<trkpt lat="49.1535323" lon="2.6234398"><ele>77.58</ele><time>2026-4-28T19:48:16Z</time></trkpt>
<trkpt lat="49.1534935" lon="2.6235057"><ele>78.52</ele><time>2026-4-28T19:48:19Z</time></trkpt>
<trkpt lat="49.1534572" lon="2.6235701"><ele>79.51</ele><time>2026-4-28T19:48:22Z</time></trkpt>
<trkpt lat="49.1534172" lon="2.6236390"><ele>79.60</ele><time>2026-4-28T19:48:25Z</time></trkpt>
<trkpt lat="49.1533754" lon="2.6237022"><ele>80.31</ele><time>2026-4-28T19:48:28Z</time></trkpt>
<trkpt lat="49.1533378" lon="2.6237682"><ele>80.58</ele><time>2026-4-28T19:48:31Z</time></trkpt>
<trkpt lat="49.1532999" lon="2.6238388"><ele>80.61</ele><time>2026-4-28T19:48:34Z</time></trkpt>
<trkpt lat="49.1532650" lon="2.6239135"><ele>80.61</ele><time>2026-4-28T19:48:37Z</time></trkpt>
<trkpt lat="49.1532298" lon="2.6239824"><ele>80.61</ele><time>2026-4-28T19:48:40Z</time></trkpt>
<trkpt lat="49.1531896" lon="2.6240536"><ele>80.61</ele><time>2026-4-28T19:48:43Z</time></trkpt>
<trkpt lat="49.1531550" lon="2.6241249"><ele>80.61</ele><time>2026-4-28T19:48:46Z</time></trkpt>
<trkpt lat="49.1531178" lon="2.6241897"><ele>81.31</ele><time>2026-4-28T19:48:49Z</time></trkpt>
<trkpt lat="49.1530827" lon="2.6242616"><ele>82.28</ele><time>2026-4-28T19:48:52Z</time></trkpt>
<trkpt lat="49.1530381" lon="2.6243324"><ele>82.58</ele><time>2026-4-28T19:48:55Z</time></trkpt>
<trkpt lat="49.1529931" lon="2.6244129"><ele>84.22</ele><time>2026-4-28T19:48:58Z</time></trkpt>
<trkpt lat="49.1529578" lon="2.6245051"><ele>84.58</ele><time>2026-4-28T19:49:1Z</time></trkpt>
<trkpt lat="49.1529073" lon="2.6245852"><ele>84.61</ele><time>2026-4-28T19:49:4Z</time></trkpt>
<trkpt lat="49.1528575" lon="2.6246626"><ele>85.52</ele><time>2026-4-28T19:49:7Z</time></trkpt>
<trkpt lat="49.1528102" lon="2.6247344"><ele>85.60</ele><time>2026-4-28T19:49:10Z</time></trkpt>
<trkpt lat="49.1527599" lon="2.6248092"><ele>86.31</ele><time>2026-4-28T19:49:13Z</time></trkpt>
<trkpt lat="49.1527092" lon="2.6248814"><ele>86.58</ele><time>2026-4-28T19:49:16Z</time></trkpt>
<trkpt lat="49.1526517" lon="2.6249423"><ele>87.31</ele><time>2026-4-28T19:49:19Z</time></trkpt>
<trkpt lat="49.1525973" lon="2.6250082"><ele>87.58</ele><time>2026-4-28T19:49:22Z</time></trkpt>
<trkpt lat="49.1525431" lon="2.6250653"><ele>87.61</ele><time>2026-4-28T19:49:25Z</time></trkpt>
<trkpt lat="49.1524856" lon="2.6251210"><ele>87.61</ele><time>2026-4-28T19:49:28Z</time></trkpt>
<trkpt lat="49.1524286" lon="2.6251632"><ele>87.61</ele><time>2026-4-28T19:49:31Z</time></trkpt>
<trkpt lat="49.1523705" lon="2.6252117"><ele>87.61</ele><time>2026-4-28T19:49:34Z</time></trkpt>
<trkpt lat="49.1523121" lon="2.6252619"><ele>87.61</ele><time>2026-4-28T19:49:37Z</time></trkpt>
<trkpt lat="49.1522538" lon="2.6253028"><ele>87.61</ele><time>2026-4-28T19:49:40Z</time></trkpt>
<trkpt lat="49.1521956" lon="2.6253526"><ele>88.52</ele><time>2026-4-28T19:49:43Z</time></trkpt>
<trkpt lat="49.1521335" lon="2.6254139"><ele>88.60</ele><time>2026-4-28T19:49:46Z</time></trkpt>
<trkpt lat="49.1520819" lon="2.6254638"><ele>87.91</ele><time>2026-4-28T19:49:49Z</time></trkpt>
<trkpt lat="49.1520319" lon="2.6255189"><ele>87.64</ele><time>2026-4-28T19:49:52Z</time></trkpt>
<trkpt lat="49.1519886" lon="2.6255597"><ele>87.61</ele><time>2026-4-28T19:49:55Z</time></trkpt>
<trkpt lat="49.1519476" lon="2.6256200"><ele>87.61</ele><time>2026-4-28T19:49:58Z</time></trkpt>
<trkpt lat="49.1519139" lon="2.6256925"><ele>87.61</ele><time>2026-4-28T19:50:1Z</time></trkpt>
<trkpt lat="49.1518800" lon="2.6257581"><ele>86.70</ele><time>2026-4-28T19:50:4Z</time></trkpt>
<trkpt lat="49.1518535" lon="2.6258325"><ele>86.62</ele><time>2026-4-28T19:50:7Z</time></trkpt>
<trkpt lat="49.1518241" lon="2.6259077"><ele>86.61</ele><time>2026-4-28T19:50:10Z</time></trkpt>
<trkpt lat="49.1517990" lon="2.6259991"><ele>86.61</ele><time>2026-4-28T19:50:13Z</time></trkpt>
<trkpt lat="49.1517796" lon="2.6260726"><ele>86.61</ele><time>2026-4-28T19:50:16Z</time></trkpt>
<trkpt lat="49.1517486" lon="2.6261526"><ele>86.82</ele><time>2026-4-28T19:50:19Z</time></trkpt>
<trkpt lat="49.1517168" lon="2.6262299"><ele>87.54</ele><time>2026-4-28T19:50:22Z</time></trkpt>
<trkpt lat="49.1516831" lon="2.6263075"><ele>87.60</ele><time>2026-4-28T19:50:25Z</time></trkpt>
<trkpt lat="49.1516569" lon="2.6263975"><ele>87.61</ele><time>2026-4-28T19:50:28Z</time></trkpt>
<trkpt lat="49.1516334" lon="2.6264795"><ele>87.61</ele><time>2026-4-28T19:50:31Z</time></trkpt>
<trkpt lat="49.1516045" lon="2.6265499"><ele>87.61</ele><time>2026-4-28T19:50:34Z</time></trkpt>
<trkpt lat="49.1515762" lon="2.6266340"><ele>87.61</ele><time>2026-4-28T19:50:37Z</time></trkpt>
<trkpt lat="49.1515435" lon="2.6267138"><ele>87.61</ele><time>2026-4-28T19:50:40Z</time></trkpt>
<trkpt lat="49.1515133" lon="2.6267970"><ele>87.61</ele><time>2026-4-28T19:50:43Z</time></trkpt>
<trkpt lat="49.1514802" lon="2.6268746"><ele>88.52</ele><time>2026-4-28T19:50:46Z</time></trkpt>
<trkpt lat="49.1514504" lon="2.6269527"><ele>89.51</ele><time>2026-4-28T19:50:49Z</time></trkpt>
<trkpt lat="49.1514212" lon="2.6270409"><ele>89.60</ele><time>2026-4-28T19:50:52Z</time></trkpt>
<trkpt lat="49.1513902" lon="2.6271356"><ele>89.61</ele><time>2026-4-28T19:50:55Z</time></trkpt>
<trkpt lat="49.1513566" lon="2.6272257"><ele>89.61</ele><time>2026-4-28T19:50:58Z</time></trkpt>
<trkpt lat="49.1513302" lon="2.6273076"><ele>89.61</ele><time>2026-4-28T19:51:1Z</time></trkpt>
<trkpt lat="49.1513043" lon="2.6273806"><ele>89.61</ele><time>2026-4-28T19:51:4Z</time></trkpt>
<trkpt lat="49.1512757" lon="2.6274523"><ele>89.61</ele><time>2026-4-28T19:51:7Z</time></trkpt>
<trkpt lat="49.1512500" lon="2.6275262"><ele>89.61</ele><time>2026-4-28T19:51:10Z</time></trkpt>
<trkpt lat="49.1512235" lon="2.6276116"><ele>89.61</ele><time>2026-4-28T19:51:13Z</time></trkpt>
<trkpt lat="49.1511946" lon="2.6276795"><ele>90.52</ele><time>2026-4-28T19:51:16Z</time></trkpt>
<trkpt lat="49.1511664" lon="2.6277608"><ele>90.60</ele><time>2026-4-28T19:51:19Z</time></trkpt>
<trkpt lat="49.1511386" lon="2.6278473"><ele>90.61</ele><time>2026-4-28T19:51:22Z</time></trkpt>
<trkpt lat="49.1511116" lon="2.6279240"><ele>91.52</ele><time>2026-4-28T19:51:25Z</time></trkpt>
<trkpt lat="49.1510816" lon="2.6280079"><ele>92.51</ele><time>2026-4-28T19:51:28Z</time></trkpt>
<trkpt lat="49.1510555" lon="2.6280887"><ele>92.60</ele><time>2026-4-28T19:51:31Z</time></trkpt>
<trkpt lat="49.1510280" lon="2.6281688"><ele>93.52</ele><time>2026-4-28T19:51:34Z</time></trkpt>
<trkpt lat="49.1509998" lon="2.6282310"><ele>93.60</ele><time>2026-4-28T19:51:37Z</time></trkpt>
<trkpt lat="49.1509777" lon="2.6282979"><ele>93.61</ele><time>2026-4-28T19:51:40Z</time></trkpt>
<trkpt lat="49.1509518" lon="2.6283675"><ele>93.61</ele><time>2026-4-28T19:51:43Z</time></trkpt>
<trkpt lat="49.1509260" lon="2.6284378"><ele>93.61</ele><time>2026-4-28T19:51:46Z</time></trkpt>
<trkpt lat="49.1508964" lon="2.6285118"><ele>94.31</ele><time>2026-4-28T19:51:49Z</time></trkpt>
<trkpt lat="49.1508701" lon="2.6285955"><ele>94.58</ele><time>2026-4-28T19:51:52Z</time></trkpt>
<trkpt lat="49.1508446" lon="2.6286749"><ele>94.61</ele><time>2026-4-28T19:51:55Z</time></trkpt>
<trkpt lat="49.1508132" lon="2.6287441"><ele>94.61</ele><time>2026-4-28T19:51:58Z</time></trkpt>
<trkpt lat="49.1507801" lon="2.6288102"><ele>95.31</ele><time>2026-4-28T19:52:1Z</time></trkpt>
<trkpt lat="49.1507460" lon="2.6288949"><ele>96.51</ele><time>2026-4-28T19:52:4Z</time></trkpt>
<trkpt lat="49.1507108" lon="2.6289502"><ele>97.52</ele><time>2026-4-28T19:52:7Z</time></trkpt>
<trkpt lat="49.1506651" lon="2.6290225"><ele>98.52</ele><time>2026-4-28T19:52:10Z</time></trkpt>
<trkpt lat="49.1506361" lon="2.6291005"><ele>99.61</ele><time>2026-4-28T19:52:13Z</time></trkpt>
<trkpt lat="49.1505912" lon="2.6291913"><ele>98.64</ele><time>2026-4-28T19:52:16Z</time></trkpt>
<trkpt lat="49.1505443" lon="2.6292806"><ele>97.70</ele><time>2026-4-28T19:52:19Z</time></trkpt>
<trkpt lat="49.1505106" lon="2.6293366"><ele>98.34</ele><time>2026-4-28T19:52:22Z</time></trkpt>
<trkpt lat="49.1504745" lon="2.6293845"><ele>98.53</ele><time>2026-4-28T19:52:25Z</time></trkpt>
<trkpt lat="49.1504228" lon="2.6294887"><ele>98.60</ele><time>2026-4-28T19:52:28Z</time></trkpt>
<trkpt lat="49.1503911" lon="2.6295489"><ele>98.61</ele><time>2026-4-28T19:52:31Z</time></trkpt>
<trkpt lat="49.1503612" lon="2.6296075"><ele>98.61</ele><time>2026-4-28T19:52:34Z</time></trkpt>
<trkpt lat="49.1503294" lon="2.6296703"><ele>98.61</ele><time>2026-4-28T19:52:37Z</time></trkpt>
<trkpt lat="49.1502949" lon="2.6297311"><ele>99.31</ele><time>2026-4-28T19:52:40Z</time></trkpt>
<trkpt lat="49.1502621" lon="2.6297925"><ele>99.52</ele><time>2026-4-28T19:52:43Z</time></trkpt>
<trkpt lat="49.1502321" lon="2.6298515"><ele>99.58</ele><time>2026-4-28T19:52:46Z</time></trkpt>
<trkpt lat="49.1502000" lon="2.6299133"><ele>99.60</ele><time>2026-4-28T19:52:49Z</time></trkpt>
<trkpt lat="49.1501483" lon="2.6300250"><ele>100.52</ele><time>2026-4-28T19:52:52Z</time></trkpt>
<trkpt lat="49.1500962" lon="2.6301402"><ele>100.60</ele><time>2026-4-28T19:52:55Z</time></trkpt>
<trkpt lat="49.1500498" lon="2.6302480"><ele>100.61</ele><time>2026-4-28T19:52:58Z</time></trkpt>
<trkpt lat="49.1500032" lon="2.6303431"><ele>100.61</ele><time>2026-4-28T19:53:1Z</time></trkpt>
<trkpt lat="49.1499496" lon="2.6304089"><ele>100.61</ele><time>2026-4-28T19:53:4Z</time></trkpt>
<trkpt lat="49.1498999" lon="2.6304799"><ele>100.61</ele><time>2026-4-28T19:53:7Z</time></trkpt>
<trkpt lat="49.1498526" lon="2.6305482"><ele>100.61</ele><time>2026-4-28T19:53:10Z</time></trkpt>
<trkpt lat="49.1498078" lon="2.6306216"><ele>101.52</ele><time>2026-4-28T19:53:13Z</time></trkpt>
<trkpt lat="49.1497694" lon="2.6307019"><ele>101.60</ele><time>2026-4-28T19:53:16Z</time></trkpt>
<trkpt lat="49.1497272" lon="2.6307855"><ele>101.61</ele><time>2026-4-28T19:53:19Z</time></trkpt>
<trkpt lat="49.1496832" lon="2.6308699"><ele>101.61</ele><time>2026-4-28T19:53:22Z</time></trkpt>
<trkpt lat="49.1496385" lon="2.6309575"><ele>100.70</ele><time>2026-4-28T19:53:25Z</time></trkpt>
<trkpt lat="49.1495957" lon="2.6310341"><ele>101.53</ele><time>2026-4-28T19:53:28Z</time></trkpt>
<trkpt lat="49.1495536" lon="2.6311210"><ele>101.60</ele><time>2026-4-28T19:53:31Z</time></trkpt>
<trkpt lat="49.1495086" lon="2.6311990"><ele>101.61</ele><time>2026-4-28T19:53:34Z</time></trkpt>
<trkpt lat="49.1494602" lon="2.6312765"><ele>101.61</ele><time>2026-4-28T19:53:37Z</time></trkpt>
<trkpt lat="49.1494176" lon="2.6313679"><ele>101.61</ele><time>2026-4-28T19:53:40Z</time></trkpt>
<trkpt lat="49.1493799" lon="2.6314550"><ele>101.61</ele><time>2026-4-28T19:53:43Z</time></trkpt>
<trkpt lat="49.1493519" lon="2.6315572"><ele>101.61</ele><time>2026-4-28T19:53:46Z</time></trkpt>
<trkpt lat="49.1493098" lon="2.6316661"><ele>102.31</ele><time>2026-4-28T19:53:49Z</time></trkpt>
<trkpt lat="49.1492616" lon="2.6317630"><ele>103.28</ele><time>2026-4-28T19:53:52Z</time></trkpt>
<trkpt lat="49.1492108" lon="2.6318653"><ele>104.49</ele><time>2026-4-28T19:53:55Z</time></trkpt>
<trkpt lat="49.1491805" lon="2.6319201"><ele>104.58</ele><time>2026-4-28T19:53:58Z</time></trkpt>
<trkpt lat="49.1491497" lon="2.6319796"><ele>104.60</ele><time>2026-4-28T19:54:1Z</time></trkpt>
<trkpt lat="49.1491246" lon="2.6320423"><ele>104.61</ele><time>2026-4-28T19:54:4Z</time></trkpt>
<trkpt lat="49.1490999" lon="2.6321026"><ele>104.61</ele><time>2026-4-28T19:54:7Z</time></trkpt>
<trkpt lat="49.1490704" lon="2.6321681"><ele>104.61</ele><time>2026-4-28T19:54:10Z</time></trkpt>
<trkpt lat="49.1490266" lon="2.6322882"><ele>105.52</ele><time>2026-4-28T19:54:13Z</time></trkpt>
<trkpt lat="49.1490007" lon="2.6323554"><ele>105.58</ele><time>2026-4-28T19:54:16Z</time></trkpt>
<trkpt lat="49.1489760" lon="2.6324224"><ele>105.60</ele><time>2026-4-28T19:54:19Z</time></trkpt>
<trkpt lat="49.1489532" lon="2.6324911"><ele>104.91</ele><time>2026-4-28T19:54:22Z</time></trkpt>
<trkpt lat="49.1489340" lon="2.6325560"><ele>104.70</ele><time>2026-4-28T19:54:25Z</time></trkpt>
<trkpt lat="49.1489066" lon="2.6326846"><ele>104.62</ele><time>2026-4-28T19:54:28Z</time></trkpt>
<trkpt lat="49.1488956" lon="2.6328016"><ele>105.31</ele><time>2026-4-28T19:54:31Z</time></trkpt>
<trkpt lat="49.1488733" lon="2.6328942"><ele>105.58</ele><time>2026-4-28T19:54:34Z</time></trkpt>
<trkpt lat="49.1488377" lon="2.6329829"><ele>105.61</ele><time>2026-4-28T19:54:37Z</time></trkpt>
<trkpt lat="49.1488117" lon="2.6330719"><ele>105.61</ele><time>2026-4-28T19:54:40Z</time></trkpt>
<trkpt lat="49.1487752" lon="2.6332092"><ele>106.31</ele><time>2026-4-28T19:54:43Z</time></trkpt>
<trkpt lat="49.1487443" lon="2.6333341"><ele>106.58</ele><time>2026-4-28T19:54:46Z</time></trkpt>
<trkpt lat="49.1487160" lon="2.6334360"><ele>106.61</ele><time>2026-4-28T19:54:49Z</time></trkpt>
<trkpt lat="49.1486950" lon="2.6335153"><ele>106.61</ele><time>2026-4-28T19:54:52Z</time></trkpt>
<trkpt lat="49.1486793" lon="2.6336148"><ele>106.61</ele><time>2026-4-28T19:54:55Z</time></trkpt>
<trkpt lat="49.1486520" lon="2.6337192"><ele>106.61</ele><time>2026-4-28T19:54:58Z</time></trkpt>
<trkpt lat="49.1486319" lon="2.6338263"><ele>106.61</ele><time>2026-4-28T19:55:1Z</time></trkpt>
<trkpt lat="49.1486087" lon="2.6339334"><ele>105.91</ele><time>2026-4-28T19:55:4Z</time></trkpt>
<trkpt lat="49.1485782" lon="2.6340573"><ele>105.64</ele><time>2026-4-28T19:55:7Z</time></trkpt>
<trkpt lat="49.1485555" lon="2.6341197"><ele>105.62</ele><time>2026-4-28T19:55:10Z</time></trkpt>
<trkpt lat="49.1484944" lon="2.6342545"><ele>105.61</ele><time>2026-4-28T19:55:13Z</time></trkpt>
<trkpt lat="49.1484619" lon="2.6343265"><ele>105.61</ele><time>2026-4-28T19:55:16Z</time></trkpt>
<trkpt lat="49.1484309" lon="2.6343967"><ele>106.31</ele><time>2026-4-28T19:55:19Z</time></trkpt>
<trkpt lat="49.1484053" lon="2.6344697"><ele>105.82</ele><time>2026-4-28T19:55:22Z</time></trkpt>
<trkpt lat="49.1483825" lon="2.6345446"><ele>106.37</ele><time>2026-4-28T19:55:25Z</time></trkpt>
<trkpt lat="49.1483554" lon="2.6346219"><ele>106.54</ele><time>2026-4-28T19:55:28Z</time></trkpt>
<trkpt lat="49.1483341" lon="2.6346922"><ele>106.59</ele><time>2026-4-28T19:55:31Z</time></trkpt>
<trkpt lat="49.1483154" lon="2.6347604"><ele>107.30</ele><time>2026-4-28T19:55:34Z</time></trkpt>
<trkpt lat="49.1482954" lon="2.6348279"><ele>107.52</ele><time>2026-4-28T19:55:37Z</time></trkpt>
<trkpt lat="49.1482822" lon="2.6348959"><ele>107.58</ele><time>2026-4-28T19:55:40Z</time></trkpt>
<trkpt lat="49.1482663" lon="2.6349631"><ele>107.60</ele><time>2026-4-28T19:55:43Z</time></trkpt>
<trkpt lat="49.1482540" lon="2.6350424"><ele>107.61</ele><time>2026-4-28T19:55:46Z</time></trkpt>
<trkpt lat="49.1482425" lon="2.6351268"><ele>106.91</ele><time>2026-4-28T19:55:49Z</time></trkpt>
<trkpt lat="49.1482312" lon="2.6352119"><ele>106.70</ele><time>2026-4-28T19:55:52Z</time></trkpt>
<trkpt lat="49.1482329" lon="2.6352881"><ele>105.94</ele><time>2026-4-28T19:55:55Z</time></trkpt>
<trkpt lat="49.1482334" lon="2.6353703"><ele>105.71</ele><time>2026-4-28T19:55:58Z</time></trkpt>
<trkpt lat="49.1482382" lon="2.6354479"><ele>105.64</ele><time>2026-4-28T19:56:1Z</time></trkpt>
<trkpt lat="49.1482307" lon="2.6355801"><ele>106.31</ele><time>2026-4-28T19:56:4Z</time></trkpt>
<trkpt lat="49.1482244" lon="2.6356503"><ele>105.82</ele><time>2026-4-28T19:56:7Z</time></trkpt>
<trkpt lat="49.1482128" lon="2.6357182"><ele>105.67</ele><time>2026-4-28T19:56:10Z</time></trkpt>
<trkpt lat="49.1481984" lon="2.6357877"><ele>105.63</ele><time>2026-4-28T19:56:13Z</time></trkpt>
<trkpt lat="49.1481861" lon="2.6358585"><ele>105.62</ele><time>2026-4-28T19:56:16Z</time></trkpt>
<trkpt lat="49.1481729" lon="2.6359314"><ele>105.61</ele><time>2026-4-28T19:56:19Z</time></trkpt>
<trkpt lat="49.1481541" lon="2.6360583"><ele>105.61</ele><time>2026-4-28T19:56:22Z</time></trkpt>
<trkpt lat="49.1481440" lon="2.6361267"><ele>105.61</ele><time>2026-4-28T19:56:25Z</time></trkpt>
<trkpt lat="49.1481325" lon="2.6361953"><ele>105.61</ele><time>2026-4-28T19:56:28Z</time></trkpt>
<trkpt lat="49.1481111" lon="2.6363248"><ele>105.61</ele><time>2026-4-28T19:56:31Z</time></trkpt>
<trkpt lat="49.1480991" lon="2.6363921"><ele>105.61</ele><time>2026-4-28T19:56:34Z</time></trkpt>
<trkpt lat="49.1480905" lon="2.6364621"><ele>105.61</ele><time>2026-4-28T19:56:37Z</time></trkpt>
<trkpt lat="49.1480820" lon="2.6365413"><ele>105.61</ele><time>2026-4-28T19:56:40Z</time></trkpt>
<trkpt lat="49.1480732" lon="2.6366271"><ele>104.91</ele><time>2026-4-28T19:56:43Z</time></trkpt>
<trkpt lat="49.1480700" lon="2.6367033"><ele>104.70</ele><time>2026-4-28T19:56:46Z</time></trkpt>
<trkpt lat="49.1480578" lon="2.6367792"><ele>105.34</ele><time>2026-4-28T19:56:49Z</time></trkpt>
<trkpt lat="49.1480445" lon="2.6368651"><ele>104.83</ele><time>2026-4-28T19:56:52Z</time></trkpt>
<trkpt lat="49.1480357" lon="2.6369433"><ele>104.68</ele><time>2026-4-28T19:56:55Z</time></trkpt>
<trkpt lat="49.1480241" lon="2.6370167"><ele>104.63</ele><time>2026-4-28T19:56:58Z</time></trkpt>
<trkpt lat="49.1480170" lon="2.6370902"><ele>104.62</ele><time>2026-4-28T19:57:1Z</time></trkpt>
<trkpt lat="49.1480131" lon="2.6371666"><ele>104.61</ele><time>2026-4-28T19:57:4Z</time></trkpt>
<trkpt lat="49.1480158" lon="2.6372455"><ele>104.61</ele><time>2026-4-28T19:57:7Z</time></trkpt>
<trkpt lat="49.1480145" lon="2.6373248"><ele>104.61</ele><time>2026-4-28T19:57:10Z</time></trkpt>
<trkpt lat="49.1480105" lon="2.6373999"><ele>104.61</ele><time>2026-4-28T19:57:13Z</time></trkpt>
<trkpt lat="49.1479911" lon="2.6374753"><ele>103.91</ele><time>2026-4-28T19:57:16Z</time></trkpt>
<trkpt lat="49.1479744" lon="2.6375528"><ele>103.70</ele><time>2026-4-28T19:57:19Z</time></trkpt>
<trkpt lat="49.1479643" lon="2.6376455"><ele>103.64</ele><time>2026-4-28T19:57:22Z</time></trkpt>
<trkpt lat="49.1479650" lon="2.6377343"><ele>102.92</ele><time>2026-4-28T19:57:25Z</time></trkpt>
<trkpt lat="49.1479568" lon="2.6378195"><ele>102.70</ele><time>2026-4-28T19:57:28Z</time></trkpt>
<trkpt lat="49.1479435" lon="2.6379041"><ele>102.64</ele><time>2026-4-28T19:57:31Z</time></trkpt>
<trkpt lat="49.1479312" lon="2.6379939"><ele>102.62</ele><time>2026-4-28T19:57:34Z</time></trkpt>
<trkpt lat="49.1479184" lon="2.6380875"><ele>102.61</ele><time>2026-4-28T19:57:37Z</time></trkpt>
<trkpt lat="49.1479061" lon="2.6381778"><ele>102.61</ele><time>2026-4-28T19:57:40Z</time></trkpt>
<trkpt lat="49.1478904" lon="2.6382622"><ele>101.91</ele><time>2026-4-28T19:57:43Z</time></trkpt>
<trkpt lat="49.1478741" lon="2.6383515"><ele>101.70</ele><time>2026-4-28T19:57:46Z</time></trkpt>
<trkpt lat="49.1478608" lon="2.6384290"><ele>101.64</ele><time>2026-4-28T19:57:49Z</time></trkpt>
<trkpt lat="49.1478462" lon="2.6385029"><ele>101.62</ele><time>2026-4-28T19:57:52Z</time></trkpt>
<trkpt lat="49.1478448" lon="2.6385874"><ele>101.61</ele><time>2026-4-28T19:57:55Z</time></trkpt>
<trkpt lat="49.1478405" lon="2.6386649"><ele>101.61</ele><time>2026-4-28T19:57:58Z</time></trkpt>
<trkpt lat="49.1478274" lon="2.6387369"><ele>101.61</ele><time>2026-4-28T19:58:1Z</time></trkpt>
<trkpt lat="49.1478181" lon="2.6388070"><ele>101.61</ele><time>2026-4-28T19:58:4Z</time></trkpt>
<trkpt lat="49.1477971" lon="2.6389207"><ele>101.61</ele><time>2026-4-28T19:58:7Z</time></trkpt>
<trkpt lat="49.1477784" lon="2.6390332"><ele>101.61</ele><time>2026-4-28T19:58:10Z</time></trkpt>
<trkpt lat="49.1477637" lon="2.6391370"><ele>101.61</ele><time>2026-4-28T19:58:13Z</time></trkpt>
<trkpt lat="49.1477505" lon="2.6392617"><ele>101.61</ele><time>2026-4-28T19:58:16Z</time></trkpt>
<trkpt lat="49.1477297" lon="2.6393918"><ele>101.61</ele><time>2026-4-28T19:58:19Z</time></trkpt>
<trkpt lat="49.1477172" lon="2.6394642"><ele>101.61</ele><time>2026-4-28T19:58:22Z</time></trkpt>
<trkpt lat="49.1477101" lon="2.6395434"><ele>101.61</ele><time>2026-4-28T19:58:25Z</time></trkpt>
<trkpt lat="49.1477065" lon="2.6396135"><ele>102.31</ele><time>2026-4-28T19:58:28Z</time></trkpt>
<trkpt lat="49.1477044" lon="2.6396869"><ele>102.52</ele><time>2026-4-28T19:58:31Z</time></trkpt>
<trkpt lat="49.1476924" lon="2.6397537"><ele>101.88</ele><time>2026-4-28T19:58:34Z</time></trkpt>
<trkpt lat="49.1476772" lon="2.6398193"><ele>101.69</ele><time>2026-4-28T19:58:37Z</time></trkpt>
<trkpt lat="49.1476693" lon="2.6398881"><ele>101.64</ele><time>2026-4-28T19:58:40Z</time></trkpt>
<trkpt lat="49.1476623" lon="2.6399707"><ele>101.62</ele><time>2026-4-28T19:58:43Z</time></trkpt>
<trkpt lat="49.1476537" lon="2.6400449"><ele>101.61</ele><time>2026-4-28T19:58:46Z</time></trkpt>
<trkpt lat="49.1476472" lon="2.6401337"><ele>100.91</ele><time>2026-4-28T19:58:49Z</time></trkpt>
<trkpt lat="49.1476381" lon="2.6402210"><ele>100.70</ele><time>2026-4-28T19:58:52Z</time></trkpt>
<trkpt lat="49.1476346" lon="2.6402992"><ele>99.94</ele><time>2026-4-28T19:58:55Z</time></trkpt>
<trkpt lat="49.1476274" lon="2.6403703"><ele>99.71</ele><time>2026-4-28T19:58:58Z</time></trkpt>
<trkpt lat="49.1476155" lon="2.6404456"><ele>99.64</ele><time>2026-4-28T19:59:1Z</time></trkpt>
<trkpt lat="49.1476074" lon="2.6405246"><ele>98.92</ele><time>2026-4-28T19:59:4Z</time></trkpt>
<trkpt lat="49.1475934" lon="2.6406160"><ele>98.70</ele><time>2026-4-28T19:59:7Z</time></trkpt>
<trkpt lat="49.1475762" lon="2.6407002"><ele>97.94</ele><time>2026-4-28T19:59:10Z</time></trkpt>
<trkpt lat="49.1475635" lon="2.6407765"><ele>98.41</ele><time>2026-4-28T19:59:13Z</time></trkpt>
<trkpt lat="49.1475487" lon="2.6409246"><ele>97.68</ele><time>2026-4-28T19:59:16Z</time></trkpt>
<trkpt lat="49.1475399" lon="2.6410001"><ele>97.63</ele><time>2026-4-28T19:59:19Z</time></trkpt>
<trkpt lat="49.1475255" lon="2.6410728"><ele>97.62</ele><time>2026-4-28T19:59:22Z</time></trkpt>
<trkpt lat="49.1475153" lon="2.6411503"><ele>98.31</ele><time>2026-4-28T19:59:25Z</time></trkpt>
<trkpt lat="49.1475029" lon="2.6412268"><ele>98.52</ele><time>2026-4-28T19:59:28Z</time></trkpt>
<trkpt lat="49.1474857" lon="2.6413027"><ele>98.58</ele><time>2026-4-28T19:59:31Z</time></trkpt>
<trkpt lat="49.1474739" lon="2.6413736"><ele>98.60</ele><time>2026-4-28T19:59:34Z</time></trkpt>
<trkpt lat="49.1474742" lon="2.6414433"><ele>98.61</ele><time>2026-4-28T19:59:37Z</time></trkpt>
<trkpt lat="49.1474827" lon="2.6415526"><ele>99.52</ele><time>2026-4-28T19:59:40Z</time></trkpt>
<trkpt lat="49.1474970" lon="2.6416248"><ele>99.61</ele><time>2026-4-28T19:59:43Z</time></trkpt>
<trkpt lat="49.1474540" lon="2.6416577"><ele>100.60</ele><time>2026-4-28T19:59:46Z</time></trkpt>
<trkpt lat="49.1474436" lon="2.6417345"><ele>99.91</ele><time>2026-4-28T19:59:49Z</time></trkpt>
<trkpt lat="49.1474192" lon="2.6418490"><ele>99.64</ele><time>2026-4-28T19:59:52Z</time></trkpt>
<trkpt lat="49.1473954" lon="2.6419462"><ele>99.62</ele><time>2026-4-28T19:59:55Z</time></trkpt>
<trkpt lat="49.1473823" lon="2.6420416"><ele>98.91</ele><time>2026-4-28T19:59:58Z</time></trkpt>
<trkpt lat="49.1473722" lon="2.6421309"><ele>98.70</ele><time>2026-4-28T20:0:1Z</time></trkpt>
<trkpt lat="49.1473642" lon="2.6422226"><ele>99.34</ele><time>2026-4-28T20:0:4Z</time></trkpt>
<trkpt lat="49.1473517" lon="2.6423145"><ele>99.53</ele><time>2026-4-28T20:0:7Z</time></trkpt>
<trkpt lat="49.1473395" lon="2.6424060"><ele>99.59</ele><time>2026-4-28T20:0:10Z</time></trkpt>
<trkpt lat="49.1473291" lon="2.6425042"><ele>98.90</ele><time>2026-4-28T20:0:13Z</time></trkpt>
<trkpt lat="49.1473199" lon="2.6426027"><ele>98.70</ele><time>2026-4-28T20:0:16Z</time></trkpt>
<trkpt lat="49.1473127" lon="2.6426945"><ele>98.64</ele><time>2026-4-28T20:0:19Z</time></trkpt>
<trkpt lat="49.1473058" lon="2.6427809"><ele>98.62</ele><time>2026-4-28T20:0:22Z</time></trkpt>
<trkpt lat="49.1472997" lon="2.6428599"><ele>99.31</ele><time>2026-4-28T20:0:25Z</time></trkpt>
<trkpt lat="49.1472955" lon="2.6429290"><ele>99.52</ele><time>2026-4-28T20:0:28Z</time></trkpt>
<trkpt lat="49.1472804" lon="2.6430468"><ele>99.60</ele><time>2026-4-28T20:0:31Z</time></trkpt>
<trkpt lat="49.1472756" lon="2.6431538"><ele>99.61</ele><time>2026-4-28T20:0:34Z</time></trkpt>
<trkpt lat="49.1472652" lon="2.6432527"><ele>99.61</ele><time>2026-4-28T20:0:37Z</time></trkpt>
<trkpt lat="49.1472433" lon="2.6433545"><ele>99.61</ele><time>2026-4-28T20:0:40Z</time></trkpt>
<trkpt lat="49.1472170" lon="2.6434482"><ele>99.61</ele><time>2026-4-28T20:0:43Z</time></trkpt>
<trkpt lat="49.1472034" lon="2.6435539"><ele>99.61</ele><time>2026-4-28T20:0:46Z</time></trkpt>
<trkpt lat="49.1471872" lon="2.6436594"><ele>99.61</ele><time>2026-4-28T20:0:49Z</time></trkpt>
<trkpt lat="49.1471684" lon="2.6437781"><ele>99.61</ele><time>2026-4-28T20:0:52Z</time></trkpt>
<trkpt lat="49.1471558" lon="2.6439045"><ele>99.61</ele><time>2026-4-28T20:0:55Z</time></trkpt>
<trkpt lat="49.1471580" lon="2.6439823"><ele>100.31</ele><time>2026-4-28T20:0:58Z</time></trkpt>
<trkpt lat="49.1471536" lon="2.6440582"><ele>100.52</ele><time>2026-4-28T20:1:1Z</time></trkpt>
<trkpt lat="49.1471459" lon="2.6441791"><ele>101.30</ele><time>2026-4-28T20:1:4Z</time></trkpt>
<trkpt lat="49.1471342" lon="2.6442796"><ele>101.58</ele><time>2026-4-28T20:1:7Z</time></trkpt>
<trkpt lat="49.1471180" lon="2.6443656"><ele>101.61</ele><time>2026-4-28T20:1:10Z</time></trkpt>
<trkpt lat="49.1471083" lon="2.6444606"><ele>100.91</ele><time>2026-4-28T20:1:13Z</time></trkpt>
<trkpt lat="49.1470986" lon="2.6445351"><ele>100.64</ele><time>2026-4-28T20:1:16Z</time></trkpt>
<trkpt lat="49.1470856" lon="2.6446209"><ele>100.61</ele><time>2026-4-28T20:1:19Z</time></trkpt>
<trkpt lat="49.1470828" lon="2.6447188"><ele>100.61</ele><time>2026-4-28T20:1:22Z</time></trkpt>
<trkpt lat="49.1470826" lon="2.6448242"><ele>100.61</ele><time>2026-4-28T20:1:25Z</time></trkpt>
<trkpt lat="49.1470660" lon="2.6449230"><ele>101.52</ele><time>2026-4-28T20:1:28Z</time></trkpt>
<trkpt lat="49.1470460" lon="2.6450274"><ele>101.60</ele><time>2026-4-28T20:1:31Z</time></trkpt>
<trkpt lat="49.1470323" lon="2.6451165"><ele>101.61</ele><time>2026-4-28T20:1:34Z</time></trkpt>
<trkpt lat="49.1470220" lon="2.6452054"><ele>101.61</ele><time>2026-4-28T20:1:37Z</time></trkpt>
<trkpt lat="49.1470085" lon="2.6453001"><ele>101.61</ele><time>2026-4-28T20:1:40Z</time></trkpt>
<trkpt lat="49.1469956" lon="2.6454029"><ele>101.40</ele><time>2026-4-28T20:1:43Z</time></trkpt>
<trkpt lat="49.1469862" lon="2.6454984"><ele>101.59</ele><time>2026-4-28T20:1:46Z</time></trkpt>
<trkpt lat="49.1469823" lon="2.6456018"><ele>101.61</ele><time>2026-4-28T20:1:49Z</time></trkpt>
<trkpt lat="49.1469763" lon="2.6457022"><ele>101.61</ele><time>2026-4-28T20:1:52Z</time></trkpt>
<trkpt lat="49.1469777" lon="2.6457807"><ele>102.31</ele><time>2026-4-28T20:1:55Z</time></trkpt>
<trkpt lat="49.1469664" lon="2.6458590"><ele>102.58</ele><time>2026-4-28T20:1:58Z</time></trkpt>
<trkpt lat="49.1469360" lon="2.6459253"><ele>102.61</ele><time>2026-4-28T20:2:1Z</time></trkpt>
<trkpt lat="49.1468880" lon="2.6459820"><ele>102.61</ele><time>2026-4-28T20:2:4Z</time></trkpt>
<trkpt lat="49.1468336" lon="2.6460477"><ele>103.52</ele><time>2026-4-28T20:2:7Z</time></trkpt>
<trkpt lat="49.1467798" lon="2.6461330"><ele>103.39</ele><time>2026-4-28T20:2:10Z</time></trkpt>
<trkpt lat="49.1467251" lon="2.6462156"><ele>102.68</ele><time>2026-4-28T20:2:13Z</time></trkpt>
<trkpt lat="49.1466628" lon="2.6462949"><ele>103.32</ele><time>2026-4-28T20:2:16Z</time></trkpt>
<trkpt lat="49.1466125" lon="2.6463844"><ele>103.58</ele><time>2026-4-28T20:2:19Z</time></trkpt>
<trkpt lat="49.1465636" lon="2.6464761"><ele>104.31</ele><time>2026-4-28T20:2:22Z</time></trkpt>
<trkpt lat="49.1465053" lon="2.6465604"><ele>105.49</ele><time>2026-4-28T20:2:25Z</time></trkpt>
<trkpt lat="49.1464488" lon="2.6466578"><ele>105.60</ele><time>2026-4-28T20:2:28Z</time></trkpt>
<trkpt lat="49.1464169" lon="2.6467099"><ele>105.61</ele><time>2026-4-28T20:2:31Z</time></trkpt>
<trkpt lat="49.1463528" lon="2.6467931"><ele>106.52</ele><time>2026-4-28T20:2:34Z</time></trkpt>
<trkpt lat="49.1462903" lon="2.6468848"><ele>107.51</ele><time>2026-4-28T20:2:37Z</time></trkpt>
<trkpt lat="49.1462326" lon="2.6469812"><ele>108.30</ele><time>2026-4-28T20:2:40Z</time></trkpt>
<trkpt lat="49.1461703" lon="2.6470737"><ele>107.67</ele><time>2026-4-28T20:2:43Z</time></trkpt>
<trkpt lat="49.1461072" lon="2.6471628"><ele>107.62</ele><time>2026-4-28T20:2:46Z</time></trkpt>
<trkpt lat="49.1460408" lon="2.6472540"><ele>107.61</ele><time>2026-4-28T20:2:49Z</time></trkpt>
<trkpt lat="49.1460041" lon="2.6473023"><ele>107.61</ele><time>2026-4-28T20:2:52Z</time></trkpt>
<trkpt lat="49.1459691" lon="2.6473456"><ele>107.61</ele><time>2026-4-28T20:2:55Z</time></trkpt>
<trkpt lat="49.1459320" lon="2.6473868"><ele>108.31</ele><time>2026-4-28T20:2:58Z</time></trkpt>
<trkpt lat="49.1458925" lon="2.6474404"><ele>107.82</ele><time>2026-4-28T20:3:1Z</time></trkpt>
<trkpt lat="49.1458569" lon="2.6474882"><ele>107.67</ele><time>2026-4-28T20:3:4Z</time></trkpt>
<trkpt lat="49.1458254" lon="2.6475443"><ele>107.63</ele><time>2026-4-28T20:3:7Z</time></trkpt>
<trkpt lat="49.1457870" lon="2.6475932"><ele>107.62</ele><time>2026-4-28T20:3:10Z</time></trkpt>
<trkpt lat="49.1457470" lon="2.6476405"><ele>107.61</ele><time>2026-4-28T20:3:13Z</time></trkpt>
<trkpt lat="49.1457099" lon="2.6476910"><ele>107.61</ele><time>2026-4-28T20:3:16Z</time></trkpt>
<trkpt lat="49.1456685" lon="2.6477487"><ele>107.61</ele><time>2026-4-28T20:3:19Z</time></trkpt>
<trkpt lat="49.1456301" lon="2.6478058"><ele>107.61</ele><time>2026-4-28T20:3:22Z</time></trkpt>
<trkpt lat="49.1455892" lon="2.6478555"><ele>107.61</ele><time>2026-4-28T20:3:25Z</time></trkpt>
<trkpt lat="49.1455503" lon="2.6479087"><ele>107.61</ele><time>2026-4-28T20:3:28Z</time></trkpt>
<trkpt lat="49.1455137" lon="2.6479632"><ele>107.61</ele><time>2026-4-28T20:3:31Z</time></trkpt>
<trkpt lat="49.1454739" lon="2.6480210"><ele>106.91</ele><time>2026-4-28T20:3:34Z</time></trkpt>
<trkpt lat="49.1454357" lon="2.6480740"><ele>106.70</ele><time>2026-4-28T20:3:37Z</time></trkpt>
<trkpt lat="49.1453988" lon="2.6481262"><ele>106.64</ele><time>2026-4-28T20:3:40Z</time></trkpt>
<trkpt lat="49.1453623" lon="2.6481758"><ele>106.62</ele><time>2026-4-28T20:3:43Z</time></trkpt>
<trkpt lat="49.1453273" lon="2.6482284"><ele>106.61</ele><time>2026-4-28T20:3:46Z</time></trkpt>
<trkpt lat="49.1452936" lon="2.6482863"><ele>106.61</ele><time>2026-4-28T20:3:49Z</time></trkpt>
<trkpt lat="49.1452235" lon="2.6483717"><ele>106.61</ele><time>2026-4-28T20:3:52Z</time></trkpt>
<trkpt lat="49.1451639" lon="2.6484662"><ele>106.82</ele><time>2026-4-28T20:3:55Z</time></trkpt>
<trkpt lat="49.1451012" lon="2.6485528"><ele>106.63</ele><time>2026-4-28T20:3:58Z</time></trkpt>
<trkpt lat="49.1450373" lon="2.6486441"><ele>107.31</ele><time>2026-4-28T20:4:1Z</time></trkpt>
<trkpt lat="49.1449774" lon="2.6487310"><ele>107.58</ele><time>2026-4-28T20:4:4Z</time></trkpt>
<trkpt lat="49.1449124" lon="2.6488172"><ele>107.61</ele><time>2026-4-28T20:4:7Z</time></trkpt>
<trkpt lat="49.1448789" lon="2.6488633"><ele>107.61</ele><time>2026-4-28T20:4:10Z</time></trkpt>
<trkpt lat="49.1448103" lon="2.6489543"><ele>107.61</ele><time>2026-4-28T20:4:13Z</time></trkpt>
<trkpt lat="49.1447764" lon="2.6490010"><ele>107.61</ele><time>2026-4-28T20:4:16Z</time></trkpt>
<trkpt lat="49.1447139" lon="2.6490806"><ele>107.61</ele><time>2026-4-28T20:4:19Z</time></trkpt>
<trkpt lat="49.1446509" lon="2.6491631"><ele>107.61</ele><time>2026-4-28T20:4:22Z</time></trkpt>
<trkpt lat="49.1445847" lon="2.6492556"><ele>107.61</ele><time>2026-4-28T20:4:25Z</time></trkpt>
<trkpt lat="49.1445490" lon="2.6493012"><ele>107.61</ele><time>2026-4-28T20:4:28Z</time></trkpt>
<trkpt lat="49.1444881" lon="2.6493958"><ele>107.61</ele><time>2026-4-28T20:4:31Z</time></trkpt>
<trkpt lat="49.1444300" lon="2.6494886"><ele>107.61</ele><time>2026-4-28T20:4:34Z</time></trkpt>
<trkpt lat="49.1443684" lon="2.6495747"><ele>106.70</ele><time>2026-4-28T20:4:37Z</time></trkpt>
<trkpt lat="49.1443124" lon="2.6496659"><ele>107.32</ele><time>2026-4-28T20:4:40Z</time></trkpt>
<trkpt lat="49.1442609" lon="2.6497597"><ele>107.58</ele><time>2026-4-28T20:4:43Z</time></trkpt>
<trkpt lat="49.1442009" lon="2.6498709"><ele>107.61</ele><time>2026-4-28T20:4:46Z</time></trkpt>
<trkpt lat="49.1441671" lon="2.6499292"><ele>107.61</ele><time>2026-4-28T20:4:49Z</time></trkpt>
<trkpt lat="49.1440963" lon="2.6500177"><ele>106.70</ele><time>2026-4-28T20:4:52Z</time></trkpt>
<trkpt lat="49.1440612" lon="2.6500673"><ele>105.94</ele><time>2026-4-28T20:4:55Z</time></trkpt>
<trkpt lat="49.1440262" lon="2.6501167"><ele>105.71</ele><time>2026-4-28T20:4:58Z</time></trkpt>
<trkpt lat="49.1439957" lon="2.6501701"><ele>104.94</ele><time>2026-4-28T20:5:1Z</time></trkpt>
<trkpt lat="49.1439332" lon="2.6502641"><ele>104.64</ele><time>2026-4-28T20:5:4Z</time></trkpt>
<trkpt lat="49.1438980" lon="2.6503107"><ele>104.62</ele><time>2026-4-28T20:5:7Z</time></trkpt>
<trkpt lat="49.1438311" lon="2.6504043"><ele>104.61</ele><time>2026-4-28T20:5:10Z</time></trkpt>
<trkpt lat="49.1437970" lon="2.6504536"><ele>103.91</ele><time>2026-4-28T20:5:13Z</time></trkpt>
<trkpt lat="49.1437288" lon="2.6505320"><ele>103.64</ele><time>2026-4-28T20:5:16Z</time></trkpt>
<trkpt lat="49.1436597" lon="2.6506071"><ele>103.82</ele><time>2026-4-28T20:5:19Z</time></trkpt>
<trkpt lat="49.1436009" lon="2.6506917"><ele>104.54</ele><time>2026-4-28T20:5:22Z</time></trkpt>
<trkpt lat="49.1435642" lon="2.6507344"><ele>103.89</ele><time>2026-4-28T20:5:25Z</time></trkpt>
<trkpt lat="49.1435045" lon="2.6508205"><ele>104.34</ele><time>2026-4-28T20:5:28Z</time></trkpt>
<trkpt lat="49.1434486" lon="2.6509148"><ele>104.59</ele><time>2026-4-28T20:5:31Z</time></trkpt>
<trkpt lat="49.1433916" lon="2.6510061"><ele>104.61</ele><time>2026-4-28T20:5:34Z</time></trkpt>
<trkpt lat="49.1433290" lon="2.6510908"><ele>103.91</ele><time>2026-4-28T20:5:37Z</time></trkpt>
<trkpt lat="49.1432699" lon="2.6511866"><ele>103.64</ele><time>2026-4-28T20:5:40Z</time></trkpt>
<trkpt lat="49.1432055" lon="2.6512722"><ele>103.61</ele><time>2026-4-28T20:5:43Z</time></trkpt>
<trkpt lat="49.1431400" lon="2.6513603"><ele>103.61</ele><time>2026-4-28T20:5:46Z</time></trkpt>
<trkpt lat="49.1430701" lon="2.6514569"><ele>103.61</ele><time>2026-4-28T20:5:49Z</time></trkpt>
<trkpt lat="49.1430337" lon="2.6515015"><ele>103.61</ele><time>2026-4-28T20:5:52Z</time></trkpt>
<trkpt lat="49.1429589" lon="2.6515846"><ele>103.61</ele><time>2026-4-28T20:5:55Z</time></trkpt>
<trkpt lat="49.1429189" lon="2.6516317"><ele>103.61</ele><time>2026-4-28T20:5:58Z</time></trkpt>
<trkpt lat="49.1428797" lon="2.6516847"><ele>103.61</ele><time>2026-4-28T20:6:1Z</time></trkpt>
<trkpt lat="49.1428417" lon="2.6517416"><ele>103.61</ele><time>2026-4-28T20:6:4Z</time></trkpt>
<trkpt lat="49.1428100" lon="2.6517977"><ele>103.61</ele><time>2026-4-28T20:6:7Z</time></trkpt>
<trkpt lat="49.1427728" lon="2.6518461"><ele>103.61</ele><time>2026-4-28T20:6:10Z</time></trkpt>
<trkpt lat="49.1427372" lon="2.6518953"><ele>104.31</ele><time>2026-4-28T20:6:13Z</time></trkpt>
<trkpt lat="49.1427010" lon="2.6519450"><ele>104.52</ele><time>2026-4-28T20:6:16Z</time></trkpt>
<trkpt lat="49.1426660" lon="2.6519946"><ele>104.58</ele><time>2026-4-28T20:6:19Z</time></trkpt>
<trkpt lat="49.1426287" lon="2.6520502"><ele>103.90</ele><time>2026-4-28T20:6:22Z</time></trkpt>
<trkpt lat="49.1425897" lon="2.6521023"><ele>103.70</ele><time>2026-4-28T20:6:25Z</time></trkpt>
<trkpt lat="49.1425526" lon="2.6521523"><ele>103.64</ele><time>2026-4-28T20:6:28Z</time></trkpt>
<trkpt lat="49.1425181" lon="2.6522047"><ele>103.62</ele><time>2026-4-28T20:6:31Z</time></trkpt>
<trkpt lat="49.1424796" lon="2.6522570"><ele>102.91</ele><time>2026-4-28T20:6:34Z</time></trkpt>
<trkpt lat="49.1424448" lon="2.6523054"><ele>102.70</ele><time>2026-4-28T20:6:37Z</time></trkpt>
<trkpt lat="49.1424120" lon="2.6523528"><ele>101.94</ele><time>2026-4-28T20:6:40Z</time></trkpt>
<trkpt lat="49.1423741" lon="2.6524058"><ele>101.71</ele><time>2026-4-28T20:6:43Z</time></trkpt>
<trkpt lat="49.1423384" lon="2.6524512"><ele>101.64</ele><time>2026-4-28T20:6:46Z</time></trkpt>
<trkpt lat="49.1422986" lon="2.6525420"><ele>101.61</ele><time>2026-4-28T20:6:49Z</time></trkpt>
<trkpt lat="49.1422504" lon="2.6526002"><ele>101.61</ele><time>2026-4-28T20:6:52Z</time></trkpt>
<trkpt lat="49.1422068" lon="2.6526653"><ele>101.61</ele><time>2026-4-28T20:6:55Z</time></trkpt>
<trkpt lat="49.1421485" lon="2.6527625"><ele>101.61</ele><time>2026-4-28T20:6:58Z</time></trkpt>
<trkpt lat="49.1420957" lon="2.6528533"><ele>102.31</ele><time>2026-4-28T20:7:1Z</time></trkpt>
<trkpt lat="49.1420415" lon="2.6529363"><ele>102.58</ele><time>2026-4-28T20:7:4Z</time></trkpt>
<trkpt lat="49.1420078" lon="2.6529892"><ele>102.60</ele><time>2026-4-28T20:7:7Z</time></trkpt>
<trkpt lat="49.1419519" lon="2.6530822"><ele>103.52</ele><time>2026-4-28T20:7:10Z</time></trkpt>
<trkpt lat="49.1418853" lon="2.6531672"><ele>104.51</ele><time>2026-4-28T20:7:13Z</time></trkpt>
<trkpt lat="49.1418517" lon="2.6532199"><ele>104.58</ele><time>2026-4-28T20:7:16Z</time></trkpt>
<trkpt lat="49.1417840" lon="2.6533046"><ele>105.52</ele><time>2026-4-28T20:7:19Z</time></trkpt>
<trkpt lat="49.1417183" lon="2.6533931"><ele>105.60</ele><time>2026-4-28T20:7:22Z</time></trkpt>
<trkpt lat="49.1416842" lon="2.6534529"><ele>104.91</ele><time>2026-4-28T20:7:25Z</time></trkpt>
<trkpt lat="49.1416519" lon="2.6535080"><ele>104.70</ele><time>2026-4-28T20:7:28Z</time></trkpt>
<trkpt lat="49.1416120" lon="2.6535682"><ele>103.94</ele><time>2026-4-28T20:7:31Z</time></trkpt>
<trkpt lat="49.1415747" lon="2.6536203"><ele>103.71</ele><time>2026-4-28T20:7:34Z</time></trkpt>
<trkpt lat="49.1415408" lon="2.6536766"><ele>103.64</ele><time>2026-4-28T20:7:37Z</time></trkpt>
<trkpt lat="49.1415054" lon="2.6537347"><ele>103.62</ele><time>2026-4-28T20:7:40Z</time></trkpt>
<trkpt lat="49.1414704" lon="2.6537929"><ele>104.31</ele><time>2026-4-28T20:7:43Z</time></trkpt>
<trkpt lat="49.1414292" lon="2.6538445"><ele>104.52</ele><time>2026-4-28T20:7:46Z</time></trkpt>
<trkpt lat="49.1413894" lon="2.6538992"><ele>104.58</ele><time>2026-4-28T20:7:49Z</time></trkpt>
<trkpt lat="49.1413502" lon="2.6539516"><ele>104.60</ele><time>2026-4-28T20:7:52Z</time></trkpt>
<trkpt lat="49.1413130" lon="2.6539969"><ele>104.61</ele><time>2026-4-28T20:7:55Z</time></trkpt>
<trkpt lat="49.1412732" lon="2.6540417"><ele>103.91</ele><time>2026-4-28T20:7:58Z</time></trkpt>
<trkpt lat="49.1412315" lon="2.6540985"><ele>104.40</ele><time>2026-4-28T20:8:1Z</time></trkpt>
<trkpt lat="49.1411897" lon="2.6541522"><ele>103.85</ele><time>2026-4-28T20:8:4Z</time></trkpt>
<trkpt lat="49.1411458" lon="2.6542035"><ele>103.68</ele><time>2026-4-28T20:8:7Z</time></trkpt>
<trkpt lat="49.1411046" lon="2.6542598"><ele>103.63</ele><time>2026-4-28T20:8:10Z</time></trkpt>
<trkpt lat="49.1410634" lon="2.6543169"><ele>102.92</ele><time>2026-4-28T20:8:13Z</time></trkpt>
<trkpt lat="49.1410216" lon="2.6543746"><ele>102.70</ele><time>2026-4-28T20:8:16Z</time></trkpt>
<trkpt lat="49.1409818" lon="2.6544324"><ele>101.94</ele><time>2026-4-28T20:8:19Z</time></trkpt>
<trkpt lat="49.1409416" lon="2.6544838"><ele>101.71</ele><time>2026-4-28T20:8:22Z</time></trkpt>
<trkpt lat="49.1408942" lon="2.6545338"><ele>101.64</ele><time>2026-4-28T20:8:25Z</time></trkpt>
<trkpt lat="49.1408494" lon="2.6545815"><ele>101.62</ele><time>2026-4-28T20:8:28Z</time></trkpt>
<trkpt lat="49.1408079" lon="2.6546373"><ele>101.61</ele><time>2026-4-28T20:8:31Z</time></trkpt>
<trkpt lat="49.1407688" lon="2.6546869"><ele>102.31</ele><time>2026-4-28T20:8:34Z</time></trkpt>
<trkpt lat="49.1407268" lon="2.6547435"><ele>101.82</ele><time>2026-4-28T20:8:37Z</time></trkpt>
<trkpt lat="49.1406898" lon="2.6547874"><ele>101.67</ele><time>2026-4-28T20:8:40Z</time></trkpt>
<trkpt lat="49.1406524" lon="2.6548376"><ele>100.93</ele><time>2026-4-28T20:8:43Z</time></trkpt>
<trkpt lat="49.1406167" lon="2.6548970"><ele>100.71</ele><time>2026-4-28T20:8:46Z</time></trkpt>
<trkpt lat="49.1405818" lon="2.6549546"><ele>100.64</ele><time>2026-4-28T20:8:49Z</time></trkpt>
<trkpt lat="49.1405484" lon="2.6550050"><ele>100.62</ele><time>2026-4-28T20:8:52Z</time></trkpt>
<trkpt lat="49.1405099" lon="2.6550572"><ele>100.61</ele><time>2026-4-28T20:8:55Z</time></trkpt>
<trkpt lat="49.1404705" lon="2.6551091"><ele>100.61</ele><time>2026-4-28T20:8:58Z</time></trkpt>
<trkpt lat="49.1404329" lon="2.6551610"><ele>99.91</ele><time>2026-4-28T20:9:1Z</time></trkpt>
<trkpt lat="49.1403960" lon="2.6552139"><ele>99.70</ele><time>2026-4-28T20:9:4Z</time></trkpt>
<trkpt lat="49.1403611" lon="2.6552614"><ele>99.64</ele><time>2026-4-28T20:9:7Z</time></trkpt>
<trkpt lat="49.1403251" lon="2.6553117"><ele>98.92</ele><time>2026-4-28T20:9:10Z</time></trkpt>
<trkpt lat="49.1402892" lon="2.6553575"><ele>98.70</ele><time>2026-4-28T20:9:13Z</time></trkpt>
<trkpt lat="49.1402536" lon="2.6554016"><ele>98.64</ele><time>2026-4-28T20:9:16Z</time></trkpt>
<trkpt lat="49.1401868" lon="2.6554940"><ele>99.31</ele><time>2026-4-28T20:9:19Z</time></trkpt>
<trkpt lat="49.1401534" lon="2.6555405"><ele>99.52</ele><time>2026-4-28T20:9:22Z</time></trkpt>
<trkpt lat="49.1401193" lon="2.6555924"><ele>99.58</ele><time>2026-4-28T20:9:25Z</time></trkpt>
<trkpt lat="49.1400832" lon="2.6556446"><ele>99.60</ele><time>2026-4-28T20:9:28Z</time></trkpt>
<trkpt lat="49.1400488" lon="2.6557001"><ele>98.91</ele><time>2026-4-28T20:9:31Z</time></trkpt>
<trkpt lat="49.1400158" lon="2.6557535"><ele>98.70</ele><time>2026-4-28T20:9:34Z</time></trkpt>
<trkpt lat="49.1399778" lon="2.6558041"><ele>98.64</ele><time>2026-4-28T20:9:37Z</time></trkpt>
<trkpt lat="49.1399414" lon="2.6558558"><ele>98.62</ele><time>2026-4-28T20:9:40Z</time></trkpt>
<trkpt lat="49.1399062" lon="2.6559102"><ele>98.61</ele><time>2026-4-28T20:9:43Z</time></trkpt>
<trkpt lat="49.1398713" lon="2.6559618"><ele>98.61</ele><time>2026-4-28T20:9:46Z</time></trkpt>
<trkpt lat="49.1398377" lon="2.6560129"><ele>98.61</ele><time>2026-4-28T20:9:49Z</time></trkpt>
<trkpt lat="49.1398083" lon="2.6560695"><ele>97.91</ele><time>2026-4-28T20:9:52Z</time></trkpt>
<trkpt lat="49.1397577" lon="2.6561821"><ele>97.64</ele><time>2026-4-28T20:9:55Z</time></trkpt>
<trkpt lat="49.1397113" lon="2.6562964"><ele>97.61</ele><time>2026-4-28T20:9:58Z</time></trkpt>
<trkpt lat="49.1396805" lon="2.6564135"><ele>98.31</ele><time>2026-4-28T20:10:1Z</time></trkpt>
<trkpt lat="49.1396558" lon="2.6565181"><ele>99.28</ele><time>2026-4-28T20:10:4Z</time></trkpt>
<trkpt lat="49.1396282" lon="2.6566342"><ele>99.58</ele><time>2026-4-28T20:10:7Z</time></trkpt>
<trkpt lat="49.1395995" lon="2.6567523"><ele>99.61</ele><time>2026-4-28T20:10:10Z</time></trkpt>
<trkpt lat="49.1395859" lon="2.6568200"><ele>99.61</ele><time>2026-4-28T20:10:13Z</time></trkpt>
<trkpt lat="49.1395690" lon="2.6568930"><ele>99.61</ele><time>2026-4-28T20:10:16Z</time></trkpt>
<trkpt lat="49.1395530" lon="2.6569654"><ele>99.61</ele><time>2026-4-28T20:10:19Z</time></trkpt>
<trkpt lat="49.1395370" lon="2.6570352"><ele>99.61</ele><time>2026-4-28T20:10:22Z</time></trkpt>
<trkpt lat="49.1395227" lon="2.6571081"><ele>98.91</ele><time>2026-4-28T20:10:25Z</time></trkpt>
<trkpt lat="49.1395089" lon="2.6571793"><ele>98.70</ele><time>2026-4-28T20:10:28Z</time></trkpt>
<trkpt lat="49.1394937" lon="2.6572530"><ele>98.64</ele><time>2026-4-28T20:10:31Z</time></trkpt>
<trkpt lat="49.1394779" lon="2.6573221"><ele>98.62</ele><time>2026-4-28T20:10:34Z</time></trkpt>
<trkpt lat="49.1394639" lon="2.6573900"><ele>98.61</ele><time>2026-4-28T20:10:37Z</time></trkpt>
<trkpt lat="49.1394488" lon="2.6574592"><ele>98.61</ele><time>2026-4-28T20:10:40Z</time></trkpt>
<trkpt lat="49.1394326" lon="2.6575319"><ele>98.61</ele><time>2026-4-28T20:10:43Z</time></trkpt>
<trkpt lat="49.1394155" lon="2.6576062"><ele>98.61</ele><time>2026-4-28T20:10:46Z</time></trkpt>
<trkpt lat="49.1393958" lon="2.6576805"><ele>98.61</ele><time>2026-4-28T20:10:49Z</time></trkpt>
<trkpt lat="49.1393795" lon="2.6577570"><ele>98.61</ele><time>2026-4-28T20:10:52Z</time></trkpt>
<trkpt lat="49.1393622" lon="2.6578323"><ele>98.61</ele><time>2026-4-28T20:10:55Z</time></trkpt>
<trkpt lat="49.1393491" lon="2.6579031"><ele>97.91</ele><time>2026-4-28T20:10:58Z</time></trkpt>
<trkpt lat="49.1393357" lon="2.6579705"><ele>97.70</ele><time>2026-4-28T20:11:1Z</time></trkpt>
<trkpt lat="49.1393191" lon="2.6580429"><ele>97.64</ele><time>2026-4-28T20:11:4Z</time></trkpt>
<trkpt lat="49.1392996" lon="2.6581734"><ele>98.52</ele><time>2026-4-28T20:11:7Z</time></trkpt>
<trkpt lat="49.1392877" lon="2.6583077"><ele>100.21</ele><time>2026-4-28T20:11:10Z</time></trkpt>
<trkpt lat="49.1392841" lon="2.6583816"><ele>100.49</ele><time>2026-4-28T20:11:13Z</time></trkpt>
<trkpt lat="49.1392668" lon="2.6585078"><ele>101.51</ele><time>2026-4-28T20:11:16Z</time></trkpt>
<trkpt lat="49.1392596" lon="2.6585795"><ele>101.58</ele><time>2026-4-28T20:11:19Z</time></trkpt>
<trkpt lat="49.1392492" lon="2.6586534"><ele>102.30</ele><time>2026-4-28T20:11:22Z</time></trkpt>
<trkpt lat="49.1392243" lon="2.6587808"><ele>102.58</ele><time>2026-4-28T20:11:25Z</time></trkpt>
<trkpt lat="49.1392103" lon="2.6588470"><ele>102.60</ele><time>2026-4-28T20:11:28Z</time></trkpt>
<trkpt lat="49.1392011" lon="2.6589187"><ele>102.61</ele><time>2026-4-28T20:11:31Z</time></trkpt>
<trkpt lat="49.1391917" lon="2.6589894"><ele>102.61</ele><time>2026-4-28T20:11:34Z</time></trkpt>
<trkpt lat="49.1391774" lon="2.6590569"><ele>102.61</ele><time>2026-4-28T20:11:37Z</time></trkpt>
<trkpt lat="49.1391669" lon="2.6591760"><ele>103.52</ele><time>2026-4-28T20:11:40Z</time></trkpt>
<trkpt lat="49.1391541" lon="2.6592957"><ele>104.51</ele><time>2026-4-28T20:11:43Z</time></trkpt>
<trkpt lat="49.1391375" lon="2.6593915"><ele>104.60</ele><time>2026-4-28T20:11:46Z</time></trkpt>
<trkpt lat="49.1391207" lon="2.6594848"><ele>104.82</ele><time>2026-4-28T20:11:49Z</time></trkpt>
<trkpt lat="49.1390960" lon="2.6595748"><ele>105.54</ele><time>2026-4-28T20:11:52Z</time></trkpt>
<trkpt lat="49.1390744" lon="2.6596737"><ele>105.60</ele><time>2026-4-28T20:11:55Z</time></trkpt>
<trkpt lat="49.1390546" lon="2.6597764"><ele>105.61</ele><time>2026-4-28T20:11:58Z</time></trkpt>
<trkpt lat="49.1390346" lon="2.6598913"><ele>105.61</ele><time>2026-4-28T20:12:1Z</time></trkpt>
<trkpt lat="49.1390148" lon="2.6599763"><ele>105.61</ele><time>2026-4-28T20:12:4Z</time></trkpt>
<trkpt lat="49.1389741" lon="2.6600107"><ele>106.52</ele><time>2026-4-28T20:12:7Z</time></trkpt>
<trkpt lat="49.1389291" lon="2.6600704"><ele>106.61</ele><time>2026-4-28T20:12:10Z</time></trkpt>
<trkpt lat="49.1388934" lon="2.6601185"><ele>107.31</ele><time>2026-4-28T20:12:13Z</time></trkpt>
<trkpt lat="49.1388524" lon="2.6601813"><ele>107.58</ele><time>2026-4-28T20:12:16Z</time></trkpt>
<trkpt lat="49.1387939" lon="2.6603018"><ele>107.60</ele><time>2026-4-28T20:12:19Z</time></trkpt>
<trkpt lat="49.1387545" lon="2.6603934"><ele>107.61</ele><time>2026-4-28T20:12:22Z</time></trkpt>
<trkpt lat="49.1387042" lon="2.6604715"><ele>108.52</ele><time>2026-4-28T20:12:25Z</time></trkpt>
<trkpt lat="49.1386637" lon="2.6605621"><ele>109.30</ele><time>2026-4-28T20:12:28Z</time></trkpt>
<trkpt lat="49.1386207" lon="2.6606668"><ele>109.58</ele><time>2026-4-28T20:12:31Z</time></trkpt>
<trkpt lat="49.1385786" lon="2.6607802"><ele>110.31</ele><time>2026-4-28T20:12:34Z</time></trkpt>
<trkpt lat="49.1385360" lon="2.6608706"><ele>110.58</ele><time>2026-4-28T20:12:37Z</time></trkpt>
<trkpt lat="49.1384842" lon="2.6609594"><ele>111.31</ele><time>2026-4-28T20:12:40Z</time></trkpt>
<trkpt lat="49.1384484" lon="2.6610067"><ele>111.52</ele><time>2026-4-28T20:12:43Z</time></trkpt>
<trkpt lat="49.1383901" lon="2.6611105"><ele>111.60</ele><time>2026-4-28T20:12:46Z</time></trkpt>
<trkpt lat="49.1383603" lon="2.6611642"><ele>112.31</ele><time>2026-4-28T20:12:49Z</time></trkpt>
<trkpt lat="49.1383033" lon="2.6612523"><ele>112.58</ele><time>2026-4-28T20:12:52Z</time></trkpt>
<trkpt lat="49.1382514" lon="2.6613464"><ele>113.31</ele><time>2026-4-28T20:12:55Z</time></trkpt>
<trkpt lat="49.1381914" lon="2.6614460"><ele>114.28</ele><time>2026-4-28T20:12:58Z</time></trkpt>
<trkpt lat="49.1381366" lon="2.6615378"><ele>115.49</ele><time>2026-4-28T20:13:1Z</time></trkpt>
<trkpt lat="49.1380828" lon="2.6616227"><ele>115.60</ele><time>2026-4-28T20:13:4Z</time></trkpt>
<trkpt lat="49.1380347" lon="2.6617117"><ele>115.61</ele><time>2026-4-28T20:13:7Z</time></trkpt>
<trkpt lat="49.1379850" lon="2.6618000"><ele>116.52</ele><time>2026-4-28T20:13:10Z</time></trkpt>
<trkpt lat="49.1379374" lon="2.6618901"><ele>116.60</ele><time>2026-4-28T20:13:13Z</time></trkpt>
<trkpt lat="49.1378814" lon="2.6619675"><ele>116.61</ele><time>2026-4-28T20:13:16Z</time></trkpt>
<trkpt lat="49.1378153" lon="2.6620427"><ele>116.61</ele><time>2026-4-28T20:13:19Z</time></trkpt>
<trkpt lat="49.1377597" lon="2.6621278"><ele>117.52</ele><time>2026-4-28T20:13:22Z</time></trkpt>
<trkpt lat="49.1377070" lon="2.6622121"><ele>118.51</ele><time>2026-4-28T20:13:25Z</time></trkpt>
<trkpt lat="49.1376443" lon="2.6622833"><ele>118.60</ele><time>2026-4-28T20:13:28Z</time></trkpt>
<trkpt lat="49.1375785" lon="2.6623389"><ele>117.70</ele><time>2026-4-28T20:13:31Z</time></trkpt>
<trkpt lat="49.1375103" lon="2.6623996"><ele>117.62</ele><time>2026-4-28T20:13:34Z</time></trkpt>
<trkpt lat="49.1374497" lon="2.6624725"><ele>117.61</ele><time>2026-4-28T20:13:37Z</time></trkpt>
<trkpt lat="49.1373868" lon="2.6625517"><ele>118.31</ele><time>2026-4-28T20:13:40Z</time></trkpt>
<trkpt lat="49.1373213" lon="2.6626410"><ele>117.88</ele><time>2026-4-28T20:13:43Z</time></trkpt>
<trkpt lat="49.1372492" lon="2.6627318"><ele>116.73</ele><time>2026-4-28T20:13:46Z</time></trkpt>
<trkpt lat="49.1371829" lon="2.6628112"><ele>117.32</ele><time>2026-4-28T20:13:49Z</time></trkpt>
<trkpt lat="49.1371324" lon="2.6627993"><ele>116.88</ele><time>2026-4-28T20:13:52Z</time></trkpt>
<trkpt lat="49.1370802" lon="2.6627786"><ele>115.73</ele><time>2026-4-28T20:13:55Z</time></trkpt>
<trkpt lat="49.1370394" lon="2.6628298"><ele>115.61</ele><time>2026-4-28T20:13:58Z</time></trkpt>
<trkpt lat="49.1370052" lon="2.6628803"><ele>116.52</ele><time>2026-4-28T20:14:1Z</time></trkpt>
<trkpt lat="49.1369675" lon="2.6629500"><ele>116.60</ele><time>2026-4-28T20:14:4Z</time></trkpt>
<trkpt lat="49.1369234" lon="2.6630476"><ele>115.91</ele><time>2026-4-28T20:14:7Z</time></trkpt>
<trkpt lat="49.1368737" lon="2.6631519"><ele>114.94</ele><time>2026-4-28T20:14:10Z</time></trkpt>
<trkpt lat="49.1368294" lon="2.6631997"><ele>115.41</ele><time>2026-4-28T20:14:13Z</time></trkpt>
<trkpt lat="49.1367871" lon="2.6632337"><ele>114.85</ele><time>2026-4-28T20:14:16Z</time></trkpt>
<trkpt lat="49.1367465" lon="2.6632742"><ele>114.68</ele><time>2026-4-28T20:14:19Z</time></trkpt>
<trkpt lat="49.1366889" lon="2.6633414"><ele>113.93</ele><time>2026-4-28T20:14:22Z</time></trkpt>
<trkpt lat="49.1366453" lon="2.6633949"><ele>113.71</ele><time>2026-4-28T20:14:25Z</time></trkpt>
<trkpt lat="49.1365983" lon="2.6634420"><ele>114.34</ele><time>2026-4-28T20:14:28Z</time></trkpt>
<trkpt lat="49.1365497" lon="2.6634849"><ele>114.53</ele><time>2026-4-28T20:14:31Z</time></trkpt>
<trkpt lat="49.1364982" lon="2.6635274"><ele>115.29</ele><time>2026-4-28T20:14:34Z</time></trkpt>
<trkpt lat="49.1364416" lon="2.6635575"><ele>115.51</ele><time>2026-4-28T20:14:37Z</time></trkpt>
<trkpt lat="49.1363827" lon="2.6635971"><ele>115.58</ele><time>2026-4-28T20:14:40Z</time></trkpt>
<trkpt lat="49.1363291" lon="2.6636356"><ele>115.60</ele><time>2026-4-28T20:14:43Z</time></trkpt>
<trkpt lat="49.1362777" lon="2.6636708"><ele>115.61</ele><time>2026-4-28T20:14:46Z</time></trkpt>
<trkpt lat="49.1362252" lon="2.6637106"><ele>115.61</ele><time>2026-4-28T20:14:49Z</time></trkpt>
<trkpt lat="49.1361728" lon="2.6637506"><ele>115.61</ele><time>2026-4-28T20:14:52Z</time></trkpt>
<trkpt lat="49.1361248" lon="2.6637956"><ele>115.61</ele><time>2026-4-28T20:14:55Z</time></trkpt>
<trkpt lat="49.1360839" lon="2.6638418"><ele>115.61</ele><time>2026-4-28T20:14:58Z</time></trkpt>
<trkpt lat="49.1360360" lon="2.6638839"><ele>115.61</ele><time>2026-4-28T20:15:1Z</time></trkpt>
<trkpt lat="49.1359853" lon="2.6639303"><ele>115.61</ele><time>2026-4-28T20:15:4Z</time></trkpt>
<trkpt lat="49.1359201" lon="2.6639954"><ele>115.61</ele><time>2026-4-28T20:15:7Z</time></trkpt>
<trkpt lat="49.1358771" lon="2.6640301"><ele>115.61</ele><time>2026-4-28T20:15:10Z</time></trkpt>
<trkpt lat="49.1358114" lon="2.6640309"><ele>115.61</ele><time>2026-4-28T20:15:13Z</time></trkpt>
<trkpt lat="49.1357588" lon="2.6640236"><ele>115.61</ele><time>2026-4-28T20:15:16Z</time></trkpt>
<trkpt lat="49.1357013" lon="2.6640241"><ele>115.61</ele><time>2026-4-28T20:15:19Z</time></trkpt>
<trkpt lat="49.1356457" lon="2.6640288"><ele>115.61</ele><time>2026-4-28T20:15:22Z</time></trkpt>
<trkpt lat="49.1355837" lon="2.6640318"><ele>116.52</ele><time>2026-4-28T20:15:25Z</time></trkpt>
<trkpt lat="49.1355091" lon="2.6640251"><ele>115.90</ele><time>2026-4-28T20:15:28Z</time></trkpt>
<trkpt lat="49.1354468" lon="2.6640450"><ele>116.55</ele><time>2026-4-28T20:15:31Z</time></trkpt>
<trkpt lat="49.1353849" lon="2.6640519"><ele>116.61</ele><time>2026-4-28T20:15:34Z</time></trkpt>
<trkpt lat="49.1352957" lon="2.6640640"><ele>115.91</ele><time>2026-4-28T20:15:37Z</time></trkpt>
<trkpt lat="49.1352134" lon="2.6640439"><ele>115.64</ele><time>2026-4-28T20:15:40Z</time></trkpt>
<trkpt lat="49.1351679" lon="2.6640373"><ele>115.62</ele><time>2026-4-28T20:15:43Z</time></trkpt>
<trkpt lat="49.1350818" lon="2.6640185"><ele>114.70</ele><time>2026-4-28T20:15:46Z</time></trkpt>
<trkpt lat="49.1350020" lon="2.6640167"><ele>114.62</ele><time>2026-4-28T20:15:49Z</time></trkpt>
<trkpt lat="49.1349227" lon="2.6640144"><ele>114.61</ele><time>2026-4-28T20:15:52Z</time></trkpt>
<trkpt lat="49.1348742" lon="2.6640169"><ele>113.91</ele><time>2026-4-28T20:15:55Z</time></trkpt>
<trkpt lat="49.1348056" lon="2.6640318"><ele>112.94</ele><time>2026-4-28T20:15:58Z</time></trkpt>
<trkpt lat="49.1347319" lon="2.6640313"><ele>112.64</ele><time>2026-4-28T20:16:1Z</time></trkpt>
<trkpt lat="49.1346548" lon="2.6640386"><ele>112.61</ele><time>2026-4-28T20:16:4Z</time></trkpt>
<trkpt lat="49.1345798" lon="2.6640370"><ele>113.31</ele><time>2026-4-28T20:16:7Z</time></trkpt>
<trkpt lat="49.1344971" lon="2.6640369"><ele>112.67</ele><time>2026-4-28T20:16:10Z</time></trkpt>
<trkpt lat="49.1344260" lon="2.6640348"><ele>112.62</ele><time>2026-4-28T20:16:13Z</time></trkpt>
<trkpt lat="49.1343590" lon="2.6640443"><ele>112.61</ele><time>2026-4-28T20:16:16Z</time></trkpt>
<trkpt lat="49.1343178" lon="2.6641116"><ele>112.61</ele><time>2026-4-28T20:16:19Z</time></trkpt>
<trkpt lat="49.1342790" lon="2.6642265"><ele>111.70</ele><time>2026-4-28T20:16:22Z</time></trkpt>
<trkpt lat="49.1342612" lon="2.6642969"><ele>112.34</ele><time>2026-4-28T20:16:25Z</time></trkpt>
<trkpt lat="49.1342460" lon="2.6643913"><ele>112.53</ele><time>2026-4-28T20:16:28Z</time></trkpt>
<trkpt lat="49.1342364" lon="2.6644814"><ele>111.89</ele><time>2026-4-28T20:16:31Z</time></trkpt>
<trkpt lat="49.1342229" lon="2.6645770"><ele>111.69</ele><time>2026-4-28T20:16:34Z</time></trkpt>
<trkpt lat="49.1342101" lon="2.6646690"><ele>111.64</ele><time>2026-4-28T20:16:37Z</time></trkpt>
<trkpt lat="49.1341942" lon="2.6647720"><ele>111.62</ele><time>2026-4-28T20:16:40Z</time></trkpt>
<trkpt lat="49.1341837" lon="2.6648557"><ele>111.61</ele><time>2026-4-28T20:16:43Z</time></trkpt>
<trkpt lat="49.1341650" lon="2.6649444"><ele>110.91</ele><time>2026-4-28T20:16:46Z</time></trkpt>
<trkpt lat="49.1341548" lon="2.6650270"><ele>111.40</ele><time>2026-4-28T20:16:49Z</time></trkpt>
<trkpt lat="49.1341353" lon="2.6651212"><ele>110.85</ele><time>2026-4-28T20:16:52Z</time></trkpt>
<trkpt lat="49.1341118" lon="2.6652188"><ele>110.68</ele><time>2026-4-28T20:16:55Z</time></trkpt>
<trkpt lat="49.1340989" lon="2.6653126"><ele>110.63</ele><time>2026-4-28T20:16:58Z</time></trkpt>
<trkpt lat="49.1340841" lon="2.6654045"><ele>110.62</ele><time>2026-4-28T20:17:1Z</time></trkpt>
<trkpt lat="49.1340599" lon="2.6654926"><ele>110.61</ele><time>2026-4-28T20:17:4Z</time></trkpt>
<trkpt lat="49.1340360" lon="2.6655829"><ele>110.61</ele><time>2026-4-28T20:17:7Z</time></trkpt>
<trkpt lat="49.1340116" lon="2.6656807"><ele>110.61</ele><time>2026-4-28T20:17:10Z</time></trkpt>
<trkpt lat="49.1339877" lon="2.6657750"><ele>110.61</ele><time>2026-4-28T20:17:13Z</time></trkpt>
<trkpt lat="49.1339632" lon="2.6658651"><ele>110.61</ele><time>2026-4-28T20:17:16Z</time></trkpt>
<trkpt lat="49.1339389" lon="2.6659551"><ele>109.91</ele><time>2026-4-28T20:17:19Z</time></trkpt>
<trkpt lat="49.1339090" lon="2.6660368"><ele>110.40</ele><time>2026-4-28T20:17:22Z</time></trkpt>
<trkpt lat="49.1338847" lon="2.6661185"><ele>110.55</ele><time>2026-4-28T20:17:25Z</time></trkpt>
<trkpt lat="49.1338559" lon="2.6662093"><ele>110.59</ele><time>2026-4-28T20:17:28Z</time></trkpt>
<trkpt lat="49.1338284" lon="2.6662996"><ele>109.91</ele><time>2026-4-28T20:17:31Z</time></trkpt>
<trkpt lat="49.1337955" lon="2.6663876"><ele>110.40</ele><time>2026-4-28T20:17:34Z</time></trkpt>
<trkpt lat="49.1337584" lon="2.6664632"><ele>110.55</ele><time>2026-4-28T20:17:37Z</time></trkpt>
<trkpt lat="49.1337210" lon="2.6665399"><ele>110.59</ele><time>2026-4-28T20:17:40Z</time></trkpt>
<trkpt lat="49.1336829" lon="2.6666186"><ele>109.91</ele><time>2026-4-28T20:17:43Z</time></trkpt>
<trkpt lat="49.1336457" lon="2.6666937"><ele>110.40</ele><time>2026-4-28T20:17:46Z</time></trkpt>
<trkpt lat="49.1336070" lon="2.6667763"><ele>110.55</ele><time>2026-4-28T20:17:49Z</time></trkpt>
<trkpt lat="49.1335651" lon="2.6668554"><ele>109.89</ele><time>2026-4-28T20:17:52Z</time></trkpt>
<trkpt lat="49.1335109" lon="2.6669306"><ele>109.70</ele><time>2026-4-28T20:17:55Z</time></trkpt>
<trkpt lat="49.1334609" lon="2.6670106"><ele>109.64</ele><time>2026-4-28T20:17:58Z</time></trkpt>
<trkpt lat="49.1334160" lon="2.6670902"><ele>109.62</ele><time>2026-4-28T20:18:1Z</time></trkpt>
<trkpt lat="49.1333820" lon="2.6671687"><ele>109.61</ele><time>2026-4-28T20:18:4Z</time></trkpt>
<trkpt lat="49.1333455" lon="2.6672530"><ele>109.61</ele><time>2026-4-28T20:18:7Z</time></trkpt>
<trkpt lat="49.1333057" lon="2.6673359"><ele>110.31</ele><time>2026-4-28T20:18:10Z</time></trkpt>
<trkpt lat="49.1332708" lon="2.6674176"><ele>110.52</ele><time>2026-4-28T20:18:13Z</time></trkpt>
<trkpt lat="49.1332412" lon="2.6674878"><ele>110.58</ele><time>2026-4-28T20:18:16Z</time></trkpt>
<trkpt lat="49.1332057" lon="2.6675601"><ele>109.90</ele><time>2026-4-28T20:18:19Z</time></trkpt>
<trkpt lat="49.1331786" lon="2.6676333"><ele>110.40</ele><time>2026-4-28T20:18:22Z</time></trkpt>
<trkpt lat="49.1331439" lon="2.6677054"><ele>109.85</ele><time>2026-4-28T20:18:25Z</time></trkpt>
<trkpt lat="49.1331091" lon="2.6677772"><ele>109.68</ele><time>2026-4-28T20:18:28Z</time></trkpt>
<trkpt lat="49.1330760" lon="2.6678561"><ele>110.33</ele><time>2026-4-28T20:18:31Z</time></trkpt>
<trkpt lat="49.1330436" lon="2.6679233"><ele>109.83</ele><time>2026-4-28T20:18:34Z</time></trkpt>
<trkpt lat="49.1330018" lon="2.6680050"><ele>109.68</ele><time>2026-4-28T20:18:37Z</time></trkpt>
<trkpt lat="49.1329700" lon="2.6680773"><ele>110.33</ele><time>2026-4-28T20:18:40Z</time></trkpt>
<trkpt lat="49.1329414" lon="2.6681543"><ele>110.53</ele><time>2026-4-28T20:18:43Z</time></trkpt>
<trkpt lat="49.1329123" lon="2.6682323"><ele>110.59</ele><time>2026-4-28T20:18:46Z</time></trkpt>
<trkpt lat="49.1328855" lon="2.6683120"><ele>110.60</ele><time>2026-4-28T20:18:49Z</time></trkpt>
<trkpt lat="49.1328505" lon="2.6683980"><ele>111.31</ele><time>2026-4-28T20:18:52Z</time></trkpt>
<trkpt lat="49.1328163" lon="2.6684738"><ele>111.52</ele><time>2026-4-28T20:18:55Z</time></trkpt>
<trkpt lat="49.1327824" lon="2.6685546"><ele>110.88</ele><time>2026-4-28T20:18:58Z</time></trkpt>
<trkpt lat="49.1327438" lon="2.6686308"><ele>110.69</ele><time>2026-4-28T20:19:1Z</time></trkpt>
<trkpt lat="49.1327118" lon="2.6687071"><ele>109.94</ele><time>2026-4-28T20:19:4Z</time></trkpt>
<trkpt lat="49.1326779" lon="2.6687902"><ele>109.71</ele><time>2026-4-28T20:19:7Z</time></trkpt>
<trkpt lat="49.1326415" lon="2.6688706"><ele>109.64</ele><time>2026-4-28T20:19:10Z</time></trkpt>
<trkpt lat="49.1326048" lon="2.6689601"><ele>109.62</ele><time>2026-4-28T20:19:13Z</time></trkpt>
<trkpt lat="49.1325751" lon="2.6690437"><ele>108.91</ele><time>2026-4-28T20:19:16Z</time></trkpt>
<trkpt lat="49.1325460" lon="2.6691314"><ele>108.70</ele><time>2026-4-28T20:19:19Z</time></trkpt>
<trkpt lat="49.1325102" lon="2.6692408"><ele>108.64</ele><time>2026-4-28T20:19:22Z</time></trkpt>
<trkpt lat="49.1324781" lon="2.6693598"><ele>108.62</ele><time>2026-4-28T20:19:25Z</time></trkpt>
<trkpt lat="49.1324462" lon="2.6694833"><ele>108.61</ele><time>2026-4-28T20:19:28Z</time></trkpt>
<trkpt lat="49.1324198" lon="2.6696019"><ele>107.91</ele><time>2026-4-28T20:19:31Z</time></trkpt>
<trkpt lat="49.1323900" lon="2.6697070"><ele>107.70</ele><time>2026-4-28T20:19:34Z</time></trkpt>
<trkpt lat="49.1323327" lon="2.6698336"><ele>109.04</ele><time>2026-4-28T20:19:37Z</time></trkpt>
<trkpt lat="49.1323094" lon="2.6699151"><ele>109.56</ele><time>2026-4-28T20:19:40Z</time></trkpt>
<trkpt lat="49.1323066" lon="2.6699947"><ele>108.91</ele><time>2026-4-28T20:19:43Z</time></trkpt>
<trkpt lat="49.1322830" lon="2.6700594"><ele>108.61</ele><time>2026-4-28T20:19:46Z</time></trkpt>
<trkpt lat="49.1322408" lon="2.6701260"><ele>108.61</ele><time>2026-4-28T20:19:49Z</time></trkpt>
<trkpt lat="49.1322000" lon="2.6702202"><ele>108.61</ele><time>2026-4-28T20:19:52Z</time></trkpt>
<trkpt lat="49.1321424" lon="2.6703186"><ele>108.61</ele><time>2026-4-28T20:19:55Z</time></trkpt>
<trkpt lat="49.1321065" lon="2.6703786"><ele>107.91</ele><time>2026-4-28T20:19:58Z</time></trkpt>
<trkpt lat="49.1320392" lon="2.6704755"><ele>107.70</ele><time>2026-4-28T20:20:1Z</time></trkpt>
<trkpt lat="49.1319700" lon="2.6705512"><ele>106.24</ele><time>2026-4-28T20:20:4Z</time></trkpt>
<trkpt lat="49.1318940" lon="2.6706103"><ele>105.10</ele><time>2026-4-28T20:20:7Z</time></trkpt>
<trkpt lat="49.1318139" lon="2.6706686"><ele>104.76</ele><time>2026-4-28T20:20:10Z</time></trkpt>
<trkpt lat="49.1317433" lon="2.6707771"><ele>104.65</ele><time>2026-4-28T20:20:13Z</time></trkpt>
<trkpt lat="49.1316830" lon="2.6709081"><ele>104.62</ele><time>2026-4-28T20:20:16Z</time></trkpt>
<trkpt lat="49.1316368" lon="2.6710213"><ele>103.91</ele><time>2026-4-28T20:20:19Z</time></trkpt>
<trkpt lat="49.1315900" lon="2.6711235"><ele>103.70</ele><time>2026-4-28T20:20:22Z</time></trkpt>
<trkpt lat="49.1315437" lon="2.6712281"><ele>103.64</ele><time>2026-4-28T20:20:25Z</time></trkpt>
<trkpt lat="49.1314980" lon="2.6713307"><ele>102.92</ele><time>2026-4-28T20:20:28Z</time></trkpt>
<trkpt lat="49.1314590" lon="2.6714384"><ele>102.70</ele><time>2026-4-28T20:20:31Z</time></trkpt>
<trkpt lat="49.1314225" lon="2.6715478"><ele>102.64</ele><time>2026-4-28T20:20:34Z</time></trkpt>
<trkpt lat="49.1313936" lon="2.6716533"><ele>101.92</ele><time>2026-4-28T20:20:37Z</time></trkpt>
<trkpt lat="49.1313692" lon="2.6717580"><ele>101.70</ele><time>2026-4-28T20:20:40Z</time></trkpt>
<trkpt lat="49.1313529" lon="2.6718580"><ele>101.64</ele><time>2026-4-28T20:20:43Z</time></trkpt>
<trkpt lat="49.1313319" lon="2.6719548"><ele>101.62</ele><time>2026-4-28T20:20:46Z</time></trkpt>
<trkpt lat="49.1313126" lon="2.6720522"><ele>101.61</ele><time>2026-4-28T20:20:49Z</time></trkpt>
<trkpt lat="49.1312920" lon="2.6721513"><ele>100.91</ele><time>2026-4-28T20:20:52Z</time></trkpt>
<trkpt lat="49.1312651" lon="2.6722477"><ele>100.70</ele><time>2026-4-28T20:20:55Z</time></trkpt>
<trkpt lat="49.1312340" lon="2.6723451"><ele>100.64</ele><time>2026-4-28T20:20:58Z</time></trkpt>
<trkpt lat="49.1312088" lon="2.6724361"><ele>100.62</ele><time>2026-4-28T20:21:1Z</time></trkpt>
<trkpt lat="49.1311934" lon="2.6725318"><ele>100.61</ele><time>2026-4-28T20:21:4Z</time></trkpt>
<trkpt lat="49.1311692" lon="2.6726220"><ele>99.91</ele><time>2026-4-28T20:21:7Z</time></trkpt>
<trkpt lat="49.1311479" lon="2.6727211"><ele>99.70</ele><time>2026-4-28T20:21:10Z</time></trkpt>
<trkpt lat="49.1311226" lon="2.6728190"><ele>99.64</ele><time>2026-4-28T20:21:13Z</time></trkpt>
<trkpt lat="49.1311037" lon="2.6729133"><ele>98.92</ele><time>2026-4-28T20:21:16Z</time></trkpt>
<trkpt lat="49.1310847" lon="2.6730068"><ele>98.00</ele><time>2026-4-28T20:21:19Z</time></trkpt>
<trkpt lat="49.1310613" lon="2.6731003"><ele>97.03</ele><time>2026-4-28T20:21:22Z</time></trkpt>
<trkpt lat="49.1310441" lon="2.6731975"><ele>96.74</ele><time>2026-4-28T20:21:25Z</time></trkpt>
<trkpt lat="49.1310190" lon="2.6732871"><ele>95.95</ele><time>2026-4-28T20:21:28Z</time></trkpt>
<trkpt lat="49.1310030" lon="2.6733769"><ele>95.71</ele><time>2026-4-28T20:21:31Z</time></trkpt>
<trkpt lat="49.1309848" lon="2.6734674"><ele>95.64</ele><time>2026-4-28T20:21:34Z</time></trkpt>
<trkpt lat="49.1309670" lon="2.6735618"><ele>94.92</ele><time>2026-4-28T20:21:37Z</time></trkpt>
<trkpt lat="49.1309473" lon="2.6736455"><ele>95.40</ele><time>2026-4-28T20:21:40Z</time></trkpt>
<trkpt lat="49.1309285" lon="2.6737342"><ele>95.55</ele><time>2026-4-28T20:21:43Z</time></trkpt>
<trkpt lat="49.1309130" lon="2.6738287"><ele>94.89</ele><time>2026-4-28T20:21:46Z</time></trkpt>
<trkpt lat="49.1308932" lon="2.6739236"><ele>94.00</ele><time>2026-4-28T20:21:49Z</time></trkpt>
<trkpt lat="49.1308722" lon="2.6740039"><ele>93.73</ele><time>2026-4-28T20:21:52Z</time></trkpt>
<trkpt lat="49.1308619" lon="2.6740875"><ele>93.65</ele><time>2026-4-28T20:21:55Z</time></trkpt>
<trkpt lat="49.1308468" lon="2.6742032"><ele>93.61</ele><time>2026-4-28T20:21:58Z</time></trkpt>
<trkpt lat="49.1308234" lon="2.6742699"><ele>91.62</ele><time>2026-4-28T20:22:1Z</time></trkpt>
<trkpt lat="49.1308432" lon="2.6743421"><ele>90.61</ele><time>2026-4-28T20:22:4Z</time></trkpt>
<trkpt lat="49.1308515" lon="2.6744195"><ele>90.61</ele><time>2026-4-28T20:22:7Z</time></trkpt>
<trkpt lat="49.1308248" lon="2.6745153"><ele>90.61</ele><time>2026-4-28T20:22:10Z</time></trkpt>
<trkpt lat="49.1308089" lon="2.6745966"><ele>90.61</ele><time>2026-4-28T20:22:13Z</time></trkpt>
<trkpt lat="49.1307922" lon="2.6746986"><ele>90.61</ele><time>2026-4-28T20:22:16Z</time></trkpt>
<trkpt lat="49.1307904" lon="2.6747838"><ele>90.61</ele><time>2026-4-28T20:22:19Z</time></trkpt>
<trkpt lat="49.1307799" lon="2.6748560"><ele>90.61</ele><time>2026-4-28T20:22:22Z</time></trkpt>
<trkpt lat="49.1307613" lon="2.6749452"><ele>90.61</ele><time>2026-4-28T20:22:25Z</time></trkpt>
<trkpt lat="49.1307476" lon="2.6750401"><ele>90.61</ele><time>2026-4-28T20:22:28Z</time></trkpt>
<trkpt lat="49.1307344" lon="2.6751374"><ele>90.61</ele><time>2026-4-28T20:22:31Z</time></trkpt>
<trkpt lat="49.1307254" lon="2.6752351"><ele>90.61</ele><time>2026-4-28T20:22:34Z</time></trkpt>
<trkpt lat="49.1307086" lon="2.6753375"><ele>90.61</ele><time>2026-4-28T20:22:37Z</time></trkpt>
<trkpt lat="49.1306873" lon="2.6754390"><ele>91.31</ele><time>2026-4-28T20:22:40Z</time></trkpt>
<trkpt lat="49.1306679" lon="2.6755421"><ele>90.82</ele><time>2026-4-28T20:22:43Z</time></trkpt>
<trkpt lat="49.1306430" lon="2.6756521"><ele>90.67</ele><time>2026-4-28T20:22:46Z</time></trkpt>
<trkpt lat="49.1306209" lon="2.6757581"><ele>89.93</ele><time>2026-4-28T20:22:49Z</time></trkpt>
<trkpt lat="49.1306026" lon="2.6758638"><ele>89.71</ele><time>2026-4-28T20:22:52Z</time></trkpt>
<trkpt lat="49.1305842" lon="2.6759715"><ele>88.94</ele><time>2026-4-28T20:22:55Z</time></trkpt>
<trkpt lat="49.1305601" lon="2.6760809"><ele>88.71</ele><time>2026-4-28T20:22:58Z</time></trkpt>
<trkpt lat="49.1305338" lon="2.6761965"><ele>89.34</ele><time>2026-4-28T20:23:1Z</time></trkpt>
<trkpt lat="49.1305080" lon="2.6763081"><ele>89.53</ele><time>2026-4-28T20:23:4Z</time></trkpt>
<trkpt lat="49.1304867" lon="2.6764163"><ele>88.89</ele><time>2026-4-28T20:23:7Z</time></trkpt>
<trkpt lat="49.1304621" lon="2.6765048"><ele>87.99</ele><time>2026-4-28T20:23:10Z</time></trkpt>
<trkpt lat="49.1304441" lon="2.6765783"><ele>87.73</ele><time>2026-4-28T20:23:13Z</time></trkpt>
<trkpt lat="49.1304157" lon="2.6766589"><ele>87.62</ele><time>2026-4-28T20:23:16Z</time></trkpt>
<trkpt lat="49.1303826" lon="2.6767288"><ele>87.61</ele><time>2026-4-28T20:23:19Z</time></trkpt>
<trkpt lat="49.1303617" lon="2.6768318"><ele>86.91</ele><time>2026-4-28T20:23:22Z</time></trkpt>
<trkpt lat="49.1303433" lon="2.6769088"><ele>86.70</ele><time>2026-4-28T20:23:25Z</time></trkpt>
<trkpt lat="49.1303277" lon="2.6769855"><ele>85.94</ele><time>2026-4-28T20:23:28Z</time></trkpt>
<trkpt lat="49.1303058" lon="2.6770744"><ele>85.71</ele><time>2026-4-28T20:23:31Z</time></trkpt>
<trkpt lat="49.1302822" lon="2.6771733"><ele>84.94</ele><time>2026-4-28T20:23:34Z</time></trkpt>
<trkpt lat="49.1302592" lon="2.6772684"><ele>84.71</ele><time>2026-4-28T20:23:37Z</time></trkpt>
<trkpt lat="49.1302291" lon="2.6773655"><ele>84.64</ele><time>2026-4-28T20:23:40Z</time></trkpt>
<trkpt lat="49.1302036" lon="2.6774618"><ele>83.92</ele><time>2026-4-28T20:23:43Z</time></trkpt>
<trkpt lat="49.1301846" lon="2.6775626"><ele>83.00</ele><time>2026-4-28T20:23:46Z</time></trkpt>
<trkpt lat="49.1301588" lon="2.6776569"><ele>82.73</ele><time>2026-4-28T20:23:49Z</time></trkpt>
<trkpt lat="49.1301369" lon="2.6777536"><ele>81.95</ele><time>2026-4-28T20:23:52Z</time></trkpt>
<trkpt lat="49.1301155" lon="2.6778570"><ele>81.71</ele><time>2026-4-28T20:23:55Z</time></trkpt>
<trkpt lat="49.1300988" lon="2.6779575"><ele>80.94</ele><time>2026-4-28T20:23:58Z</time></trkpt>
<trkpt lat="49.1300795" lon="2.6780559"><ele>80.71</ele><time>2026-4-28T20:24:1Z</time></trkpt>
<trkpt lat="49.1300582" lon="2.6781614"><ele>80.64</ele><time>2026-4-28T20:24:4Z</time></trkpt>
<trkpt lat="49.1300417" lon="2.6782585"><ele>79.92</ele><time>2026-4-28T20:24:7Z</time></trkpt>
<trkpt lat="49.1300230" lon="2.6783626"><ele>79.70</ele><time>2026-4-28T20:24:10Z</time></trkpt>
<trkpt lat="49.1300086" lon="2.6784634"><ele>79.64</ele><time>2026-4-28T20:24:13Z</time></trkpt>
<trkpt lat="49.1299990" lon="2.6785638"><ele>79.62</ele><time>2026-4-28T20:24:16Z</time></trkpt>
<trkpt lat="49.1299983" lon="2.6786615"><ele>79.61</ele><time>2026-4-28T20:24:19Z</time></trkpt>
<trkpt lat="49.1299906" lon="2.6787564"><ele>79.61</ele><time>2026-4-28T20:24:22Z</time></trkpt>
<trkpt lat="49.1299750" lon="2.6788426"><ele>79.61</ele><time>2026-4-28T20:24:25Z</time></trkpt>
<trkpt lat="49.1299581" lon="2.6789292"><ele>79.61</ele><time>2026-4-28T20:24:28Z</time></trkpt>
<trkpt lat="49.1299351" lon="2.6790237"><ele>79.61</ele><time>2026-4-28T20:24:31Z</time></trkpt>
<trkpt lat="49.1299185" lon="2.6791111"><ele>79.61</ele><time>2026-4-28T20:24:34Z</time></trkpt>
<trkpt lat="49.1299007" lon="2.6791993"><ele>78.91</ele><time>2026-4-28T20:24:37Z</time></trkpt>
<trkpt lat="49.1298809" lon="2.6792878"><ele>78.70</ele><time>2026-4-28T20:24:40Z</time></trkpt>
<trkpt lat="49.1298602" lon="2.6793732"><ele>78.64</ele><time>2026-4-28T20:24:43Z</time></trkpt>
<trkpt lat="49.1298380" lon="2.6794517"><ele>78.62</ele><time>2026-4-28T20:24:46Z</time></trkpt>
<trkpt lat="49.1298165" lon="2.6795318"><ele>78.61</ele><time>2026-4-28T20:24:49Z</time></trkpt>
<trkpt lat="49.1297917" lon="2.6796114"><ele>78.61</ele><time>2026-4-28T20:24:52Z</time></trkpt>
<trkpt lat="49.1297670" lon="2.6796961"><ele>79.31</ele><time>2026-4-28T20:24:55Z</time></trkpt>
<trkpt lat="49.1297431" lon="2.6797798"><ele>79.52</ele><time>2026-4-28T20:24:58Z</time></trkpt>
<trkpt lat="49.1297212" lon="2.6798534"><ele>78.88</ele><time>2026-4-28T20:25:1Z</time></trkpt>
<trkpt lat="49.1296936" lon="2.6799410"><ele>79.55</ele><time>2026-4-28T20:25:4Z</time></trkpt>
<trkpt lat="49.1296601" lon="2.6798865"><ele>80.31</ele><time>2026-4-28T20:25:7Z</time></trkpt>
<trkpt lat="49.1296515" lon="2.6798185"><ele>80.61</ele><time>2026-4-28T20:25:10Z</time></trkpt>
<trkpt lat="49.1296410" lon="2.6797297"><ele>81.58</ele><time>2026-4-28T20:25:13Z</time></trkpt>
<trkpt lat="49.1296098" lon="2.6796737"><ele>82.58</ele><time>2026-4-28T20:25:16Z</time></trkpt>
<trkpt lat="49.1295993" lon="2.6797431"><ele>85.31</ele><time>2026-4-28T20:25:19Z</time></trkpt>
<trkpt lat="49.1295981" lon="2.6798169"><ele>86.30</ele><time>2026-4-28T20:25:22Z</time></trkpt>
<trkpt lat="49.1296075" lon="2.6798854"><ele>86.58</ele><time>2026-4-28T20:25:25Z</time></trkpt>
<trkpt lat="49.1296151" lon="2.6799809"><ele>85.70</ele><time>2026-4-28T20:25:28Z</time></trkpt>
<trkpt lat="49.1296111" lon="2.6800994"><ele>85.62</ele><time>2026-4-28T20:25:31Z</time></trkpt>
<trkpt lat="49.1295712" lon="2.6801786"><ele>85.61</ele><time>2026-4-28T20:25:34Z</time></trkpt>
<trkpt lat="49.1295307" lon="2.6802502"><ele>86.31</ele><time>2026-4-28T20:25:37Z</time></trkpt>
<trkpt lat="49.1294738" lon="2.6803234"><ele>86.58</ele><time>2026-4-28T20:25:40Z</time></trkpt>
<trkpt lat="49.1294129" lon="2.6803730"><ele>86.61</ele><time>2026-4-28T20:25:43Z</time></trkpt>
<trkpt lat="49.1293386" lon="2.6804147"><ele>86.61</ele><time>2026-4-28T20:25:46Z</time></trkpt>
<trkpt lat="49.1292527" lon="2.6804352"><ele>86.61</ele><time>2026-4-28T20:25:49Z</time></trkpt>
<trkpt lat="49.1292075" lon="2.6804696"><ele>86.61</ele><time>2026-4-28T20:25:52Z</time></trkpt>
<trkpt lat="49.1291446" lon="2.6804829"><ele>86.61</ele><time>2026-4-28T20:25:55Z</time></trkpt>
<trkpt lat="49.1290767" lon="2.6804796"><ele>86.61</ele><time>2026-4-28T20:25:58Z</time></trkpt>
<trkpt lat="49.1289975" lon="2.6805016"><ele>86.61</ele><time>2026-4-28T20:26:1Z</time></trkpt>
<trkpt lat="49.1289325" lon="2.6804981"><ele>87.31</ele><time>2026-4-28T20:26:4Z</time></trkpt>
<trkpt lat="49.1288692" lon="2.6805097"><ele>87.58</ele><time>2026-4-28T20:26:7Z</time></trkpt>
<trkpt lat="49.1287998" lon="2.6805340"><ele>88.52</ele><time>2026-4-28T20:26:10Z</time></trkpt>
<trkpt lat="49.1287258" lon="2.6805607"><ele>88.60</ele><time>2026-4-28T20:26:13Z</time></trkpt>
<trkpt lat="49.1286500" lon="2.6805759"><ele>89.52</ele><time>2026-4-28T20:26:16Z</time></trkpt>
<trkpt lat="49.1285941" lon="2.6805907"><ele>90.30</ele><time>2026-4-28T20:26:19Z</time></trkpt>
<trkpt lat="49.1285356" lon="2.6805924"><ele>90.58</ele><time>2026-4-28T20:26:22Z</time></trkpt>
<trkpt lat="49.1284838" lon="2.6806104"><ele>91.52</ele><time>2026-4-28T20:26:25Z</time></trkpt>
<trkpt lat="49.1284247" lon="2.6806544"><ele>91.60</ele><time>2026-4-28T20:26:28Z</time></trkpt>
<trkpt lat="49.1283661" lon="2.6807081"><ele>91.61</ele><time>2026-4-28T20:26:31Z</time></trkpt>
<trkpt lat="49.1283206" lon="2.6807799"><ele>91.61</ele><time>2026-4-28T20:26:34Z</time></trkpt>
<trkpt lat="49.1283047" lon="2.6808782"><ele>91.61</ele><time>2026-4-28T20:26:37Z</time></trkpt>
<trkpt lat="49.1282948" lon="2.6809582"><ele>90.91</ele><time>2026-4-28T20:26:40Z</time></trkpt>
<trkpt lat="49.1282783" lon="2.6810266"><ele>90.64</ele><time>2026-4-28T20:26:43Z</time></trkpt>
<trkpt lat="49.1282713" lon="2.6810993"><ele>89.91</ele><time>2026-4-28T20:26:46Z</time></trkpt>
<trkpt lat="49.1282576" lon="2.6811754"><ele>89.64</ele><time>2026-4-28T20:26:49Z</time></trkpt>
<trkpt lat="49.1282439" lon="2.6812693"><ele>90.31</ele><time>2026-4-28T20:26:52Z</time></trkpt>
<trkpt lat="49.1282239" lon="2.6813634"><ele>91.30</ele><time>2026-4-28T20:26:55Z</time></trkpt>
<trkpt lat="49.1282096" lon="2.6814306"><ele>92.28</ele><time>2026-4-28T20:26:58Z</time></trkpt>
<trkpt lat="49.1282024" lon="2.6815061"><ele>92.58</ele><time>2026-4-28T20:27:1Z</time></trkpt>
<trkpt lat="49.1281925" lon="2.6815782"><ele>93.31</ele><time>2026-4-28T20:27:4Z</time></trkpt>
<trkpt lat="49.1281789" lon="2.6816709"><ele>94.30</ele><time>2026-4-28T20:27:7Z</time></trkpt>
<trkpt lat="49.1281694" lon="2.6817493"><ele>95.30</ele><time>2026-4-28T20:27:10Z</time></trkpt>
<trkpt lat="49.1281656" lon="2.6818178"><ele>95.58</ele><time>2026-4-28T20:27:13Z</time></trkpt>
<trkpt lat="49.1281503" lon="2.6819172"><ele>95.40</ele><time>2026-4-28T20:27:16Z</time></trkpt>
<trkpt lat="49.1281245" lon="2.6820080"><ele>95.61</ele><time>2026-4-28T20:27:19Z</time></trkpt>
<trkpt lat="49.1281143" lon="2.6820767"><ele>95.61</ele><time>2026-4-28T20:27:22Z</time></trkpt>
<trkpt lat="49.1280995" lon="2.6821818"><ele>96.58</ele><time>2026-4-28T20:27:25Z</time></trkpt>
<trkpt lat="49.1280943" lon="2.6822651"><ele>96.61</ele><time>2026-4-28T20:27:28Z</time></trkpt>
<trkpt lat="49.1280812" lon="2.6823463"><ele>97.52</ele><time>2026-4-28T20:27:31Z</time></trkpt>
<trkpt lat="49.1280679" lon="2.6824417"><ele>96.69</ele><time>2026-4-28T20:27:34Z</time></trkpt>
<trkpt lat="49.1280591" lon="2.6825279"><ele>95.92</ele><time>2026-4-28T20:27:37Z</time></trkpt>
<trkpt lat="49.1280550" lon="2.6826279"><ele>95.43</ele><time>2026-4-28T20:27:40Z</time></trkpt>
<trkpt lat="49.1280488" lon="2.6827355"><ele>95.59</ele><time>2026-4-28T20:27:43Z</time></trkpt>
<trkpt lat="49.1280457" lon="2.6828706"><ele>96.10</ele><time>2026-4-28T20:27:46Z</time></trkpt>
<trkpt lat="49.1280483" lon="2.6829458"><ele>97.16</ele><time>2026-4-28T20:27:49Z</time></trkpt>
<trkpt lat="49.1280524" lon="2.6830173"><ele>97.47</ele><time>2026-4-28T20:27:52Z</time></trkpt>
<trkpt lat="49.1280559" lon="2.6830892"><ele>98.27</ele><time>2026-4-28T20:27:55Z</time></trkpt>
<trkpt lat="49.1280583" lon="2.6831684"><ele>99.21</ele><time>2026-4-28T20:27:58Z</time></trkpt>
<trkpt lat="49.1280602" lon="2.6832544"><ele>99.49</ele><time>2026-4-28T20:28:1Z</time></trkpt>
<trkpt lat="49.1280553" lon="2.6833391"><ele>99.57</ele><time>2026-4-28T20:28:4Z</time></trkpt>
<trkpt lat="49.1280488" lon="2.6834220"><ele>99.60</ele><time>2026-4-28T20:28:7Z</time></trkpt>
<trkpt lat="49.1280465" lon="2.6835113"><ele>98.91</ele><time>2026-4-28T20:28:10Z</time></trkpt>
<trkpt lat="49.1280465" lon="2.6836001"><ele>98.70</ele><time>2026-4-28T20:28:13Z</time></trkpt>
<trkpt lat="49.1280423" lon="2.6836968"><ele>98.64</ele><time>2026-4-28T20:28:16Z</time></trkpt>
<trkpt lat="49.1280368" lon="2.6838036"><ele>98.62</ele><time>2026-4-28T20:28:19Z</time></trkpt>
<trkpt lat="49.1280349" lon="2.6839143"><ele>97.91</ele><time>2026-4-28T20:28:22Z</time></trkpt>
<trkpt lat="49.1280257" lon="2.6840283"><ele>97.00</ele><time>2026-4-28T20:28:25Z</time></trkpt>
<trkpt lat="49.1280144" lon="2.6841353"><ele>96.03</ele><time>2026-4-28T20:28:28Z</time></trkpt>
<trkpt lat="49.1280151" lon="2.6842444"><ele>95.74</ele><time>2026-4-28T20:28:31Z</time></trkpt>
<trkpt lat="49.1280193" lon="2.6843583"><ele>95.65</ele><time>2026-4-28T20:28:34Z</time></trkpt>
<trkpt lat="49.1280290" lon="2.6844792"><ele>95.62</ele><time>2026-4-28T20:28:37Z</time></trkpt>
<trkpt lat="49.1280384" lon="2.6845977"><ele>94.91</ele><time>2026-4-28T20:28:40Z</time></trkpt>
<trkpt lat="49.1280444" lon="2.6847135"><ele>94.70</ele><time>2026-4-28T20:28:43Z</time></trkpt>
<trkpt lat="49.1280482" lon="2.6848277"><ele>94.64</ele><time>2026-4-28T20:28:46Z</time></trkpt>
<trkpt lat="49.1280553" lon="2.6849303"><ele>93.92</ele><time>2026-4-28T20:28:49Z</time></trkpt>
<trkpt lat="49.1280636" lon="2.6850347"><ele>93.70</ele><time>2026-4-28T20:28:52Z</time></trkpt>
<trkpt lat="49.1280714" lon="2.6851478"><ele>94.34</ele><time>2026-4-28T20:28:55Z</time></trkpt>
<trkpt lat="49.1280830" lon="2.6852650"><ele>94.53</ele><time>2026-4-28T20:28:58Z</time></trkpt>
<trkpt lat="49.1280901" lon="2.6853786"><ele>93.89</ele><time>2026-4-28T20:29:1Z</time></trkpt>
<trkpt lat="49.1281023" lon="2.6854682"><ele>93.69</ele><time>2026-4-28T20:29:4Z</time></trkpt>
<trkpt lat="49.1281221" lon="2.6855434"><ele>93.64</ele><time>2026-4-28T20:29:7Z</time></trkpt>
<trkpt lat="49.1281552" lon="2.6856122"><ele>93.62</ele><time>2026-4-28T20:29:10Z</time></trkpt>
<trkpt lat="49.1281770" lon="2.6856940"><ele>93.61</ele><time>2026-4-28T20:29:13Z</time></trkpt>
<trkpt lat="49.1281934" lon="2.6857840"><ele>92.91</ele><time>2026-4-28T20:29:16Z</time></trkpt>
<trkpt lat="49.1282033" lon="2.6858830"><ele>92.70</ele><time>2026-4-28T20:29:19Z</time></trkpt>
<trkpt lat="49.1281963" lon="2.6859930"><ele>91.94</ele><time>2026-4-28T20:29:22Z</time></trkpt>
<trkpt lat="49.1281953" lon="2.6860914"><ele>91.01</ele><time>2026-4-28T20:29:25Z</time></trkpt>
<trkpt lat="49.1281935" lon="2.6861766"><ele>90.73</ele><time>2026-4-28T20:29:28Z</time></trkpt>
<trkpt lat="49.1281894" lon="2.6862565"><ele>90.65</ele><time>2026-4-28T20:29:31Z</time></trkpt>
<trkpt lat="49.1281886" lon="2.6863577"><ele>90.61</ele><time>2026-4-28T20:29:34Z</time></trkpt>
<trkpt lat="49.1281671" lon="2.6864462"><ele>90.61</ele><time>2026-4-28T20:29:37Z</time></trkpt>
<trkpt lat="49.1281250" lon="2.6864916"><ele>91.52</ele><time>2026-4-28T20:29:40Z</time></trkpt>
<trkpt lat="49.1280745" lon="2.6865439"><ele>91.88</ele><time>2026-4-28T20:29:43Z</time></trkpt>
<trkpt lat="49.1280585" lon="2.6866429"><ele>91.62</ele><time>2026-4-28T20:29:46Z</time></trkpt>
<trkpt lat="49.1280494" lon="2.6867388"><ele>90.91</ele><time>2026-4-28T20:29:49Z</time></trkpt>
<trkpt lat="49.1280344" lon="2.6868371"><ele>90.64</ele><time>2026-4-28T20:29:52Z</time></trkpt>
<trkpt lat="49.1280145" lon="2.6869356"><ele>90.61</ele><time>2026-4-28T20:29:55Z</time></trkpt>
<trkpt lat="49.1279921" lon="2.6870340"><ele>90.61</ele><time>2026-4-28T20:29:58Z</time></trkpt>
<trkpt lat="49.1279744" lon="2.6871428"><ele>90.61</ele><time>2026-4-28T20:30:1Z</time></trkpt>
<trkpt lat="49.1279618" lon="2.6872584"><ele>90.61</ele><time>2026-4-28T20:30:4Z</time></trkpt>
<trkpt lat="49.1279493" lon="2.6873727"><ele>90.61</ele><time>2026-4-28T20:30:7Z</time></trkpt>
<trkpt lat="49.1279348" lon="2.6874531"><ele>90.61</ele><time>2026-4-28T20:30:10Z</time></trkpt>
<trkpt lat="49.1279191" lon="2.6875310"><ele>90.61</ele><time>2026-4-28T20:30:13Z</time></trkpt>
<trkpt lat="49.1279039" lon="2.6876057"><ele>90.61</ele><time>2026-4-28T20:30:16Z</time></trkpt>
<trkpt lat="49.1278838" lon="2.6876823"><ele>91.31</ele><time>2026-4-28T20:30:19Z</time></trkpt>
<trkpt lat="49.1278584" lon="2.6877497"><ele>90.82</ele><time>2026-4-28T20:30:22Z</time></trkpt>
<trkpt lat="49.1278281" lon="2.6878162"><ele>90.67</ele><time>2026-4-28T20:30:25Z</time></trkpt>
<trkpt lat="49.1278089" lon="2.6878829"><ele>90.63</ele><time>2026-4-28T20:30:28Z</time></trkpt>
<trkpt lat="49.1277908" lon="2.6879520"><ele>89.92</ele><time>2026-4-28T20:30:31Z</time></trkpt>
<trkpt lat="49.1277791" lon="2.6880210"><ele>89.70</ele><time>2026-4-28T20:30:34Z</time></trkpt>
<trkpt lat="49.1277586" lon="2.6880953"><ele>89.64</ele><time>2026-4-28T20:30:37Z</time></trkpt>
<trkpt lat="49.1277387" lon="2.6881680"><ele>88.92</ele><time>2026-4-28T20:30:40Z</time></trkpt>
<trkpt lat="49.1277157" lon="2.6882447"><ele>88.70</ele><time>2026-4-28T20:30:43Z</time></trkpt>
<trkpt lat="49.1276998" lon="2.6883185"><ele>88.64</ele><time>2026-4-28T20:30:46Z</time></trkpt>
<trkpt lat="49.1276754" lon="2.6883965"><ele>88.62</ele><time>2026-4-28T20:30:49Z</time></trkpt>
<trkpt lat="49.1276489" lon="2.6884768"><ele>87.91</ele><time>2026-4-28T20:30:52Z</time></trkpt>
<trkpt lat="49.1276155" lon="2.6885581"><ele>87.00</ele><time>2026-4-28T20:30:55Z</time></trkpt>
<trkpt lat="49.1275928" lon="2.6886368"><ele>86.73</ele><time>2026-4-28T20:30:58Z</time></trkpt>
<trkpt lat="49.1275767" lon="2.6887069"><ele>86.65</ele><time>2026-4-28T20:31:1Z</time></trkpt>
<trkpt lat="49.1275616" lon="2.6887829"><ele>86.62</ele><time>2026-4-28T20:31:4Z</time></trkpt>
<trkpt lat="49.1275344" lon="2.6888570"><ele>85.91</ele><time>2026-4-28T20:31:7Z</time></trkpt>
<trkpt lat="49.1275154" lon="2.6889301"><ele>85.70</ele><time>2026-4-28T20:31:10Z</time></trkpt>
<trkpt lat="49.1274891" lon="2.6890436"><ele>84.92</ele><time>2026-4-28T20:31:13Z</time></trkpt>
<trkpt lat="49.1274849" lon="2.6891427"><ele>84.64</ele><time>2026-4-28T20:31:16Z</time></trkpt>
<trkpt lat="49.1274560" lon="2.6892234"><ele>83.64</ele><time>2026-4-28T20:31:19Z</time></trkpt>
<trkpt lat="49.1274239" lon="2.6892885"><ele>82.91</ele><time>2026-4-28T20:31:22Z</time></trkpt>
<trkpt lat="49.1273993" lon="2.6893786"><ele>82.64</ele><time>2026-4-28T20:31:25Z</time></trkpt>
<trkpt lat="49.1273590" lon="2.6894835"><ele>81.70</ele><time>2026-4-28T20:31:28Z</time></trkpt>
<trkpt lat="49.1273199" lon="2.6895888"><ele>80.92</ele><time>2026-4-28T20:31:31Z</time></trkpt>
<trkpt lat="49.1273224" lon="2.6897246"><ele>79.73</ele><time>2026-4-28T20:31:34Z</time></trkpt>
<trkpt lat="49.1273295" lon="2.6897966"><ele>78.95</ele><time>2026-4-28T20:31:37Z</time></trkpt>
<trkpt lat="49.1273358" lon="2.6898686"><ele>78.01</ele><time>2026-4-28T20:31:40Z</time></trkpt>
<trkpt lat="49.1273414" lon="2.6899482"><ele>76.74</ele><time>2026-4-28T20:31:43Z</time></trkpt>
<trkpt lat="49.1273525" lon="2.6900411"><ele>76.61</ele><time>2026-4-28T20:31:46Z</time></trkpt>
<trkpt lat="49.1273057" lon="2.6901216"><ele>76.61</ele><time>2026-4-28T20:31:49Z</time></trkpt>
<trkpt lat="49.1272576" lon="2.6901456"><ele>76.61</ele><time>2026-4-28T20:31:52Z</time></trkpt>
<trkpt lat="49.1272049" lon="2.6901709"><ele>77.31</ele><time>2026-4-28T20:31:55Z</time></trkpt>
<trkpt lat="49.1271415" lon="2.6901960"><ele>77.58</ele><time>2026-4-28T20:31:58Z</time></trkpt>
<trkpt lat="49.1270749" lon="2.6902276"><ele>78.31</ele><time>2026-4-28T20:32:1Z</time></trkpt>
<trkpt lat="49.1270073" lon="2.6902716"><ele>78.58</ele><time>2026-4-28T20:32:4Z</time></trkpt>
<trkpt lat="49.1269238" lon="2.6903221"><ele>78.61</ele><time>2026-4-28T20:32:7Z</time></trkpt>
<trkpt lat="49.1268827" lon="2.6903509"><ele>78.61</ele><time>2026-4-28T20:32:10Z</time></trkpt>
<trkpt lat="49.1268101" lon="2.6903956"><ele>79.31</ele><time>2026-4-28T20:32:13Z</time></trkpt>
<trkpt lat="49.1267430" lon="2.6904557"><ele>79.58</ele><time>2026-4-28T20:32:16Z</time></trkpt>
<trkpt lat="49.1266761" lon="2.6905333"><ele>80.31</ele><time>2026-4-28T20:32:19Z</time></trkpt>
<trkpt lat="49.1266400" lon="2.6905792"><ele>80.52</ele><time>2026-4-28T20:32:22Z</time></trkpt>
<trkpt lat="49.1266049" lon="2.6906296"><ele>80.58</ele><time>2026-4-28T20:32:25Z</time></trkpt>
<trkpt lat="49.1265676" lon="2.6906877"><ele>79.90</ele><time>2026-4-28T20:32:28Z</time></trkpt>
<trkpt lat="49.1265402" lon="2.6907425"><ele>79.70</ele><time>2026-4-28T20:32:31Z</time></trkpt>
<trkpt lat="49.1265099" lon="2.6908040"><ele>79.64</ele><time>2026-4-28T20:32:34Z</time></trkpt>
<trkpt lat="49.1264880" lon="2.6908648"><ele>78.92</ele><time>2026-4-28T20:32:37Z</time></trkpt>
<trkpt lat="49.1264626" lon="2.6909291"><ele>78.00</ele><time>2026-4-28T20:32:40Z</time></trkpt>
<trkpt lat="49.1264276" lon="2.6910471"><ele>77.65</ele><time>2026-4-28T20:32:43Z</time></trkpt>
<trkpt lat="49.1263957" lon="2.6911572"><ele>76.91</ele><time>2026-4-28T20:32:46Z</time></trkpt>
<trkpt lat="49.1263444" lon="2.6912500"><ele>75.94</ele><time>2026-4-28T20:32:49Z</time></trkpt>
<trkpt lat="49.1262822" lon="2.6913366"><ele>75.64</ele><time>2026-4-28T20:32:52Z</time></trkpt>
<trkpt lat="49.1262144" lon="2.6914087"><ele>75.61</ele><time>2026-4-28T20:32:55Z</time></trkpt>
<trkpt lat="49.1261776" lon="2.6914507"><ele>74.91</ele><time>2026-4-28T20:32:58Z</time></trkpt>
<trkpt lat="49.1261391" lon="2.6914984"><ele>74.70</ele><time>2026-4-28T20:33:1Z</time></trkpt>
<trkpt lat="49.1261008" lon="2.6915474"><ele>74.64</ele><time>2026-4-28T20:33:4Z</time></trkpt>
<trkpt lat="49.1260595" lon="2.6915947"><ele>74.62</ele><time>2026-4-28T20:33:7Z</time></trkpt>
<trkpt lat="49.1260196" lon="2.6916456"><ele>74.61</ele><time>2026-4-28T20:33:10Z</time></trkpt>
<trkpt lat="49.1259839" lon="2.6917001"><ele>73.91</ele><time>2026-4-28T20:33:13Z</time></trkpt>
<trkpt lat="49.1259161" lon="2.6917899"><ele>73.64</ele><time>2026-4-28T20:33:16Z</time></trkpt>
<trkpt lat="49.1258788" lon="2.6918306"><ele>73.62</ele><time>2026-4-28T20:33:19Z</time></trkpt>
<trkpt lat="49.1258401" lon="2.6918748"><ele>73.61</ele><time>2026-4-28T20:33:22Z</time></trkpt>
<trkpt lat="49.1258019" lon="2.6919210"><ele>72.91</ele><time>2026-4-28T20:33:25Z</time></trkpt>
<trkpt lat="49.1257618" lon="2.6919714"><ele>72.70</ele><time>2026-4-28T20:33:28Z</time></trkpt>
<trkpt lat="49.1257303" lon="2.6920250"><ele>71.94</ele><time>2026-4-28T20:33:31Z</time></trkpt>
<trkpt lat="49.1256950" lon="2.6920792"><ele>71.71</ele><time>2026-4-28T20:33:34Z</time></trkpt>
<trkpt lat="49.1256647" lon="2.6921334"><ele>71.64</ele><time>2026-4-28T20:33:37Z</time></trkpt>
<trkpt lat="49.1256127" lon="2.6922360"><ele>72.52</ele><time>2026-4-28T20:33:40Z</time></trkpt>
<trkpt lat="49.1255675" lon="2.6923449"><ele>72.60</ele><time>2026-4-28T20:33:43Z</time></trkpt>
<trkpt lat="49.1255501" lon="2.6924683"><ele>73.52</ele><time>2026-4-28T20:33:46Z</time></trkpt>
<trkpt lat="49.1255449" lon="2.6925882"><ele>74.51</ele><time>2026-4-28T20:33:49Z</time></trkpt>
<trkpt lat="49.1255490" lon="2.6926872"><ele>74.60</ele><time>2026-4-28T20:33:52Z</time></trkpt>
<trkpt lat="49.1255534" lon="2.6927825"><ele>74.61</ele><time>2026-4-28T20:33:55Z</time></trkpt>
<trkpt lat="49.1255525" lon="2.6928573"><ele>74.40</ele><time>2026-4-28T20:33:58Z</time></trkpt>
<trkpt lat="49.1255463" lon="2.6929595"><ele>74.61</ele><time>2026-4-28T20:34:1Z</time></trkpt>
<trkpt lat="49.1255471" lon="2.6930575"><ele>73.70</ele><time>2026-4-28T20:34:4Z</time></trkpt>
<trkpt lat="49.1255389" lon="2.6931457"><ele>73.62</ele><time>2026-4-28T20:34:7Z</time></trkpt>
<trkpt lat="49.1254879" lon="2.6931730"><ele>73.61</ele><time>2026-4-28T20:34:10Z</time></trkpt>
<trkpt lat="49.1254287" lon="2.6931549"><ele>73.61</ele><time>2026-4-28T20:34:13Z</time></trkpt>
<trkpt lat="49.1253788" lon="2.6931283"><ele>73.40</ele><time>2026-4-28T20:34:16Z</time></trkpt>
<trkpt lat="49.1253279" lon="2.6931152"><ele>73.61</ele><time>2026-4-28T20:34:19Z</time></trkpt>
<trkpt lat="49.1252785" lon="2.6930627"><ele>73.61</ele><time>2026-4-28T20:34:22Z</time></trkpt>
</trkseg></trk></gpx>